GFSSW_sfc_wetblb_000.txt.gz
Wetbulb
56.38 56.29 56.37 56.63 56.95 57.04 56.78 56.77 56.76 56.97 57.35 57.90 58.48 58.38 58.60 58.94 58.58 59.21 54.05 59.26 61.15 67.71 67.63 65.92 63.95 63.11 63.13 61.60 62.42 61.36 53.64 51.33 52.88 53.32 54.74 57.74 55.41 55.64 55.68 54.48 54.94 56.32 56.32 57.86 59.58
55.53 55.83 55.95 56.07 56.08 56.12 56.11 56.12 56.28 56.62 57.35 57.78 57.53 58.07 58.52 58.48 57.26 54.25 60.86 64.43 66.38 68.13 63.08 62.12 60.54 61.51 59.94 59.97 60.20 56.92 52.30 52.40 55.69 57.06 56.33 57.28 56.49 56.60 53.53 53.72 53.89 54.97 56.74 57.11 58.27
54.62 54.95 55.30 55.44 55.58 55.61 55.40 55.51 55.69 55.91 56.21 56.49 56.69 57.47 58.29 58.94 54.79 53.01 67.45 65.67 67.26 67.88 61.93 62.71 61.87 60.66 57.68 58.89 57.79 55.94 52.11 54.89 55.61 57.61 57.64 56.25 55.85 56.41 54.05 53.15 55.18 54.60 56.63 57.14 57.75
54.11 54.17 54.13 54.23 54.55 54.76 54.87 54.81 55.03 55.12 55.35 55.36 55.81 57.45 58.09 58.16 45.91 59.77 69.30 67.73 67.44 64.66 59.95 60.57 59.23 57.71 56.15 55.21 57.28 53.25 54.69 55.43 56.23 57.32 55.90 54.80 56.23 54.02 54.13 55.40 56.70 56.85 57.37 58.08 57.58
54.01 53.93 54.04 53.83 53.95 54.07 54.34 54.30 54.59 54.74 54.72 54.95 55.58 56.96 57.66 52.48 49.83 60.81 69.10 68.48 65.37 60.77 57.49 57.57 56.94 56.54 53.87 55.60 55.94 53.94 54.39 55.95 57.04 56.52 55.33 55.12 53.91 53.46 54.31 56.19 56.95 56.92 57.29 57.47 58.01
53.82 53.84 53.84 53.66 53.78 53.91 54.40 54.44 54.32 54.54 54.10 54.74 55.76 56.74 54.79 46.82 55.60 56.36 57.83 57.83 57.80 60.58 57.95 57.80 57.97 58.54 56.20 55.82 54.71 55.69 55.33 55.41 56.04 55.06 54.23 52.90 53.25 52.79 55.06 56.31 56.26 56.27 56.81 57.33 57.66
54.24 53.88 53.77 53.69 53.72 53.72 54.16 54.07 53.62 53.76 53.88 55.19 56.27 56.99 52.03 49.80 55.33 59.06 61.95 61.72 59.72 59.18 57.29 57.98 59.78 57.55 57.24 55.14 57.28 56.21 52.86 54.50 54.19 54.01 53.04 53.50 51.42 51.69 56.09 56.17 54.92 55.82 56.72 57.07 57.89
54.09 54.04 53.77 53.67 53.66 53.58 53.72 53.91 53.68 53.54 54.14 55.59 57.59 57.11 49.54 55.44 57.48 55.76 56.25 57.55 61.13 61.53 59.63 60.41 60.09 58.30 56.59 57.93 55.22 52.78 53.17 49.76 54.35 53.14 52.80 52.19 47.87 53.17 56.26 55.07 54.96 55.84 56.05 56.20 57.39
54.29 53.91 53.75 53.88 53.77 53.51 53.80 53.47 53.19 53.54 54.61 57.45 57.15 55.70 49.10 57.14 53.63 55.71 56.27 52.89 54.52 57.20 58.25 60.08 59.43 56.79 56.44 53.22 51.62 52.31 47.79 49.95 51.70 54.61 52.95 52.02 50.80 53.94 55.93 55.22 55.01 55.83 56.16 55.88 56.89
54.56 53.95 53.64 53.88 53.22 53.58 53.24 53.16 53.44 54.40 58.06 58.75 57.95 51.65 53.13 50.88 53.60 55.40 56.94 54.54 54.54 54.11 57.21 57.02 56.38 53.67 53.68 52.12 46.50 48.29 48.57 49.66 49.70 52.83 52.45 51.76 51.38 53.61 54.97 54.95 55.01 55.90 56.42 56.14 56.39
53.51 54.37 54.07 53.83 53.98 53.43 51.58 51.76 51.64 53.06 54.72 50.24 51.08 49.42 50.37 53.06 55.23 54.26 57.09 53.57 54.24 56.09 51.93 55.17 51.55 49.50 51.93 53.46 53.18 51.46 49.96 49.39 51.82 53.22 51.49 51.97 52.16 53.09 54.82 54.98 55.21 56.06 56.27 56.43 56.67
52.21 53.33 54.13 53.80 53.82 53.25 51.64 47.55 48.47 48.20 45.35 52.36 53.02 52.85 53.45 54.16 50.40 52.53 57.90 51.53 51.41 50.06 53.41 52.48 49.43 53.44 54.33 53.99 52.18 51.27 49.81 49.76 52.00 52.99 51.80 51.41 50.51 52.99 54.22 54.43 55.94 56.33 56.64 56.58 57.21
52.31 52.75 53.12 53.68 53.33 51.94 49.80 48.90 52.19 51.61 45.85 47.56 50.36 50.89 51.96 53.52 50.26 51.76 55.16 52.66 50.28 50.00 51.34 50.26 51.53 54.38 53.29 52.12 50.68 50.69 49.65 49.85 49.48 51.97 52.18 50.67 49.07 51.47 53.45 54.75 55.77 56.64 57.75 57.82 57.56
52.02 52.27 52.62 53.02 49.05 52.13 48.19 51.31 52.61 51.91 42.53 45.05 46.67 49.66 51.65 51.86 48.61 53.84 56.09 53.21 51.76 49.48 51.64 51.70 53.96 52.66 51.88 50.97 51.52 48.28 52.12 50.83 49.92 48.71 44.78 50.53 42.97 49.43 51.86 52.41 54.27 56.14 56.73 57.52 57.50
51.69 51.47 52.31 51.75 50.39 48.51 49.79 53.22 52.20 51.26 34.45 47.90 49.03 55.04 52.14 49.30 49.54 49.96 55.24 54.33 49.61 50.14 52.35 50.37 51.89 51.17 50.22 50.74 52.19 49.55 52.40 51.16 50.49 48.54 48.05 47.61 45.34 48.30 50.90 50.11 51.71 53.86 57.15 57.65 58.00
50.64 51.33 51.73 50.36 50.60 52.24 53.33 52.17 51.05 41.47 34.08 44.42 49.23 48.10 48.14 48.92 49.14 51.07 50.96 54.36 54.40 51.01 52.62 52.10 55.06 53.73 52.45 52.30 52.24 52.73 50.65 50.40 50.06 48.28 42.60 46.77 45.87 45.73 49.14 49.58 51.76 54.13 56.89 57.81 57.38
49.63 50.80 50.74 50.56 44.70 53.42 52.96 48.41 39.35 36.05 46.64 43.77 45.58 48.10 47.55 46.31 47.35 48.94 47.43 46.90 46.79 45.39 46.86 50.18 50.91 53.60 53.83 50.38 52.43 51.65 49.15 43.07 41.79 42.07 40.85 47.28 44.47 47.03 50.94 52.20 53.59 54.55 55.89 57.77 57.60
49.99 50.71 50.21 49.72 49.67 51.83 49.30 40.81 33.79 41.50 43.70 47.50 47.23 47.95 45.73 47.77 47.07 47.72 46.99 45.06 49.00 49.30 47.42 45.49 43.96 50.81 53.02 50.69 49.31 49.55 49.38 44.00 37.40 39.34 42.47 46.70 42.69 48.14 52.11 54.42 56.54 57.34 58.43 58.42 57.38
49.69 48.70 48.93 50.66 50.44 48.60 42.27 33.07 37.00 42.36 46.50 45.73 45.62 44.95 45.31 47.25 47.35 47.18 46.98 45.87 47.92 50.44 46.72 46.17 46.17 52.30 52.87 52.68 52.09 49.43 46.68 51.19 45.92 46.77 42.80 45.10 47.56 51.76 53.23 54.16 55.79 56.64 57.13 57.03 57.26
46.41 45.29 46.42 51.81 52.13 44.68 36.78 34.38 39.66 45.21 46.21 47.11 42.72 45.85 43.88 45.50 45.17 46.42 46.19 48.66 47.48 50.15 53.01 49.98 45.60 50.20 51.69 52.90 52.57 51.12 52.14 45.03 46.34 38.91 37.87 43.08 44.30 46.41 49.44 52.66 56.68 56.64 56.83 57.10 57.57
44.02 40.10 47.83 52.28 49.96 39.20 31.96 35.12 39.99 45.23 46.60 44.70 44.42 44.62 45.77 45.91 46.42 45.84 46.58 48.11 49.41 48.88 52.03 51.65 49.35 48.32 50.36 49.15 48.14 48.84 48.04 48.85 48.97 46.66 41.24 40.05 44.42 52.21 51.56 54.89 56.53 58.33 57.88 57.47 57.57
42.79 35.06 49.15 50.41 35.91 35.33 33.35 38.82 40.93 41.75 44.26 43.60 45.85 46.37 46.23 46.98 46.56 46.64 46.19 48.33 50.34 50.71 47.63 51.82 49.50 45.88 46.77 51.41 52.36 51.50 49.12 49.66 44.79 43.56 45.85 45.03 45.07 53.94 54.53 57.77 59.04 59.49 58.38 58.48 58.74
38.65 39.07 49.26 46.33 31.34 32.13 38.27 38.81 41.42 40.25 40.35 41.74 42.62 46.71 48.56 46.82 45.12 47.75 48.25 50.37 50.45 50.10 49.27 51.61 47.77 43.00 44.67 49.03 51.65 48.61 49.96 50.52 50.54 49.89 45.62 43.07 45.09 54.70 56.56 57.31 59.13 59.78 58.72 58.08 58.56
41.50 32.39 39.47 39.02 39.87 37.70 35.61 35.13 34.73 42.01 40.44 41.19 41.05 43.69 44.91 45.83 48.76 47.02 47.49 49.62 50.43 50.76 53.46 53.16 49.57 46.40 43.00 46.00 48.80 46.94 48.06 49.89 49.77 45.75 45.88 46.39 47.93 51.88 54.00 55.56 58.07 59.76 59.45 58.49 58.39
41.56 35.93 38.03 33.44 32.52 37.10 36.50 36.60 34.94 34.54 40.78 42.19 40.81 42.49 44.82 43.41 45.27 45.73 48.53 48.99 49.97 52.47 53.01 53.23 46.84 48.10 48.17 48.66 49.37 48.37 47.72 48.57 47.88 48.97 46.06 47.91 48.53 51.50 53.91 55.53 57.31 60.36 59.68 58.23 57.73
36.06 36.01 36.71 37.47 37.04 35.60 35.88 34.75 34.69 36.28 37.39 38.22 38.61 40.58 44.09 43.41 46.03 44.79 47.71 48.81 48.04 51.08 50.75 53.72 47.14 48.67 46.67 48.03 48.14 46.79 48.63 49.27 49.08 49.31 49.31 49.65 49.35 54.88 55.98 56.32 57.91 59.55 59.07 58.14 57.69
40.73 40.78 37.02 36.14 34.84 33.05 33.12 35.30 35.95 38.83 40.01 41.74 41.00 40.86 41.32 44.55 47.03 49.39 50.30 49.87 50.97 50.63 50.64 50.48 48.37 47.04 43.15 46.95 46.53 44.13 47.49 48.92 49.74 50.93 50.67 47.56 51.55 54.66 54.54 56.14 57.98 59.55 59.38 59.00 59.00

GFSSW_sfc_wetblb_003.txt.gz
Wetbulb
55.56 55.89 56.09 56.33 56.56 56.64 56.56 56.56 56.69 56.92 57.35 57.68 57.85 58.49 58.57 58.92 58.35 60.12 54.67 60.43 62.88 67.55 68.09 66.88 65.41 64.58 64.80 61.86 62.46 62.16 54.87 52.66 53.54 53.54 55.12 58.20 56.87 58.79 58.91 57.11 56.88 57.17 57.08 58.99 61.56
54.91 54.93 55.01 55.40 55.49 55.77 55.88 55.92 56.12 56.26 56.92 57.04 57.37 57.64 58.33 58.50 58.06 55.24 62.12 64.33 67.54 68.41 64.90 63.73 61.90 62.49 60.43 59.82 59.97 58.07 54.52 53.75 56.32 56.46 55.75 57.08 57.54 58.01 57.16 56.63 55.84 56.53 58.49 59.08 60.14
54.65 54.71 54.88 54.88 54.96 55.24 55.23 55.35 55.61 55.87 56.09 56.62 56.82 57.19 57.84 58.58 56.15 55.42 68.60 65.52 67.39 67.94 62.77 64.82 63.67 61.72 58.70 59.88 59.12 58.27 54.66 56.54 55.91 56.29 57.08 56.87 56.56 58.34 56.15 54.57 56.41 55.05 56.63 58.89 59.48
54.51 54.70 54.58 54.67 54.57 54.55 54.76 55.05 55.22 55.45 55.55 55.60 55.89 57.10 57.81 58.39 46.80 61.10 68.18 67.63 67.93 63.76 60.39 59.42 60.22 58.39 57.77 56.58 59.23 55.76 57.46 56.84 55.26 55.87 56.86 56.34 57.64 56.04 56.29 56.29 57.75 57.31 57.23 58.65 58.89
54.54 54.30 54.29 54.44 54.48 54.45 54.60 54.50 54.61 54.64 54.69 54.79 55.55 56.61 57.91 54.19 52.24 60.64 69.44 67.20 61.76 59.04 58.31 57.42 57.42 57.85 56.28 57.67 57.81 55.98 55.87 56.35 56.42 56.54 57.63 57.80 55.76 55.76 55.98 57.59 57.78 57.69 57.76 57.89 58.96
54.85 54.47 54.24 54.19 54.31 54.34 54.78 54.89 54.79 54.71 54.19 54.50 55.68 56.97 55.31 47.69 56.47 58.39 61.63 63.61 63.38 60.12 58.06 58.41 58.52 59.87 57.55 56.86 55.83 57.40 57.09 56.19 56.75 56.67 57.61 55.23 55.79 55.35 56.85 57.38 56.28 57.30 57.68 57.79 57.51
55.05 54.97 54.71 54.36 54.29 54.54 54.96 54.67 54.46 54.32 54.03 54.96 56.00 57.23 53.53 50.68 57.30 58.02 56.85 56.64 57.83 57.97 58.23 58.50 58.91 57.68 57.70 55.26 57.99 57.40 54.15 55.43 56.06 56.26 55.77 56.78 53.33 54.31 57.12 57.95 56.88 56.55 57.15 57.91 59.09
55.39 54.70 54.81 54.64 54.83 54.68 54.83 54.67 54.28 54.13 54.53 55.01 56.03 57.12 51.34 56.70 58.68 56.37 58.19 59.85 60.75 61.13 57.76 60.18 59.13 57.27 57.75 58.55 56.35 54.41 54.51 51.12 55.26 56.15 56.18 54.89 50.23 56.15 58.23 57.61 56.76 56.99 57.65 58.09 59.07
54.39 54.88 55.05 54.75 54.86 54.60 54.39 54.09 53.92 54.27 54.68 56.00 57.52 56.29 50.16 59.27 55.03 56.11 56.94 54.10 55.42 58.34 59.60 59.32 58.94 55.30 56.31 53.49 51.71 53.20 49.14 50.87 52.24 56.56 55.43 54.20 51.60 55.89 58.10 57.50 56.66 57.18 57.61 57.91 58.53
53.14 53.46 54.46 55.03 54.70 54.41 54.03 53.66 54.51 53.27 57.40 58.81 57.71 53.15 55.18 51.40 54.49 56.12 57.29 55.53 53.97 54.48 56.25 55.52 55.79 52.76 53.16 51.97 46.17 49.41 50.48 51.57 50.96 54.68 55.53 53.65 53.02 55.95 57.43 57.03 56.71 57.01 57.80 58.24 58.52
52.40 52.86 53.25 54.11 54.64 54.01 52.89 54.62 52.82 52.36 55.15 50.60 51.67 50.57 51.40 54.48 55.31 54.06 56.17 55.03 54.33 52.55 49.03 53.55 51.41 48.79 51.44 53.30 53.22 52.67 51.72 50.87 53.20 55.09 54.09 53.36 53.27 55.15 57.43 57.09 56.43 56.69 57.07 58.58 59.13
51.90 52.46 52.90 53.12 53.76 54.09 53.95 50.31 52.02 52.39 48.63 55.81 54.72 53.83 54.90 54.68 51.43 52.68 57.53 51.84 50.67 48.53 50.61 52.50 49.45 53.00 54.04 53.67 52.78 52.75 51.16 50.84 53.05 54.91 54.25 53.42 52.78 55.14 55.49 55.56 56.38 56.56 57.10 58.52 59.54
51.01 51.35 52.04 52.91 53.41 52.63 52.07 52.69 55.74 54.71 47.31 49.09 52.18 53.07 52.78 53.99 50.94 52.25 54.19 52.95 49.53 48.20 49.99 49.98 52.14 54.05 52.95 52.56 51.87 52.23 50.94 50.86 50.83 53.64 54.87 52.98 50.83 52.68 55.20 56.11 56.57 56.81 57.94 59.21 59.78
50.50 51.12 51.94 52.40 49.36 53.12 51.67 55.37 55.13 54.60 43.23 46.44 48.91 51.13 52.95 53.53 49.61 54.58 55.58 53.93 50.78 47.72 50.22 51.37 54.20 52.98 51.74 51.53 52.78 49.73 53.32 52.17 51.34 50.52 46.91 52.81 44.59 50.94 53.38 53.45 54.84 55.98 57.20 58.36 59.86
51.10 50.02 51.23 51.25 49.21 51.40 52.79 55.26 54.56 52.80 34.99 49.95 50.80 55.56 53.67 50.61 50.77 51.12 55.33 53.97 49.56 49.27 50.43 49.19 51.29 51.57 50.65 51.64 53.99 51.02 53.78 52.29 52.03 50.15 49.58 49.22 46.75 49.82 53.09 51.27 52.44 54.66 56.70 58.64 60.32
51.25 50.19 50.98 50.52 51.47 52.94 55.36 54.17 51.95 41.85 35.03 46.68 51.08 49.57 49.35 49.88 50.55 52.72 51.34 54.62 54.26 50.37 51.32 50.75 54.62 53.76 53.13 54.09 54.21 54.58 52.24 51.76 51.55 49.97 43.70 47.77 47.28 47.58 49.77 50.62 52.10 54.34 55.91 59.25 59.91
51.90 50.91 50.13 51.37 48.87 53.65 54.32 50.33 38.66 36.10 47.38 46.29 47.62 50.02 48.88 47.84 48.47 49.89 47.99 48.33 47.96 45.19 46.71 49.81 50.96 53.96 55.29 52.54 54.03 52.28 49.97 43.87 42.61 43.54 42.49 49.80 47.05 48.82 52.18 52.63 53.39 54.33 57.35 59.57 60.01
52.02 51.04 49.82 50.83 53.96 52.03 50.26 42.18 33.15 41.51 44.55 49.76 49.24 49.27 46.77 49.09 48.19 48.72 47.69 46.44 50.50 49.87 48.13 46.12 44.89 51.84 54.79 53.15 50.54 50.33 49.80 44.74 38.76 41.16 44.33 49.38 44.59 48.95 53.09 54.03 55.02 55.97 58.23 60.55 59.60
50.87 49.01 48.27 50.33 52.59 50.26 43.45 34.28 36.23 42.80 47.10 46.87 48.57 46.57 46.74 48.83 48.50 48.41 47.77 47.08 49.40 51.43 47.41 46.94 47.40 52.95 53.97 54.48 53.43 50.25 47.45 51.77 47.32 47.85 44.55 47.12 49.64 52.56 52.89 53.70 55.80 56.41 58.89 59.87 59.64
47.91 44.52 43.99 50.09 52.52 47.85 37.16 33.72 39.36 44.71 45.91 48.01 44.30 47.47 45.48 47.18 47.12 47.34 47.68 49.99 48.92 51.31 53.56 51.91 47.21 51.78 52.85 54.33 53.81 52.07 53.13 46.92 47.78 40.47 39.47 45.06 46.50 47.61 50.91 52.65 57.11 57.67 58.77 59.39 59.39
45.48 39.90 47.88 50.77 51.37 41.42 30.93 35.67 40.12 45.11 46.29 43.97 44.34 45.69 47.47 47.40 48.01 47.45 47.68 50.24 51.08 50.53 52.62 52.16 51.16 50.10 52.66 50.81 49.49 49.19 48.20 50.02 50.24 47.70 42.41 41.60 45.52 53.57 52.59 55.39 56.78 58.61 59.36 58.85 58.90
42.53 37.47 50.53 50.94 37.78 36.56 33.11 38.71 41.60 42.30 45.05 44.31 44.79 44.28 45.33 48.51 48.22 47.75 47.56 50.04 52.63 52.45 48.87 52.72 51.87 48.06 49.16 53.40 54.15 52.44 49.83 50.59 45.83 44.77 47.42 46.87 47.97 54.74 55.09 57.09 57.97 58.69 59.20 59.03 59.39
41.17 42.47 50.78 49.44 33.68 35.65 39.43 39.30 40.25 41.44 41.73 42.32 42.51 44.57 47.03 46.02 45.06 49.26 49.74 52.56 52.54 51.93 51.12 53.49 50.28 46.08 47.69 50.45 52.80 50.14 50.78 51.00 51.75 51.22 47.06 44.34 46.29 54.98 56.04 56.73 57.82 58.68 59.32 58.76 59.20
40.57 36.56 41.26 43.74 39.28 36.56 37.21 37.69 36.76 42.99 42.23 42.61 43.14 44.29 43.16 43.63 48.46 48.10 49.33 51.63 52.78 52.12 54.84 55.87 52.17 48.81 45.16 47.99 50.23 47.92 49.09 50.79 50.48 46.81 46.92 47.53 49.23 52.49 54.50 55.25 57.61 58.89 60.08 59.21 59.26
42.29 38.13 40.68 33.81 36.32 37.65 36.60 37.15 36.46 36.70 41.36 43.76 41.40 42.16 42.39 42.75 46.37 47.28 49.71 50.94 51.74 53.41 54.55 55.74 49.37 50.02 50.32 50.73 50.33 49.74 48.91 49.05 48.78 49.38 47.20 49.13 49.63 52.74 54.87 55.54 57.34 59.60 60.45 59.39 58.68
37.83 38.93 42.00 39.06 38.36 36.88 36.95 35.49 35.56 37.00 39.33 39.15 39.07 41.91 43.18 42.65 46.29 45.05 48.18 50.29 49.75 51.53 51.84 55.48 50.06 50.36 47.84 49.77 50.09 48.65 50.00 50.04 49.53 50.06 50.06 50.76 50.90 55.47 56.38 56.81 57.32 59.35 59.62 59.35 59.02
45.03 44.34 39.69 34.92 37.93 35.30 35.02 36.50 37.00 39.25 40.37 41.58 41.42 41.38 40.76 43.40 44.52 48.04 49.68 50.88 52.79 50.67 52.28 51.84 50.29 48.75 44.85 48.49 48.19 46.24 49.31 49.94 50.20 50.73 51.14 48.43 52.61 55.61 54.92 55.65 56.68 58.42 59.37 59.69 60.14

GFSSW_sfc_wetblb_006.txt.gz
Wetbulb
55.25 55.25 55.36 55.50 55.51 55.61 55.93 56.09 56.26 56.51 56.93 57.04 57.27 57.61 57.94 58.57 57.89 58.70 54.39 57.84 61.17 66.93 67.39 64.93 64.44 64.57 64.75 62.12 62.31 61.80 53.81 51.38 52.82 53.06 53.85 57.43 56.32 59.22 60.34 57.26 57.69 57.76 56.62 59.02 61.87
54.98 55.12 55.34 55.29 55.35 55.23 55.42 55.56 55.76 55.94 56.18 56.55 56.63 56.87 57.70 57.95 56.17 54.18 61.44 65.68 67.71 68.06 62.18 62.66 62.15 63.25 60.73 59.80 59.79 57.14 53.35 53.08 56.93 56.58 54.64 56.14 56.22 57.15 56.45 56.70 56.61 56.74 58.40 59.75 60.36
55.14 55.14 55.10 55.13 55.22 55.01 54.92 55.10 55.44 55.57 55.69 55.77 55.91 56.60 57.34 57.56 53.99 53.11 67.58 67.18 67.30 67.55 60.00 62.44 63.38 62.14 58.56 59.26 58.23 57.13 53.59 56.30 57.16 58.11 56.90 55.22 55.18 57.49 55.83 54.35 56.46 55.50 56.86 58.56 58.52
55.31 55.08 55.08 55.01 54.93 55.11 54.93 54.89 54.95 55.03 55.20 55.05 55.14 56.46 57.51 56.63 45.34 59.38 68.40 68.48 68.23 63.11 58.84 57.57 58.98 58.47 57.23 56.05 58.30 54.66 57.27 57.41 57.64 58.33 56.21 53.99 55.62 56.08 56.22 56.42 58.38 57.74 57.90 58.79 59.04
55.28 55.04 55.20 54.95 54.70 55.10 55.20 54.90 54.79 54.97 54.83 54.49 54.89 56.06 56.16 50.69 50.70 58.32 68.00 67.58 63.63 58.30 56.23 55.46 55.74 58.02 55.42 56.66 57.37 56.16 56.94 57.65 58.20 57.37 56.44 55.84 54.97 56.17 55.83 58.09 58.71 57.97 57.78 57.82 59.36
56.11 55.93 55.64 55.53 55.33 55.27 55.18 54.93 54.94 55.04 54.92 54.55 55.07 55.62 53.82 46.17 55.26 56.69 58.26 62.36 59.17 56.67 55.23 56.28 55.39 57.15 55.80 55.59 55.41 57.61 57.44 56.83 57.24 56.66 56.56 54.59 55.33 56.16 56.87 58.50 57.38 57.07 57.04 57.68 58.39
54.62 55.43 55.81 55.46 55.36 55.26 55.01 54.38 54.31 54.78 54.61 54.81 55.32 55.19 51.11 49.27 56.49 57.88 57.46 57.49 61.34 59.06 55.45 56.31 57.26 55.98 56.47 54.58 58.09 56.94 53.95 55.02 55.63 55.87 54.85 56.53 53.32 53.82 57.19 58.23 57.25 57.32 58.01 58.56 59.11
53.87 54.05 54.48 55.13 55.71 55.33 55.27 54.78 54.46 54.67 54.77 55.22 55.47 53.47 47.52 55.64 57.52 55.47 55.97 55.89 56.47 57.54 58.75 59.91 59.37 56.10 55.00 56.86 55.57 53.13 53.51 49.28 54.24 55.70 55.93 55.32 49.72 55.16 57.61 57.84 57.48 57.41 57.62 58.30 59.66
53.49 53.24 53.63 53.36 54.06 55.24 54.90 54.59 54.87 54.61 55.41 55.67 52.68 50.39 46.14 57.80 53.88 55.95 57.19 54.00 57.36 58.64 58.80 58.39 56.24 55.19 53.79 50.57 49.72 51.72 47.65 48.90 51.26 55.58 54.98 54.23 51.36 55.38 57.64 57.70 57.96 58.11 58.44 58.38 59.50
51.78 53.19 53.17 53.51 53.29 54.33 54.20 54.46 54.47 55.21 55.19 56.33 53.47 49.34 53.80 52.15 53.73 56.21 56.61 55.51 53.01 54.29 53.08 54.15 53.37 51.32 51.47 49.12 43.61 47.19 47.92 49.34 49.76 53.70 54.34 53.05 52.71 55.41 57.17 56.75 58.09 58.63 58.69 59.04 59.33
50.87 51.80 53.05 53.58 53.61 53.21 52.21 53.13 51.28 51.25 50.86 50.16 50.48 48.78 52.11 56.79 57.82 54.06 56.06 53.79 53.25 51.42 47.26 51.13 48.89 46.99 49.60 51.12 50.46 50.66 49.62 49.52 52.84 54.87 53.33 53.10 54.18 55.24 56.77 56.71 57.16 58.40 59.32 60.08 60.20
51.86 50.65 51.07 52.57 52.99 53.09 51.61 48.01 51.40 52.62 46.54 52.45 53.26 52.35 53.21 54.50 50.44 52.04 55.86 50.96 49.71 46.16 48.87 47.77 47.41 50.60 52.10 51.99 50.22 49.81 49.19 49.41 52.23 54.07 53.18 52.43 52.53 55.03 56.03 56.82 57.22 56.99 57.89 59.55 60.42
52.90 51.61 50.41 51.53 52.66 50.68 48.75 49.52 55.04 55.39 46.04 48.19 52.03 53.21 53.60 53.92 50.86 50.97 52.44 51.46 48.72 46.07 46.47 45.05 47.88 51.80 51.29 50.24 48.85 49.97 49.21 49.68 49.92 52.61 53.74 52.43 51.11 53.26 55.42 56.93 57.20 58.17 59.25 59.90 60.40
53.28 52.39 50.83 51.07 48.25 52.07 51.27 55.10 56.70 55.16 40.20 43.19 47.20 49.84 52.73 54.81 49.84 54.47 54.78 52.00 49.66 46.28 46.99 46.96 49.62 50.24 50.24 49.23 50.65 47.83 52.07 51.68 51.13 49.60 45.56 52.33 44.51 51.93 53.56 54.44 55.47 55.70 57.90 58.53 60.47
53.05 52.59 51.47 49.90 49.04 47.84 52.16 55.26 55.06 52.33 30.67 48.14 47.94 55.10 52.57 51.06 51.42 51.36 55.07 52.21 48.57 47.67 47.73 45.68 47.83 48.25 49.82 50.03 51.94 49.97 53.04 52.12 51.68 49.72 48.87 48.41 45.86 48.81 53.43 52.24 53.59 54.56 56.36 58.78 60.64
52.58 52.49 51.98 48.94 48.97 50.56 52.52 55.23 51.91 38.17 30.47 45.00 51.12 48.76 48.43 49.59 50.72 52.26 51.68 53.28 52.15 49.19 49.29 47.64 51.60 51.41 51.28 53.36 53.01 53.37 51.90 51.82 51.24 49.01 43.73 47.53 46.57 46.67 49.81 51.14 52.46 53.92 55.49 58.98 60.05
52.16 52.20 51.50 51.24 45.64 52.56 53.28 49.18 36.33 31.45 44.48 44.26 47.52 48.77 47.83 47.11 47.94 49.32 48.02 47.28 46.29 43.67 44.90 47.37 47.41 50.88 52.94 50.50 53.18 51.99 50.43 43.41 41.81 41.55 41.08 48.47 46.30 48.69 53.44 53.64 52.97 53.33 57.31 59.82 60.51
51.96 51.59 51.13 51.82 51.01 50.87 48.39 40.55 29.55 37.69 39.23 48.84 48.92 48.87 46.04 48.49 47.51 47.88 47.20 45.34 49.15 47.88 45.40 43.55 41.84 48.13 51.94 51.11 49.75 50.75 50.60 44.16 37.73 39.23 42.30 49.88 44.91 48.62 53.52 54.63 54.67 55.22 58.35 60.41 59.99
50.29 50.35 49.47 51.51 51.55 49.05 41.73 30.44 32.85 37.94 43.46 42.98 45.43 43.88 46.43 48.17 48.09 47.30 47.61 46.55 48.29 49.96 45.20 44.81 44.24 50.66 51.26 53.04 52.84 50.57 47.41 51.15 46.11 46.87 43.41 46.11 49.92 53.31 54.47 53.02 54.05 55.18 58.84 60.01 60.19
48.94 46.84 46.33 52.34 51.11 46.78 37.32 31.43 37.17 42.32 42.64 42.76 38.60 43.56 41.21 46.21 46.45 46.68 47.16 49.44 48.17 50.56 53.10 49.63 45.57 50.34 50.70 53.61 53.82 52.66 52.79 45.95 46.32 39.32 38.54 43.76 45.85 46.88 50.57 52.08 55.35 57.12 58.59 60.30 60.46
48.07 39.58 47.35 52.46 51.24 41.08 31.72 33.97 38.26 42.82 43.26 39.80 39.55 40.36 41.64 41.27 45.46 46.50 46.83 48.98 50.03 49.84 52.01 51.82 51.13 49.30 51.46 50.43 49.26 50.05 48.96 49.59 49.50 46.75 41.63 40.42 44.45 54.66 53.72 56.93 57.34 57.07 59.55 59.98 59.39
42.49 35.39 50.17 50.63 37.42 36.05 33.65 38.07 40.39 40.29 42.99 41.43 41.53 41.14 40.68 43.05 42.75 43.78 47.15 49.75 51.76 51.75 48.88 51.92 51.19 47.08 48.83 52.51 53.93 52.71 50.37 51.03 45.56 44.73 46.69 45.71 45.49 56.06 57.00 56.65 59.10 58.08 59.34 59.27 59.48
41.33 42.59 51.22 47.51 32.56 33.16 38.70 37.95 39.31 39.29 39.67 39.43 39.54 41.48 43.50 41.41 39.52 45.80 48.29 52.12 52.56 51.65 50.93 52.28 48.72 45.52 47.28 50.98 52.96 50.41 51.59 51.84 52.40 52.06 47.21 42.83 45.46 56.28 56.08 56.73 57.55 59.07 58.85 58.80 59.37
42.76 34.81 43.61 45.44 42.82 37.60 35.63 36.09 35.78 42.05 40.89 40.50 39.95 41.35 40.68 39.90 43.92 43.05 46.64 51.53 52.22 52.75 54.17 54.55 50.56 47.76 45.26 48.50 51.19 49.13 50.10 50.70 50.06 46.72 46.04 46.58 48.59 52.76 53.88 54.72 56.35 59.23 59.36 58.80 59.22
43.25 38.42 40.96 34.84 36.76 36.48 35.25 36.49 34.05 33.51 41.42 41.86 39.54 39.46 38.93 37.34 40.13 43.06 44.75 43.98 49.10 53.76 54.48 54.17 46.86 50.74 50.23 50.57 50.70 49.93 49.09 49.30 48.82 49.68 46.26 48.59 49.02 52.33 55.12 55.64 57.09 59.81 59.68 58.60 58.46
38.78 39.15 41.22 39.67 39.02 36.00 36.28 35.81 35.02 36.90 38.80 37.68 37.42 40.25 40.38 37.93 39.82 39.38 41.46 43.46 43.89 46.34 52.51 55.36 47.61 50.48 47.65 49.95 50.37 48.52 49.83 49.77 49.83 49.48 49.38 49.90 50.15 55.75 57.44 57.33 57.27 59.02 59.13 58.28 58.57
46.15 45.67 40.92 36.96 37.13 35.63 36.17 36.48 36.71 38.52 40.59 41.61 40.75 39.32 37.78 39.86 43.85 45.39 46.56 46.66 47.09 45.49 46.77 53.08 49.96 48.01 45.70 48.92 48.66 46.03 49.41 49.91 50.34 51.34 51.02 48.06 52.34 55.75 55.25 55.86 57.33 59.70 59.71 59.61 59.58

GFSSW_sfc_wetblb_009.txt.gz
Wetbulb
55.53 55.48 55.53 55.60 55.97 55.65 55.61 55.78 56.09 56.26 56.39 56.63 56.92 57.42 57.45 58.06 57.71 55.60 52.43 55.29 57.65 65.02 66.60 63.21 63.41 61.82 60.85 59.30 60.45 60.11 48.71 47.40 49.06 50.07 52.02 54.06 52.06 55.75 57.75 55.06 55.96 55.49 54.51 58.27 59.70
55.77 55.62 55.51 55.38 55.43 55.74 55.35 55.39 55.54 55.83 55.96 56.16 56.17 56.39 57.12 57.82 53.53 51.25 58.44 64.22 64.50 67.14 60.30 60.08 58.72 59.67 56.92 57.43 58.28 55.01 49.33 50.10 54.49 54.67 53.49 53.48 52.45 53.07 54.57 54.32 54.88 55.20 57.30 59.68 59.41
55.67 55.61 56.10 55.88 55.37 55.66 55.46 55.06 55.27 55.47 55.48 55.55 55.57 55.96 56.85 56.84 51.19 49.55 68.15 65.94 65.76 67.12 58.00 57.88 60.35 59.38 55.58 57.83 57.03 55.50 50.48 53.91 54.95 56.57 56.42 54.84 52.08 53.50 52.64 52.08 55.11 53.27 55.14 56.52 56.80
55.44 55.99 55.79 56.15 55.41 55.82 55.52 54.82 54.94 55.10 55.38 55.30 55.17 55.72 56.60 54.25 39.82 55.25 68.40 68.27 67.49 64.11 57.58 55.45 54.97 54.08 54.35 53.88 57.32 52.78 55.08 55.53 55.64 56.83 56.02 53.61 54.00 52.97 53.43 54.03 57.17 56.33 56.66 55.81 55.11
54.34 54.62 55.21 56.32 56.11 55.75 55.41 55.53 54.89 54.53 54.70 54.76 55.10 55.45 52.94 47.92 47.64 55.87 68.42 67.92 65.81 61.56 55.57 53.24 50.64 51.07 49.69 54.78 55.78 53.91 55.15 56.40 56.89 57.06 54.39 54.71 53.40 53.70 53.28 56.62 58.16 56.22 55.78 55.19 54.47
54.03 53.85 54.03 54.92 56.09 55.79 55.40 55.11 55.07 54.93 55.12 54.66 55.01 55.35 50.79 41.57 52.39 54.50 54.15 58.39 59.68 56.81 54.76 53.73 51.49 52.78 51.19 53.02 53.34 55.58 55.11 55.44 56.56 56.09 54.25 53.34 54.27 54.34 54.51 57.25 56.31 54.70 53.79 53.97 53.94
53.32 53.67 53.64 53.78 54.54 55.29 55.71 55.06 54.52 54.84 55.14 55.16 55.68 53.20 46.85 44.96 54.28 55.16 53.74 51.97 56.92 56.16 53.11 54.18 54.67 52.34 51.78 49.49 52.94 52.80 50.27 52.36 53.88 54.48 52.83 55.00 51.63 51.70 55.21 55.74 54.77 53.86 54.00 54.00 54.64
51.91 52.64 53.17 53.16 53.36 54.07 54.64 54.92 54.61 55.05 55.23 55.77 55.98 50.64 41.97 51.67 54.10 52.27 53.02 52.01 53.81 57.70 56.13 56.29 54.97 51.89 50.30 51.51 51.19 48.71 49.34 46.32 51.39 53.08 54.11 52.59 47.23 52.64 55.27 54.24 53.87 55.01 55.09 55.12 54.75
52.82 51.97 52.05 52.66 53.12 53.41 53.94 53.81 53.80 54.16 54.98 55.63 51.29 46.77 40.02 53.65 49.98 52.92 54.33 51.33 52.32 53.54 58.10 58.65 54.88 50.02 50.18 46.67 44.54 46.33 42.01 44.63 48.51 53.50 52.89 51.37 48.68 53.35 55.21 54.14 53.15 54.47 54.84 55.48 54.53
53.48 52.90 52.01 51.80 52.41 53.29 53.21 53.07 52.79 53.83 53.37 54.30 52.17 43.35 47.18 47.28 50.07 53.37 53.81 53.84 51.82 51.89 51.46 49.90 48.36 45.47 45.58 44.81 38.77 41.22 42.68 46.33 46.65 51.07 51.52 50.27 50.76 52.63 54.37 53.69 53.17 53.47 54.60 55.10 55.88
53.40 53.38 52.59 51.88 51.69 52.26 50.81 46.82 45.23 46.38 48.47 45.83 46.05 44.31 49.25 53.38 56.55 53.65 55.07 52.52 51.74 49.24 43.95 49.66 42.63 41.41 45.17 46.27 47.71 46.35 45.76 45.64 49.31 52.16 50.60 50.54 50.76 52.14 53.65 53.56 52.35 52.76 53.91 54.77 54.95
52.96 53.19 52.88 52.47 51.42 51.82 49.16 42.23 45.29 46.46 40.83 49.10 48.98 48.94 49.88 51.64 47.85 51.54 54.27 49.21 47.00 43.24 45.58 43.56 40.68 45.44 49.41 48.54 47.58 47.25 44.89 44.72 48.38 51.33 50.98 50.65 49.91 51.96 54.18 52.72 52.73 52.98 52.83 52.36 54.46
52.76 53.25 53.11 52.45 51.70 48.06 44.99 44.69 49.53 48.18 40.63 45.40 48.96 48.55 49.94 51.95 47.60 48.72 52.20 49.32 45.94 43.17 43.37 40.68 43.46 47.48 48.89 47.51 46.54 46.83 45.10 44.84 45.34 49.72 50.77 48.39 45.64 48.59 52.78 53.16 53.85 54.06 53.62 54.74 54.65
52.50 52.64 53.07 52.46 46.27 45.75 45.55 51.48 51.60 50.20 35.67 38.35 43.86 46.81 49.54 51.68 47.97 53.60 53.57 49.80 46.75 43.18 43.93 42.44 46.08 46.17 46.62 46.27 47.47 43.53 49.25 48.32 47.47 46.44 40.80 48.55 37.29 45.16 49.06 49.80 52.02 53.12 52.19 53.95 54.80
52.44 52.37 52.58 51.70 43.53 40.95 46.80 49.21 51.51 49.77 21.93 42.39 43.58 51.86 49.10 48.08 50.53 50.72 54.17 50.50 44.59 44.96 44.74 41.94 43.69 43.96 43.71 46.63 48.90 46.08 49.97 48.47 48.38 46.07 43.84 43.84 39.01 42.62 48.07 47.93 49.91 49.81 52.09 54.29 55.29
52.15 52.23 52.15 49.31 47.32 45.02 47.46 49.85 47.85 32.93 23.09 39.53 47.04 45.14 44.20 46.98 49.00 51.93 49.82 51.61 49.44 45.94 46.06 44.93 48.29 46.35 45.21 47.51 49.85 50.91 48.51 48.12 47.78 45.57 36.35 42.71 41.50 42.15 45.16 48.20 48.59 50.02 51.75 55.13 55.10
51.67 51.79 50.84 50.20 44.32 49.00 48.74 45.00 32.15 27.00 39.98 38.88 42.27 45.00 44.10 43.21 45.55 47.95 45.68 44.10 41.75 39.14 40.03 44.27 44.40 47.25 48.28 45.27 47.91 48.97 43.95 37.44 33.82 34.05 33.36 44.53 41.62 43.31 48.21 50.90 49.94 51.60 53.66 54.45 55.52
51.57 51.25 49.70 49.59 49.54 49.57 45.97 37.30 25.87 33.39 34.07 41.40 40.49 41.81 40.08 44.73 43.80 45.46 44.89 41.42 44.75 43.66 39.94 38.58 37.27 44.41 47.64 45.58 44.78 45.14 44.53 38.07 30.81 32.27 36.45 45.18 39.99 44.59 51.65 52.63 52.23 54.85 55.08 55.34 54.70
50.49 47.21 46.43 48.08 49.84 48.75 39.87 29.17 27.76 33.05 38.27 38.52 38.37 36.33 39.19 42.10 44.29 44.12 43.53 42.42 44.21 44.66 39.14 38.84 39.52 47.43 47.85 48.10 47.61 45.01 42.95 46.36 40.03 40.53 36.72 40.24 44.94 50.21 51.27 49.65 51.52 54.37 54.68 53.19 53.84
46.84 45.37 44.04 49.07 50.02 45.16 35.09 30.12 32.42 38.64 39.61 39.02 32.12 36.48 32.47 36.21 38.09 40.30 42.64 45.97 44.94 46.66 46.92 42.95 37.70 46.16 47.20 48.13 48.01 46.80 48.89 41.16 38.41 32.65 29.76 38.65 40.86 41.81 46.06 47.60 52.52 53.29 52.87 53.35 53.91
45.74 40.22 45.32 48.76 48.07 39.74 30.51 31.20 35.57 39.98 39.79 36.22 34.40 33.55 34.95 34.51 37.55 37.57 40.85 46.12 48.02 46.62 46.77 45.66 42.16 43.25 46.37 43.99 42.93 44.56 44.89 42.98 41.61 39.12 33.18 32.29 37.66 47.35 47.70 52.09 51.74 53.57 54.21 53.92 53.98
42.57 34.73 47.59 48.43 36.64 35.21 33.13 34.46 39.27 38.24 40.89 38.53 38.16 36.77 34.87 36.88 35.70 36.30 38.47 44.63 49.13 48.46 43.71 45.83 42.01 39.41 43.70 47.91 48.58 47.72 45.12 43.67 40.37 37.30 39.99 38.42 39.12 52.85 52.89 53.59 53.33 54.79 55.11 53.61 53.89
39.33 38.93 47.60 45.65 31.95 31.40 34.56 35.47 37.74 36.82 37.35 37.30 36.56 38.58 38.95 35.61 33.12 37.82 41.59 46.69 48.01 45.84 45.37 45.90 41.87 36.24 39.61 44.07 47.23 46.39 47.74 46.64 44.17 42.40 39.31 37.05 38.45 51.07 53.29 54.47 55.45 54.01 54.89 54.75 53.72
39.84 32.41 38.79 42.43 39.08 35.02 33.11 32.71 32.55 39.39 38.28 38.53 37.59 39.22 36.58 35.64 38.49 36.50 38.96 44.73 46.20 47.09 51.75 50.15 42.12 40.16 37.84 41.47 45.78 44.86 46.92 47.38 44.44 39.22 40.72 42.68 42.87 47.81 51.03 52.29 53.46 53.91 53.78 53.94 53.58
39.56 35.00 38.13 30.59 33.12 34.26 34.56 33.84 31.47 31.47 37.38 38.52 35.71 37.49 36.01 33.02 34.65 35.48 39.11 40.49 44.13 48.42 44.08 45.69 40.83 43.77 44.99 46.58 47.39 47.34 47.27 47.33 45.09 44.60 42.13 43.64 44.44 47.85 49.92 50.67 53.96 54.50 54.08 54.28 53.42
36.61 36.81 38.25 34.57 36.30 34.18 34.07 32.43 32.55 34.47 35.90 34.72 34.97 36.99 38.09 34.87 36.04 34.64 36.59 36.68 37.29 41.42 39.26 42.18 41.40 43.83 42.81 47.23 46.47 46.65 47.88 47.98 47.57 46.70 45.65 45.83 45.22 50.24 53.06 52.36 53.83 54.62 54.65 54.27 54.57
42.90 44.03 39.45 34.71 33.83 33.76 32.83 34.59 34.97 36.60 38.36 39.41 38.52 36.84 36.43 38.33 40.90 41.44 40.63 40.22 40.00 38.15 37.37 38.44 41.99 41.40 38.47 44.41 45.02 41.44 47.28 47.49 47.89 47.71 46.99 43.36 45.51 49.81 50.84 51.74 52.93 54.41 55.11 54.91 55.34

GFSSW_sfc_wetblb_012.txt.gz
Wetbulb
56.39 56.16 56.04 56.34 56.35 55.78 55.54 55.60 55.68 55.81 55.98 56.33 56.46 56.44 56.54 57.05 57.12 53.72 48.32 53.53 56.41 65.12 66.89 64.45 63.59 61.17 59.57 56.72 58.32 56.64 46.51 44.81 46.35 47.66 50.48 54.68 50.20 54.06 55.51 53.53 53.94 54.23 54.61 57.19 58.15
56.10 56.17 56.10 55.89 56.40 56.24 55.45 55.23 55.30 55.57 55.75 56.03 55.92 55.98 56.21 56.87 53.20 49.81 56.92 62.80 63.54 66.29 61.08 59.82 57.32 59.22 53.86 54.98 55.86 52.42 46.41 49.73 53.74 52.57 52.20 54.35 52.11 52.36 51.67 51.96 53.16 54.15 57.17 58.25 57.69
54.72 55.08 55.61 56.14 56.07 56.04 55.96 55.34 55.02 55.08 55.21 55.22 55.40 55.60 56.19 55.87 49.21 49.53 64.47 63.03 64.20 65.89 56.93 58.53 59.31 57.00 52.06 53.58 54.19 52.77 50.02 54.11 54.58 55.59 55.59 54.36 54.41 55.84 51.74 49.47 51.75 52.30 55.30 56.26 55.61
54.19 54.15 54.28 54.71 55.33 55.88 56.35 55.60 55.23 55.14 54.90 54.93 55.03 55.45 56.15 53.18 37.58 49.97 67.27 68.51 67.84 62.87 57.26 53.59 52.27 51.38 51.05 50.93 55.37 49.86 54.61 55.46 55.51 56.63 55.26 53.63 55.72 54.31 52.79 52.77 54.72 55.58 57.06 55.78 55.04
53.18 53.80 53.85 53.75 53.88 54.85 55.90 55.93 55.33 55.02 54.87 54.89 55.04 55.54 51.59 47.00 44.46 51.58 65.04 66.57 64.80 60.30 56.01 52.24 49.63 49.11 47.20 51.98 53.81 52.04 54.14 55.81 56.45 55.91 55.48 55.98 54.32 53.74 53.51 55.59 55.96 55.52 55.89 55.64 55.38
51.78 51.79 52.66 53.44 53.37 53.94 54.63 55.19 55.53 55.51 54.98 54.96 55.25 55.59 48.93 36.82 49.71 52.77 52.92 52.43 52.25 57.96 55.16 52.56 50.28 51.47 46.94 49.12 49.10 53.37 54.18 54.81 55.72 55.07 55.48 53.73 54.12 53.39 54.80 56.45 55.12 53.55 53.92 54.35 54.33
53.18 52.38 51.72 51.91 52.88 53.57 53.93 53.88 54.02 54.74 54.35 54.60 55.62 53.47 46.62 42.47 50.89 52.52 50.15 49.86 51.18 56.10 53.80 55.01 53.96 50.48 48.39 46.37 50.06 49.86 48.81 52.27 53.46 52.73 51.81 53.07 50.52 51.11 54.48 54.80 53.54 52.08 52.61 53.56 54.26
53.92 53.51 52.83 52.13 51.68 52.51 53.28 53.94 53.80 53.53 53.78 54.35 55.57 51.75 42.77 50.44 51.09 48.42 47.95 47.46 50.78 52.24 52.82 54.54 54.96 50.28 46.96 48.04 48.10 45.62 44.06 40.93 48.22 50.85 52.24 50.43 46.13 51.85 53.89 53.14 52.52 53.37 52.17 52.67 52.36
54.01 53.90 53.45 53.08 52.38 51.34 52.37 53.08 53.08 53.25 53.30 53.67 50.82 47.87 39.18 51.71 47.74 49.41 51.49 48.27 49.45 50.62 51.37 54.88 51.41 47.59 46.96 44.03 41.44 42.09 39.47 41.36 44.64 49.85 50.75 49.46 47.40 52.34 54.63 53.89 52.85 52.48 52.68 53.32 52.58
53.39 53.45 53.71 53.47 52.93 52.41 51.83 52.35 51.98 51.76 50.98 52.09 51.59 43.71 45.24 44.95 49.59 50.54 50.09 50.77 48.67 50.26 48.29 48.77 48.86 44.25 42.41 40.32 35.98 38.54 38.81 42.32 43.38 48.07 49.18 47.91 47.75 51.29 53.43 52.94 52.58 51.88 52.74 53.27 52.57
52.61 52.64 53.12 53.53 53.39 52.52 49.47 44.49 42.07 44.58 46.32 43.87 43.55 42.25 48.02 49.81 52.99 51.57 52.30 49.01 50.00 47.50 42.19 46.79 44.23 41.12 44.03 44.86 45.05 44.31 42.63 41.89 45.93 49.35 48.01 47.07 48.42 50.68 53.01 51.34 50.24 50.88 51.39 52.22 52.36
52.39 52.25 52.33 52.97 53.20 52.82 47.09 41.11 42.01 43.46 37.26 45.12 46.80 46.75 48.43 49.79 45.58 49.18 53.18 47.00 44.77 40.49 44.87 42.43 40.08 46.40 46.61 45.39 43.87 43.07 42.29 42.51 46.18 48.61 46.31 46.58 47.06 50.81 51.77 51.10 51.41 51.48 51.36 51.22 51.87
52.46 52.55 52.44 52.75 52.91 46.89 43.13 43.96 47.86 45.56 37.45 41.94 45.43 45.71 47.17 49.30 45.42 46.18 50.52 48.23 44.05 41.45 42.15 40.19 43.31 47.67 45.76 44.23 43.77 42.98 41.76 43.33 43.84 47.17 47.69 45.69 44.70 47.77 51.26 51.53 52.34 52.48 51.85 52.71 53.08
52.33 52.39 52.55 52.56 46.41 42.59 40.62 46.99 46.06 48.85 32.80 37.11 41.95 45.40 47.99 48.59 45.06 51.25 52.24 48.95 45.66 40.78 42.80 41.98 45.54 45.93 44.17 42.01 44.41 41.01 46.76 45.91 46.24 43.90 38.06 45.92 35.87 42.39 47.13 48.27 49.63 50.62 49.89 51.43 53.02
52.04 51.88 52.24 52.04 43.97 41.72 42.89 45.48 46.37 44.18 20.64 39.58 41.04 50.52 48.13 44.72 47.98 48.21 53.00 49.11 43.44 43.40 43.01 39.80 42.36 42.27 41.05 42.28 44.65 43.80 47.86 46.41 46.20 43.78 39.53 42.61 37.54 41.70 45.52 46.30 48.39 49.63 50.60 51.34 53.00
51.71 51.80 51.87 48.55 47.50 46.87 47.61 46.83 42.73 30.90 21.79 36.02 42.68 40.28 41.59 44.01 45.36 50.20 48.70 50.26 49.06 44.38 44.11 42.65 46.48 44.65 43.47 45.50 45.78 47.87 45.99 45.09 44.04 41.82 34.84 41.62 40.00 42.12 42.79 46.73 48.20 48.60 51.30 51.63 52.01
51.08 51.27 50.27 49.01 42.70 45.97 46.53 41.49 29.90 25.41 37.74 35.14 36.22 38.56 38.82 40.68 42.28 44.88 44.30 42.65 39.94 36.81 37.49 42.10 42.24 44.97 46.11 42.31 45.38 45.47 40.15 33.53 30.30 33.30 34.15 42.67 39.80 42.35 46.15 48.66 49.74 49.15 50.88 51.79 53.01
51.07 50.87 48.95 48.09 46.96 47.09 42.70 37.15 26.38 31.35 32.64 38.49 37.99 37.98 36.75 38.46 38.99 42.76 42.88 40.19 43.26 41.39 38.22 36.38 35.12 42.76 46.05 43.39 40.93 41.10 41.12 34.88 28.91 30.22 34.26 42.60 37.60 43.24 48.77 50.53 50.91 52.72 52.86 53.49 52.60
49.65 45.38 42.57 44.72 47.79 44.89 39.95 28.81 26.85 31.37 36.28 35.07 35.67 33.12 33.03 36.42 37.01 38.71 40.83 40.89 42.86 43.03 36.75 36.23 37.41 45.99 46.29 46.33 44.58 40.85 38.03 43.84 37.26 37.78 34.49 37.84 42.35 47.54 48.63 49.46 51.46 51.44 52.37 51.61 52.30
45.54 41.64 41.09 45.62 46.70 44.34 35.38 29.26 31.74 37.03 37.15 36.42 29.39 33.89 29.31 32.44 33.18 34.65 37.18 43.94 43.25 45.35 43.95 39.93 35.67 44.33 45.58 46.36 45.73 43.07 45.26 38.36 35.26 31.87 29.04 35.92 38.33 39.64 44.10 47.03 50.26 50.40 50.14 50.59 52.00
41.17 36.01 41.57 46.33 48.26 39.75 30.31 28.66 33.36 38.09 39.10 35.07 32.80 31.48 32.53 31.75 33.07 33.05 34.86 41.21 43.61 44.58 45.41 42.42 38.40 40.55 44.04 41.60 40.62 40.13 40.17 40.49 40.54 37.66 32.56 30.42 35.65 44.39 45.75 48.13 49.69 50.43 51.23 51.56 52.23
37.37 31.55 42.30 47.45 36.68 35.44 32.27 32.91 37.74 36.25 39.21 36.49 37.03 34.88 33.49 34.44 32.15 33.30 34.21 38.53 43.56 43.24 39.11 43.54 37.29 35.90 39.27 43.63 46.05 43.61 40.07 42.06 38.92 34.88 36.74 35.95 36.45 47.45 47.41 51.53 52.21 51.03 52.58 52.42 53.22
34.17 34.68 44.67 46.44 29.42 31.94 33.96 34.30 36.20 35.22 35.95 35.84 34.87 37.06 37.85 34.62 30.49 35.25 37.98 43.17 43.34 41.54 39.74 41.46 39.07 31.96 35.68 39.43 43.89 41.64 43.14 44.01 40.26 38.94 36.45 34.96 36.29 49.77 51.28 52.01 52.89 51.67 51.99 52.35 52.31
33.73 28.98 34.50 40.91 38.74 35.07 31.84 32.28 32.23 37.90 35.40 37.32 36.36 37.07 35.76 34.26 37.04 33.49 35.84 40.60 42.50 42.32 46.34 42.42 38.43 37.78 34.22 38.77 41.89 39.79 42.45 45.39 42.63 36.12 37.14 40.45 40.84 45.77 49.92 51.00 51.23 51.64 52.16 52.51 53.21
34.11 29.58 35.36 25.90 29.17 31.67 30.69 32.35 30.92 31.04 36.13 36.09 33.76 35.70 34.48 31.74 33.68 33.58 36.61 37.89 40.72 43.19 40.29 36.85 35.17 39.96 41.31 42.89 43.75 43.29 43.12 44.43 43.42 42.67 40.87 41.49 42.30 45.28 50.47 51.70 52.78 52.99 52.35 52.33 52.71
35.82 33.82 35.36 30.81 32.59 30.73 32.30 30.84 31.95 33.74 34.47 33.80 32.78 35.96 36.48 32.78 34.59 33.55 36.01 36.38 35.23 38.96 36.52 36.67 32.63 40.18 38.99 42.73 42.83 41.47 44.06 45.62 46.05 44.47 43.36 44.59 43.18 48.38 53.74 54.37 52.72 52.75 52.80 52.58 53.12
42.52 43.32 38.93 34.51 29.12 29.57 30.32 33.45 33.92 35.41 37.02 38.25 37.05 36.09 33.38 36.84 40.84 41.36 41.49 40.38 39.12 36.26 34.51 33.69 34.26 34.79 35.73 41.96 41.47 37.70 42.43 44.77 46.09 46.74 45.28 42.25 44.10 47.45 48.36 52.51 52.76 52.39 53.51 53.37 53.85

GFSSW_sfc_wetblb_018.txt.gz
Wetbulb
54.39 54.44 54.29 54.52 54.47 54.92 55.69 55.98 55.99 56.17 56.07 55.93 55.95 55.82 55.96 56.36 56.03 50.13 45.78 52.44 55.07 64.43 66.70 63.44 60.64 60.42 58.25 54.74 55.17 52.98 44.81 42.01 44.80 45.32 47.53 49.58 48.69 52.59 54.68 52.46 51.59 53.41 52.71 54.73 55.61
53.13 52.99 53.26 54.13 54.08 54.19 54.19 54.48 55.17 55.63 56.10 56.05 55.93 55.62 55.86 56.55 50.88 47.67 54.97 61.39 63.53 66.39 61.04 58.78 56.92 57.63 51.95 52.19 52.91 50.18 44.31 45.50 49.67 49.57 48.95 49.31 49.94 52.57 52.00 53.02 52.51 53.66 54.27 55.58 55.27
53.79 53.68 53.41 52.84 52.74 53.16 53.75 53.91 53.96 54.45 55.64 56.04 55.88 55.69 55.66 55.07 44.26 43.30 61.00 60.91 62.50 64.33 56.48 59.12 58.93 55.49 50.31 50.80 51.64 49.81 47.58 51.69 51.21 52.26 50.96 51.56 51.84 53.55 51.95 50.80 53.88 52.26 54.33 53.88 53.43
54.52 54.21 54.12 53.93 53.76 52.90 52.34 52.90 53.87 54.01 54.41 54.66 55.17 55.35 55.82 50.55 34.44 45.12 67.71 65.75 67.82 61.48 53.04 55.66 56.04 50.92 47.85 47.66 52.44 46.27 51.26 53.07 53.11 53.71 51.57 51.86 53.54 53.15 54.38 54.10 56.83 56.69 56.21 53.84 52.59
53.48 53.92 53.96 54.02 54.02 53.39 53.21 52.88 52.45 53.30 53.55 53.72 54.21 54.71 51.43 43.42 41.46 47.62 61.43 57.25 58.83 57.48 51.16 50.00 52.62 51.48 47.19 48.70 51.03 47.68 50.83 52.28 53.50 52.18 52.69 54.19 52.21 52.95 53.57 57.14 57.83 56.57 54.75 53.19 52.93
53.26 53.37 53.15 53.29 53.42 53.39 53.10 53.72 53.30 52.43 52.30 53.23 53.42 54.05 47.49 39.11 49.54 48.30 51.88 48.93 48.81 53.08 52.91 49.58 48.82 52.03 47.22 47.90 47.46 48.85 50.70 51.19 50.81 51.62 53.46 52.44 52.28 52.90 55.29 58.06 55.74 53.84 53.58 52.75 52.96
53.26 53.08 53.04 53.02 52.83 53.06 53.80 53.96 53.59 53.32 52.96 52.39 53.10 50.50 44.71 42.33 51.69 53.09 51.45 47.37 47.36 47.97 48.05 53.34 51.39 48.11 45.94 42.77 45.89 45.50 42.68 45.05 46.77 48.22 48.50 51.45 47.15 49.25 53.99 54.90 52.11 52.81 52.90 52.55 53.16
53.03 53.22 52.70 52.72 52.79 52.46 52.88 53.36 53.42 53.24 52.99 53.47 52.57 48.68 39.46 50.32 51.50 50.07 51.04 49.53 51.20 50.69 47.13 51.24 55.19 49.32 44.11 44.58 44.24 42.06 41.04 37.76 44.52 47.86 48.67 48.55 41.53 49.07 52.28 51.01 50.49 51.76 52.20 51.70 51.88
52.85 52.89 52.53 52.33 52.58 52.72 52.89 52.81 52.80 53.36 52.99 52.70 48.03 44.68 37.66 51.14 47.10 50.75 50.58 47.11 48.67 48.08 45.92 50.61 51.25 46.24 44.13 42.12 39.30 37.84 36.55 37.43 40.77 46.71 46.64 46.23 41.98 48.61 50.20 49.83 49.69 51.12 51.89 52.08 52.37
52.60 52.55 52.53 52.10 52.24 52.53 52.67 52.08 51.70 50.18 49.81 49.83 48.30 39.83 42.26 40.55 48.32 48.76 49.94 49.21 46.10 43.58 42.66 43.25 43.83 40.92 39.04 37.35 33.54 34.87 34.97 37.55 38.27 43.43 44.60 42.02 42.67 47.07 49.35 48.70 49.30 50.18 50.83 50.77 51.43
52.20 52.39 52.39 52.10 51.91 52.15 50.32 42.80 40.26 39.16 42.40 38.90 39.62 39.76 42.46 47.96 50.56 48.42 47.62 46.19 45.94 41.37 35.15 40.41 38.33 36.93 39.65 41.68 41.58 40.36 38.86 38.03 40.46 45.38 43.77 41.98 42.45 45.58 48.49 47.45 47.24 48.22 49.04 50.00 49.75
51.85 51.62 51.64 51.78 51.73 51.95 48.10 37.90 41.67 41.20 35.40 42.61 42.75 43.39 45.75 47.25 41.65 44.94 47.83 41.93 40.39 37.77 39.52 38.28 35.74 41.61 43.68 43.00 41.67 40.71 39.11 38.33 41.97 45.99 43.63 42.49 42.12 45.32 47.26 47.15 47.23 48.90 49.53 49.47 49.24
51.80 51.59 51.50 51.56 51.91 44.20 39.73 41.61 45.09 44.59 35.30 39.04 42.63 41.63 42.24 44.09 40.47 41.32 46.54 43.15 39.27 36.32 37.67 35.87 38.63 43.61 43.00 41.83 40.15 40.02 38.95 39.58 40.21 44.00 42.90 41.14 40.05 42.83 47.43 47.63 48.28 49.11 50.03 49.76 49.49
51.95 51.91 51.84 51.53 44.00 41.41 41.52 43.59 45.61 46.23 30.78 33.65 38.08 41.20 43.00 42.48 38.71 45.68 48.28 44.08 40.39 36.09 37.79 36.85 41.01 40.62 40.71 40.72 42.11 37.38 43.70 43.55 42.77 38.69 32.78 40.90 31.24 40.58 43.64 45.37 46.86 48.22 47.61 48.25 49.57
51.88 51.74 51.72 50.91 45.27 41.91 43.15 45.51 45.71 41.41 18.09 35.38 39.39 47.27 43.94 39.47 41.42 42.01 47.08 44.99 40.02 38.26 38.08 35.64 37.92 37.98 38.06 40.83 44.78 40.73 45.81 43.32 42.08 37.19 34.03 36.57 33.26 38.43 41.60 42.78 45.20 47.32 48.15 47.59 49.17
51.70 51.65 50.84 47.53 46.26 44.60 45.71 45.00 41.16 28.33 19.28 32.82 38.87 37.49 36.74 40.70 41.27 44.17 41.76 44.56 45.49 39.40 39.12 38.10 42.89 41.15 40.79 43.92 45.84 46.65 42.26 40.45 38.43 35.29 30.11 36.46 35.64 35.97 38.96 44.02 45.10 46.97 48.10 49.48 49.47
50.88 50.73 48.99 48.34 40.81 43.68 43.87 39.73 28.15 21.43 34.56 31.52 32.65 36.66 36.29 35.41 37.27 38.52 39.20 35.75 35.99 33.69 33.55 37.13 37.86 40.75 43.10 39.71 42.94 42.87 36.07 27.32 25.52 26.03 27.42 38.32 35.33 38.85 42.84 45.17 46.74 47.12 47.74 48.62 49.61
50.40 49.81 46.42 47.21 44.50 45.52 43.91 33.16 21.10 27.89 28.95 36.43 34.91 35.18 31.72 35.22 34.45 35.57 35.83 34.50 38.04 36.86 35.05 32.41 29.73 38.90 42.74 40.23 38.96 39.99 37.39 28.89 23.88 24.60 30.72 38.08 32.91 38.43 46.21 48.61 48.47 48.87 48.00 49.11 49.16
48.97 42.29 40.68 42.36 45.42 46.59 37.53 24.35 22.40 29.14 33.89 31.85 33.32 29.97 31.17 34.20 33.53 33.48 32.50 35.13 38.20 39.51 32.22 32.93 33.48 41.50 43.32 43.70 43.46 38.52 35.39 38.63 32.36 34.07 30.96 33.24 38.27 43.38 45.96 47.45 48.64 47.74 48.73 48.08 49.01
43.62 40.48 38.17 45.19 46.22 43.53 34.21 27.04 28.27 34.85 35.05 33.78 27.23 31.47 27.83 30.03 30.35 30.93 31.11 37.97 37.15 39.67 39.44 36.32 31.32 40.14 42.18 43.28 43.70 40.49 41.94 33.88 33.43 27.29 25.28 31.90 34.82 37.32 42.40 45.13 47.73 47.38 47.11 47.93 49.25
36.69 33.70 38.65 44.78 46.95 38.93 28.72 30.40 32.40 36.77 36.53 31.87 30.46 29.30 30.25 29.65 31.41 29.83 30.62 35.01 37.80 38.12 39.95 36.67 33.75 35.41 40.22 38.48 36.45 34.98 36.06 33.50 35.20 31.76 27.24 26.94 32.69 41.42 43.84 45.70 46.88 47.21 47.47 48.17 49.41
36.27 25.14 39.34 45.96 33.16 34.61 30.99 34.13 37.23 35.17 37.57 35.17 34.54 32.05 30.67 32.39 31.42 30.74 29.97 33.29 39.24 38.33 32.50 36.27 32.59 31.03 35.68 39.93 43.20 41.03 37.43 37.32 33.83 30.66 32.56 32.66 33.76 44.23 45.04 45.48 46.88 47.67 48.40 48.62 50.03
35.16 33.85 40.42 44.34 27.99 27.68 33.03 33.09 35.07 33.86 34.23 33.42 32.30 34.31 35.08 32.50 28.78 33.01 33.77 39.91 38.61 37.16 34.19 37.44 31.97 27.73 30.42 35.56 39.14 38.54 38.85 38.14 35.02 33.91 32.63 30.06 32.49 45.98 46.96 47.40 47.10 47.26 48.38 49.60 49.95
36.33 27.51 31.49 37.00 34.16 31.71 29.41 29.40 30.23 36.57 34.46 34.72 32.77 34.28 32.49 31.97 34.80 32.02 33.10 37.29 39.07 38.52 42.16 40.60 31.45 30.75 28.55 32.72 35.93 35.96 38.67 39.79 34.89 29.51 32.92 37.39 37.25 43.57 46.71 45.89 46.71 47.47 48.10 49.02 50.25
32.14 28.29 31.81 25.73 27.30 31.26 28.23 30.02 29.29 30.28 35.83 35.68 31.72 32.48 31.41 29.62 31.61 33.02 35.40 36.42 39.02 39.85 39.64 35.15 27.59 32.69 33.77 36.94 38.21 37.63 38.62 38.98 37.02 38.08 34.53 37.50 38.71 41.77 45.72 46.71 47.49 47.78 48.52 49.35 49.91
32.58 31.80 37.74 33.48 32.22 27.93 28.59 28.35 29.76 31.63 32.55 32.19 31.10 33.84 33.46 31.01 32.63 30.40 34.40 35.68 34.31 37.18 37.05 36.97 27.69 31.79 30.83 37.74 38.62 37.37 38.30 39.65 39.64 39.40 39.16 39.28 39.30 44.39 47.32 48.95 48.43 49.13 49.62 49.85 50.70
35.74 37.79 38.17 33.92 29.62 29.95 30.62 29.94 31.05 32.82 34.32 35.98 34.97 32.55 31.20 33.26 37.29 37.78 38.11 39.33 38.21 36.30 34.52 33.72 29.66 27.59 25.01 33.09 35.51 32.61 38.23 38.02 39.25 41.02 40.26 37.41 42.58 44.13 46.65 48.92 48.70 48.76 50.50 50.94 51.75

GFSSW_sfc_wetblb_021.txt.gz
Wetbulb
53.80 53.80 53.32 52.97 53.31 53.52 54.24 54.27 54.52 55.08 55.79 56.38 56.55 56.30 56.17 56.33 56.17 51.78 46.38 53.01 56.04 62.84 66.29 62.74 61.13 60.68 60.52 57.86 59.58 57.95 52.33 48.18 49.01 49.59 51.49 55.78 55.10 57.05 58.35 57.98 57.71 58.76 59.43 60.42 60.65
54.39 53.85 53.78 53.72 53.73 52.87 52.77 53.12 53.67 53.76 54.45 55.34 56.45 56.07 55.90 56.35 51.68 48.51 55.04 59.85 62.78 65.45 60.68 57.18 54.79 58.34 56.65 56.89 57.62 55.48 51.48 50.55 53.76 53.82 53.19 54.67 55.19 56.01 56.33 56.69 57.27 58.56 61.05 60.37 60.04
54.05 54.26 54.50 54.46 54.44 54.22 53.36 53.24 52.82 53.24 53.40 53.82 54.63 55.10 55.39 55.53 45.67 45.20 64.17 62.10 61.22 65.14 56.75 57.16 56.73 57.26 54.25 56.37 55.80 55.27 51.18 54.34 54.58 55.53 55.68 55.07 55.42 57.37 55.61 54.39 56.95 57.02 59.07 61.20 61.58
53.47 53.68 53.70 53.59 53.82 53.71 53.20 53.13 53.52 53.51 52.92 53.40 53.84 54.22 55.06 51.79 40.20 53.69 60.06 60.70 65.98 59.87 54.78 52.41 55.09 53.69 51.95 51.55 55.54 51.63 54.89 55.67 55.95 56.65 55.80 54.54 56.73 55.28 56.54 56.83 59.70 60.06 60.86 60.77 60.91
53.19 53.47 53.39 53.37 52.71 52.67 52.99 52.91 53.88 53.87 53.40 52.86 52.97 53.38 51.27 45.31 44.83 50.30 56.87 56.33 57.02 58.26 52.52 51.53 52.41 51.58 48.97 51.48 53.06 52.54 53.87 55.73 56.80 56.77 56.66 56.88 54.96 55.00 55.71 58.38 59.54 60.26 60.60 60.41 60.76
52.44 52.71 53.08 53.02 52.30 52.49 52.36 52.98 53.55 53.46 53.53 53.13 52.74 53.05 46.38 37.47 51.86 53.27 53.47 52.44 49.31 53.07 53.31 51.74 52.66 54.45 51.91 51.14 50.87 53.11 53.48 54.23 55.51 55.59 55.75 53.81 53.76 54.95 55.99 58.99 58.35 58.55 58.65 58.96 59.42
52.10 52.39 52.72 52.71 52.08 52.08 52.22 52.75 53.05 52.99 53.41 53.32 53.36 50.02 44.64 41.33 51.66 53.42 52.27 51.03 50.54 49.14 48.13 53.59 52.75 51.49 51.68 49.81 53.33 52.80 49.99 52.05 52.45 53.78 53.21 53.52 48.99 50.24 54.79 56.45 55.55 56.41 57.36 58.39 59.19
52.68 52.78 52.61 52.51 52.45 51.91 52.43 53.09 52.99 52.99 53.61 53.98 53.87 48.80 40.83 50.29 52.84 50.76 51.93 50.98 52.57 52.26 50.09 50.67 53.50 50.51 49.55 50.55 48.28 46.62 47.10 43.60 48.85 50.03 50.57 49.79 44.97 51.27 54.24 54.39 54.34 55.15 56.09 56.72 58.61
52.76 52.96 52.43 52.38 52.53 52.41 52.74 52.88 52.45 52.77 53.05 52.58 49.06 45.45 39.36 51.01 46.94 51.10 52.09 48.10 50.54 51.45 50.96 50.41 50.62 49.59 48.42 45.22 44.02 44.92 42.02 42.49 45.20 49.47 49.16 48.97 46.91 50.99 53.75 53.01 52.87 54.08 55.09 55.97 57.31
52.57 52.55 52.32 51.84 51.86 52.05 52.52 51.95 51.23 50.80 50.38 50.57 48.82 40.89 43.11 42.73 48.54 49.93 52.58 50.92 48.02 48.24 46.74 46.00 47.21 44.98 45.14 43.03 37.44 40.34 39.81 42.80 43.07 47.10 47.94 46.86 46.89 50.02 51.68 52.56 52.90 54.04 55.07 55.98 56.94
51.88 52.26 52.24 51.00 51.63 51.87 50.20 46.67 44.70 42.79 43.92 41.45 41.11 41.54 42.94 47.35 50.09 47.06 50.06 48.53 47.78 44.87 41.03 43.63 40.98 39.87 42.81 44.09 44.56 45.04 43.81 43.31 46.04 47.43 45.93 46.12 46.53 49.19 51.94 52.58 52.54 53.42 54.68 56.18 57.53
51.95 51.93 51.91 52.12 51.66 51.00 47.68 42.44 42.25 43.06 37.17 43.40 42.74 43.41 45.98 47.44 41.48 44.92 49.14 43.63 42.34 38.63 42.50 40.45 38.14 43.70 46.17 44.97 43.13 42.76 42.37 42.85 45.67 46.99 46.36 46.21 46.05 49.45 50.97 51.72 52.57 53.11 54.79 55.93 57.08
52.19 51.83 52.04 51.99 51.79 46.93 44.76 43.75 47.88 47.64 37.43 39.86 43.25 42.31 43.36 45.39 40.89 42.12 46.43 44.31 40.83 38.95 39.46 39.34 41.99 44.10 43.15 43.67 41.53 41.87 40.82 41.68 42.08 45.44 46.98 46.04 44.47 47.01 50.52 52.18 53.13 54.01 55.69 56.26 56.98
52.07 51.90 52.08 51.42 46.02 45.57 43.47 47.33 48.64 47.59 32.39 34.71 38.80 42.41 44.36 44.58 39.61 46.81 47.01 44.56 42.06 38.72 40.18 40.33 44.16 42.28 41.47 41.20 43.31 39.39 44.62 43.66 42.68 41.39 38.79 45.94 38.17 46.00 48.52 48.90 51.02 53.25 55.15 56.43 56.75
51.76 51.43 51.62 50.28 45.73 42.36 45.21 48.65 49.16 44.53 19.39 36.43 40.13 48.77 45.58 41.42 42.86 44.27 48.02 44.15 40.00 40.26 40.84 38.58 40.19 40.28 39.57 40.85 44.25 41.82 45.66 44.16 43.31 41.77 42.08 42.63 39.60 43.20 47.76 46.55 49.40 52.40 55.07 56.40 55.72
51.38 51.06 50.85 47.81 47.05 46.81 48.66 48.17 45.33 30.63 19.04 33.33 39.58 38.34 38.78 41.18 41.28 43.70 43.16 45.65 45.35 42.27 41.98 41.89 44.63 43.36 42.71 43.91 45.33 46.19 45.11 44.70 44.86 43.03 35.84 41.19 40.10 40.24 44.38 47.02 49.55 53.45 55.07 55.38 55.99
51.10 50.51 49.09 48.04 42.69 47.55 48.09 44.15 29.08 21.69 34.27 32.06 33.68 37.05 36.78 36.25 37.65 38.44 38.53 38.06 36.76 34.41 36.38 39.96 40.51 43.15 43.98 42.06 44.95 45.56 43.03 36.19 34.04 34.25 33.88 42.74 40.09 41.36 47.89 49.83 51.48 52.91 55.32 55.76 56.23
50.61 49.08 46.87 47.82 48.54 48.38 44.84 35.44 20.90 27.98 30.31 36.89 35.32 35.71 32.89 36.04 33.64 35.47 36.15 36.41 39.88 39.57 38.49 35.68 33.48 40.98 43.68 42.41 41.06 42.93 42.83 37.28 30.60 32.74 36.62 42.06 37.39 41.14 50.14 52.07 52.59 54.00 55.15 55.72 55.86
48.55 46.22 45.29 46.91 47.14 47.85 39.72 25.88 25.46 29.48 33.84 32.59 33.86 30.80 31.51 34.75 33.70 33.09 33.20 35.19 39.37 39.87 33.94 36.60 36.86 44.34 44.21 44.98 45.34 42.21 40.33 45.22 39.72 40.64 38.47 40.57 42.56 47.25 51.22 51.55 52.67 53.16 53.92 55.08 55.92
43.93 42.61 42.45 46.48 48.10 45.03 36.09 28.01 29.23 35.24 35.69 34.68 27.35 31.71 28.12 31.19 30.90 31.64 30.45 35.34 35.24 39.28 41.00 39.32 34.93 43.09 43.65 44.89 45.39 45.04 46.48 37.99 40.28 32.87 31.34 38.03 39.94 43.13 47.85 50.22 52.95 53.93 54.24 54.67 55.86
42.00 38.93 43.27 49.24 47.30 38.37 30.68 30.65 33.53 37.67 37.56 32.80 30.62 29.94 31.08 30.25 32.26 31.55 30.79 34.64 37.30 37.18 40.30 40.09 39.03 40.27 43.24 41.09 40.48 41.51 41.61 42.32 42.64 40.57 34.57 34.15 38.72 50.61 51.10 52.68 53.53 55.71 55.02 54.94 55.47
40.19 35.19 44.10 47.66 36.65 35.32 31.24 33.23 36.13 36.03 38.28 35.95 35.61 33.79 31.81 32.03 30.84 31.44 30.93 34.20 38.60 38.57 34.77 38.79 38.80 36.61 39.71 44.79 45.99 44.53 42.79 42.95 37.94 36.19 40.20 39.09 40.34 50.19 52.72 52.45 54.67 55.18 54.71 55.96 56.51
36.79 35.69 44.60 46.11 29.86 31.18 33.78 33.00 35.37 34.70 34.93 34.67 33.23 35.22 35.85 32.71 29.53 33.58 35.13 39.60 39.81 37.17 34.74 38.16 37.47 34.53 36.63 41.15 44.33 42.15 43.20 44.38 43.98 43.34 38.59 36.72 40.58 50.17 52.77 52.76 53.21 54.88 54.71 55.35 56.29
39.29 32.17 38.35 40.32 38.02 33.00 30.84 30.89 31.36 37.29 35.96 36.45 35.40 36.35 34.83 33.06 35.61 32.64 33.95 37.80 39.75 38.96 40.76 40.45 35.85 35.03 34.78 37.88 41.51 39.69 41.43 43.04 42.59 38.57 38.93 39.39 41.68 47.68 50.23 52.46 53.40 54.36 55.46 55.99 56.37
38.38 34.21 35.64 30.43 33.41 33.59 32.93 31.85 30.21 30.40 35.57 36.66 34.75 34.38 33.40 30.72 32.32 33.09 34.54 36.72 38.97 40.09 39.64 38.48 31.81 34.96 36.41 37.63 39.00 40.25 40.99 41.56 40.31 41.67 38.59 40.42 42.04 46.96 49.55 53.17 54.97 55.05 55.24 55.37 56.01
36.72 36.31 38.41 34.91 35.05 32.60 32.14 30.59 30.72 32.53 33.12 31.98 32.57 34.62 34.58 31.38 32.51 30.65 34.56 34.91 35.69 38.37 38.00 39.01 33.29 35.24 35.63 39.14 39.96 38.65 41.57 42.12 41.97 42.62 43.12 43.83 44.25 49.02 51.52 54.11 53.95 54.23 54.71 55.45 56.39
39.63 41.18 39.14 34.69 32.93 31.55 31.87 32.91 33.31 34.84 36.03 36.76 35.59 33.99 32.92 35.56 38.14 38.83 38.94 39.00 37.94 36.84 35.97 36.22 35.16 33.43 34.17 37.40 38.76 36.37 41.31 42.32 42.76 43.76 43.67 40.89 45.85 49.88 51.42 53.60 55.33 55.41 55.90 56.56 57.18

GFSSW_sfc_wetblb_024.txt.gz
Wetbulb
55.30 55.16 54.83 54.55 54.59 54.48 53.94 53.52 53.57 53.86 54.41 54.92 55.59 56.72 56.49 56.62 56.54 56.52 50.24 55.72 58.30 63.74 63.95 63.41 62.19 62.58 62.18 59.82 62.05 61.55 54.52 52.04 53.34 53.36 54.26 58.08 57.08 59.55 61.02 59.76 60.58 61.02 61.06 63.08 64.62
54.12 54.19 54.47 54.68 54.72 54.87 54.74 54.16 54.24 53.65 53.76 53.96 54.50 55.07 55.47 55.96 54.82 52.90 59.66 60.10 63.38 64.35 56.39 58.78 57.30 58.30 59.03 59.70 60.31 58.47 54.23 53.70 56.82 57.05 56.24 57.55 57.46 57.97 57.75 58.61 58.93 60.29 62.62 63.30 64.32
54.07 54.04 54.05 54.19 53.77 53.72 53.57 53.65 54.06 54.25 54.21 53.67 53.70 54.47 54.79 55.70 51.49 50.36 61.88 63.54 61.63 62.76 53.83 56.49 57.59 56.11 54.62 57.41 58.80 58.27 54.30 57.41 57.85 58.57 58.84 57.55 57.63 59.48 57.58 56.43 59.07 58.98 60.82 62.50 63.29
53.17 53.33 53.73 53.75 53.65 53.53 53.36 53.04 53.18 54.25 54.40 54.17 53.70 53.73 54.46 54.21 42.91 57.83 58.14 60.59 64.08 65.64 56.46 53.98 55.14 53.31 53.48 52.52 57.23 54.76 57.54 58.02 58.55 58.66 58.25 57.12 59.18 57.79 58.44 58.78 61.02 61.46 62.17 61.87 62.06
52.66 52.94 53.04 53.26 53.35 52.84 52.65 52.79 52.68 53.49 53.71 53.96 53.96 53.07 52.85 48.14 47.90 56.45 58.98 60.29 56.49 59.52 54.93 53.77 53.66 53.82 53.23 54.79 54.50 54.30 56.15 57.61 58.32 58.51 58.71 59.16 57.64 57.49 58.19 60.06 61.33 61.31 61.26 61.50 62.06
52.42 52.72 52.87 53.02 53.12 52.48 52.33 52.20 52.95 53.38 53.30 53.46 53.50 53.35 50.13 41.74 52.94 55.35 55.42 55.30 54.49 55.34 56.42 55.06 52.96 55.13 55.66 55.44 54.44 55.48 54.97 55.09 56.39 56.90 58.04 56.43 56.56 57.41 57.93 58.83 59.50 60.17 59.16 59.58 60.21
52.61 52.80 52.84 52.84 52.91 52.98 52.47 53.11 53.16 53.47 53.53 53.78 53.96 52.32 47.03 46.01 53.32 54.70 54.17 53.65 54.48 52.77 51.39 56.05 55.14 54.41 55.74 53.62 56.90 55.55 52.66 54.51 54.92 55.94 55.21 56.73 53.63 54.27 57.85 58.28 57.77 58.06 58.49 59.26 60.12
53.06 53.06 52.67 52.40 52.64 52.58 52.83 53.14 53.02 53.11 53.60 53.98 54.14 51.00 44.24 52.70 54.67 52.87 54.06 53.16 54.43 54.72 53.06 53.27 55.83 54.20 54.38 55.38 52.87 51.19 52.59 49.06 54.11 55.25 55.67 55.19 49.80 55.16 57.12 56.71 56.31 56.76 57.34 58.11 59.64
52.52 53.02 52.44 52.56 51.78 52.18 52.64 53.01 52.71 53.10 53.21 53.91 51.92 49.58 43.77 52.99 48.95 52.24 53.53 50.31 52.22 53.89 54.19 52.45 51.57 51.47 51.53 47.84 47.40 49.73 45.79 48.52 50.56 55.10 53.72 52.68 50.44 54.99 57.05 56.17 55.63 56.41 57.37 58.10 58.92
52.51 52.79 52.64 52.33 52.50 52.52 52.35 52.33 52.41 52.00 52.73 53.97 51.88 44.75 47.48 43.88 49.14 52.35 53.43 53.33 50.57 50.56 50.32 48.79 48.27 46.63 47.74 46.97 42.17 45.16 46.57 47.79 48.84 53.31 51.67 50.62 50.73 54.39 56.33 55.44 55.04 56.44 57.32 58.26 58.54
52.31 52.52 52.52 52.87 52.41 52.44 51.37 51.39 48.28 46.83 48.15 44.69 44.51 45.05 45.54 48.42 50.17 48.90 50.88 51.15 50.53 48.87 44.37 47.07 43.26 42.32 45.52 47.97 48.56 48.53 48.52 47.95 50.69 52.90 51.68 50.42 50.86 53.23 55.72 54.75 54.77 56.23 57.58 58.32 58.89
51.95 52.14 52.16 52.58 51.94 52.13 51.26 46.09 45.39 46.85 40.05 46.27 46.06 45.84 47.03 47.97 42.88 46.47 50.03 46.03 46.30 42.74 46.11 45.09 41.48 46.67 48.34 48.56 47.74 47.17 46.21 47.10 50.15 52.02 51.29 50.32 49.73 52.95 54.72 55.11 55.61 56.40 57.02 57.92 59.04
52.21 51.75 51.71 52.06 51.75 50.91 48.50 47.11 51.25 50.56 39.76 42.46 45.61 44.60 45.80 47.44 43.11 44.08 47.29 45.80 44.04 43.13 43.76 42.93 44.88 47.21 46.40 46.27 45.65 46.19 45.20 45.70 46.20 49.85 51.21 49.40 47.42 49.87 53.26 55.28 56.11 57.09 58.03 58.25 58.28
52.20 51.99 51.76 51.66 48.66 50.01 46.82 50.60 51.85 51.21 34.61 37.91 41.72 45.45 47.39 47.21 42.62 49.67 49.78 45.65 44.13 41.79 43.98 43.70 47.46 46.24 45.14 44.48 46.09 43.41 47.85 46.63 46.25 45.71 42.17 49.06 41.61 48.30 51.81 53.50 54.87 55.99 57.02 57.72 58.16
52.08 51.71 51.67 50.45 48.50 46.42 48.26 51.61 51.95 48.62 23.65 38.83 42.87 50.82 47.56 44.52 44.97 46.19 51.04 47.24 40.37 42.86 44.23 42.27 43.52 44.33 44.30 44.61 46.91 45.23 48.58 46.63 46.85 45.31 44.90 44.94 43.14 46.84 51.43 50.65 53.16 55.34 56.68 57.08 60.23
51.93 51.80 50.87 50.95 49.84 49.78 51.55 51.35 48.79 32.25 23.40 35.48 42.01 41.07 41.44 43.22 42.91 45.38 45.66 49.03 47.19 41.56 44.26 44.31 48.00 46.21 46.26 47.34 47.45 48.17 46.64 46.36 47.00 45.17 39.51 44.38 43.93 44.59 48.44 51.40 53.42 55.22 55.69 57.45 60.77
51.37 50.63 50.14 51.14 45.80 51.28 52.05 47.13 33.10 26.03 37.02 33.73 36.29 39.43 39.16 38.53 39.18 41.99 40.45 41.40 39.51 35.21 35.49 42.49 43.47 46.31 47.08 45.11 47.28 46.81 44.67 39.35 38.31 38.69 38.61 47.06 44.80 46.79 51.91 53.23 53.46 54.00 56.39 60.21 61.16
50.05 49.03 48.36 51.83 51.58 50.49 48.42 37.57 25.13 31.80 32.24 38.39 37.50 37.75 35.30 38.26 38.06 38.13 38.58 36.88 43.57 41.31 38.24 35.95 36.53 43.53 46.46 45.33 43.86 44.32 45.43 41.18 35.17 37.76 41.27 46.96 42.15 46.81 52.36 54.17 54.94 54.78 57.27 60.49 61.05
48.67 52.11 51.09 51.24 50.67 51.38 42.68 29.71 30.52 33.20 36.02 34.67 36.19 33.12 33.99 36.53 36.65 36.87 35.81 34.19 37.36 43.15 37.40 37.91 38.50 46.66 46.41 46.93 47.29 44.60 43.37 48.34 44.10 44.69 42.50 45.11 47.39 50.14 52.13 52.22 53.84 55.50 55.94 59.06 60.86
48.19 49.40 48.31 52.11 53.17 48.16 37.11 31.12 33.93 37.86 38.17 37.33 30.39 33.92 30.15 33.71 33.92 35.22 34.46 36.95 35.35 40.07 44.19 41.44 37.48 45.75 45.49 47.04 47.75 47.13 49.01 42.91 44.27 37.36 36.52 42.64 44.36 46.04 50.16 51.03 54.56 55.98 57.15 59.41 61.16
48.19 44.19 49.23 52.65 52.12 42.39 33.38 33.30 36.62 40.21 39.55 35.53 33.87 32.68 33.74 33.20 34.65 33.88 33.58 36.67 37.22 37.49 42.53 42.83 40.81 42.80 45.77 43.49 43.53 45.11 44.68 46.29 46.63 44.61 39.84 38.90 42.95 50.04 51.34 53.88 55.11 57.05 59.19 60.35 60.69
46.10 40.66 49.52 51.82 40.12 39.65 33.67 36.10 38.23 38.73 41.03 37.78 38.17 35.36 34.14 35.05 34.33 34.49 33.67 36.68 39.62 39.23 35.29 43.35 41.89 38.73 42.39 47.01 48.58 48.01 46.58 46.55 42.16 41.22 43.73 43.22 42.70 53.52 54.58 56.34 57.38 58.83 59.89 60.70 61.47
42.57 42.91 50.06 48.97 34.05 34.52 36.76 37.27 38.35 37.38 37.61 36.98 35.63 37.67 38.87 35.78 31.52 35.41 36.45 40.12 40.23 38.97 36.87 40.06 39.53 37.00 39.60 44.58 46.78 45.23 46.51 47.87 47.83 47.96 42.84 40.62 42.62 53.23 55.52 55.60 56.88 58.77 59.37 60.04 60.95
43.30 37.92 44.16 45.64 41.23 35.22 34.01 34.83 34.63 39.38 38.08 38.52 37.64 39.53 37.38 36.08 37.97 34.70 35.62 39.06 40.44 39.64 41.14 41.81 39.57 39.89 37.18 41.40 44.79 42.96 44.52 46.94 46.57 42.81 43.59 43.39 45.16 50.65 53.75 55.34 56.80 59.03 59.74 60.14 60.77
43.96 39.27 40.06 35.59 37.09 36.22 35.81 34.78 32.49 32.37 38.16 39.66 36.74 36.86 35.09 32.27 34.88 33.29 35.54 37.83 40.08 40.76 40.50 40.49 37.18 41.18 42.23 42.13 42.32 44.25 44.22 44.94 44.79 45.80 43.03 44.93 44.47 48.60 53.64 54.22 57.04 59.40 60.02 59.90 60.14
41.31 38.10 39.14 37.95 37.63 35.00 35.29 34.41 34.51 35.50 36.20 34.35 35.54 37.48 37.74 35.06 34.89 33.68 35.63 36.35 33.74 38.04 38.81 40.99 36.81 41.37 39.22 42.35 42.61 41.79 44.76 45.42 45.38 46.26 46.12 46.01 45.28 51.17 52.78 53.24 54.17 57.54 59.24 59.71 60.09
43.77 44.91 39.94 36.72 35.35 33.70 35.16 35.14 34.39 35.89 38.54 38.85 37.06 36.67 35.97 38.36 41.29 42.25 42.69 41.87 39.55 37.56 37.67 37.87 37.70 38.58 36.04 42.43 41.75 39.27 44.07 45.03 45.87 47.19 46.98 43.50 48.03 52.40 52.03 51.96 55.05 58.35 59.29 60.01 60.90

GFSSW_sfc_wetblb_027.txt.gz
Wetbulb
54.72 54.58 54.60 54.65 54.52 54.47 54.66 54.80 54.83 54.91 54.72 54.45 54.36 54.89 55.33 55.73 56.00 57.45 54.64 58.33 60.73 63.54 64.65 64.01 63.25 62.66 63.34 60.01 59.44 60.34 53.90 52.28 53.77 54.15 55.22 58.83 57.70 60.78 61.33 60.35 60.85 61.81 61.48 63.27 65.05
53.86 54.13 54.30 54.34 54.23 54.03 53.85 53.86 54.03 54.42 54.87 54.98 54.66 54.36 54.81 55.52 54.69 53.41 60.48 62.11 64.06 65.31 55.58 57.31 59.45 59.50 59.07 60.28 59.62 57.38 55.32 54.82 57.87 57.54 56.70 58.63 58.35 59.20 59.02 59.00 59.30 60.30 62.75 63.91 64.45
53.28 53.55 53.69 53.83 54.01 53.99 53.65 53.41 53.69 53.87 54.46 54.79 54.66 54.69 54.04 54.83 52.12 52.06 62.47 63.47 62.92 62.97 54.95 56.47 60.56 59.50 56.34 57.44 58.80 58.08 55.12 58.56 58.89 59.73 59.58 58.73 58.63 60.13 58.53 57.37 59.41 59.30 61.21 62.88 63.67
52.56 53.22 53.52 53.80 53.90 53.82 53.32 53.35 53.41 53.43 53.88 54.21 54.44 54.47 54.28 54.38 44.82 58.54 58.88 59.91 61.98 60.84 56.07 53.28 53.62 55.09 54.58 53.74 56.98 54.78 58.35 58.99 59.40 59.83 59.33 58.28 59.97 58.94 59.20 59.68 61.90 61.90 62.64 62.71 62.68
53.01 53.38 53.33 53.70 53.66 53.59 54.03 53.11 53.10 53.28 53.46 53.83 53.76 54.24 53.36 49.86 50.18 59.42 60.99 61.72 58.77 60.05 59.32 54.61 52.06 53.20 54.05 54.93 56.19 55.15 56.20 57.78 58.74 58.91 59.22 59.59 58.17 58.43 59.03 61.55 62.58 62.37 62.15 61.70 62.06
52.95 53.18 53.33 53.37 53.13 53.40 54.10 53.54 53.73 53.71 53.60 53.83 53.95 53.78 51.22 43.60 55.12 55.95 56.32 55.91 57.38 57.04 58.70 57.39 54.71 56.01 55.64 55.93 55.32 56.90 57.08 57.14 57.61 57.40 58.45 57.43 57.68 58.33 59.57 61.81 61.12 61.04 60.91 61.39 61.38
52.47 52.91 53.05 53.10 53.18 52.88 53.31 53.32 53.33 53.56 53.39 53.93 54.07 53.76 49.42 47.48 54.24 54.98 55.45 54.68 55.04 55.06 53.43 57.49 57.53 55.60 56.22 54.49 57.64 57.04 54.41 56.32 56.79 57.07 56.15 57.51 54.31 55.15 59.06 60.29 59.69 60.02 60.26 60.62 60.80
52.69 53.37 52.94 52.82 52.97 53.18 53.22 53.50 53.43 53.26 53.62 54.41 54.35 53.31 45.78 53.45 54.32 52.79 53.60 52.90 54.71 55.10 55.57 56.04 57.51 56.02 54.56 56.45 55.29 53.06 54.35 50.26 54.83 55.97 56.43 56.05 51.19 56.60 59.23 59.16 58.87 59.15 59.14 59.68 60.33
53.31 53.25 52.89 52.75 52.96 53.32 53.72 53.18 53.19 53.95 53.98 54.16 53.27 51.05 45.61 55.67 51.30 53.14 53.27 50.31 52.50 54.25 54.93 55.14 54.03 52.09 53.37 50.23 49.57 52.03 47.94 49.68 51.69 56.23 55.80 55.09 52.49 56.65 59.09 58.81 58.29 58.78 59.19 59.01 59.75
53.02 52.71 53.00 52.81 52.90 53.12 52.94 52.42 53.87 53.22 54.04 55.61 54.19 47.27 50.22 46.13 48.78 52.19 54.58 53.25 50.87 51.23 51.30 51.20 49.93 47.50 48.50 48.62 43.36 46.61 47.64 49.29 49.37 53.71 54.53 53.41 53.20 55.81 57.71 56.91 56.90 58.11 58.49 58.70 59.12
52.61 52.58 52.48 52.85 52.91 52.40 51.80 53.15 50.04 48.87 51.76 47.45 46.41 46.79 47.70 50.09 50.74 48.65 51.08 50.53 51.63 49.52 45.61 49.39 45.35 42.52 45.41 48.51 49.89 49.74 49.31 48.98 51.59 54.21 52.65 52.02 52.68 55.07 56.68 56.47 56.49 57.64 58.42 58.79 59.03
52.21 52.33 52.48 52.65 52.40 52.48 52.11 48.19 48.16 48.57 42.17 47.92 47.26 46.93 48.37 48.93 44.01 46.50 50.04 46.09 46.98 44.13 46.61 46.27 42.96 47.28 48.15 48.72 48.18 47.89 47.39 48.09 51.28 53.52 52.51 52.36 52.33 54.65 55.81 55.95 56.53 56.92 57.93 58.76 59.65
52.59 52.51 52.48 52.67 52.00 51.89 50.79 49.68 52.88 52.23 41.74 43.98 46.74 46.32 47.18 48.41 44.50 44.74 47.56 45.70 43.21 43.84 45.07 42.92 46.21 48.68 47.28 46.58 46.14 47.19 46.55 47.72 48.17 51.84 53.04 51.78 49.69 51.34 54.41 55.92 56.53 57.24 58.15 58.87 59.38
52.43 52.47 52.49 52.01 49.39 51.78 48.93 52.28 53.13 52.67 37.05 39.56 43.33 45.70 48.02 48.59 44.85 49.56 49.74 45.71 43.57 41.05 44.38 44.97 47.29 47.03 46.47 45.46 46.89 44.19 49.30 49.14 49.17 48.22 44.41 50.59 43.42 49.92 52.53 53.57 54.92 56.06 57.49 58.72 60.03
52.19 52.07 51.80 51.19 50.51 48.92 50.54 53.26 53.21 49.17 25.34 40.66 43.15 51.70 48.70 45.38 45.80 47.35 52.08 47.54 41.16 41.47 42.68 41.57 45.00 44.74 44.78 46.19 48.10 46.23 49.53 49.41 49.22 47.30 46.77 46.82 44.59 47.70 51.71 50.39 52.93 56.10 57.54 59.24 60.10
51.81 51.36 50.59 52.93 52.57 52.23 53.94 53.21 50.02 34.18 25.20 37.53 43.34 40.43 42.80 45.04 44.67 47.18 46.99 49.99 48.38 42.68 42.83 43.35 47.79 47.84 46.55 48.55 49.35 49.57 47.79 48.39 49.11 47.17 41.52 45.80 45.19 45.84 48.53 51.04 54.05 56.37 57.62 59.03 59.40
51.75 50.54 50.72 53.38 49.06 53.96 53.38 46.89 33.07 28.00 38.26 35.35 36.87 40.59 39.36 39.94 41.16 42.83 41.51 41.44 40.35 37.33 37.06 40.53 42.62 47.01 48.82 45.76 48.69 48.61 46.06 40.09 39.81 40.00 39.84 47.28 44.96 47.44 52.23 54.92 55.70 55.87 57.25 57.89 59.00
50.72 49.55 50.77 53.50 52.46 53.77 50.02 38.52 28.12 33.96 34.72 39.95 39.24 38.89 36.35 39.10 39.58 40.12 39.71 37.83 42.49 41.01 39.14 36.38 34.15 42.77 47.71 46.09 45.46 46.39 46.13 41.10 35.51 38.45 41.19 47.04 42.84 47.86 55.42 55.78 56.32 56.96 57.22 60.78 62.18
49.12 53.53 50.59 53.71 54.12 52.07 42.56 32.21 30.94 35.43 38.53 36.43 38.13 34.63 35.37 38.07 37.83 38.38 38.40 37.96 40.44 41.85 36.14 38.13 36.92 43.95 46.42 48.36 47.54 45.68 44.19 48.38 44.61 46.73 43.20 46.55 49.55 53.48 55.31 54.98 55.22 54.76 56.13 61.03 62.18
50.94 50.56 50.82 53.70 54.48 49.41 40.96 32.98 36.23 40.53 40.08 38.93 32.38 35.51 32.47 35.34 34.51 37.07 36.28 40.16 38.35 40.93 40.62 40.72 36.27 42.94 45.31 48.08 48.27 46.97 49.56 42.97 45.49 38.33 38.81 44.33 47.11 47.53 51.34 52.72 54.22 54.61 56.09 59.79 62.57
49.96 46.94 52.01 54.39 53.03 45.27 35.65 35.70 38.72 41.58 41.66 37.40 35.44 34.63 35.47 34.73 36.38 35.27 35.77 40.10 41.06 39.94 42.36 41.64 38.20 41.52 44.30 44.60 43.74 44.43 45.09 46.32 47.09 45.60 41.34 41.14 44.95 53.59 53.15 54.25 54.81 57.05 57.38 60.16 62.50
49.42 42.43 51.40 53.09 42.03 42.55 36.48 39.03 40.65 40.53 42.03 40.02 39.79 38.12 36.58 36.73 35.40 35.99 35.78 38.82 42.34 41.97 38.54 43.78 39.81 36.51 41.48 47.00 48.54 47.60 46.58 46.90 44.82 42.58 45.87 45.69 44.96 54.12 54.59 55.95 57.85 57.76 58.59 62.05 63.11
45.76 46.76 52.33 50.91 36.57 37.08 39.87 39.66 40.36 39.68 39.41 38.89 36.95 39.65 40.98 37.61 32.77 37.48 37.99 40.48 40.90 39.59 39.13 41.83 39.70 33.38 37.58 45.02 47.35 45.20 47.07 48.49 48.40 49.12 45.07 43.17 45.15 54.80 56.25 56.59 57.91 59.83 61.06 62.02 62.71
46.85 40.25 46.88 49.23 42.83 37.59 36.03 37.44 37.39 41.97 40.43 40.55 39.57 40.61 36.73 36.60 39.64 36.24 36.95 39.69 40.51 40.78 42.29 40.79 39.46 38.18 34.32 40.68 45.27 43.42 45.61 47.99 48.21 44.86 45.92 45.76 47.53 51.76 54.61 55.91 58.67 59.82 61.16 61.63 62.24
47.10 42.11 42.71 38.42 39.11 36.99 38.18 37.25 35.51 36.17 41.20 41.90 39.17 38.57 37.54 34.17 35.88 35.42 37.42 39.87 40.41 41.38 40.30 39.58 36.51 39.69 39.84 41.38 44.01 45.08 45.55 46.77 46.70 47.81 46.14 47.82 47.97 52.28 55.22 56.88 58.69 60.35 60.77 60.99 61.25
42.73 40.94 44.10 41.05 40.21 37.76 37.77 36.85 35.91 37.23 38.33 37.80 37.29 39.13 39.19 36.79 37.53 35.06 36.98 38.07 35.56 38.18 39.66 39.98 36.80 40.92 36.41 39.92 43.40 43.66 45.84 46.79 47.69 48.13 48.46 49.47 48.24 53.33 56.59 55.94 57.10 59.20 60.41 60.39 61.07
49.01 46.08 41.73 38.98 39.80 37.39 38.00 36.92 36.32 38.62 40.70 41.08 39.88 38.84 37.38 39.67 42.48 43.61 43.77 42.78 41.61 39.07 38.34 37.52 38.86 39.56 33.29 38.70 39.02 40.26 45.49 46.57 47.54 49.67 49.13 46.06 48.09 52.25 52.41 53.23 54.24 58.61 60.01 60.63 61.44

GFSSW_sfc_wetblb_030.txt.gz
Wetbulb
53.76 53.91 54.16 54.37 54.55 54.42 54.21 54.20 54.35 54.47 54.76 55.51 55.76 55.46 55.47 55.12 55.20 54.43 51.99 57.09 61.08 64.82 64.48 62.06 64.73 63.27 64.23 62.76 61.13 58.05 50.21 49.07 51.57 52.62 54.00 58.11 56.86 59.93 60.81 59.23 60.42 61.41 61.26 62.46 64.19
53.52 53.82 53.89 54.09 53.59 53.91 54.26 54.00 53.82 54.08 54.33 54.92 55.06 55.45 55.73 55.66 51.83 51.40 58.26 64.81 65.34 66.03 56.34 55.25 58.30 60.41 58.27 58.49 59.12 54.89 50.75 51.25 55.49 56.32 55.87 57.77 57.66 58.61 58.57 58.66 59.01 59.85 61.92 63.08 63.53
53.18 53.37 53.86 53.97 54.22 53.97 54.15 53.89 53.75 54.06 53.97 54.23 54.64 54.61 55.13 54.99 50.98 50.57 62.12 65.22 65.97 64.48 55.65 56.41 56.65 57.80 55.71 56.48 56.92 56.84 52.17 54.74 56.45 58.70 59.02 58.07 58.27 59.89 58.10 56.83 59.09 58.69 60.67 62.11 62.73
53.35 53.74 53.94 53.98 53.96 53.81 53.82 54.03 53.77 53.85 54.03 54.07 54.29 54.48 55.20 52.95 43.26 55.22 62.81 61.19 61.65 57.37 54.42 52.60 51.85 51.41 54.51 53.48 56.23 52.29 56.62 56.94 57.46 58.81 58.70 57.52 59.11 57.88 58.58 59.00 61.46 62.36 62.41 62.54 62.51
53.01 53.39 53.49 53.63 53.61 54.07 54.29 53.56 53.68 53.71 53.78 53.95 54.04 54.16 52.36 46.93 48.46 56.51 63.44 62.61 57.44 55.57 53.78 52.44 50.00 50.42 49.76 54.10 55.36 53.68 54.43 56.34 58.06 58.68 58.91 58.95 57.19 56.76 57.91 60.78 61.91 62.04 62.50 62.47 62.61
52.74 53.05 53.20 53.39 53.41 54.02 54.28 54.03 53.72 53.85 53.53 53.54 53.96 53.51 49.56 40.82 53.23 55.05 56.27 55.99 55.65 55.66 55.45 56.90 53.47 53.71 51.79 52.24 52.48 55.51 55.21 55.21 56.51 56.64 57.37 56.14 56.55 57.00 58.20 61.07 60.74 61.07 61.38 62.08 62.33
53.79 53.85 53.57 53.34 53.39 53.75 54.24 54.03 53.78 54.15 53.87 54.18 54.22 53.27 47.68 45.31 53.49 54.49 53.99 53.18 55.12 54.95 54.18 56.47 58.60 55.68 54.38 51.35 54.79 54.32 52.83 55.09 55.71 56.21 55.80 57.28 54.39 54.99 58.29 59.27 58.96 59.59 60.24 61.25 62.01
53.62 53.49 52.81 52.80 53.38 53.95 54.16 54.01 53.76 53.87 53.87 54.87 54.98 52.29 44.13 52.41 53.83 52.41 53.00 51.87 52.71 53.82 53.46 54.46 55.76 53.18 53.74 54.76 53.24 51.25 51.57 48.85 53.93 55.55 56.26 55.78 50.56 56.67 58.78 58.31 57.96 59.08 59.99 60.71 61.75
53.47 53.30 52.89 52.58 52.80 53.09 53.59 53.39 53.82 53.85 54.43 55.11 52.30 49.87 44.08 55.81 50.88 53.49 52.95 49.20 50.63 51.30 52.67 53.97 53.01 50.89 51.15 49.05 47.69 49.78 46.15 47.51 50.61 55.16 54.60 54.66 51.61 56.39 58.95 58.16 58.15 59.11 59.72 60.25 60.91
53.18 52.97 53.06 52.87 52.87 53.30 52.77 52.64 53.79 53.69 54.15 55.07 53.91 47.14 50.27 48.15 51.15 51.37 53.79 53.05 49.20 49.12 48.92 49.70 48.87 45.85 46.71 45.73 41.66 44.65 45.44 47.67 48.55 52.78 54.04 52.55 52.78 56.00 58.21 57.88 58.03 59.05 59.44 59.25 59.58
52.75 53.00 53.06 53.16 53.35 52.83 51.53 52.27 48.20 47.74 51.07 47.99 48.59 47.85 48.81 51.15 51.10 48.65 50.22 49.68 50.26 48.99 42.71 47.06 43.59 41.57 43.93 46.45 47.18 47.91 47.83 47.04 50.74 53.45 52.42 52.11 52.37 54.24 56.83 57.07 57.10 57.86 58.60 59.19 60.57
52.54 52.54 52.89 52.77 52.96 52.48 51.37 48.59 48.50 49.08 41.72 47.58 47.27 46.92 48.27 48.66 44.01 46.74 49.98 44.69 44.77 42.23 45.79 43.29 41.44 46.48 47.24 47.01 46.05 45.49 45.56 46.51 50.47 52.47 52.00 51.75 51.46 54.64 56.28 56.62 57.39 57.57 58.49 59.40 60.12
52.47 52.47 52.54 52.30 52.23 51.91 51.11 49.94 52.90 51.57 42.08 43.67 46.50 45.65 46.04 47.41 43.94 44.54 47.27 44.81 41.86 40.80 43.07 40.71 43.51 47.20 46.57 45.39 44.31 45.02 44.40 46.12 46.44 49.79 51.42 50.74 49.23 52.16 54.99 56.60 57.47 57.96 58.51 59.41 59.58
52.24 52.30 52.05 51.53 49.38 51.47 49.45 52.42 52.79 52.04 35.48 39.80 42.46 45.62 47.11 47.07 43.26 48.68 49.21 45.65 42.24 38.78 41.14 42.31 46.23 44.24 44.82 44.32 45.81 42.99 47.14 46.69 46.54 45.76 42.82 49.75 42.13 50.40 53.25 54.02 55.27 56.61 57.58 58.26 59.23
51.92 52.22 51.89 50.68 50.43 49.10 50.81 53.48 53.38 49.28 24.60 41.84 44.09 51.52 48.70 45.45 46.80 47.23 51.56 46.39 40.40 40.33 40.58 38.49 41.66 43.07 41.98 44.46 46.96 44.85 47.84 46.67 46.59 45.39 46.08 45.78 44.23 47.57 52.06 51.09 53.26 55.38 57.00 57.97 59.92
51.83 51.93 51.60 52.60 52.18 53.23 53.81 53.10 49.50 33.49 23.93 36.69 42.25 40.38 41.51 43.53 44.49 46.82 47.30 49.86 47.27 42.06 41.93 40.64 44.50 43.63 44.83 46.36 46.70 48.74 46.32 46.50 46.89 45.73 40.59 45.52 44.72 44.84 47.94 51.84 53.40 55.50 56.92 58.02 59.37
51.52 51.18 50.24 52.76 48.53 53.63 53.43 48.37 33.40 26.53 38.86 34.22 36.73 39.70 39.34 38.44 40.06 42.58 42.00 41.29 39.46 35.52 36.67 40.49 40.01 42.88 44.75 42.99 46.67 45.81 45.27 38.79 37.67 38.44 37.84 45.85 43.90 46.31 51.64 53.53 54.22 54.88 57.18 59.00 60.26
50.19 49.47 52.38 54.12 54.39 53.62 49.94 39.83 26.18 32.27 34.56 39.99 39.05 39.14 36.59 39.34 39.08 39.91 39.11 37.81 42.04 40.57 36.93 34.12 33.77 40.52 43.57 42.52 42.98 44.15 44.62 39.86 32.81 35.56 39.12 45.36 41.60 46.36 53.77 55.12 56.16 55.94 57.44 59.16 61.13
48.62 53.84 52.75 53.64 54.51 53.19 44.89 32.30 29.09 34.20 37.87 37.13 38.15 34.89 34.25 37.78 37.79 38.36 37.40 37.07 39.97 41.32 35.16 34.74 35.69 45.32 45.03 44.48 45.14 43.58 41.04 46.80 43.03 43.91 40.23 43.82 47.37 51.24 53.98 54.27 56.05 55.67 57.18 60.25 62.79
48.81 51.19 50.92 55.28 54.86 49.15 40.96 33.83 36.58 40.30 39.60 38.91 32.82 35.69 31.77 35.52 34.51 35.76 36.31 39.61 40.07 41.90 43.21 38.25 31.60 40.76 44.84 44.84 45.00 45.02 47.39 40.86 43.60 35.78 35.79 41.46 44.21 46.19 51.45 53.16 55.92 55.89 56.37 61.39 63.03
49.88 47.23 52.91 54.19 53.40 45.46 35.83 36.44 39.23 41.76 41.64 37.99 35.70 34.40 35.33 34.64 36.51 34.54 35.15 38.27 42.25 41.70 42.68 40.76 37.11 36.22 42.48 42.26 39.89 42.74 42.52 44.35 45.85 43.19 38.93 38.42 43.08 54.79 53.66 55.45 54.84 55.33 57.08 61.18 62.51
49.71 42.91 52.52 54.59 43.21 43.35 37.89 39.52 41.54 41.17 42.49 39.97 40.40 38.07 35.67 36.36 35.43 36.03 35.92 38.80 43.69 42.99 38.09 41.26 37.88 33.91 37.05 45.00 46.44 45.11 43.81 44.88 41.37 40.43 43.88 43.40 43.88 55.66 55.03 55.89 57.29 56.45 57.45 61.86 62.69
46.80 46.62 53.31 51.41 37.92 37.95 40.60 39.96 41.60 39.88 40.29 40.29 38.24 39.92 40.45 36.56 32.82 34.36 36.73 41.52 42.60 40.87 39.10 40.58 37.18 31.95 34.40 40.29 45.17 42.89 45.34 46.73 47.57 48.59 43.39 41.16 44.15 55.37 55.10 55.27 57.52 58.12 58.35 62.01 62.35
47.19 41.73 46.05 46.84 45.35 38.72 37.75 37.39 36.96 43.01 41.24 41.84 40.28 41.01 38.16 35.93 38.93 35.76 34.98 40.02 43.13 42.31 43.74 41.35 36.35 34.54 31.01 36.27 39.20 39.99 44.32 45.72 45.97 43.03 43.90 45.19 46.94 51.74 54.55 55.30 58.76 59.47 61.47 61.70 62.03
47.05 43.14 45.15 38.25 39.75 40.20 39.29 38.00 36.83 36.45 40.87 41.74 38.95 39.30 37.86 34.21 35.64 35.69 38.41 39.75 41.78 41.95 41.84 39.19 32.22 35.30 37.47 38.04 38.64 39.19 41.77 45.13 44.29 47.02 43.70 46.20 48.22 51.39 54.88 57.48 58.56 61.30 61.74 61.15 61.25
44.55 41.57 43.71 40.10 42.39 40.65 39.01 37.52 36.66 38.57 38.29 37.08 37.22 39.08 39.57 35.86 36.28 34.90 37.83 38.58 37.72 40.98 37.83 40.43 34.27 36.70 35.37 39.02 37.22 36.05 40.49 44.32 46.02 46.58 47.68 47.97 49.38 55.87 58.05 58.90 58.86 59.44 60.34 60.32 60.85
47.06 47.43 42.55 39.82 40.87 39.36 38.17 37.89 38.05 39.69 41.34 40.83 40.14 39.45 37.97 39.42 41.81 42.87 43.08 42.51 41.69 39.32 38.12 37.79 37.03 35.46 31.83 37.83 36.11 33.78 41.30 44.28 46.93 49.03 49.40 46.38 51.53 56.10 53.95 55.28 58.94 59.64 60.41 60.65 61.12

GFSSW_sfc_wetblb_036.txt.gz
Wetbulb
53.33 53.10 53.19 53.24 53.67 53.66 53.90 54.34 54.30 54.64 54.75 54.88 54.96 55.16 55.33 55.36 55.53 50.34 45.15 51.84 54.47 60.87 64.06 58.65 60.18 57.76 55.46 55.57 58.55 57.42 44.34 40.54 43.40 46.23 49.11 53.27 51.96 56.71 58.75 57.27 58.11 59.04 58.65 60.57 62.53
53.27 53.49 53.35 53.52 53.88 53.87 54.14 54.18 54.33 54.27 54.34 54.73 54.81 54.82 54.85 55.14 50.02 46.93 53.57 59.88 61.92 63.96 57.84 53.43 51.34 58.27 54.83 55.10 56.13 53.08 48.38 47.05 49.62 50.39 48.97 51.73 52.15 53.82 55.52 56.37 56.49 59.04 60.24 61.29 61.82
53.59 53.40 53.78 53.79 54.11 54.09 54.06 54.10 54.23 54.37 54.34 54.36 54.17 54.25 54.20 53.62 44.79 45.90 62.18 61.03 61.67 62.92 56.84 54.42 52.78 51.21 52.12 54.73 53.13 52.52 50.51 53.76 53.80 52.89 53.06 52.69 52.94 55.14 54.33 53.15 55.77 55.56 57.71 59.55 59.50
53.55 53.75 53.85 53.61 53.55 53.65 53.81 53.93 54.17 54.49 54.43 54.28 54.19 54.24 54.25 49.30 31.78 49.52 62.91 63.11 65.03 60.56 56.68 51.84 48.45 45.82 43.19 48.27 54.17 49.02 53.73 54.97 55.18 55.67 54.33 52.49 54.50 53.06 54.28 54.89 57.93 57.97 58.97 59.29 58.75
53.59 53.83 53.81 53.68 53.70 53.61 53.57 53.61 53.92 53.80 53.89 53.81 54.02 53.98 49.57 42.13 42.66 47.93 58.72 56.16 53.38 60.42 51.67 50.25 46.47 43.89 40.87 43.27 45.98 47.77 51.04 52.91 54.35 54.99 54.80 55.41 53.54 53.69 54.51 57.45 58.84 58.59 57.66 57.09 57.97
53.27 53.34 53.40 53.61 53.52 53.85 54.25 54.13 54.17 53.78 53.38 53.32 53.60 53.29 45.87 36.35 47.27 49.74 49.87 49.89 49.19 48.13 51.93 48.41 46.44 46.55 43.95 43.35 43.49 45.98 46.65 49.59 51.90 51.53 52.46 52.31 52.83 53.88 54.72 57.16 56.71 56.71 56.06 56.62 56.68
53.13 53.37 53.41 53.44 53.58 54.15 54.09 53.72 53.55 53.80 53.77 53.84 54.00 51.15 44.86 41.16 49.54 48.21 47.09 45.43 47.77 48.46 46.23 50.00 49.66 47.00 45.55 43.67 46.57 46.10 42.96 46.51 47.71 48.58 50.44 53.03 49.55 50.40 54.88 56.01 55.01 55.67 55.96 55.94 55.41
52.44 52.53 53.08 52.90 53.64 53.89 53.99 53.59 53.59 53.66 54.50 55.11 54.41 50.00 41.00 49.73 50.18 48.08 48.63 47.65 49.39 49.34 48.28 48.88 48.51 47.53 45.18 46.24 45.75 43.32 42.50 39.04 46.10 48.39 49.52 49.58 43.99 52.03 55.02 54.35 53.56 54.23 55.57 56.42 56.87
53.18 53.06 53.02 52.62 52.26 53.04 53.31 53.10 53.70 54.63 55.12 54.88 49.63 46.77 40.17 52.57 48.28 50.22 49.10 46.06 47.88 48.51 47.20 49.45 46.18 43.20 43.70 39.44 36.69 39.32 37.85 40.24 43.33 48.79 48.61 48.09 45.26 50.56 53.45 53.56 52.41 53.04 54.51 55.63 56.43
52.56 52.60 52.50 52.58 52.77 52.88 52.91 52.78 52.95 53.52 52.91 53.17 51.23 44.09 45.74 45.87 50.95 52.03 49.99 49.16 46.68 45.85 44.71 43.22 39.92 38.42 36.82 36.06 32.60 35.70 37.57 40.85 41.21 46.52 48.09 46.61 46.16 49.64 51.93 52.24 52.13 53.06 54.07 54.81 55.44
51.75 52.11 52.19 52.55 52.90 52.92 50.91 45.37 42.56 39.84 42.19 39.94 41.41 43.76 45.37 48.79 50.75 47.25 49.85 47.35 47.50 44.00 36.02 39.00 33.53 32.99 37.03 39.52 40.18 40.90 40.01 40.03 43.29 47.00 46.22 45.55 46.02 48.16 50.69 50.64 50.27 51.83 52.70 53.79 54.71
51.27 51.27 52.17 52.55 52.94 52.60 47.35 43.30 44.27 43.16 36.55 44.76 44.11 44.07 46.21 47.07 41.48 44.47 48.30 41.35 40.00 34.76 38.85 35.39 32.51 37.89 40.66 41.33 39.99 39.00 37.47 37.46 41.20 44.04 44.50 44.85 44.78 48.18 50.09 50.37 51.13 51.80 52.54 52.03 51.51
51.57 51.60 51.76 52.22 51.74 47.93 45.01 45.30 47.86 44.92 34.90 39.97 45.29 45.05 43.94 45.10 41.15 41.66 45.04 42.20 38.07 34.76 34.56 34.23 37.63 42.09 39.58 38.75 38.13 38.29 36.57 37.60 38.05 41.94 43.47 41.25 39.90 42.39 46.70 48.44 49.73 50.38 51.56 52.09 52.05
51.24 51.45 51.37 51.40 46.47 45.14 44.54 48.73 46.70 45.11 29.01 36.44 41.18 44.72 45.89 44.16 40.28 46.49 46.65 42.83 38.07 34.23 35.51 33.93 38.10 38.18 37.86 36.76 38.71 34.42 41.47 41.24 39.81 37.86 33.15 41.62 32.68 40.12 44.27 45.64 47.79 48.98 49.18 49.56 51.73
51.06 51.66 51.54 50.69 44.30 42.92 47.16 46.70 46.04 41.90 21.58 38.52 41.03 48.70 46.17 42.27 43.53 44.04 49.73 45.78 36.71 36.57 35.71 33.24 34.82 34.79 35.41 37.40 40.93 36.74 42.62 41.22 40.66 37.84 35.40 37.60 32.04 38.86 42.55 42.98 45.63 47.44 48.68 51.05 52.25
51.06 51.31 51.01 46.87 44.47 46.38 47.66 46.21 43.39 29.17 19.00 34.18 40.22 38.93 38.78 40.48 41.64 44.32 44.83 47.07 45.37 40.63 38.78 36.50 39.91 37.87 36.48 38.95 39.20 40.52 39.24 39.26 39.21 34.65 29.49 35.70 34.32 36.42 39.59 42.29 44.38 47.85 49.39 50.28 50.95
51.04 50.59 49.08 48.58 42.45 47.49 46.01 41.30 26.66 19.89 36.65 33.04 34.38 37.09 36.54 36.16 38.04 39.48 38.26 36.13 34.63 31.21 31.02 35.25 35.85 39.02 40.38 35.75 38.10 36.15 30.11 25.03 23.82 25.84 28.08 37.97 34.94 38.11 41.26 44.07 45.59 46.60 48.41 50.65 50.55
50.11 49.77 47.45 48.83 46.72 47.04 42.52 32.93 20.57 29.70 32.19 38.21 36.43 36.27 32.77 36.02 36.26 37.40 35.88 33.31 39.07 37.40 33.59 30.55 29.09 37.38 42.51 37.33 33.46 32.35 31.11 25.91 21.29 23.09 28.92 37.84 31.98 37.05 44.93 47.54 48.47 49.26 49.66 50.14 51.36
49.00 43.34 44.80 47.57 48.28 44.80 36.26 25.07 22.17 32.61 36.02 35.02 34.85 31.16 30.90 35.68 35.44 34.82 34.16 34.20 38.20 37.40 31.27 30.84 31.01 40.86 40.87 40.98 38.42 34.34 29.76 34.16 28.83 33.20 28.04 33.19 38.39 43.35 46.00 46.26 47.21 47.20 48.50 52.69 55.34
42.40 41.42 43.22 48.62 47.18 42.09 31.90 29.99 32.85 38.48 39.13 38.06 29.95 33.26 28.66 31.61 31.70 32.85 32.78 38.00 36.82 40.25 39.68 34.04 27.15 37.19 39.36 40.36 39.31 36.26 39.18 28.28 27.24 23.09 23.53 30.55 33.52 35.70 41.10 44.01 45.24 45.52 48.05 54.30 55.90
41.00 40.27 46.14 46.58 46.16 37.05 25.29 30.55 36.35 41.11 40.76 36.31 33.43 32.08 32.47 31.05 32.38 32.10 33.03 37.22 39.30 38.56 39.41 34.92 30.39 31.90 36.66 34.62 32.27 32.57 32.30 32.47 30.90 29.63 27.16 24.81 31.28 41.07 43.16 44.16 45.25 46.62 52.44 55.58 56.71
39.26 35.37 45.96 47.21 34.52 32.36 28.00 35.94 40.38 38.46 41.13 39.24 38.33 35.67 33.52 34.07 32.54 32.43 32.26 35.56 40.63 39.64 34.48 35.90 32.18 28.04 30.90 37.48 39.82 37.45 34.39 33.22 26.21 26.71 30.57 32.12 32.94 44.97 44.33 46.70 47.35 48.24 55.65 56.58 57.64
38.24 37.95 45.80 44.25 33.43 28.07 33.91 37.00 39.10 37.33 37.64 37.54 36.14 37.14 37.09 33.66 29.63 34.52 35.40 40.83 41.24 38.73 36.47 36.98 28.79 23.91 24.69 31.39 38.62 35.47 38.04 37.97 35.54 32.37 30.06 28.04 32.66 44.89 44.85 46.07 49.12 53.66 55.89 56.74 57.27
38.55 33.31 36.88 37.38 35.84 31.67 32.21 34.81 34.98 41.02 39.00 38.53 36.44 37.50 34.90 33.23 34.32 32.39 34.29 38.86 41.17 40.56 43.10 40.36 31.99 27.64 21.52 28.07 34.66 32.57 36.05 36.93 35.38 29.97 31.39 33.07 35.82 41.69 44.03 44.48 48.42 54.88 55.90 56.55 57.53
37.65 32.73 35.75 28.10 32.20 33.79 34.64 36.31 34.80 34.27 38.60 38.24 35.67 35.87 34.15 31.56 31.95 30.39 35.01 36.34 39.13 40.93 40.05 35.98 28.85 31.54 32.18 33.76 34.30 34.15 34.65 35.91 34.35 35.06 31.46 35.69 35.94 40.69 43.46 46.14 50.47 55.35 56.06 56.46 57.03
34.61 34.63 37.34 34.93 35.54 33.10 34.28 34.59 35.45 36.81 36.78 35.10 33.84 36.17 36.48 34.14 34.96 31.68 33.73 33.78 32.84 36.09 35.61 35.82 30.51 33.91 31.03 34.95 35.05 33.15 36.41 37.55 36.81 37.14 36.38 36.84 36.60 44.67 46.72 52.50 52.70 55.41 56.34 56.22 57.00
39.04 41.64 39.93 36.83 32.81 32.73 32.90 35.44 36.17 37.75 39.05 39.50 37.03 35.43 34.57 37.16 39.99 39.21 39.62 38.59 36.90 33.41 33.98 36.26 33.76 31.87 27.66 34.23 34.67 30.30 35.43 36.40 37.59 39.41 38.28 33.53 39.67 45.64 47.08 54.32 53.48 52.44 56.38 56.73 57.80

GFSSW_sfc_wetblb_039.txt.gz
Wetbulb
52.99 53.33 53.47 53.50 53.72 54.16 54.32 54.42 54.46 54.46 54.57 54.85 54.83 54.79 54.83 54.78 54.95 49.53 43.33 49.69 52.96 59.11 61.48 56.46 59.99 58.23 54.51 52.60 56.59 52.73 42.36 39.85 43.39 44.78 47.45 51.36 50.05 55.22 56.30 55.31 56.92 57.48 57.44 59.19 60.37
53.07 52.95 53.27 53.84 53.87 53.86 53.93 54.11 54.22 54.39 54.52 54.63 54.74 54.48 54.50 54.60 48.90 45.54 51.79 56.71 60.04 62.11 55.05 50.37 49.38 55.66 48.05 49.49 54.05 50.96 43.93 44.33 48.49 49.79 48.13 50.84 49.69 51.90 52.90 53.52 53.62 56.10 59.02 60.19 61.23
53.05 53.15 53.17 53.91 53.90 53.76 53.76 53.78 53.93 53.99 54.21 54.38 54.29 54.33 54.30 52.82 39.77 40.44 61.27 60.12 60.51 61.50 57.13 54.27 51.45 49.93 50.34 52.72 51.31 51.36 48.30 51.61 51.63 52.21 53.66 53.26 51.72 53.10 52.45 50.61 53.37 54.70 56.83 57.87 58.65
53.10 53.37 53.57 53.70 53.70 53.84 53.91 53.91 53.98 54.26 54.22 54.09 53.89 53.89 53.98 48.04 30.28 44.45 59.66 59.76 59.16 55.34 55.51 51.99 48.98 44.42 42.05 47.41 53.02 47.48 52.47 54.51 54.99 56.44 54.99 53.00 55.16 52.70 52.58 52.95 56.46 57.42 58.03 57.34 57.27
52.41 52.81 53.23 53.10 53.46 53.35 53.39 53.39 53.74 53.99 53.89 53.60 53.35 53.19 48.05 40.58 40.11 47.08 55.27 52.53 49.98 55.95 54.05 49.71 46.19 45.01 40.82 42.32 46.79 47.56 50.20 51.90 54.65 55.49 55.41 55.37 53.30 53.13 53.23 56.15 58.04 58.48 57.82 56.68 56.05
52.29 52.36 52.61 53.03 53.08 53.14 53.40 53.48 53.46 53.19 53.22 53.37 53.15 52.53 45.13 36.68 47.24 48.02 48.08 47.32 46.94 45.56 47.16 49.99 46.12 46.07 42.34 41.97 44.29 44.58 45.69 48.46 49.99 49.57 50.95 51.27 51.99 53.31 54.51 57.10 56.19 56.21 55.68 54.90 54.87
53.23 53.03 52.72 52.86 53.20 53.48 53.64 53.40 53.31 53.13 53.40 53.95 54.03 50.54 44.40 41.39 49.17 48.22 48.12 45.23 45.79 46.11 44.08 46.78 49.75 46.57 44.34 40.80 44.36 43.98 40.75 44.08 45.13 45.57 46.27 50.49 47.52 49.00 53.76 55.09 54.08 54.04 54.50 54.55 54.56
52.88 52.74 52.28 52.36 52.66 53.11 53.91 54.05 53.87 54.34 54.89 54.38 53.95 49.51 41.23 49.29 48.90 47.18 47.94 46.49 47.60 47.44 46.73 47.68 46.93 44.11 43.47 44.26 44.39 41.31 39.86 37.83 44.46 46.22 47.27 48.16 42.67 49.95 53.34 53.89 53.61 53.91 54.25 54.00 54.27
52.24 52.32 51.67 51.94 51.86 52.61 53.73 53.51 54.24 55.20 54.86 54.92 48.58 45.16 40.34 52.15 48.43 50.41 48.63 45.63 46.64 47.26 46.77 49.31 44.11 41.12 42.16 38.47 35.13 38.26 36.66 37.65 41.64 46.77 47.02 46.72 43.84 50.08 52.05 51.97 51.42 51.96 52.25 53.28 54.45
51.53 51.97 51.49 51.63 51.88 52.72 52.98 53.32 53.52 52.68 53.35 52.69 51.01 41.28 43.06 42.98 47.74 49.66 50.02 48.65 44.97 44.60 43.05 41.62 38.68 36.32 34.83 34.95 31.37 34.11 35.34 38.53 39.08 44.29 46.40 45.25 44.75 48.59 50.83 50.41 50.05 50.67 51.56 52.38 53.18
51.38 51.30 51.95 52.26 52.12 52.32 50.33 44.81 41.30 39.13 40.59 38.69 40.71 41.02 43.04 46.99 49.18 46.61 48.29 45.82 44.95 42.07 35.08 37.63 32.45 31.42 36.03 38.47 39.05 38.13 36.46 36.40 40.91 45.19 44.87 44.23 44.12 46.46 48.84 49.27 49.61 50.55 51.16 51.81 52.62
51.30 51.28 51.42 52.47 52.25 52.22 46.19 41.50 42.18 42.35 34.98 43.37 42.73 43.09 46.27 46.70 41.13 44.13 47.28 40.60 38.54 33.11 36.48 33.57 32.05 37.05 38.85 38.89 37.91 36.85 34.84 34.60 39.53 42.93 41.40 41.16 41.87 44.88 46.72 48.17 48.27 49.04 50.40 50.93 51.47
50.76 50.96 51.33 52.09 51.59 46.45 43.01 44.75 46.33 43.03 33.50 39.00 43.05 43.60 44.90 44.35 40.61 41.15 44.14 40.88 36.55 33.11 32.56 31.07 34.91 39.87 38.04 36.39 35.65 35.32 34.63 35.64 35.88 40.39 41.55 39.62 37.95 40.52 44.04 45.63 47.98 49.73 50.33 50.26 50.44
51.20 51.32 51.53 51.32 45.59 43.66 42.77 47.84 46.04 43.11 27.86 35.94 40.04 44.06 44.51 43.59 40.11 46.68 46.40 41.80 36.81 32.66 33.65 31.99 36.42 36.15 35.46 34.76 35.71 31.04 38.80 39.09 38.38 35.44 30.94 38.86 30.03 38.10 41.63 42.87 44.85 45.54 47.55 47.36 48.76
50.95 51.11 51.37 50.65 43.13 42.36 46.01 45.49 45.41 40.55 15.89 37.49 39.45 46.90 43.91 39.53 41.67 43.54 47.52 42.75 36.00 35.84 34.02 31.21 32.96 32.87 33.34 34.76 37.78 33.75 38.72 38.00 37.76 35.20 32.02 34.07 29.94 36.74 40.41 39.86 42.59 45.29 46.94 47.17 49.55
51.10 51.09 50.72 46.24 42.78 45.58 46.84 44.70 41.74 25.73 15.07 33.45 39.31 37.80 37.13 39.36 40.42 43.15 43.45 46.92 44.73 38.24 36.07 34.21 38.56 36.41 34.89 37.64 37.26 38.66 35.83 35.82 35.89 32.11 25.49 33.28 32.08 34.13 37.32 40.34 42.81 44.44 45.58 47.69 47.74
51.00 50.46 49.18 47.79 41.64 45.09 44.22 39.34 25.21 19.06 34.99 32.24 33.55 37.01 35.28 34.81 36.91 38.80 37.62 36.87 34.14 29.71 30.39 36.00 34.88 38.08 38.71 33.40 36.10 34.13 27.76 21.82 21.73 22.63 25.32 35.07 32.20 35.95 39.07 41.56 42.67 43.35 44.47 46.30 47.35
50.15 49.65 47.05 47.85 45.43 44.86 40.22 31.01 20.58 27.51 31.47 37.56 36.52 35.65 31.11 34.81 35.02 36.44 35.23 32.94 38.05 36.38 32.41 29.99 26.65 34.46 38.33 34.87 31.71 30.31 29.16 22.62 20.06 21.98 25.44 35.77 29.85 35.52 42.71 45.23 46.07 45.99 45.36 46.03 46.28
48.55 42.10 42.43 46.00 47.35 43.22 34.70 24.02 21.47 31.04 35.73 34.72 35.09 30.44 30.43 34.45 33.87 33.29 32.39 33.13 37.04 38.55 31.23 29.87 29.96 40.01 39.74 40.99 37.81 32.57 27.20 32.07 26.54 28.23 24.55 29.76 35.89 41.04 43.97 44.09 45.16 44.36 44.88 44.73 45.79
40.44 40.32 42.43 46.58 45.63 39.90 31.06 29.24 31.30 37.76 38.46 37.10 29.38 32.72 28.06 30.37 30.17 30.77 31.41 37.12 36.14 39.76 39.80 34.49 27.90 36.79 39.16 39.02 38.34 35.02 37.37 26.76 24.09 20.93 20.67 27.48 30.22 33.15 38.36 41.05 44.01 43.37 43.32 44.49 51.58
40.14 38.82 44.70 45.80 44.72 35.69 24.96 29.53 35.08 40.41 39.28 35.65 32.82 31.22 31.44 30.54 30.68 29.95 32.06 36.10 39.27 37.80 39.21 34.35 29.79 31.62 36.46 32.63 29.61 31.06 30.28 31.02 28.61 26.90 22.69 22.60 27.51 38.18 39.70 41.82 42.13 43.29 45.73 45.35 53.36
36.97 33.47 45.01 44.48 33.31 29.50 26.16 34.25 39.33 38.34 40.45 38.12 37.31 34.67 32.49 32.91 31.05 31.67 31.70 35.44 40.59 39.56 33.86 35.74 30.60 27.06 30.29 35.93 38.07 34.51 32.33 31.54 24.71 25.88 27.11 26.53 29.00 41.97 41.25 41.10 42.31 45.15 47.73 51.16 55.50
37.05 37.98 44.51 42.15 25.26 25.78 31.49 35.27 38.17 37.24 37.65 37.03 35.25 36.44 36.19 33.21 29.88 33.00 35.14 40.13 40.67 38.26 35.24 35.80 28.92 23.40 24.72 30.11 36.07 32.27 34.51 33.84 33.62 31.08 28.35 25.16 28.54 41.62 41.37 42.76 44.34 44.11 52.27 54.94 55.68
38.55 31.91 34.65 35.02 33.99 29.29 30.32 32.70 34.06 39.93 38.57 38.32 35.76 37.05 33.65 33.30 35.21 32.71 33.27 37.82 39.81 39.69 42.85 40.02 29.87 26.04 19.67 26.25 31.49 30.67 33.85 35.82 32.91 28.38 29.87 31.33 33.32 38.42 40.54 42.03 44.94 46.04 52.88 53.56 56.47
36.09 30.28 33.72 27.04 30.54 32.63 32.04 34.71 32.80 33.77 38.93 38.83 34.71 34.78 33.95 31.18 32.04 30.49 34.03 35.26 38.10 39.95 37.16 35.89 28.41 30.13 30.90 32.63 33.10 32.11 32.00 32.96 32.14 33.41 30.02 33.75 34.00 38.42 40.95 43.07 44.65 49.87 51.97 54.84 56.31
32.39 32.57 35.14 33.99 35.17 34.36 32.74 31.17 33.15 35.11 35.64 34.71 33.89 35.56 34.87 32.03 33.75 31.55 33.84 33.36 31.71 35.16 37.27 36.64 29.92 31.99 30.19 33.77 33.82 31.79 33.82 34.55 34.69 35.44 34.98 35.51 34.71 41.71 44.18 45.96 47.66 52.67 54.45 55.14 56.38
36.67 37.53 35.56 32.56 32.62 33.09 32.26 34.68 34.50 36.42 37.39 38.69 37.76 36.16 33.61 35.12 38.14 37.94 37.90 37.48 36.40 32.90 34.27 35.60 33.20 31.14 25.94 32.17 32.69 29.84 33.02 34.37 35.41 37.58 36.37 32.07 37.07 44.32 46.04 46.35 49.61 53.03 53.84 55.74 56.87

GFSSW_sfc_wetblb_042.txt.gz
Wetbulb
53.18 53.55 53.44 53.45 53.81 53.84 54.06 53.93 53.97 54.16 54.33 54.63 54.72 54.61 54.71 54.58 54.56 48.99 42.93 47.28 52.39 59.45 61.15 53.36 59.16 58.44 54.78 53.47 55.52 50.54 40.72 38.24 42.47 44.40 46.41 49.83 47.71 52.56 54.60 53.49 55.37 56.30 56.73 58.40 59.60
53.25 53.23 53.30 53.49 53.57 53.56 53.50 53.79 54.18 54.16 54.18 54.48 54.44 54.29 54.29 54.45 47.77 44.47 49.92 54.30 56.71 59.09 53.47 49.38 50.05 54.33 47.74 48.35 53.35 49.15 41.46 41.90 47.37 49.34 47.64 49.61 49.31 50.68 51.21 51.47 52.22 54.83 57.81 59.09 59.85
52.83 52.63 53.04 53.60 53.62 53.52 53.64 53.58 53.63 53.99 54.31 54.25 53.89 53.78 53.83 52.25 37.18 36.28 59.28 59.24 58.59 58.73 56.22 52.46 51.80 52.34 47.02 49.38 48.72 50.65 47.45 50.69 49.66 50.50 50.92 51.81 51.42 52.03 50.44 48.54 51.57 51.80 54.94 56.14 56.96
52.51 53.05 53.15 53.29 53.52 52.84 52.89 53.16 53.68 53.87 53.88 53.65 53.20 53.41 53.13 46.80 29.83 41.75 59.31 56.14 56.00 55.35 54.01 51.88 47.36 43.09 41.80 48.28 51.25 46.40 51.84 53.37 53.48 53.70 54.22 52.00 53.75 52.28 52.16 52.32 55.08 55.19 55.90 56.02 56.00
52.71 53.05 53.07 52.82 53.05 53.01 53.00 53.35 53.58 53.45 53.60 53.18 52.84 53.26 46.78 38.73 38.12 46.75 54.70 51.53 48.02 47.11 52.74 49.82 44.55 43.95 39.28 42.25 47.67 49.21 48.72 52.21 54.93 55.33 55.25 55.75 53.64 52.81 53.14 56.36 57.38 57.10 56.96 56.06 55.79
52.25 52.44 52.60 52.64 52.64 52.95 53.36 53.34 53.59 53.36 53.18 53.21 53.36 52.98 43.77 35.03 46.76 48.48 47.57 48.67 45.97 42.46 44.03 49.24 45.21 45.63 42.81 40.89 44.63 44.05 47.28 49.98 50.08 49.94 50.27 49.71 49.95 50.25 52.47 55.76 55.53 56.11 56.13 54.95 54.49
52.31 52.03 52.14 52.33 52.41 52.72 53.61 53.83 53.73 53.53 54.20 53.87 53.99 51.12 42.67 38.91 48.35 49.16 47.79 45.71 45.12 46.13 41.66 44.48 50.46 45.35 42.72 39.43 43.08 42.16 39.88 41.92 43.38 44.80 45.80 50.59 47.43 48.47 52.77 54.07 53.19 53.78 54.65 55.07 54.31
52.26 51.84 51.91 52.07 52.28 52.41 53.47 53.98 54.06 55.26 55.42 54.17 54.38 47.01 38.86 48.70 48.49 47.39 47.27 46.02 47.41 46.50 44.85 45.59 45.44 41.68 41.55 42.42 42.38 39.72 37.95 36.89 43.97 43.82 45.36 47.61 42.18 49.70 52.82 52.49 51.86 53.40 54.03 54.25 54.98
51.78 52.20 51.70 51.95 52.39 52.86 53.22 53.39 54.34 54.78 55.12 54.80 46.84 42.32 38.28 50.60 47.70 50.11 48.13 45.27 46.59 46.11 45.24 48.45 43.25 39.84 41.33 36.62 33.68 35.76 35.51 35.07 39.39 44.79 44.67 45.18 42.47 48.40 51.38 51.28 50.28 50.43 50.71 51.64 52.22
51.62 51.83 51.83 52.06 52.51 52.95 52.78 53.63 53.38 53.18 53.28 52.28 50.51 40.08 41.45 41.70 46.58 48.50 48.70 47.61 44.74 43.70 41.84 40.16 37.46 34.58 33.79 33.57 29.74 32.08 33.22 36.58 36.85 42.39 44.15 42.19 42.94 46.55 48.97 49.70 49.57 49.98 50.89 51.18 51.38
51.30 51.62 52.04 52.25 52.22 52.53 49.32 43.58 39.97 38.59 39.82 37.66 39.28 40.11 42.00 46.06 48.42 45.63 47.63 45.05 43.83 40.66 32.30 36.00 31.14 29.90 35.28 37.67 38.22 36.26 34.64 34.51 38.62 43.42 42.30 41.43 42.33 44.79 46.41 46.75 47.12 48.47 49.87 50.86 51.99
51.34 51.35 51.62 52.00 51.98 51.99 44.34 40.58 41.66 41.96 34.64 42.46 41.48 41.67 44.59 45.29 40.50 43.68 46.29 39.15 37.73 32.50 34.58 32.22 29.23 35.03 37.80 37.84 36.53 35.22 32.55 32.38 37.36 41.17 40.00 38.49 38.02 41.14 42.84 43.72 46.05 47.74 48.76 49.36 49.84
50.77 50.70 51.31 51.71 51.62 45.91 42.17 43.64 44.68 41.39 32.98 37.72 41.52 41.01 42.67 43.09 39.97 40.72 43.05 39.72 35.38 31.96 31.51 29.12 32.92 38.36 37.16 35.26 34.02 33.49 32.55 33.06 34.16 38.70 40.32 38.22 36.89 40.01 43.49 43.61 45.22 46.19 47.68 48.93 49.69
50.56 50.64 51.38 51.08 44.76 42.84 41.90 45.64 45.44 42.22 27.26 33.36 38.67 41.39 42.63 42.49 38.17 45.58 44.83 40.55 36.47 32.70 34.35 30.42 35.12 34.89 33.51 33.36 34.59 28.87 37.26 37.32 36.74 33.67 28.74 37.06 28.76 37.05 40.75 41.77 43.38 44.07 45.00 46.67 46.87
50.61 50.58 50.41 49.99 42.15 41.54 44.54 44.99 43.09 39.18 15.84 36.08 38.51 45.68 43.95 37.64 39.49 41.83 46.83 41.14 35.89 34.69 33.57 31.45 32.03 31.15 31.25 32.84 36.18 32.59 37.25 35.53 35.81 32.46 29.99 31.95 28.25 35.46 37.92 37.97 40.62 43.62 45.07 46.23 45.97
50.92 50.49 50.11 45.74 41.66 43.89 45.46 43.10 40.39 25.77 14.50 32.48 38.23 37.15 36.48 38.05 39.03 41.27 41.90 45.40 44.01 37.95 37.44 35.22 36.85 35.16 33.71 36.29 36.48 37.73 34.31 33.13 32.73 29.89 23.57 30.16 30.44 32.21 35.01 37.86 40.09 42.61 43.79 45.06 45.86
50.53 50.35 48.29 46.91 40.36 43.73 42.98 37.65 24.89 18.43 33.35 31.37 32.32 36.04 34.98 33.33 35.63 36.87 35.74 34.36 32.76 30.13 30.98 34.44 33.61 36.54 37.20 32.11 34.11 32.60 26.34 20.43 19.86 20.14 22.60 32.88 30.23 33.65 36.89 40.24 41.13 42.26 42.97 44.02 45.16
49.96 47.53 47.29 47.02 44.02 44.16 38.53 30.21 20.46 26.28 29.60 36.63 35.73 35.20 30.64 33.48 33.69 34.92 33.72 30.86 36.99 35.38 31.24 28.63 25.57 33.54 37.14 33.33 29.61 28.81 27.68 21.90 19.35 20.28 22.51 32.96 28.00 33.56 40.84 43.77 44.05 44.12 43.79 44.02 43.76
47.69 42.08 41.80 44.49 46.45 41.34 34.59 23.63 21.45 29.14 35.04 33.96 34.11 29.71 28.73 33.24 32.60 31.86 30.86 31.45 36.10 37.29 31.14 29.86 29.39 38.63 38.35 37.27 34.59 29.55 25.06 31.11 25.36 25.72 21.92 26.58 32.90 38.17 41.56 42.36 43.26 42.39 43.49 43.05 43.94
39.36 40.14 42.14 45.42 43.79 39.00 31.29 29.32 29.70 35.93 37.46 35.76 28.52 31.45 26.80 28.78 28.99 29.77 30.26 35.80 35.27 38.91 39.35 34.41 27.88 35.59 38.23 37.54 36.79 32.75 33.92 24.95 22.59 19.70 19.20 24.72 27.64 30.70 36.72 38.37 41.13 42.12 42.23 43.21 44.69
38.85 38.16 43.62 44.08 42.91 35.27 25.08 28.29 33.71 39.10 39.06 35.03 31.96 31.32 30.32 29.10 29.84 28.79 30.62 34.84 38.33 37.15 37.84 35.10 31.19 32.15 36.39 32.93 30.08 31.62 27.96 28.43 26.77 24.34 21.58 21.31 25.72 35.62 37.38 39.24 39.06 40.19 41.98 43.84 48.86
36.21 33.09 43.49 42.61 32.42 26.87 25.00 32.08 38.28 37.47 40.31 37.84 36.65 35.07 31.99 32.09 30.66 30.46 30.54 34.43 40.18 38.42 33.04 35.60 31.35 27.49 30.66 35.48 37.13 33.25 29.43 29.81 25.39 24.06 26.49 23.75 25.50 38.23 38.81 39.70 41.46 42.88 45.24 48.67 53.87
37.59 37.61 43.26 40.05 23.32 23.62 30.57 34.05 36.64 36.36 36.24 36.57 35.24 35.74 35.50 32.83 29.44 32.74 33.69 39.18 39.24 37.68 34.76 36.56 29.45 24.94 25.79 31.27 34.93 29.81 32.52 31.21 30.02 29.73 26.13 23.24 26.66 39.63 40.20 41.35 42.75 43.43 45.19 48.11 54.98
37.08 30.02 33.90 33.81 31.92 28.55 30.69 32.12 33.33 38.17 37.70 37.68 35.72 36.97 34.66 32.68 35.07 32.97 33.52 37.15 38.52 38.51 42.19 38.80 32.84 27.13 21.28 26.04 30.39 28.32 31.69 32.44 30.85 26.05 26.16 28.65 31.30 37.06 39.66 40.13 42.40 43.70 45.44 50.88 55.47
34.13 29.35 33.85 25.47 27.43 30.82 33.78 33.74 32.66 32.02 38.00 37.12 34.38 34.92 34.18 31.73 31.46 30.67 34.05 35.51 37.45 39.59 36.57 36.12 30.43 29.52 30.57 32.18 32.56 31.22 30.95 31.65 29.59 30.68 28.37 31.12 31.72 36.41 39.21 40.39 42.27 43.98 47.42 53.01 55.19
27.71 30.91 33.09 29.75 31.59 30.63 31.19 32.66 32.58 34.21 34.76 33.51 33.47 35.00 34.76 31.91 32.20 31.24 33.75 34.31 34.35 35.42 34.27 35.98 28.94 31.99 28.86 31.83 32.20 30.57 32.68 32.68 32.56 32.29 31.83 32.89 32.78 39.67 42.62 43.40 46.74 46.82 49.53 52.99 55.74
38.66 34.88 34.56 31.53 28.52 26.62 26.92 32.44 33.43 34.33 36.31 37.64 36.99 35.08 33.47 35.20 38.30 37.97 37.70 36.67 36.34 35.02 31.88 31.06 31.48 26.69 24.55 31.13 30.15 25.76 31.08 32.71 33.77 34.97 33.84 29.34 34.98 39.84 40.97 46.55 47.86 47.92 52.66 53.70 56.26

GFSSW_sfc_wetblb_045.txt.gz
Wetbulb
53.24 53.24 53.05 53.27 53.61 53.71 53.93 53.95 53.97 54.36 54.53 54.58 54.61 54.40 54.35 54.35 54.49 49.74 44.59 48.85 52.84 58.90 60.05 52.00 53.01 56.04 58.41 57.06 58.96 55.09 47.01 44.58 45.86 46.22 47.53 53.12 52.30 55.95 57.44 55.95 57.38 59.16 59.95 61.45 65.30
52.62 53.11 53.27 53.30 53.23 53.26 53.19 53.40 53.89 54.04 54.25 54.55 54.41 54.10 53.72 53.95 49.14 44.89 50.17 54.79 56.75 58.90 52.94 48.96 47.15 54.52 54.44 53.69 56.71 53.81 48.38 47.29 49.88 50.67 50.00 52.01 53.20 54.46 54.56 54.79 55.38 57.47 60.41 60.94 62.63
52.71 53.12 53.37 53.49 53.35 53.11 53.11 53.03 53.39 53.75 53.90 54.15 54.02 53.50 53.48 52.80 42.26 41.71 59.14 56.57 56.96 57.76 53.81 52.83 52.37 52.93 50.69 51.64 54.04 53.93 49.68 51.97 51.35 51.51 52.57 51.94 52.69 55.08 53.52 53.02 55.95 55.68 57.72 59.84 60.53
52.69 53.05 53.11 53.04 53.23 53.12 53.20 52.94 52.94 53.73 54.08 53.77 53.51 53.37 53.67 48.42 35.33 49.13 57.34 55.17 55.57 51.89 52.54 53.25 50.02 46.64 47.87 48.20 51.88 48.64 52.81 54.06 54.83 54.11 53.42 51.50 54.25 53.53 54.49 54.68 57.54 58.58 59.37 59.44 59.73
52.51 52.72 52.78 52.75 52.98 53.09 53.33 53.58 53.69 53.71 53.83 53.91 53.65 53.83 49.42 43.09 43.01 48.88 54.83 52.45 52.14 50.01 47.65 51.10 47.20 46.09 44.52 47.62 50.80 49.43 50.54 52.94 54.59 55.38 55.48 56.51 55.56 55.78 56.63 59.14 60.76 61.11 60.89 60.16 60.33
52.33 52.44 52.58 52.66 52.91 53.19 53.64 53.78 53.77 53.51 53.63 53.77 53.84 53.54 45.98 38.17 48.80 51.04 50.77 51.31 49.72 48.39 46.59 48.84 49.79 48.15 46.04 46.12 46.82 50.94 51.54 51.66 53.07 54.57 55.28 53.91 54.12 55.90 56.54 58.99 58.47 58.34 58.54 59.22 59.58
51.96 52.21 52.35 52.37 52.79 53.22 54.15 54.31 54.12 54.26 55.55 53.85 53.30 51.69 44.38 43.26 50.75 52.31 51.56 50.65 49.71 48.69 46.02 47.15 47.70 48.57 46.77 43.93 48.07 47.94 45.74 48.09 50.49 52.43 52.53 53.52 50.69 51.93 55.96 56.89 55.79 56.35 57.36 58.37 59.20
52.20 51.99 51.99 52.25 52.60 53.24 53.71 54.20 54.20 55.05 55.92 54.66 54.05 49.86 42.32 50.63 52.94 51.42 51.75 50.27 50.61 49.78 47.89 48.56 47.22 45.13 47.13 48.17 45.92 43.93 44.68 41.41 47.85 47.34 49.67 50.70 45.56 53.07 55.88 55.01 54.51 55.61 56.63 57.58 59.17
52.29 52.22 51.34 51.85 52.60 53.10 53.43 53.72 54.47 54.83 55.42 54.96 50.59 47.04 42.71 52.64 48.51 51.65 52.30 48.46 49.33 48.60 48.00 48.58 46.82 43.35 45.30 42.00 40.26 42.56 38.63 40.84 43.56 48.77 47.83 47.51 46.14 51.78 54.25 54.18 54.75 55.86 56.49 56.98 57.69
51.66 51.18 50.93 51.58 52.49 53.03 53.07 53.32 54.01 55.39 53.75 52.81 51.23 42.98 45.76 44.07 48.18 49.55 51.67 50.49 46.72 46.22 44.94 44.06 43.80 40.55 41.39 40.34 33.76 37.14 38.08 40.88 41.52 46.26 46.91 45.84 46.12 50.21 52.58 52.39 53.28 54.42 55.16 55.70 56.49
51.36 50.97 50.76 51.64 52.23 52.30 50.60 49.50 45.84 44.52 45.52 41.40 42.19 41.79 43.73 47.70 49.90 47.79 49.54 47.14 46.17 44.32 39.37 41.24 37.22 34.81 38.39 41.17 41.84 40.84 40.03 39.82 43.08 46.84 45.97 45.05 46.18 48.46 50.80 51.17 51.41 52.47 53.60 54.83 55.90
50.92 50.72 50.93 51.19 51.65 51.89 49.27 45.58 45.36 45.95 39.77 44.55 44.14 43.58 45.96 47.01 42.11 46.01 48.64 42.08 40.74 37.62 39.87 37.82 34.05 38.81 40.18 40.18 39.71 39.37 37.92 38.10 41.67 44.30 44.08 45.28 44.77 47.65 48.34 49.29 50.98 51.87 52.92 54.07 55.16
50.25 50.43 50.64 50.89 51.21 49.32 47.43 47.15 50.02 46.47 39.24 41.04 43.89 43.15 45.07 46.48 41.87 42.78 45.71 42.95 39.35 37.15 37.86 35.81 37.78 40.06 38.97 38.22 37.31 38.36 37.29 38.19 38.12 41.91 44.25 42.64 41.14 44.04 47.97 49.45 50.32 51.49 52.30 52.98 53.66
50.29 50.09 50.57 49.99 47.33 47.30 46.46 49.71 49.32 47.24 34.91 36.03 40.36 43.37 45.39 45.45 39.95 46.78 47.10 43.92 39.96 36.77 37.81 37.23 40.91 36.91 37.11 35.94 38.44 34.69 40.29 39.95 39.24 38.52 35.31 42.83 34.14 42.70 45.90 46.78 48.28 49.53 50.80 51.64 52.98
50.27 50.34 50.22 49.47 46.27 45.82 47.83 49.64 48.04 44.99 23.49 37.51 40.30 48.27 46.03 41.08 42.05 42.53 48.15 43.95 38.33 38.53 38.06 36.11 37.43 36.76 35.02 36.59 38.97 36.25 40.57 39.06 38.35 37.21 36.89 38.08 34.94 40.04 45.09 43.69 46.25 48.58 49.99 51.51 52.50
50.68 50.43 49.80 47.76 47.38 48.39 49.19 47.82 46.17 32.87 22.04 33.60 39.98 38.76 39.20 40.87 40.65 42.85 42.89 45.98 45.45 40.54 40.82 39.40 43.29 40.09 37.84 39.31 39.65 40.83 38.66 38.95 38.93 37.03 30.03 35.70 35.29 37.34 41.19 43.77 46.06 48.15 49.31 50.58 51.89
50.23 50.16 48.33 48.00 45.90 48.37 47.99 44.99 32.10 26.47 35.73 32.73 34.46 38.09 37.26 36.04 37.48 38.64 37.43 37.44 35.39 31.79 32.77 37.16 38.30 40.58 41.19 36.25 38.89 37.86 35.52 28.82 26.93 27.78 27.72 37.44 34.52 37.96 43.47 45.48 46.11 47.21 48.97 51.33 52.47
49.90 47.15 49.12 49.32 49.87 49.16 45.34 37.78 25.84 29.03 31.65 38.03 37.19 36.96 33.44 36.34 36.36 36.52 35.75 34.19 39.02 36.44 32.52 30.78 28.51 37.06 40.36 38.09 35.11 35.56 35.21 30.52 23.61 26.09 29.60 35.97 31.46 37.62 45.00 47.27 48.53 48.93 50.43 51.86 53.34
47.68 47.55 47.83 49.23 49.70 47.15 42.54 31.99 29.85 32.13 36.20 35.11 36.22 32.08 31.98 35.20 35.07 35.11 34.71 34.14 37.31 38.45 30.77 29.79 29.53 37.64 40.05 41.16 39.28 35.21 31.65 37.99 31.78 32.85 31.05 33.94 37.40 41.84 44.50 45.66 47.06 48.12 49.67 51.64 53.10
45.00 45.54 47.06 48.53 48.40 46.46 39.33 32.34 33.75 37.16 38.51 37.38 30.53 33.48 29.65 32.88 32.55 33.43 33.23 37.37 36.53 39.61 40.36 35.04 28.76 36.41 36.55 41.11 40.15 38.06 39.72 30.94 32.48 25.35 24.78 31.49 33.50 36.48 41.50 43.34 46.02 47.10 48.43 50.43 52.90
44.67 44.66 48.11 47.93 48.33 42.73 34.94 33.52 35.71 40.05 40.22 36.05 33.77 32.84 33.50 32.17 33.22 32.42 32.72 36.83 39.22 38.73 40.36 37.87 33.76 32.19 36.39 34.16 34.19 35.75 34.74 35.21 35.50 33.49 28.80 29.45 34.14 43.46 43.69 44.66 45.33 47.17 48.98 50.54 51.95
42.61 39.98 47.97 47.08 40.54 35.35 34.79 34.84 38.10 38.07 40.67 38.68 38.69 36.71 34.56 34.43 32.37 32.40 31.83 35.64 41.08 40.25 35.10 38.15 34.52 29.73 31.62 38.31 39.85 37.82 35.39 35.89 31.14 29.64 32.83 32.09 33.03 44.56 45.14 45.98 47.00 47.44 48.68 51.31 53.13
39.50 39.78 47.48 45.38 34.41 33.91 35.36 35.10 37.03 37.13 37.43 37.00 35.63 37.46 37.78 34.49 30.95 34.09 34.98 39.84 40.59 39.00 36.31 38.32 32.88 26.35 29.46 34.60 37.63 34.79 36.28 36.82 36.22 35.71 31.98 29.73 32.75 44.68 45.42 46.29 47.02 47.14 48.61 50.60 52.76
40.40 36.45 39.73 39.89 37.86 34.41 31.83 33.15 33.13 38.96 38.11 39.01 37.68 38.45 35.96 34.64 36.31 33.52 34.46 38.05 40.06 39.81 42.27 41.15 33.94 30.24 25.80 29.55 33.92 32.10 34.25 36.21 35.27 31.25 32.30 33.34 35.71 40.48 42.89 43.69 45.75 47.30 48.98 49.91 51.61
37.54 35.47 36.89 33.20 33.64 33.09 34.53 33.40 32.06 32.33 38.44 38.42 36.17 36.53 34.40 31.59 31.73 31.23 35.33 36.50 38.88 40.86 39.86 38.50 30.80 33.12 33.57 34.51 34.55 33.82 33.50 34.52 33.19 34.58 31.21 34.72 35.70 39.50 42.62 44.26 45.87 47.46 48.51 48.69 50.48
36.13 35.82 38.17 34.79 34.85 34.42 34.06 33.14 33.36 34.63 34.35 33.85 33.59 35.83 36.18 32.71 33.24 30.71 33.36 34.78 34.97 38.25 36.77 39.07 31.45 33.89 31.02 34.15 34.26 31.99 34.29 34.61 34.88 35.22 35.41 35.85 35.46 42.56 44.36 45.33 45.56 46.73 48.19 48.92 51.70
39.63 38.96 37.67 35.02 33.61 32.71 33.36 33.75 33.82 35.01 36.83 37.95 36.44 35.31 34.59 36.81 39.24 39.55 39.60 39.43 37.57 35.88 34.71 34.93 32.72 30.61 26.08 32.45 32.27 28.33 33.71 35.18 35.99 37.95 37.37 33.37 38.57 42.73 41.77 43.59 45.25 46.97 49.77 51.31 54.41

GFSSW_sfc_wetblb_048.txt.gz
Wetbulb
53.58 53.73 53.74 53.88 53.86 53.76 54.00 53.70 53.57 54.05 54.64 54.83 54.90 55.00 54.91 54.66 54.70 53.76 49.05 52.49 53.96 59.03 59.68 53.84 51.64 57.91 60.05 59.92 59.56 58.71 51.07 48.85 49.60 48.68 49.43 52.59 52.89 56.37 58.11 58.50 60.56 61.41 62.31 63.76 67.50
53.09 53.62 53.68 53.76 53.75 53.70 53.84 53.82 53.92 53.98 54.29 54.55 54.61 54.67 54.56 54.30 52.96 49.17 54.36 55.93 57.08 58.35 54.06 50.48 49.42 53.59 55.17 55.81 58.02 56.08 51.68 51.40 53.41 53.21 50.86 52.14 53.50 55.10 56.12 56.88 59.26 59.85 62.76 63.01 65.80
53.12 53.54 53.62 53.72 53.72 53.56 53.66 53.75 53.80 54.20 54.62 54.87 54.58 54.42 54.39 54.68 48.45 49.88 58.55 55.69 57.12 57.83 54.73 53.30 52.51 50.61 52.00 56.00 55.18 55.60 51.78 55.17 55.16 55.17 53.67 51.99 53.32 55.84 55.31 55.13 59.72 59.45 61.38 61.81 62.60
53.12 53.36 53.44 53.41 53.52 53.51 53.83 54.02 54.42 54.79 54.87 54.87 54.83 54.38 54.43 52.50 39.78 50.71 56.72 55.84 56.81 55.43 53.75 53.22 51.56 48.30 50.25 50.79 55.11 51.98 55.47 55.59 55.96 56.90 53.94 52.42 54.07 54.48 55.08 55.88 59.99 60.23 61.19 62.20 62.68
52.80 53.02 53.01 53.17 53.46 53.52 53.80 54.21 54.56 54.67 54.21 54.41 54.42 54.31 53.82 47.16 45.87 52.05 55.04 55.65 54.70 52.72 48.89 49.89 50.38 49.05 46.73 50.07 52.44 51.92 53.17 55.53 56.67 56.83 56.79 56.63 54.48 55.66 56.43 58.71 59.99 60.35 61.39 62.02 62.96
52.48 52.40 52.71 52.77 53.14 53.41 54.29 54.57 54.55 54.47 54.20 54.74 54.55 53.79 50.53 43.97 52.30 54.23 54.80 54.95 54.01 52.43 49.61 48.68 49.58 51.69 48.91 48.27 49.16 52.44 52.97 53.69 55.05 54.89 56.22 54.49 55.41 56.51 58.12 60.85 60.63 61.37 61.83 62.11 61.73
52.35 52.18 52.24 52.45 52.82 53.36 54.22 54.57 54.48 54.65 55.56 54.99 54.25 54.07 49.19 47.11 53.24 55.47 55.43 54.15 54.10 52.71 50.07 50.56 49.80 49.03 50.48 47.49 50.46 50.14 47.82 50.78 53.28 54.68 53.86 55.92 52.69 53.51 57.64 59.01 59.23 60.06 60.74 61.20 61.73
52.51 52.49 51.97 52.10 52.51 53.42 53.96 54.42 54.24 54.99 56.21 55.18 54.52 53.49 47.19 53.36 55.89 54.58 54.93 53.39 54.21 54.06 52.17 52.05 51.41 47.57 47.34 51.20 49.13 46.08 47.29 44.04 49.82 52.19 53.50 53.27 48.54 55.26 57.92 58.27 57.71 58.77 59.76 60.16 61.33
52.10 52.36 51.53 51.80 52.49 53.19 53.58 53.53 54.23 55.12 55.96 55.29 54.11 51.45 45.31 53.63 50.07 52.60 53.66 50.69 52.10 52.28 52.28 51.40 49.50 46.18 45.48 43.81 43.36 45.37 41.09 43.67 46.11 51.13 51.27 50.00 49.23 54.60 57.04 57.07 57.47 58.24 58.73 59.24 60.35
51.78 52.05 51.23 51.47 51.97 52.78 52.81 53.63 55.39 55.77 55.54 55.02 54.07 48.25 48.98 46.21 50.39 51.52 53.09 51.79 49.68 49.58 48.30 47.81 46.45 43.45 43.09 41.37 36.39 40.15 41.89 43.39 44.13 49.03 49.77 48.87 48.42 52.54 55.23 54.72 56.41 57.12 57.81 58.73 59.87
51.36 51.42 51.53 51.36 51.86 52.23 53.39 53.73 50.81 48.66 49.88 45.93 45.91 45.34 46.87 50.39 51.89 49.47 50.93 49.62 49.43 47.25 42.78 46.45 41.50 39.17 41.31 42.55 42.55 42.77 42.83 43.29 45.88 48.64 47.92 48.21 48.53 50.56 53.33 53.89 54.71 55.91 56.97 57.82 58.48
51.13 51.02 51.04 51.32 51.60 51.90 53.46 49.25 48.45 49.57 43.71 48.07 47.66 47.22 49.20 49.84 44.89 47.63 50.06 45.28 44.62 41.34 43.81 42.13 38.90 42.88 43.06 42.18 41.19 41.51 40.88 41.96 45.34 47.37 47.63 47.31 47.17 50.62 52.32 53.19 54.57 55.11 56.04 56.89 57.94
50.97 50.46 50.76 50.90 51.56 53.15 51.72 50.21 54.11 52.83 44.41 43.90 46.63 45.96 46.58 48.44 44.42 45.13 47.54 46.03 43.02 40.69 41.17 39.06 41.14 43.49 41.38 40.28 38.68 39.59 39.05 40.61 41.58 45.49 47.37 46.42 45.11 47.96 51.52 53.20 54.08 54.95 55.85 56.39 56.82
51.49 50.58 50.96 50.63 49.68 53.81 51.22 53.39 54.36 53.00 40.31 39.39 42.68 45.80 46.98 47.66 43.09 48.30 48.32 46.07 43.07 39.76 41.01 40.79 43.34 41.10 40.31 39.10 40.05 36.35 41.56 41.39 41.48 41.64 38.18 46.42 37.62 45.83 49.02 49.97 51.70 53.25 54.37 55.27 56.27
51.15 50.98 51.16 49.84 51.80 51.92 52.10 54.92 54.18 50.65 30.33 39.94 42.23 49.45 47.47 43.79 44.09 44.06 48.90 45.94 40.88 40.89 41.28 38.89 40.07 39.81 38.94 39.76 41.42 38.50 41.95 41.26 41.78 40.76 40.95 41.30 39.37 43.73 48.01 47.13 49.96 52.51 53.82 55.17 56.07
51.23 51.05 49.89 50.64 53.10 53.50 54.87 54.24 50.94 38.04 25.21 37.09 42.20 41.82 42.14 43.46 42.62 44.75 45.04 47.21 46.68 42.51 43.06 41.76 45.56 43.20 41.87 43.16 43.10 42.76 40.46 40.46 41.21 40.29 34.78 40.09 39.97 40.89 44.38 47.21 49.77 52.07 53.29 54.12 54.50
51.05 50.17 50.82 53.52 51.41 54.89 54.94 50.07 37.98 32.26 39.45 36.44 37.95 41.65 41.07 39.51 40.51 41.37 40.61 40.05 38.68 34.73 35.72 39.68 40.27 43.19 44.75 40.51 42.54 40.48 37.13 31.22 30.19 31.06 31.67 41.06 38.85 41.27 46.94 48.45 49.60 49.68 51.37 53.57 55.01
50.00 48.26 50.83 55.08 56.08 54.89 52.42 42.99 31.45 34.66 36.07 41.42 40.55 40.96 37.23 39.49 39.63 40.28 39.13 37.62 41.15 39.80 36.43 32.92 30.69 38.47 40.76 40.10 37.01 37.38 36.66 31.30 26.40 29.34 32.46 39.82 35.66 41.11 48.02 49.81 51.11 51.67 52.47 53.49 55.52
48.64 55.09 55.41 54.88 55.86 54.07 47.13 36.79 36.02 36.78 39.13 38.38 39.69 36.63 36.56 38.47 38.88 39.24 38.86 37.52 39.41 40.83 33.79 32.67 32.16 41.48 40.41 41.07 42.00 37.95 33.95 39.94 34.04 36.22 34.56 37.47 40.82 45.21 47.68 48.08 49.97 50.52 51.30 52.97 54.99
50.72 53.28 52.45 54.23 55.12 51.73 43.84 34.81 38.03 40.57 41.06 40.64 34.71 36.88 34.37 37.14 36.62 37.21 36.89 39.68 38.83 41.05 43.21 37.74 31.36 39.46 39.54 39.53 42.56 40.99 41.72 32.83 34.13 26.38 28.18 35.66 37.63 38.94 44.40 45.27 47.90 49.60 50.94 53.38 55.84
51.14 48.49 51.44 53.65 53.70 48.01 39.31 37.84 38.74 42.31 42.17 38.77 37.00 35.93 36.82 35.10 36.82 36.38 35.82 39.76 40.94 40.60 42.40 40.03 36.62 36.22 39.47 33.91 34.85 36.95 36.08 35.45 36.26 34.26 30.57 32.07 36.73 46.18 45.79 47.97 49.08 49.68 51.53 52.89 54.44
48.79 43.53 51.92 52.70 43.72 44.63 38.66 38.20 39.31 40.62 43.04 40.72 41.25 39.35 36.96 37.50 35.62 35.83 35.30 38.52 43.00 42.75 37.88 40.14 37.16 32.55 35.36 39.53 41.72 39.65 36.54 37.81 31.69 31.32 34.47 35.28 37.85 48.47 49.94 50.03 49.70 49.62 51.62 52.93 54.02
43.42 45.02 52.24 49.88 38.67 37.47 39.48 38.50 39.86 39.71 39.75 38.54 37.85 40.29 40.44 37.56 32.82 36.75 37.83 42.01 42.48 40.92 37.87 40.53 35.68 29.82 33.02 37.40 40.38 37.06 38.42 39.59 39.75 38.02 33.82 33.20 36.92 48.25 48.29 48.09 49.33 49.70 51.36 52.25 52.90
43.01 40.15 46.44 46.40 45.05 37.68 36.44 37.55 36.76 40.98 40.18 40.89 39.23 40.89 38.96 37.55 39.17 35.10 36.50 39.91 42.22 41.61 42.54 41.86 36.49 32.27 29.07 33.28 36.81 34.06 36.96 38.70 38.48 33.59 34.44 36.16 39.27 44.02 46.50 46.88 48.48 49.62 51.48 51.59 52.11
43.93 40.85 41.65 39.64 42.61 39.55 39.18 37.44 35.95 35.50 40.58 41.81 38.71 38.17 35.88 33.48 35.18 34.84 37.27 38.16 41.11 42.73 42.42 39.63 33.90 36.51 37.45 38.08 37.99 36.76 36.46 37.81 36.87 37.96 34.76 37.60 38.47 42.87 45.41 46.60 47.81 49.82 49.77 49.79 51.75
41.43 39.59 43.06 40.48 40.66 39.45 37.83 37.25 35.84 37.23 37.79 36.75 35.79 36.68 36.43 33.28 34.34 32.72 35.91 37.43 36.13 41.19 40.10 41.02 33.65 36.16 34.40 37.85 37.71 35.39 37.47 37.94 38.42 38.72 38.42 38.91 38.72 45.22 46.81 47.47 47.11 47.91 48.99 49.41 51.62
45.89 40.89 38.25 38.18 38.52 37.66 38.91 36.94 36.45 38.57 39.90 40.54 39.13 36.56 35.99 38.98 42.60 43.29 42.57 42.19 40.16 37.64 36.44 37.09 35.72 33.08 29.49 35.19 35.20 31.58 36.79 38.50 39.18 40.42 39.87 36.51 41.43 45.51 45.19 45.99 47.10 48.25 49.01 50.37 52.62

GFSSW_sfc_wetblb_051.txt.gz
Wetbulb
54.00 54.14 54.30 54.40 54.42 54.35 54.47 54.63 54.66 54.69 55.07 55.21 55.46 55.54 55.64 55.55 55.25 56.59 52.37 53.39 55.72 60.32 59.65 53.48 54.46 54.55 58.91 57.32 59.49 60.20 53.07 50.71 51.54 51.43 51.80 54.63 53.81 56.12 58.32 56.94 58.87 63.15 64.35 65.60 68.01
53.86 54.05 54.19 54.11 54.25 54.28 54.41 54.60 54.84 55.08 55.19 55.74 55.89 55.70 55.33 55.23 55.10 52.77 56.07 56.66 57.35 58.89 54.87 51.75 51.10 53.02 54.31 56.45 57.79 56.08 53.04 52.69 55.26 55.29 54.12 54.59 54.59 55.20 55.60 56.78 58.02 62.00 63.57 64.61 67.44
53.52 53.72 53.80 53.98 54.18 54.15 54.30 54.65 55.10 55.33 55.49 55.53 55.52 55.52 55.40 55.78 53.42 52.97 57.98 56.09 57.31 58.08 54.71 54.65 53.50 51.97 50.58 54.90 55.45 56.41 53.46 56.00 56.48 57.13 56.99 54.69 54.58 56.34 54.76 55.00 58.46 59.85 62.69 64.02 64.54
53.47 53.66 53.72 53.71 53.79 54.03 54.20 54.74 55.27 55.72 55.62 55.47 55.28 55.50 55.35 56.07 43.68 54.08 60.70 57.97 58.27 58.04 53.77 53.33 52.30 49.95 48.96 49.19 54.32 52.36 55.70 56.54 56.37 57.51 57.75 55.55 55.68 54.80 55.90 56.10 59.79 62.03 63.89 64.10 63.60
53.12 53.23 53.25 53.30 53.54 53.81 54.17 54.68 55.16 55.57 55.48 55.43 55.64 55.43 55.68 51.33 49.23 55.59 56.33 59.25 57.62 54.27 51.27 49.90 51.12 51.03 48.18 49.81 51.63 51.67 53.74 55.88 56.94 56.83 57.45 57.96 55.90 55.98 56.28 58.33 59.43 60.10 62.77 62.75 63.13
52.88 52.88 52.84 53.07 53.29 53.62 54.15 54.77 54.96 54.91 55.22 55.81 56.46 55.05 54.91 47.21 53.97 55.65 55.60 55.41 55.24 54.18 52.58 51.06 48.65 51.55 50.47 50.46 49.78 52.03 52.87 53.41 55.10 56.02 57.11 56.06 55.92 56.51 58.55 60.01 59.53 59.10 59.37 61.40 62.48
52.79 52.68 52.79 52.66 53.04 53.36 54.35 54.71 54.65 54.59 55.50 56.70 55.83 56.39 53.49 48.52 54.74 55.85 56.09 54.54 55.14 53.77 51.31 53.22 52.12 48.83 50.86 49.30 52.51 51.38 48.28 50.36 51.97 54.05 54.27 56.67 53.12 53.52 58.18 59.57 59.60 60.20 60.85 61.96 63.36
52.72 52.55 52.36 52.35 52.91 53.24 53.61 54.07 54.18 54.70 56.31 57.11 55.47 57.08 50.33 53.99 55.71 53.70 54.43 53.82 54.76 54.99 53.94 54.24 53.60 50.32 48.37 49.13 48.30 47.30 48.69 44.71 49.67 51.79 53.08 53.44 49.18 55.03 57.84 57.46 57.86 59.05 59.98 60.84 62.80
52.61 52.49 51.82 52.10 52.68 52.97 53.29 53.56 54.58 55.52 56.18 55.81 55.95 54.20 48.51 55.01 51.00 52.78 53.52 51.00 52.11 53.24 53.39 53.52 52.18 48.55 48.11 43.47 41.61 43.87 41.83 44.83 46.58 51.22 51.07 50.51 49.77 54.79 57.49 57.57 57.54 58.59 59.59 60.04 61.15
52.67 52.45 52.16 51.95 52.45 52.90 53.03 52.57 56.14 55.67 56.70 57.75 55.28 50.58 51.21 47.02 50.84 51.72 53.69 52.14 49.77 50.55 50.01 49.60 48.91 45.84 45.70 42.91 36.68 39.73 41.16 43.64 44.64 48.78 50.10 48.88 49.21 52.62 55.20 55.62 56.83 58.07 59.23 60.06 60.86
52.43 52.45 52.18 52.11 52.26 52.47 53.30 56.32 52.97 52.08 52.95 48.00 48.02 47.15 48.03 51.10 52.29 50.47 51.48 49.94 50.31 48.79 44.47 47.35 44.16 41.95 44.18 45.14 44.76 43.58 41.72 41.51 45.45 49.00 48.26 47.82 49.28 50.84 53.69 54.27 55.13 56.77 58.37 59.46 60.71
52.34 51.65 51.78 51.57 52.26 52.27 53.93 51.46 50.58 51.92 45.22 50.52 49.41 48.77 49.85 50.84 46.34 48.76 51.20 46.42 46.24 42.71 45.09 43.42 40.93 44.87 45.66 44.93 42.95 42.02 40.86 41.03 44.06 46.72 47.95 48.18 47.70 50.63 52.90 53.75 54.82 55.53 56.89 58.41 59.43
52.41 51.65 51.57 51.78 52.07 53.02 53.53 52.05 55.67 54.80 46.34 46.84 48.38 47.59 47.96 49.10 46.18 46.74 48.87 47.23 44.21 42.01 42.37 40.42 42.37 44.95 43.46 42.41 41.11 41.20 39.86 40.33 41.03 44.94 47.30 47.16 45.23 48.05 51.54 53.58 54.93 55.82 56.86 57.93 58.63
52.14 51.96 51.94 51.62 50.13 55.31 53.60 55.16 56.24 54.96 42.70 42.64 44.72 47.36 48.06 48.60 45.26 49.26 49.41 46.87 44.45 41.36 42.42 41.77 44.22 42.47 41.78 40.60 41.87 38.22 43.02 41.92 41.17 40.02 37.20 46.36 38.35 46.18 49.26 50.92 52.61 54.43 55.80 56.63 57.62
52.10 52.08 51.34 49.52 54.99 53.30 54.14 56.89 56.22 53.46 34.06 42.72 44.38 50.90 48.64 45.61 46.14 46.40 49.67 47.37 42.21 41.95 42.42 40.08 41.31 40.89 40.22 41.11 42.86 40.20 43.82 42.09 41.63 39.94 39.62 40.55 40.08 44.12 49.47 48.37 50.97 53.56 54.88 56.44 57.44
51.99 51.56 50.88 52.28 55.78 55.37 56.80 56.53 53.61 41.46 31.76 39.97 44.23 43.46 44.04 46.18 45.07 46.67 46.58 48.85 47.50 42.80 43.53 42.80 46.49 44.50 42.48 44.00 43.73 45.13 42.38 42.13 41.25 39.67 33.46 39.20 39.52 41.21 45.21 48.67 50.86 53.22 54.56 55.87 56.99
51.85 50.89 51.62 55.95 53.74 56.71 56.69 52.57 40.82 35.88 42.83 39.61 40.63 43.51 43.21 42.57 42.69 43.07 42.93 42.42 40.04 36.81 37.10 40.32 40.98 43.13 45.47 41.61 44.43 42.87 39.89 31.64 29.48 30.98 31.18 40.21 39.18 41.91 47.94 50.05 51.09 51.86 53.77 55.82 56.33
50.68 49.64 53.24 57.06 57.89 57.00 54.49 46.44 35.52 39.34 39.93 44.11 42.86 42.83 40.88 41.78 41.86 42.18 41.96 40.22 42.76 41.10 38.13 34.27 31.87 39.46 43.54 41.64 39.72 39.71 37.47 32.56 24.01 27.51 32.92 39.74 34.11 41.30 49.16 51.70 52.02 52.80 53.18 54.75 55.64
49.34 56.26 56.34 58.04 57.83 55.94 48.90 39.69 39.67 40.50 41.77 40.88 42.19 39.93 39.90 41.45 41.88 41.56 41.15 40.10 41.05 42.64 36.04 34.35 33.86 43.00 43.46 44.48 43.08 39.74 37.06 42.34 34.46 35.49 31.07 34.77 40.33 44.90 49.20 49.64 50.89 51.54 52.95 54.29 55.36
51.84 54.15 54.98 56.45 58.26 52.90 46.02 39.37 40.99 43.22 43.43 42.84 37.58 39.82 37.06 39.40 39.15 39.99 39.85 41.78 40.27 43.29 44.73 39.66 32.55 40.95 42.42 44.87 44.83 41.95 44.00 33.59 35.73 25.59 24.63 33.72 35.89 39.52 44.19 46.94 49.89 51.07 52.41 54.08 56.03
52.11 49.11 53.75 55.96 55.13 49.03 41.16 40.84 41.78 44.32 44.29 41.10 39.92 38.71 39.53 38.71 39.81 39.03 39.02 41.54 42.77 42.83 44.04 41.97 37.71 37.49 40.95 39.79 39.20 38.03 38.24 37.05 38.17 35.20 27.88 26.85 33.97 44.72 46.47 48.09 49.57 51.77 53.28 53.87 54.71
51.21 45.64 54.38 52.99 45.37 46.29 41.68 41.00 40.64 43.17 45.33 43.28 43.07 41.47 38.56 39.61 37.79 38.74 37.69 40.19 44.72 44.13 39.11 42.21 38.71 33.99 36.38 42.53 43.39 42.87 41.00 38.99 32.19 31.78 36.17 34.48 33.95 45.94 46.60 50.40 51.61 52.43 52.75 53.75 54.62
46.79 47.81 54.08 52.54 41.15 41.90 43.27 41.81 42.44 42.54 43.30 41.67 40.53 42.44 42.51 38.32 35.32 39.65 40.20 43.95 44.74 42.82 39.54 41.62 37.31 31.03 34.00 37.37 41.26 37.90 40.28 41.17 40.21 38.89 33.64 29.32 33.95 46.21 50.95 51.24 52.05 51.40 51.79 52.60 53.71
47.60 43.23 48.54 50.68 47.88 41.71 41.24 40.96 40.03 43.73 42.74 43.38 42.22 43.80 41.28 38.78 41.19 38.20 39.02 42.50 44.14 43.09 44.41 42.83 38.15 32.83 30.38 33.41 34.86 33.63 38.70 40.32 38.15 31.06 34.65 35.02 37.08 40.41 43.42 48.26 49.93 50.33 51.69 52.89 52.64
48.43 45.19 45.13 41.20 42.58 42.82 43.70 42.83 39.09 39.42 43.23 44.38 41.59 40.76 39.70 35.68 37.76 37.32 39.91 41.01 42.78 44.51 43.44 41.04 35.83 37.56 38.69 38.78 38.84 38.21 38.22 38.96 37.97 38.93 35.37 37.70 36.95 40.89 43.59 45.22 49.44 50.35 50.99 50.69 51.77
43.23 42.69 45.11 42.23 44.01 42.52 41.06 40.86 38.94 40.02 40.67 39.68 40.35 41.51 41.45 36.14 36.35 35.04 37.89 39.62 38.17 43.38 41.68 43.49 35.06 37.83 35.07 38.86 39.04 36.89 39.47 39.64 39.51 39.63 38.92 39.96 38.88 44.82 46.62 48.21 48.49 49.15 49.83 50.07 51.03
45.24 45.86 43.11 40.08 42.52 41.67 41.53 41.03 40.14 41.16 41.61 43.08 41.14 41.05 40.39 41.90 43.34 43.23 44.71 44.94 43.02 40.10 39.93 37.97 37.50 35.15 30.87 36.10 36.06 32.03 37.75 39.33 40.11 41.38 40.25 36.59 41.94 45.95 45.69 46.71 48.10 49.31 49.98 50.43 51.83

GFSSW_sfc_wetblb_054.txt.gz
Wetbulb
54.25 54.33 54.39 54.55 54.54 54.70 54.73 55.12 55.52 55.77 55.92 56.23 56.38 56.48 56.39 56.32 55.98 55.35 52.52 53.98 55.04 60.92 59.03 51.55 52.21 53.92 54.98 55.46 56.76 57.23 51.04 49.82 50.87 50.86 51.98 55.62 53.62 56.06 57.41 55.14 56.81 59.23 61.25 65.87 68.26
54.03 54.20 54.32 54.27 54.45 54.54 54.65 55.06 55.59 55.78 56.03 56.31 56.23 56.27 56.18 56.21 53.56 53.10 56.11 57.18 59.03 60.23 53.32 51.45 49.25 51.21 50.57 52.23 54.45 52.34 49.99 50.65 54.80 55.05 53.95 55.48 55.30 55.11 54.58 54.36 55.01 57.71 62.64 64.86 67.06
53.73 54.06 54.08 54.05 54.23 54.19 54.50 54.96 55.48 55.85 56.22 56.60 56.41 56.26 56.20 55.79 53.05 51.89 59.03 57.75 59.29 58.96 54.04 53.27 53.12 51.34 48.15 50.91 51.79 52.46 49.93 53.92 54.89 56.34 56.62 55.68 55.60 56.72 54.21 53.03 55.26 57.30 59.82 63.72 64.60
53.57 53.61 53.86 53.76 53.89 54.02 54.16 54.77 55.39 55.99 56.11 56.29 56.20 56.33 56.50 54.42 44.65 55.10 61.45 60.35 61.19 58.08 54.80 51.77 50.75 48.35 47.41 46.80 50.30 48.58 52.50 54.24 55.44 56.75 56.28 55.46 57.79 56.50 55.96 55.35 57.73 58.57 61.33 63.45 64.05
53.11 53.45 53.53 53.52 53.60 53.83 54.02 54.49 55.01 55.46 55.64 55.86 56.48 57.07 55.35 53.18 50.08 57.05 62.53 60.92 57.86 56.75 53.17 50.26 47.91 49.23 46.69 48.27 49.41 47.81 49.88 52.69 54.39 55.39 56.43 57.07 55.61 56.06 56.68 58.16 58.79 59.02 59.62 62.32 64.32
52.89 52.87 53.02 53.37 53.22 53.49 54.02 54.38 54.69 54.77 54.93 55.76 56.60 56.89 53.88 49.49 54.16 55.46 55.63 55.63 54.78 53.78 52.46 52.31 49.58 49.43 46.99 47.45 48.30 50.00 49.77 50.20 52.02 52.84 54.61 54.16 55.02 55.91 57.45 60.00 59.37 59.66 59.21 60.61 63.52
53.27 52.86 52.63 52.80 52.95 53.28 54.05 54.28 54.40 54.68 55.20 56.17 57.28 55.80 53.93 50.46 54.35 55.52 55.45 53.85 54.60 53.89 51.12 52.80 52.64 49.80 48.82 46.10 49.99 49.46 46.98 49.05 50.01 50.75 51.43 53.82 51.24 53.02 57.76 58.90 58.59 59.52 59.91 60.22 60.96
53.71 53.43 52.63 52.61 52.86 53.17 53.69 54.22 54.19 54.82 56.34 56.63 57.67 55.46 51.89 53.98 54.97 53.53 53.52 52.60 54.42 54.08 52.93 53.72 53.46 50.19 47.78 49.05 46.94 44.39 46.00 42.93 48.55 49.58 50.86 50.69 45.96 52.87 56.13 57.06 57.44 58.44 59.64 60.43 61.42
53.58 53.17 52.61 52.59 52.59 53.00 53.60 53.62 53.85 55.85 56.90 56.82 54.94 54.98 49.42 55.86 51.45 52.60 52.99 50.78 51.32 51.87 52.62 52.87 51.59 48.04 47.78 43.61 41.66 42.67 37.99 40.70 43.78 49.86 49.30 48.85 46.63 52.53 55.61 55.56 56.01 57.85 58.86 59.58 60.86
53.56 53.02 52.17 52.28 52.54 52.84 52.97 52.87 55.96 55.87 56.73 58.07 56.76 50.04 52.79 48.34 50.99 51.39 53.40 52.14 49.58 50.21 49.76 49.82 48.32 45.35 45.75 42.91 35.65 38.89 39.68 41.05 40.76 44.96 47.04 47.21 47.71 51.05 53.44 53.55 55.19 57.13 58.99 59.44 59.93
53.04 53.02 52.88 52.55 52.55 52.59 52.66 55.77 52.10 51.78 54.59 49.68 48.17 48.29 48.76 51.43 52.51 50.30 52.07 49.71 49.84 48.57 44.01 46.88 42.66 40.56 43.84 45.62 45.14 43.20 41.80 41.00 43.50 45.92 44.70 44.95 47.37 49.63 52.75 53.26 52.79 55.17 57.27 58.70 59.86
52.52 52.57 52.94 52.71 52.65 52.69 52.22 52.52 50.64 52.08 45.67 50.93 50.37 49.74 50.38 50.91 46.27 49.47 51.69 46.34 45.93 42.09 44.73 42.88 40.13 44.43 45.55 45.06 43.57 42.60 40.52 39.89 42.74 44.94 44.53 44.17 43.89 47.99 51.38 52.28 53.93 54.39 55.48 56.79 59.06
52.34 52.57 52.80 52.60 52.63 52.18 54.50 52.50 55.44 55.18 45.95 48.32 49.04 48.02 48.67 49.53 46.27 46.98 49.20 46.90 43.87 41.62 42.10 39.92 41.84 44.73 43.13 42.06 41.12 41.36 39.80 40.05 39.80 42.98 43.91 42.70 41.70 45.37 49.14 52.26 53.53 54.99 56.91 57.48 57.83
52.12 52.22 52.37 51.81 50.36 54.60 53.80 55.99 56.31 55.57 41.50 43.34 45.21 47.78 48.22 48.42 45.47 50.00 50.19 46.57 43.86 40.85 42.11 40.96 43.70 42.41 41.59 40.21 41.46 37.63 42.75 41.73 40.61 39.04 34.63 42.58 34.57 43.53 46.95 49.23 51.74 53.19 54.72 56.96 57.71
52.20 52.20 52.03 51.15 52.31 53.19 53.87 56.72 55.99 53.26 32.60 44.26 45.02 51.42 48.68 45.81 46.76 47.42 50.28 46.97 41.97 41.91 42.10 39.61 41.53 41.62 40.51 40.75 43.13 39.86 43.51 41.62 41.00 39.25 38.33 38.30 35.65 39.89 45.44 45.91 49.99 52.48 53.94 56.27 57.52
52.06 52.10 51.88 54.80 54.50 55.94 56.21 56.61 54.82 41.30 32.37 41.16 44.97 44.03 44.25 46.18 46.43 47.07 46.94 48.89 47.83 43.27 43.47 42.34 45.88 44.32 43.09 44.23 44.27 44.61 41.78 41.09 40.90 39.10 31.97 36.73 36.32 37.40 41.10 44.90 48.61 52.64 54.31 55.67 56.73
51.76 51.63 50.36 55.15 52.90 56.41 56.28 52.98 40.53 35.91 43.79 40.97 41.73 44.18 43.33 42.94 43.50 44.16 42.81 42.50 40.31 36.99 37.04 40.64 40.84 43.69 44.87 40.94 43.74 41.74 37.90 29.69 28.32 30.19 30.17 38.28 36.03 38.75 44.24 46.77 48.35 50.66 53.72 55.50 57.13
50.34 49.93 53.37 55.19 57.48 56.69 53.70 46.04 35.31 41.57 41.19 44.55 43.53 43.18 41.24 43.17 42.63 42.67 42.05 39.98 43.46 41.48 37.47 34.16 32.31 39.87 43.70 40.02 37.35 38.22 38.11 31.02 22.67 25.22 30.46 37.88 32.71 37.67 46.66 48.64 49.76 52.06 54.21 55.33 55.45
49.34 56.40 55.66 57.74 57.37 55.67 47.79 38.84 39.41 40.82 43.06 41.43 42.43 40.23 40.36 42.37 41.98 41.77 41.10 40.34 42.31 43.02 35.44 34.70 34.18 42.61 43.04 43.38 42.69 39.06 35.53 41.06 33.79 35.61 30.74 34.22 37.92 43.01 46.38 47.11 49.39 50.50 52.59 53.84 56.65
50.39 53.50 54.48 56.92 57.06 52.06 44.26 39.89 42.31 44.75 43.74 43.22 37.52 41.18 37.10 39.54 39.62 39.91 39.74 42.79 41.17 43.90 43.46 38.34 32.53 40.03 42.00 43.41 43.50 41.77 43.40 34.75 35.72 25.52 24.27 31.62 33.50 34.92 42.08 44.90 47.72 49.20 51.45 54.05 56.48
51.68 50.31 55.14 56.44 54.99 48.49 41.39 41.38 43.34 45.13 44.13 41.60 40.22 38.85 39.63 38.51 39.91 38.78 38.98 42.26 44.21 43.12 44.17 41.60 37.51 36.41 40.43 38.51 37.57 38.04 37.89 38.75 37.94 33.30 26.24 26.76 31.97 44.11 43.18 46.31 45.14 50.81 52.31 54.29 55.48
50.99 45.41 55.10 55.10 45.65 46.82 42.21 42.86 42.96 43.28 46.05 44.61 44.30 41.80 40.03 40.14 38.49 38.15 38.00 41.29 45.14 44.41 39.30 41.94 37.85 32.40 35.55 42.14 42.89 41.31 38.90 37.91 30.91 30.59 34.81 33.12 33.17 44.72 45.36 46.73 46.02 47.65 52.28 54.52 54.88
47.96 48.64 55.20 53.49 42.22 42.10 44.58 44.12 45.43 42.68 43.42 42.99 41.45 43.17 43.28 40.02 36.47 39.36 40.51 45.00 45.33 43.44 40.23 41.47 35.96 29.37 32.61 37.50 38.41 35.62 39.12 39.88 39.30 38.14 32.74 29.86 33.12 44.18 44.07 44.01 45.01 44.68 51.20 53.26 53.71
48.43 43.81 49.24 49.42 49.54 44.34 42.53 42.29 42.08 45.27 43.34 44.45 42.87 43.88 42.08 39.78 41.73 38.50 39.88 42.96 44.87 43.54 46.16 44.39 37.27 32.80 28.62 32.97 37.62 33.54 36.40 39.31 38.47 32.82 34.11 33.75 35.01 40.11 40.65 41.06 42.97 44.81 47.65 52.26 52.16
48.50 45.47 47.14 41.45 42.49 43.05 43.76 43.32 41.36 40.75 44.68 44.88 42.10 42.31 40.83 37.25 38.53 38.02 40.64 41.74 43.14 45.13 44.21 41.97 35.26 36.95 37.72 38.63 38.68 37.40 37.40 38.43 36.59 38.08 33.53 36.12 36.37 40.46 41.58 42.38 43.77 46.30 48.50 50.51 50.63
43.65 42.36 44.30 42.29 44.03 43.18 44.07 42.20 42.24 42.23 42.39 40.75 39.68 41.71 41.62 37.98 39.04 37.50 40.48 40.62 39.52 42.95 41.89 43.35 35.46 37.90 35.08 38.86 38.80 36.57 38.44 38.84 39.36 38.99 38.03 38.05 37.62 44.21 45.89 45.30 45.26 46.90 48.65 49.20 50.33
47.32 48.57 42.99 40.25 43.02 41.63 42.20 41.45 41.74 43.08 42.68 43.64 42.69 41.30 40.00 41.86 45.15 45.15 45.35 44.97 43.99 41.09 40.51 39.88 37.56 34.70 30.18 36.76 36.44 31.87 36.97 38.46 38.90 41.69 40.88 36.40 40.50 45.13 45.25 45.97 46.62 47.63 49.44 49.79 50.71

GFSSW_sfc_wetblb_057.txt.gz
Wetbulb
54.36 54.52 54.56 54.68 54.54 54.70 54.86 55.08 55.45 55.98 56.23 56.62 56.80 56.80 56.66 56.62 56.37 52.15 47.82 53.21 53.73 60.25 60.45 51.71 49.82 49.71 51.12 50.47 53.90 54.04 44.66 45.13 48.12 49.06 50.74 53.81 52.45 55.76 55.93 53.17 54.10 55.58 62.49 64.42 66.46
54.13 54.25 54.35 54.53 54.33 54.41 54.56 54.91 55.25 55.77 56.24 56.65 56.89 56.88 56.64 56.45 51.55 49.10 57.00 59.94 59.95 60.76 51.48 49.44 48.10 47.83 45.66 47.26 48.71 48.16 43.17 44.90 51.91 53.02 52.07 53.91 53.48 54.25 53.53 52.40 52.58 53.68 61.21 64.89 66.28
53.61 53.86 54.02 54.16 54.34 54.25 54.36 54.56 55.10 55.72 56.15 56.51 56.67 56.75 56.68 55.79 48.73 48.26 61.07 61.77 61.36 58.82 53.21 51.43 50.88 48.42 44.47 46.16 46.60 47.73 44.55 48.72 50.66 53.24 54.42 53.93 54.40 56.51 54.55 50.59 52.35 52.68 55.72 62.22 63.73
53.41 53.52 53.50 53.59 54.04 54.03 54.15 54.60 54.93 55.67 56.08 56.18 56.19 56.60 57.40 52.61 41.31 52.03 61.40 63.22 62.93 57.78 53.62 50.68 48.21 42.98 42.35 41.90 45.67 42.85 47.45 50.31 50.88 52.83 53.07 52.20 54.84 54.49 55.21 54.92 56.02 56.61 56.66 56.64 58.88
53.47 53.64 53.48 53.29 53.47 53.69 53.77 54.16 54.55 54.96 55.25 55.45 55.70 56.67 53.28 48.86 49.04 55.18 63.67 63.84 59.53 55.57 52.65 49.82 44.31 42.93 41.26 43.66 45.13 43.88 45.90 47.86 50.40 51.65 52.37 53.85 52.35 52.91 54.28 57.18 59.05 58.51 57.68 56.61 57.85
53.63 53.67 53.44 53.38 53.34 53.30 53.79 54.15 54.36 54.60 54.60 55.37 55.92 56.84 51.02 46.09 51.72 55.80 59.51 55.70 54.77 51.61 50.25 48.62 45.28 47.04 43.13 42.00 41.10 44.21 45.13 46.96 48.14 47.97 49.90 50.16 50.89 52.49 54.27 57.11 57.34 58.19 57.40 57.69 57.77
53.77 53.82 53.39 53.29 53.21 53.42 53.66 53.91 54.09 54.36 54.84 56.34 56.64 55.27 49.43 48.56 51.48 51.92 51.66 47.45 51.09 52.94 49.67 49.92 49.75 46.30 45.28 41.82 44.84 44.52 41.15 44.14 45.93 47.18 46.54 48.66 46.77 48.41 52.95 55.74 56.20 56.92 57.44 57.99 58.12
53.32 53.84 53.31 53.08 52.88 53.19 53.50 54.03 53.93 54.14 55.30 57.16 57.29 52.55 47.42 53.14 50.43 50.05 49.81 49.61 51.58 50.57 49.71 50.07 50.51 45.86 42.97 44.31 43.22 40.02 39.70 35.33 42.11 46.50 47.81 45.99 40.77 48.12 51.79 52.61 53.20 56.36 57.18 57.82 58.23
52.73 52.67 53.10 53.06 53.31 53.27 53.27 53.46 53.64 54.82 55.98 57.28 51.96 49.57 47.08 54.87 50.61 50.72 49.14 49.23 50.14 50.15 49.86 51.60 47.69 43.81 43.96 38.67 34.57 36.74 32.04 35.11 38.92 43.96 44.30 44.70 42.53 48.01 50.57 50.94 51.48 52.94 54.52 57.41 57.80
53.11 53.00 52.21 52.36 53.00 53.31 53.05 53.31 54.17 54.96 55.64 56.04 54.34 47.12 49.91 48.77 50.34 50.73 50.85 51.16 48.43 47.77 47.65 46.72 43.01 39.43 38.19 35.69 28.60 33.15 33.94 36.96 36.98 40.31 41.39 40.23 41.10 45.37 48.97 49.73 49.82 52.35 53.90 56.21 57.01
53.48 53.12 52.81 52.36 53.31 52.95 51.03 48.74 46.28 46.75 48.73 48.58 49.64 49.68 48.53 50.92 52.13 49.39 51.91 49.81 48.40 45.73 39.25 42.64 36.45 33.32 37.70 39.92 40.97 40.52 38.72 37.54 40.42 43.24 40.73 39.66 40.53 43.16 45.79 46.03 47.71 49.72 50.89 52.08 56.27
53.25 53.25 53.04 53.09 52.99 52.64 49.12 45.83 47.65 47.03 41.65 49.43 49.09 48.89 50.51 50.34 45.57 48.50 51.59 45.17 43.27 38.16 41.04 38.04 33.89 40.42 42.38 41.83 40.08 39.01 37.25 36.72 40.18 42.94 41.23 39.68 39.25 42.40 44.10 44.92 46.49 47.15 49.90 50.97 53.27
53.03 52.80 52.82 52.86 52.53 49.67 48.11 50.62 52.09 50.94 40.26 46.06 49.57 47.61 47.22 47.46 45.20 45.92 49.03 45.73 41.29 38.26 38.21 35.06 38.63 42.96 41.13 39.37 38.16 37.43 35.97 36.46 36.81 40.52 41.26 39.14 37.03 39.51 43.47 45.06 46.72 48.26 49.50 51.54 51.84
52.69 52.60 52.47 52.34 49.04 50.30 49.57 52.39 52.14 51.12 34.97 42.83 43.79 46.34 47.11 46.37 43.75 49.71 50.13 45.51 41.04 37.63 39.09 37.38 41.00 41.00 39.87 39.21 39.58 34.58 40.73 40.01 38.52 35.97 30.15 38.18 28.86 36.54 40.42 41.85 44.49 46.25 47.93 49.01 50.20
52.69 52.66 52.06 51.25 46.90 47.38 49.82 51.81 52.09 48.22 28.29 43.72 43.92 49.93 46.83 43.73 45.35 46.92 49.35 45.40 39.56 39.67 38.99 36.69 38.55 38.28 37.77 39.25 41.64 37.31 41.93 39.36 38.56 35.28 33.41 34.29 30.47 34.97 39.45 39.36 41.63 43.98 46.15 48.68 49.91
52.62 52.47 51.59 51.77 48.37 50.99 52.80 51.58 49.52 36.31 28.90 40.01 44.47 43.27 42.24 44.55 45.18 46.98 46.01 46.96 45.43 40.81 40.83 39.70 43.84 41.76 40.10 42.83 42.80 43.21 38.43 37.27 36.46 32.28 26.41 32.59 31.89 32.65 36.21 39.23 41.86 44.32 46.31 47.88 50.18
52.56 51.98 50.01 51.51 48.68 54.21 52.16 47.75 34.32 30.54 43.86 39.64 40.33 42.58 41.14 41.01 43.28 43.62 42.32 39.06 36.10 33.60 32.24 37.76 37.95 41.01 44.12 38.81 40.62 37.05 31.73 22.53 22.42 22.02 23.27 34.78 32.67 34.05 39.99 42.19 43.27 44.08 45.65 47.42 48.37
51.11 50.24 51.78 52.81 53.27 53.12 48.84 40.28 30.45 40.73 39.05 43.13 41.60 41.41 38.74 42.09 41.90 42.12 40.42 36.48 42.02 39.15 33.25 29.51 28.54 38.97 43.05 38.92 34.61 35.47 31.90 25.88 18.92 20.51 24.54 34.79 28.99 33.62 42.12 44.41 45.17 46.33 46.89 47.96 47.76
49.84 51.34 51.35 53.90 54.83 51.76 42.46 32.61 34.88 39.50 41.65 39.58 40.33 37.81 38.28 40.57 39.81 39.31 37.91 37.36 40.46 39.83 31.57 30.38 30.98 41.22 41.85 41.80 39.18 34.56 29.78 35.73 29.62 31.00 25.77 29.80 34.39 39.70 42.34 43.23 45.62 45.55 45.76 46.60 48.98
46.47 49.01 50.70 53.86 53.82 47.59 38.82 37.45 40.21 42.63 42.16 40.74 34.71 39.51 34.20 36.83 36.62 36.64 36.67 41.34 40.85 42.71 40.59 36.92 29.58 38.81 40.23 41.89 40.44 36.75 38.78 28.45 29.26 23.04 20.63 28.21 30.42 31.79 38.28 40.24 42.04 42.17 43.10 45.73 46.79
46.81 46.06 51.01 52.86 51.09 43.36 35.37 38.68 42.35 44.38 43.65 40.37 38.12 37.06 37.31 35.92 36.80 35.58 36.49 39.98 42.94 41.19 40.92 36.88 32.63 33.46 37.60 34.59 33.55 34.06 33.76 32.74 34.67 30.06 22.92 21.55 26.34 39.28 39.25 40.48 41.01 41.70 44.52 46.18 47.61
46.63 41.23 51.34 51.08 39.35 42.32 39.27 41.70 44.32 43.86 44.97 42.86 42.61 40.26 37.34 38.44 36.11 36.10 35.86 39.80 44.65 42.77 36.61 38.53 33.35 28.89 32.11 38.62 41.10 38.34 35.26 34.91 28.80 26.05 31.56 30.13 27.95 41.07 40.14 42.20 42.73 42.11 44.72 47.93 49.01
43.84 45.19 51.93 49.76 36.59 35.97 41.33 42.49 43.64 42.84 42.58 41.30 39.72 40.92 40.67 36.91 33.32 38.56 38.62 43.81 43.85 41.48 38.70 37.32 31.00 25.78 28.43 32.83 37.53 34.01 37.22 36.31 34.52 32.24 28.32 26.09 28.47 43.03 42.17 42.06 43.12 42.23 44.50 47.34 49.42
45.12 40.49 45.31 45.94 44.00 38.53 37.52 38.84 40.03 45.69 43.82 43.40 41.46 41.54 39.21 37.62 38.84 36.99 37.61 41.97 43.76 42.52 46.25 42.67 33.51 30.12 25.36 30.03 33.81 31.86 35.23 37.15 34.30 28.45 29.72 31.37 32.54 37.02 39.95 41.49 42.79 43.72 45.85 46.69 48.43
45.05 41.73 41.57 36.21 37.95 38.69 39.61 40.38 39.58 39.90 43.36 42.63 39.60 39.82 37.07 33.84 35.34 33.94 37.82 39.50 42.44 45.05 40.66 40.25 32.59 35.04 35.48 37.17 37.19 35.89 35.74 36.50 34.41 35.21 30.98 33.34 34.66 37.56 39.97 41.55 43.27 45.29 45.41 45.38 46.03
40.26 38.35 40.21 37.29 40.50 38.96 39.99 39.08 38.65 39.96 39.66 38.21 36.31 39.51 38.53 33.83 35.87 34.48 37.75 36.52 34.97 39.35 36.76 39.20 33.85 35.36 33.47 36.85 36.95 34.78 36.77 37.42 37.26 37.39 36.43 36.16 36.47 41.89 43.62 43.70 43.41 45.05 45.13 44.90 46.67
44.60 45.20 40.68 38.03 37.82 36.15 35.80 37.26 38.20 40.05 41.56 42.25 39.62 37.50 36.41 38.24 41.45 41.66 41.47 40.91 39.30 37.48 37.20 37.15 34.22 30.11 27.63 34.41 34.94 28.76 35.47 36.86 37.56 38.69 37.37 33.92 37.70 42.14 42.78 43.12 43.26 44.67 46.07 46.70 51.66

GFSSW_sfc_wetblb_060.txt.gz
Wetbulb
54.00 54.16 54.32 54.29 54.32 54.54 54.68 54.84 55.02 55.57 56.11 56.37 56.82 56.90 56.69 56.75 56.16 50.69 45.80 52.36 54.21 60.19 60.40 52.78 49.84 48.33 48.27 48.80 52.11 51.98 40.66 42.58 47.04 48.66 50.01 54.27 52.06 55.81 56.65 54.14 53.80 53.89 61.61 63.47 64.70
53.75 54.00 54.12 54.07 54.27 54.30 54.38 54.58 55.09 55.40 55.91 56.40 56.67 56.78 56.82 56.84 50.64 47.88 54.00 61.18 60.83 60.69 49.95 48.67 47.03 48.12 43.77 45.87 47.01 46.65 39.84 42.75 50.45 52.66 51.02 53.12 53.15 54.14 54.09 53.97 54.26 53.92 57.29 63.14 64.02
53.77 54.02 53.98 53.89 53.98 53.98 54.22 54.35 54.69 55.29 55.67 56.16 56.22 56.19 56.59 56.52 47.36 49.70 60.67 62.36 62.06 60.46 51.86 49.63 49.00 47.09 42.32 43.12 44.18 44.16 42.92 47.45 49.26 50.73 51.77 51.34 51.97 54.58 52.63 51.35 54.34 53.89 54.40 56.39 57.36
53.91 54.46 54.26 54.19 53.92 53.88 53.81 54.19 54.57 55.07 55.39 55.39 55.43 55.78 56.79 53.06 39.29 50.94 63.03 63.36 63.27 56.84 52.36 49.08 45.52 40.41 40.39 40.66 43.75 40.50 44.66 47.26 49.24 51.02 50.31 49.39 51.83 51.24 52.67 52.69 56.30 57.37 56.87 55.42 56.69
53.65 53.69 53.91 53.91 53.91 53.78 53.74 53.96 54.27 54.48 54.85 54.89 55.65 55.90 52.35 47.52 48.31 55.07 64.41 63.72 60.40 55.62 51.50 48.47 43.81 39.43 38.38 41.37 42.02 40.95 43.66 45.47 47.10 47.39 49.44 51.51 50.50 51.18 51.31 54.56 56.29 57.48 57.61 56.53 56.33
53.32 53.37 53.14 53.10 53.49 53.47 53.67 53.69 53.90 53.98 54.22 55.10 56.48 56.32 50.59 44.34 54.19 54.50 59.19 58.17 56.56 51.72 49.93 48.21 43.50 44.54 41.04 40.53 39.41 41.12 42.38 43.16 44.25 45.07 46.47 46.58 48.20 49.62 50.74 54.12 54.34 55.39 56.15 56.64 57.03
53.46 53.18 52.81 52.62 52.91 53.40 54.00 53.85 53.63 53.75 54.45 55.44 56.72 54.77 47.25 44.35 54.29 51.02 54.78 51.27 50.23 51.98 48.48 48.61 47.59 44.88 42.64 40.45 43.05 42.99 38.25 41.49 42.87 43.85 44.16 47.31 44.64 45.59 50.27 51.81 51.81 53.07 54.84 56.71 57.27
53.77 53.65 53.51 53.08 52.77 52.76 53.57 53.89 53.65 53.90 54.62 55.69 57.02 51.61 43.24 55.17 52.98 48.12 47.70 48.03 50.05 50.57 49.37 48.75 48.73 44.35 40.86 41.41 41.63 39.23 36.86 31.48 40.33 43.12 44.80 44.91 40.01 46.92 49.58 49.27 49.34 51.05 53.13 54.28 56.28
54.12 53.79 53.73 53.09 52.99 53.20 52.91 53.28 53.81 54.89 55.77 56.01 50.91 47.75 45.76 56.36 49.56 49.26 47.18 47.06 48.87 49.09 48.32 50.82 46.67 42.15 41.94 36.34 32.72 33.30 30.18 34.04 37.33 42.15 41.94 41.89 39.34 44.47 47.77 48.16 48.36 49.48 51.12 53.41 54.39
54.26 53.79 53.51 53.24 53.07 52.82 52.25 52.79 53.37 53.95 54.91 55.10 53.63 45.43 48.45 48.13 49.35 49.67 49.13 49.14 47.23 46.47 45.34 45.07 40.70 37.44 34.99 33.10 27.33 31.57 31.68 34.21 35.32 40.30 40.51 38.93 38.95 42.33 44.61 44.84 44.51 45.82 48.11 50.34 52.67
54.20 53.73 53.34 53.18 52.81 52.44 50.10 46.38 42.58 43.86 47.49 45.71 48.37 48.59 50.11 50.26 51.17 48.22 50.24 48.54 47.15 43.25 36.78 40.08 34.20 30.92 35.15 37.05 39.02 37.97 35.88 34.24 38.00 41.76 39.66 38.60 39.03 41.27 43.18 43.25 42.73 44.30 45.70 47.20 49.35
53.81 53.77 53.59 53.35 53.00 52.41 46.90 44.17 45.65 45.75 39.77 47.93 48.00 48.28 50.37 50.02 44.92 47.50 50.08 43.66 42.03 36.31 38.75 35.72 31.54 38.01 40.40 39.90 38.17 36.70 33.58 33.08 37.23 40.63 39.36 37.62 38.35 41.48 42.93 42.15 42.76 43.57 44.89 45.65 47.65
53.27 53.25 53.08 53.02 52.27 48.52 45.25 48.84 49.98 47.94 37.89 44.73 48.17 47.29 47.58 46.96 44.23 44.98 47.35 44.22 39.68 36.07 36.00 32.32 36.96 41.49 39.82 37.76 37.34 35.17 33.51 34.75 34.97 39.05 38.63 36.69 35.33 37.64 41.54 42.45 43.77 44.58 45.05 45.78 46.58
52.90 52.90 52.60 52.57 47.30 45.30 45.85 51.12 48.98 47.46 34.25 41.88 42.69 45.11 45.86 44.46 42.42 48.49 48.88 44.31 39.51 36.16 36.89 35.45 39.69 39.26 37.52 37.67 38.13 32.23 39.84 38.90 37.39 33.92 27.02 36.47 26.70 35.06 38.56 39.61 41.69 42.59 41.91 42.94 45.13
52.40 52.83 52.59 51.98 44.11 43.59 48.41 48.40 48.56 46.66 24.07 43.10 42.82 48.06 45.47 41.92 44.17 45.69 48.17 43.78 38.23 38.21 37.29 35.09 36.47 36.20 35.34 38.05 40.27 35.94 40.56 37.06 36.99 33.27 29.66 32.48 26.98 32.44 37.99 37.51 39.89 42.09 43.73 44.95 45.97
51.91 52.18 51.89 48.75 45.96 47.05 49.99 47.82 47.66 34.68 26.26 39.42 43.18 42.07 40.20 42.46 43.75 44.92 44.07 45.32 43.83 38.27 38.06 37.81 41.43 39.45 38.72 41.63 41.45 40.95 36.18 34.70 33.51 29.90 22.99 30.00 29.16 30.80 33.87 36.88 39.86 42.81 44.07 45.29 46.73
51.70 51.76 50.52 50.11 44.96 49.03 47.72 44.99 33.25 28.75 42.86 37.78 38.32 41.07 39.55 39.53 41.56 42.90 41.05 37.56 33.55 30.48 30.44 35.83 36.03 40.81 42.90 36.56 38.38 35.50 29.70 20.66 19.95 20.84 21.70 31.87 29.00 31.48 37.63 40.61 41.80 42.53 44.18 45.50 46.89
50.33 50.29 49.31 50.20 47.83 49.22 44.50 38.38 29.90 38.35 37.02 41.85 39.97 39.98 36.92 39.95 39.58 40.42 38.40 34.23 39.50 36.92 31.13 27.98 26.90 36.86 41.36 37.03 32.98 31.85 30.29 22.72 19.83 19.38 23.34 32.89 25.36 31.22 39.57 42.67 44.73 44.89 44.75 45.69 45.69
49.29 46.50 48.38 50.97 52.17 46.30 40.60 30.99 30.69 36.29 39.63 38.27 38.40 35.97 35.91 39.30 37.99 37.48 35.67 36.25 38.82 37.97 29.68 28.75 29.79 40.12 41.05 40.93 36.81 31.58 28.16 32.89 26.50 28.21 23.79 27.91 32.44 36.99 42.02 42.26 43.36 43.47 44.24 43.85 44.70
43.29 44.64 46.90 51.36 48.90 44.46 37.01 35.77 38.38 42.20 41.70 40.48 33.31 37.74 32.65 34.68 34.76 34.80 35.93 40.36 39.86 41.09 38.06 34.44 27.61 37.25 39.68 39.90 38.57 35.18 37.11 26.37 25.93 20.18 19.35 25.82 28.33 29.39 37.12 38.32 41.09 40.87 41.12 42.78 44.95
43.68 42.65 48.73 48.38 47.44 41.29 32.10 36.30 41.06 44.70 43.55 39.94 36.56 35.45 36.01 33.84 34.36 33.93 36.13 39.74 42.14 40.45 38.95 34.71 31.00 32.07 35.66 32.72 31.39 31.74 30.04 31.00 29.41 27.86 19.03 22.90 25.61 36.37 37.53 39.04 39.09 40.24 42.21 42.61 43.85
41.13 37.88 48.65 46.98 36.92 37.50 34.66 38.95 42.56 42.87 44.54 41.87 40.35 38.40 35.47 36.24 33.89 34.34 34.65 37.92 43.36 41.26 35.04 36.65 31.75 27.35 30.90 37.57 39.30 36.09 33.21 32.37 23.99 23.52 29.69 28.30 26.22 40.67 39.62 40.20 40.71 41.04 43.55 44.45 46.67
39.92 40.82 47.91 46.35 32.11 31.83 37.15 40.06 41.96 41.82 41.46 40.29 38.32 39.40 38.60 34.68 32.07 36.65 38.13 42.72 42.45 40.04 36.78 36.31 29.41 25.95 27.15 30.89 35.82 34.23 34.79 34.28 34.20 32.97 27.75 25.69 26.38 40.36 40.88 40.96 41.19 41.50 43.66 45.11 46.56
40.39 36.16 38.92 40.44 38.35 33.93 33.74 36.03 38.12 44.54 42.62 41.46 39.63 39.64 36.21 33.72 36.24 35.15 36.44 41.44 42.36 41.53 46.09 41.95 31.96 29.36 24.36 28.19 31.21 30.98 34.01 35.75 33.33 28.07 28.27 28.97 31.12 36.17 38.48 40.10 40.82 43.00 45.55 45.36 46.28
39.04 35.54 36.33 31.23 33.86 34.51 34.52 36.75 36.59 37.00 40.66 39.89 37.17 37.54 34.66 30.00 32.38 33.18 36.01 38.53 40.45 42.60 40.13 36.82 31.69 33.16 34.41 35.74 36.35 35.35 35.06 35.80 33.71 33.99 29.18 31.89 33.09 35.83 38.54 40.41 40.52 44.50 46.16 46.04 46.87
35.33 34.72 35.99 33.81 35.57 34.75 35.59 33.57 35.14 37.40 36.78 35.74 34.24 37.64 35.29 30.36 32.92 31.60 35.12 34.44 34.47 38.03 35.61 35.92 29.44 34.02 32.31 36.03 35.59 33.16 34.86 37.02 36.86 36.91 35.65 34.75 33.92 38.86 41.64 43.03 43.05 44.35 45.81 45.37 46.44
39.88 39.82 36.49 34.11 33.45 31.33 30.86 34.23 35.21 37.02 38.26 39.35 36.68 34.59 33.96 35.89 39.22 38.97 39.38 38.84 38.43 35.67 34.16 33.09 31.02 28.63 27.40 33.68 33.23 28.20 34.86 35.77 36.54 38.26 36.84 32.51 35.25 38.92 39.15 40.88 41.09 42.18 44.48 46.82 47.20

GFSSW_sfc_wetblb_063.txt.gz
Wetbulb
53.90 54.02 54.09 54.04 54.09 54.25 54.41 54.53 54.86 55.15 55.66 55.86 56.26 56.44 56.59 56.71 56.41 49.13 43.37 48.62 53.03 59.88 59.66 51.52 48.72 47.49 46.85 46.36 51.13 50.87 40.91 42.52 44.82 46.95 47.45 52.97 49.89 54.42 55.44 53.35 54.15 54.50 54.74 59.39 66.49
54.06 54.11 54.24 54.39 54.30 54.12 54.22 54.30 54.58 55.06 55.42 55.96 56.00 56.14 56.15 56.62 51.30 47.38 53.25 57.69 61.10 60.21 48.11 46.01 44.05 45.92 41.27 44.33 46.47 46.10 39.96 42.93 50.05 51.88 50.75 52.33 50.96 52.23 52.38 52.21 52.88 54.61 57.20 58.33 64.41
54.07 54.11 54.16 53.91 54.21 54.09 53.92 54.02 54.31 54.83 55.08 55.46 55.64 55.74 55.94 55.80 46.59 48.17 60.69 60.16 61.68 59.80 50.49 47.83 47.05 45.04 38.69 41.72 43.73 43.59 41.42 47.21 48.47 49.91 50.40 49.86 50.55 52.30 50.00 48.70 51.53 52.47 55.04 56.80 58.51
53.60 53.60 53.87 53.58 53.52 53.58 53.87 53.83 54.14 54.44 54.76 54.88 55.29 55.92 56.29 51.47 37.33 50.11 62.62 63.17 62.12 56.21 50.76 47.54 44.20 38.42 37.32 38.23 41.99 39.12 43.74 45.71 46.85 49.39 48.78 47.89 50.61 49.62 50.50 50.52 54.08 54.59 55.20 55.95 55.58
53.64 52.95 53.03 53.03 53.25 53.07 52.98 53.66 53.74 54.11 54.34 54.63 55.41 56.54 51.36 46.52 48.05 55.52 64.00 63.16 58.91 54.94 49.99 46.84 42.21 38.69 34.43 37.83 40.46 38.77 41.99 44.21 45.19 45.29 45.66 48.51 47.94 48.42 48.89 51.80 53.87 54.43 54.64 54.66 55.47
53.95 54.05 53.95 53.64 53.42 53.13 52.57 52.43 53.65 53.71 53.96 54.48 55.60 56.20 48.74 40.57 53.16 55.78 57.43 57.13 57.48 52.35 49.11 47.77 43.28 43.24 38.99 37.98 37.28 39.89 40.85 41.93 42.97 43.12 44.40 44.40 45.21 46.89 48.40 51.19 51.16 52.13 52.22 53.76 54.65
53.51 53.68 53.72 53.45 53.16 52.96 53.12 53.47 53.61 53.57 54.11 54.63 56.08 54.37 45.98 41.24 53.21 52.89 55.34 52.13 51.90 52.33 48.32 47.67 46.19 43.02 41.37 38.17 39.98 40.68 36.79 39.68 41.68 43.01 43.13 46.15 42.01 43.54 48.44 50.22 49.56 50.12 50.99 51.90 53.48
53.25 53.31 53.55 53.12 52.87 52.83 53.18 53.18 53.20 53.76 54.50 54.99 56.45 50.96 40.98 52.32 53.04 49.73 48.42 49.35 48.14 51.10 49.33 49.18 46.30 42.33 39.70 39.67 39.82 36.37 35.46 31.38 38.26 42.14 43.02 43.51 38.50 45.01 47.00 47.15 47.29 48.24 49.45 50.76 51.45
53.28 52.99 53.18 52.97 52.97 52.89 52.62 52.77 53.61 54.39 55.37 55.35 49.88 46.06 44.70 55.86 49.05 50.59 47.12 45.75 46.76 47.67 47.23 49.75 45.40 40.85 40.84 34.75 31.79 32.83 28.74 31.41 36.78 41.13 40.53 40.97 36.31 42.54 45.21 44.92 44.65 45.44 46.33 47.63 48.42
53.02 53.30 52.73 53.18 52.81 52.70 52.53 52.55 52.56 53.35 54.47 55.11 52.78 44.43 46.85 47.55 49.02 48.43 47.97 47.78 45.83 45.19 44.31 43.27 38.57 35.93 33.17 31.84 26.04 29.76 30.08 32.63 33.30 39.07 40.10 38.54 38.00 41.50 43.91 44.01 44.07 44.33 44.97 46.16 47.27
53.43 53.72 52.66 52.41 52.48 52.98 49.59 44.73 41.81 40.93 46.85 42.74 46.73 47.05 50.05 51.65 50.15 46.88 48.92 47.03 46.08 41.77 35.25 38.03 33.09 29.73 33.71 35.16 36.76 35.48 33.29 32.26 35.72 39.61 36.73 36.89 37.81 39.88 42.57 42.04 41.87 43.06 43.99 44.86 46.35
52.91 52.96 52.67 52.85 53.02 52.75 46.30 44.32 45.36 44.31 39.23 46.08 45.92 47.90 51.05 50.17 44.57 46.07 48.50 42.20 40.65 34.96 36.87 34.39 29.99 36.83 38.73 37.91 36.33 34.88 31.91 31.43 35.51 39.54 37.66 36.11 36.86 40.14 40.46 40.99 41.83 42.01 42.96 43.91 44.85
52.26 52.49 52.09 52.78 52.43 47.01 43.10 46.12 49.58 44.81 36.69 42.94 46.62 45.55 46.09 47.04 43.16 43.63 46.10 42.89 38.54 34.51 33.63 31.07 35.75 39.93 38.24 36.44 35.78 33.58 32.64 32.89 33.24 37.58 37.58 35.13 34.20 36.45 40.27 40.96 42.44 43.25 43.24 43.70 43.72
51.86 52.13 51.62 51.67 45.89 43.47 44.47 48.96 47.53 45.47 33.69 40.82 41.82 45.05 45.28 43.12 41.20 47.54 47.57 43.42 38.04 35.05 35.16 33.91 37.95 37.92 35.82 35.00 36.52 30.87 38.00 36.86 35.33 31.98 26.10 35.45 25.12 33.50 36.40 38.26 40.18 41.40 41.66 42.34 43.20
51.67 51.83 51.35 51.40 42.99 44.50 48.36 47.47 46.04 45.82 22.45 42.86 41.39 46.81 43.54 40.70 42.76 44.44 47.19 42.48 37.48 37.08 35.93 34.50 35.40 34.85 33.44 36.18 38.71 34.17 39.05 35.52 35.19 30.91 27.66 29.75 25.65 32.25 37.11 35.87 37.21 40.03 41.56 41.84 44.10
51.42 51.49 51.38 48.22 44.41 47.14 48.17 46.08 46.18 32.89 25.19 38.02 42.16 40.81 39.60 41.35 42.24 43.89 42.81 43.62 42.21 37.00 36.42 36.18 39.22 37.24 37.30 39.90 39.90 39.64 34.80 32.74 30.92 27.54 21.12 28.48 27.57 28.68 30.27 33.57 36.53 40.02 42.44 45.44 45.99
51.02 51.02 49.79 49.37 44.30 46.17 46.43 44.08 32.97 26.54 40.34 36.14 36.58 38.93 37.61 38.32 40.00 41.06 39.40 36.49 33.07 29.10 29.03 34.74 34.62 39.43 41.41 34.96 36.75 34.02 27.23 18.99 18.55 19.55 21.07 29.72 26.79 29.70 35.81 39.08 39.34 41.18 43.07 44.14 44.80
50.19 49.76 49.18 49.44 46.01 47.29 43.70 37.88 28.58 36.46 34.83 40.04 38.49 37.80 35.18 38.18 37.88 38.64 36.46 33.04 38.40 35.46 30.39 27.16 25.99 35.73 39.88 35.59 31.88 30.99 28.40 20.72 17.35 18.74 21.64 30.60 23.63 28.60 37.54 42.27 43.29 44.25 43.87 44.55 44.17
48.79 45.24 46.65 49.39 50.46 44.56 40.18 30.77 28.42 34.05 38.56 37.17 37.27 34.42 34.17 37.74 36.15 35.86 34.33 34.73 37.26 36.15 29.11 27.38 28.80 38.80 39.67 39.21 35.92 30.05 26.75 30.87 24.36 25.75 21.20 24.87 30.10 35.24 39.19 41.17 42.03 41.79 43.24 42.80 43.24
42.26 44.10 46.00 49.67 46.64 43.81 36.30 34.93 36.78 42.42 40.79 39.47 32.10 36.16 30.95 32.90 32.77 32.79 32.91 38.81 38.06 39.99 37.88 33.54 26.97 36.24 38.70 38.50 37.19 32.77 35.02 25.08 24.29 19.60 18.25 23.38 25.92 27.62 34.13 36.93 39.44 40.23 40.92 41.40 43.00
43.37 42.00 47.68 45.97 46.99 40.68 30.97 34.62 40.03 43.27 42.72 38.48 35.28 33.76 34.36 32.45 32.45 31.63 33.65 37.67 40.86 38.93 38.27 34.36 30.20 31.49 34.75 31.74 29.73 29.74 27.41 29.12 28.06 24.02 17.66 17.78 24.04 34.60 35.43 38.05 38.16 39.75 41.54 41.44 43.37
40.21 36.73 47.24 45.98 37.42 34.40 32.75 37.37 41.91 41.29 43.46 40.49 38.90 37.61 34.56 34.83 32.76 32.79 32.65 36.49 42.05 40.54 34.80 35.83 30.42 26.94 29.81 36.60 37.50 33.41 30.86 30.43 23.07 20.95 26.84 28.14 26.49 38.70 36.92 38.84 39.44 40.17 41.78 43.15 44.31
39.70 39.08 46.73 44.34 30.35 30.10 34.43 37.96 40.19 40.40 40.29 39.12 37.00 38.00 36.77 33.08 28.80 34.58 36.41 41.45 40.50 38.93 36.36 35.89 28.56 25.51 25.95 29.51 33.65 31.42 33.88 33.65 32.69 30.32 27.37 24.23 25.81 38.41 38.74 39.51 40.61 40.34 41.63 43.84 45.88
38.65 34.28 37.19 38.54 36.06 33.01 32.53 34.20 36.48 42.34 40.64 39.95 38.12 37.99 35.12 32.62 34.01 32.59 35.32 40.00 41.56 39.61 45.06 40.88 30.73 29.44 25.30 27.38 29.07 30.08 33.39 35.78 34.28 29.19 27.45 28.53 30.05 34.93 36.94 38.41 40.42 41.32 42.30 45.35 46.25
36.49 33.23 34.40 28.83 31.57 32.17 33.28 34.92 34.60 34.39 38.59 38.18 35.50 36.06 33.48 28.90 30.60 31.08 34.32 35.60 39.09 41.46 38.65 37.09 29.24 31.41 32.75 34.09 34.53 33.89 33.86 34.64 32.65 33.22 29.71 31.58 31.53 35.52 37.05 38.10 39.79 42.02 44.40 44.93 46.76
34.83 33.51 35.11 32.33 34.24 33.41 34.01 32.05 33.58 35.59 35.14 33.97 31.93 35.20 33.99 29.85 31.45 29.64 31.98 32.17 32.73 36.95 33.97 34.03 28.34 31.80 30.98 34.72 34.69 32.71 34.43 34.49 34.59 35.82 35.36 35.28 33.84 39.81 39.64 39.68 39.99 41.54 43.00 43.60 46.73
39.16 38.84 35.24 32.13 31.46 29.71 29.82 33.57 34.03 35.20 36.34 37.78 35.12 32.58 31.96 34.45 37.14 37.24 37.35 37.37 37.13 34.75 31.77 31.76 29.73 26.37 26.15 32.19 32.07 28.07 32.70 35.00 36.01 37.18 35.92 31.83 35.85 39.15 38.52 39.21 39.38 39.78 41.43 42.98 43.57

GFSSW_sfc_wetblb_066.txt.gz
Wetbulb
54.15 54.19 54.03 53.94 53.83 53.79 54.04 53.94 54.28 54.67 55.01 55.17 55.85 56.09 56.21 56.31 55.57 49.13 43.30 47.20 52.71 56.79 59.13 49.68 46.63 45.89 44.58 43.23 48.58 50.22 43.80 40.83 44.57 45.43 46.72 51.54 50.01 52.72 54.74 52.73 52.24 54.25 54.07 55.89 65.71
53.92 54.00 54.08 54.10 53.70 53.62 53.50 53.85 54.11 54.29 54.80 55.32 55.66 55.86 55.98 55.69 51.69 46.94 52.98 55.99 58.33 59.58 46.58 44.34 42.76 44.06 39.54 41.99 45.22 45.60 40.31 41.14 48.28 50.11 49.41 51.27 50.21 51.02 50.88 50.64 50.46 52.70 55.07 57.24 64.50
53.90 53.68 53.34 53.29 53.42 53.15 53.12 53.36 53.73 54.22 54.51 54.81 55.09 55.46 55.95 55.38 45.68 45.22 59.94 59.45 60.25 58.39 49.03 46.45 45.27 43.55 36.60 38.68 40.76 40.64 40.59 45.79 48.08 49.86 49.67 48.48 48.64 50.81 48.68 47.97 49.96 49.41 52.27 54.18 56.56
54.00 54.40 54.60 54.41 53.72 53.42 53.13 52.77 53.04 54.01 54.28 54.47 54.82 55.16 56.26 50.25 34.59 47.12 63.09 61.60 61.31 54.50 49.51 45.97 42.52 37.40 35.50 36.02 39.39 35.67 41.95 45.47 46.74 48.27 45.75 46.05 48.32 47.21 47.78 48.42 52.30 52.04 53.04 53.09 53.81
53.82 54.13 54.10 53.95 53.69 53.15 52.98 53.11 52.69 53.16 53.85 54.26 54.92 55.49 50.36 44.20 46.61 53.82 64.57 61.26 56.96 52.94 48.24 45.62 40.50 37.82 34.68 35.83 37.95 35.84 39.30 42.59 43.90 43.97 44.58 45.53 44.89 45.34 46.19 49.60 51.68 51.68 51.50 51.53 52.18
53.35 53.35 53.52 53.88 53.34 53.04 52.78 52.37 52.52 52.87 53.64 54.01 54.98 56.39 46.42 36.48 50.10 52.90 56.19 56.78 55.88 51.42 47.88 46.58 41.97 42.07 38.04 36.82 35.99 38.33 38.53 40.48 42.12 42.93 43.75 43.69 44.21 45.11 46.98 50.11 49.84 50.64 49.83 50.15 50.95
53.27 53.31 53.00 52.90 53.08 53.10 52.77 52.48 53.10 53.04 53.76 54.34 55.23 54.18 44.40 41.05 50.27 51.53 53.93 50.86 53.25 52.22 47.35 47.93 45.27 41.63 40.28 36.59 38.59 38.90 34.90 37.90 40.07 42.10 42.25 44.36 41.10 42.31 47.03 49.29 48.47 48.74 48.88 49.05 49.74
53.25 53.22 53.00 53.16 52.91 52.92 53.29 53.10 53.06 53.59 54.09 54.85 55.41 50.06 39.99 49.13 51.27 52.08 49.16 48.88 50.35 49.71 49.79 47.79 45.58 40.89 38.39 38.51 38.44 34.00 32.65 28.72 36.14 40.44 42.45 42.71 36.95 44.14 45.40 45.99 45.55 47.11 47.97 47.54 47.65
52.95 52.77 52.83 52.97 52.85 52.81 52.79 53.04 53.59 54.01 54.79 55.47 49.31 44.70 43.40 54.64 49.10 48.72 46.97 44.90 45.62 46.37 47.42 49.81 44.23 39.07 39.16 33.72 30.52 31.72 27.48 29.09 34.51 38.95 39.56 39.72 36.53 42.56 44.96 44.31 44.21 45.26 45.98 46.75 46.63
52.38 52.10 52.14 52.50 52.64 52.83 52.49 52.36 52.48 53.62 54.51 54.55 52.59 42.85 45.75 46.47 50.03 47.89 46.92 46.39 44.68 44.32 42.81 41.98 37.35 34.49 32.30 31.00 24.49 27.48 28.33 30.86 31.25 36.57 37.69 35.79 36.41 40.62 43.24 43.21 43.31 44.26 45.21 46.49 47.17
52.12 52.00 51.79 52.17 52.27 53.09 49.29 43.25 41.25 39.72 46.38 40.90 44.37 45.00 47.69 51.15 50.41 45.68 47.54 45.78 44.33 40.96 34.34 36.82 33.26 29.80 32.58 33.95 34.88 33.57 31.89 30.89 33.98 37.52 36.45 35.33 36.25 38.79 41.38 41.56 41.19 42.50 43.49 44.55 46.26
51.85 51.77 51.77 51.86 52.20 52.65 44.92 44.01 43.91 42.83 37.89 44.65 44.35 46.88 49.51 49.49 43.72 46.10 47.24 41.26 39.35 33.91 35.46 33.36 29.56 35.38 37.22 36.19 34.72 33.44 30.43 30.48 34.73 38.44 36.60 35.23 35.37 38.64 39.91 40.24 41.14 41.90 42.57 43.58 45.05
51.43 51.13 51.46 51.60 52.12 45.72 42.68 45.39 47.24 44.17 36.16 41.64 45.11 44.33 44.62 46.72 42.83 43.15 44.88 41.41 37.25 33.24 32.66 30.55 34.48 38.88 36.86 34.59 34.32 32.13 30.94 31.41 32.30 35.88 35.74 33.59 31.25 33.76 38.03 40.31 41.62 42.23 43.06 43.41 43.61
50.68 50.93 50.99 50.93 45.74 43.27 43.96 47.47 46.24 44.91 32.26 38.86 40.35 43.62 44.99 42.86 40.16 46.81 46.36 42.86 36.81 34.19 33.80 32.63 36.43 36.61 33.98 33.51 35.10 29.35 36.73 35.81 34.10 30.59 24.13 33.51 22.27 30.39 34.79 36.10 38.45 40.24 39.84 40.89 41.93
50.37 50.95 50.88 50.68 42.56 43.95 46.39 46.44 44.81 44.64 21.82 40.60 40.01 45.18 41.80 39.58 41.34 43.12 45.69 41.51 36.85 35.57 34.50 33.59 33.44 33.09 32.11 34.23 37.07 32.54 37.29 33.98 33.47 29.03 25.93 27.98 23.34 27.55 33.36 32.89 35.05 38.42 40.15 41.25 43.59
50.54 51.19 50.78 47.49 43.39 45.99 47.06 44.98 45.43 31.86 24.41 36.58 40.46 39.08 38.48 40.38 40.89 42.73 42.09 42.97 41.41 36.29 35.21 34.66 37.82 35.79 35.74 38.39 38.21 37.71 33.54 31.25 28.24 26.04 19.73 25.49 24.83 23.73 28.88 32.88 35.63 38.44 40.65 42.91 45.07
50.68 51.12 49.51 47.58 43.07 44.99 45.03 43.48 32.28 25.45 38.26 34.79 34.98 37.23 35.64 36.68 38.71 39.63 37.53 35.10 31.87 28.35 28.19 34.02 34.32 37.88 39.53 33.62 35.40 33.02 26.22 18.28 17.41 18.16 19.10 27.66 25.39 28.23 34.39 37.61 37.95 39.52 42.14 43.65 43.69
50.25 49.31 49.00 48.60 45.77 46.41 43.20 37.08 27.16 34.50 33.45 38.61 36.97 36.08 33.58 36.67 36.27 37.27 35.00 32.46 36.54 33.89 29.17 26.44 25.82 35.40 39.28 34.52 30.57 29.55 27.06 19.70 16.10 17.48 18.37 28.58 22.54 26.86 35.85 38.52 40.33 42.91 43.17 43.64 43.25
48.74 45.09 45.92 48.20 48.89 43.87 39.72 29.41 28.37 32.73 37.18 35.87 36.38 32.67 32.66 36.20 34.71 34.55 32.19 33.24 36.13 35.25 28.45 26.40 27.81 38.03 38.78 38.23 35.99 29.12 25.42 28.67 22.91 23.03 19.50 23.22 27.82 34.19 37.76 37.73 39.73 40.79 42.09 41.91 41.74
43.25 44.00 45.07 46.61 45.51 42.71 35.75 33.96 35.35 40.97 40.07 37.87 30.88 34.64 29.66 31.79 31.66 30.88 31.43 37.17 37.02 38.85 36.11 32.20 26.37 35.80 38.14 37.10 35.48 31.95 33.51 24.00 23.09 18.68 17.44 21.86 23.72 26.02 32.83 34.52 37.12 38.74 39.89 41.67 41.50
43.07 41.57 46.52 45.65 45.78 39.88 30.54 33.24 38.82 42.61 40.98 37.14 34.04 32.28 33.04 31.63 31.72 30.33 32.43 36.01 39.42 37.85 35.86 32.81 29.80 30.94 35.42 31.21 28.86 29.06 26.72 28.35 26.52 23.34 18.30 16.84 22.14 32.31 33.50 35.12 35.84 38.16 40.48 40.89 40.81
40.26 36.34 45.85 45.15 36.78 32.46 31.73 36.61 41.06 39.99 42.05 39.38 37.69 35.89 33.59 33.55 31.68 31.78 31.69 35.49 40.97 39.17 33.62 35.00 29.73 26.83 30.38 34.85 36.17 32.29 29.32 28.81 20.02 19.24 22.56 21.93 25.62 37.61 36.45 36.11 37.74 38.48 41.72 42.65 42.76
38.69 38.50 45.75 43.92 31.18 30.84 33.83 36.74 38.75 39.03 39.15 37.97 35.80 36.75 35.49 32.02 28.15 33.07 34.45 40.02 38.89 38.13 35.45 36.35 28.92 25.13 27.35 29.07 32.19 29.62 31.55 31.14 29.82 29.52 26.81 23.28 25.15 37.88 36.94 38.26 40.07 39.84 41.37 42.06 45.21
37.18 33.06 36.32 36.88 35.36 32.12 32.02 33.58 35.32 40.92 39.34 38.21 36.61 36.70 33.63 31.45 33.00 31.49 33.32 38.93 39.00 38.59 43.81 40.87 31.30 29.73 24.95 27.25 27.67 27.28 31.54 32.80 31.96 28.33 26.45 27.64 29.63 35.02 37.41 37.71 38.65 40.12 41.22 42.41 44.36
35.31 32.96 33.42 28.34 30.28 31.68 32.50 34.17 34.10 33.87 37.52 36.49 33.95 34.02 31.20 28.05 29.16 30.15 32.71 33.87 37.20 39.78 36.61 36.75 29.79 31.64 32.51 33.75 33.40 32.36 32.06 32.89 30.86 32.01 28.58 30.77 31.07 34.94 37.52 38.41 39.85 40.52 42.25 42.38 43.01
34.41 32.74 34.25 31.31 33.29 32.11 33.03 31.51 32.86 34.50 34.42 32.89 30.68 33.71 31.98 28.30 30.42 29.40 31.21 31.31 30.88 35.46 33.81 35.07 30.15 31.71 29.44 33.58 33.28 31.55 33.11 33.60 33.67 33.99 33.22 33.26 32.10 39.49 40.41 40.17 40.05 40.28 40.48 40.96 41.83
38.99 38.93 36.35 32.02 30.84 29.44 29.11 32.78 33.67 34.19 35.76 36.90 33.87 32.38 30.81 32.85 35.17 35.21 35.13 34.97 34.76 32.68 32.29 32.41 32.25 29.41 25.51 30.26 30.45 26.55 30.97 32.60 33.57 35.36 34.49 30.35 35.67 38.47 39.03 40.03 40.51 39.27 40.45 40.70 42.46

GFSSW_sfc_wetblb_069.txt.gz
Wetbulb
53.90 53.72 53.72 53.71 53.62 53.33 53.38 53.26 53.97 54.27 54.85 55.31 55.68 55.99 56.12 55.99 55.24 53.05 47.91 50.81 55.17 58.11 58.71 51.46 49.83 50.05 49.42 49.59 53.72 55.56 48.15 44.90 46.54 46.43 48.44 53.64 52.48 55.85 57.34 55.13 55.75 56.99 57.12 58.04 60.71
54.95 54.58 54.71 54.54 54.11 53.58 53.57 53.10 53.23 54.31 54.48 54.98 55.38 55.40 55.51 55.34 52.92 50.16 55.59 55.55 57.14 59.16 49.87 47.66 47.16 47.85 46.51 47.44 50.82 50.15 46.23 46.36 50.60 51.28 49.99 52.68 52.53 53.39 52.79 53.50 53.89 55.28 57.13 58.28 58.66
54.85 54.54 54.41 54.48 54.32 53.77 53.18 53.29 53.10 53.15 54.41 54.57 54.87 55.25 55.36 55.44 48.96 48.92 59.88 59.19 59.37 59.29 52.08 49.93 49.32 48.64 44.52 47.22 47.92 48.72 45.10 48.81 50.34 52.20 53.15 52.35 51.33 52.89 51.66 50.18 53.46 52.31 54.43 55.61 56.86
54.07 54.37 54.43 54.24 54.06 53.81 53.19 53.13 53.11 53.69 53.56 54.42 54.51 54.96 55.51 53.47 40.97 52.50 62.35 60.76 60.94 55.76 53.12 49.17 48.19 45.61 43.86 42.84 46.10 43.92 46.47 48.78 49.87 51.44 49.90 49.40 50.11 48.43 50.40 51.51 53.18 53.18 54.05 55.61 55.66
53.79 53.96 53.79 53.66 53.66 53.64 53.24 52.74 52.55 53.02 53.33 53.71 54.43 54.81 53.30 48.11 49.70 56.75 63.01 61.24 57.82 54.26 51.32 49.88 46.73 45.16 42.82 43.83 44.33 43.80 44.56 45.91 47.40 47.32 46.87 47.16 46.43 47.55 48.32 51.21 51.98 53.33 53.61 53.82 54.89
53.51 53.55 53.59 53.69 53.65 53.40 53.02 52.73 52.12 52.04 52.64 53.74 54.57 55.51 49.84 43.36 53.87 56.70 59.82 57.83 55.98 53.72 51.38 51.19 47.93 47.91 45.01 44.45 43.73 44.18 44.29 45.14 45.90 46.60 46.66 45.16 45.83 47.31 48.85 50.72 50.50 51.43 52.58 53.35 53.67
53.60 53.33 53.11 53.41 53.25 53.27 52.81 52.70 53.55 52.66 53.35 54.08 54.79 54.76 47.76 45.82 54.18 55.33 57.39 55.27 56.70 54.73 49.87 51.93 51.10 47.00 46.49 43.33 45.49 44.34 41.74 44.01 44.56 45.48 45.26 47.00 43.16 44.37 48.21 49.94 49.68 50.62 51.50 51.61 52.26
52.30 52.19 52.31 52.81 52.89 53.08 53.18 52.73 52.89 53.68 54.01 54.52 55.49 53.64 46.09 50.99 54.58 55.07 54.73 53.23 54.53 56.03 53.21 52.30 50.80 47.76 46.10 45.82 43.71 41.38 40.93 37.90 42.60 44.02 44.78 45.19 40.25 45.24 47.28 47.28 47.95 48.56 49.56 50.50 51.90
52.87 52.16 52.02 52.48 52.64 52.91 52.91 53.12 53.82 54.03 54.83 55.63 53.51 50.12 47.06 57.13 52.39 51.79 52.47 48.53 48.91 49.89 51.73 50.58 49.18 45.28 45.06 42.05 40.30 39.94 36.44 37.15 39.48 44.34 43.92 43.29 40.57 44.15 46.94 46.66 46.73 48.12 48.97 49.49 51.00
52.31 51.72 51.87 51.98 52.43 52.31 52.78 52.21 54.25 56.26 55.12 55.50 53.60 47.14 50.78 48.82 52.94 52.42 51.11 48.91 47.65 47.38 46.35 46.05 45.52 43.11 42.45 41.10 34.52 35.24 35.86 37.37 37.40 41.44 43.53 41.78 41.17 44.21 45.46 45.26 45.96 46.96 47.97 48.51 50.13
51.81 51.56 51.98 51.92 52.01 52.05 51.62 50.45 48.02 46.20 50.78 45.58 46.27 46.70 47.94 52.47 52.92 49.40 50.18 48.45 47.50 45.75 41.20 42.22 40.91 38.38 39.43 40.28 40.02 38.82 37.56 36.78 39.59 42.19 41.64 40.93 41.01 42.70 44.61 45.09 44.55 46.11 47.22 48.31 49.46
51.41 51.42 51.60 51.69 51.99 52.72 49.18 49.12 48.08 48.72 43.13 47.26 47.65 47.97 50.25 51.25 46.00 48.45 50.39 45.51 44.00 40.20 41.03 40.13 37.73 41.06 41.09 40.18 38.87 38.33 37.17 37.18 40.43 42.04 41.37 40.49 39.72 42.69 44.19 44.66 45.59 45.88 46.51 47.77 48.66
50.58 51.06 51.40 51.55 51.96 49.92 48.84 49.34 51.56 48.61 43.22 44.94 46.87 46.75 47.66 49.55 45.54 46.25 48.08 45.51 42.73 39.80 39.43 37.54 39.10 41.56 39.98 39.12 38.22 38.47 37.24 37.04 37.05 40.10 41.50 39.50 38.06 39.14 42.67 44.29 45.59 46.37 47.47 47.62 47.52
50.55 50.96 51.34 50.99 49.34 48.90 49.18 51.37 51.01 49.82 40.21 41.16 43.82 46.91 47.75 47.78 43.36 49.30 49.03 46.40 42.26 39.43 39.14 39.16 41.00 39.82 39.13 38.24 39.72 35.86 40.47 39.43 37.60 36.13 32.46 39.10 30.47 37.83 40.33 41.33 43.25 44.79 47.04 47.15 47.82
50.62 51.17 51.26 50.61 49.06 49.57 50.92 51.52 50.81 50.14 29.69 42.63 43.23 49.06 46.33 44.01 44.21 45.29 48.42 45.63 41.71 40.52 40.37 38.51 39.13 38.57 37.92 38.60 41.14 37.42 40.97 38.78 37.90 36.49 34.85 35.50 32.02 36.18 39.37 39.30 41.83 44.85 46.12 47.90 49.51
51.05 51.52 50.93 50.05 49.09 51.34 50.94 50.48 51.12 39.10 29.31 39.06 42.92 41.72 42.52 43.48 43.81 45.85 44.86 46.51 44.66 41.13 40.81 40.59 42.13 40.90 40.29 41.52 41.70 41.28 39.05 38.61 36.19 35.17 28.83 33.19 32.43 34.20 37.49 39.87 42.35 44.88 46.14 47.84 50.23
50.93 51.26 50.24 49.45 49.03 50.15 50.45 50.19 39.32 32.57 40.58 37.30 38.35 40.69 39.76 40.02 41.21 42.06 40.58 40.11 38.46 35.02 35.70 38.58 38.97 42.46 42.72 39.03 40.37 39.73 36.38 29.61 27.57 27.93 28.28 34.17 31.98 34.89 40.24 42.27 43.34 43.82 45.64 48.24 50.42
50.06 49.62 50.90 50.94 52.19 51.21 50.13 44.49 33.90 36.74 36.18 40.89 39.86 39.77 37.48 40.10 39.83 40.25 38.88 38.02 40.79 38.83 36.45 34.07 32.22 39.47 42.52 39.87 37.34 37.15 35.58 29.72 21.65 25.04 28.97 33.89 29.36 35.72 41.54 43.71 45.01 45.81 47.66 48.76 49.41
48.90 51.45 51.39 52.37 51.28 49.96 46.78 37.37 36.91 36.70 39.18 38.56 39.41 36.37 36.79 39.14 38.94 38.62 38.02 38.22 40.70 41.27 35.43 33.75 33.01 40.63 41.58 41.85 40.85 35.77 32.98 36.92 31.34 32.26 27.74 31.57 35.19 39.85 42.75 42.88 44.03 44.90 46.48 47.41 49.06
49.16 49.85 51.06 50.75 50.08 48.99 43.05 37.43 38.85 42.48 41.99 40.72 34.68 37.70 34.04 36.32 36.07 36.70 36.66 39.94 39.62 42.29 42.88 37.98 31.89 38.90 40.46 41.49 40.59 38.73 39.93 31.18 32.77 23.40 22.17 29.70 31.12 32.99 38.30 40.15 42.48 44.03 45.55 47.28 49.23
48.64 48.17 51.49 49.60 50.74 46.11 39.52 38.07 40.92 44.69 42.96 39.85 37.71 36.23 36.98 36.43 37.23 35.94 36.51 39.52 41.75 41.70 41.97 39.92 36.29 35.17 38.37 36.80 35.81 36.17 34.66 34.95 34.71 32.72 25.87 24.48 30.60 40.01 39.85 42.09 42.12 44.29 45.89 47.30 48.61
46.84 43.39 50.67 50.10 43.31 38.34 38.57 38.91 40.83 41.74 43.83 42.20 40.96 39.64 37.51 37.98 36.40 36.55 36.03 39.16 43.71 43.46 38.20 41.26 37.34 32.14 34.63 40.53 40.88 39.01 36.60 36.93 30.41 27.98 31.66 30.40 30.46 43.09 43.22 43.59 44.22 44.88 46.34 47.71 49.11
43.00 44.03 50.61 49.46 38.96 37.75 38.78 38.58 40.01 39.61 41.19 40.48 39.08 40.21 39.74 37.35 34.61 37.03 38.19 42.15 42.25 42.09 39.90 40.70 35.63 29.63 31.22 34.47 37.12 35.23 37.00 37.48 36.63 35.07 29.54 27.24 31.33 43.01 43.78 44.09 45.17 45.15 46.57 47.52 48.16
42.56 39.34 42.39 42.82 39.89 36.53 34.59 35.16 37.02 42.32 40.43 40.14 39.31 40.25 37.73 36.35 38.85 36.23 36.58 40.45 41.70 41.83 43.40 42.93 37.22 33.24 28.21 31.51 35.25 33.03 35.16 36.97 36.19 30.57 31.51 31.94 34.34 39.17 41.56 42.50 44.60 45.74 47.19 46.99 47.39
40.02 37.70 38.11 35.17 36.17 36.12 35.90 35.93 34.90 35.03 39.66 39.94 37.75 36.69 35.04 32.87 34.22 34.39 37.41 38.17 39.72 41.29 41.46 40.38 33.08 35.25 35.73 36.36 36.63 35.59 35.24 36.19 34.69 35.28 30.76 33.75 34.55 38.55 41.93 43.35 44.65 46.50 46.66 46.10 46.39
38.75 37.18 38.57 36.92 36.15 35.27 35.39 34.58 34.39 35.90 35.74 35.31 34.80 36.07 35.36 33.01 34.70 32.40 35.08 35.62 34.86 38.89 38.98 40.65 32.79 35.51 32.29 35.66 35.98 33.78 35.89 36.25 36.29 36.53 36.00 36.29 35.88 43.06 44.89 45.72 44.88 45.32 45.79 45.45 46.08
41.55 41.75 39.83 35.01 34.39 34.37 34.02 34.84 35.15 35.61 36.43 38.06 36.65 34.58 33.86 35.45 38.21 38.85 39.21 38.96 38.68 36.58 36.00 36.06 33.65 32.51 28.48 33.86 33.35 29.22 33.71 35.55 36.58 38.56 38.10 34.36 39.63 44.27 43.03 43.89 44.30 45.13 45.98 45.53 46.38

GFSSW_sfc_wetblb_072.txt.gz
Wetbulb
55.46 55.41 55.44 55.31 54.91 54.56 53.98 54.36 53.94 53.94 54.92 55.32 55.79 55.93 55.97 55.96 55.96 57.77 53.91 54.03 56.50 60.17 57.83 53.51 53.44 53.50 53.22 53.25 56.05 57.22 51.00 48.89 50.01 50.68 52.22 54.94 53.40 57.09 59.10 57.47 58.12 58.97 59.06 60.35 61.43
55.04 55.18 55.26 55.15 55.09 54.80 54.20 54.02 54.01 54.13 53.97 55.10 55.33 55.57 55.71 55.78 56.69 54.34 58.38 55.69 58.12 59.52 53.78 50.37 49.11 51.26 50.69 51.46 53.17 52.81 49.81 49.63 53.57 54.17 53.38 54.89 54.51 54.81 54.24 54.97 56.35 58.05 59.78 60.69 60.58
54.70 54.58 54.83 54.90 54.96 54.74 54.11 53.73 53.74 53.91 54.48 54.40 55.21 55.43 55.38 56.79 54.65 51.20 60.45 58.98 58.41 60.51 53.97 52.20 51.66 50.52 48.27 50.74 51.29 51.97 48.99 51.87 52.64 54.40 55.28 54.52 54.56 56.56 52.80 51.71 54.86 55.65 57.06 57.97 58.84
54.54 54.78 54.64 54.63 54.54 54.47 54.25 54.05 53.72 53.69 54.04 54.22 54.64 55.40 55.93 57.53 45.46 55.70 62.07 60.59 60.84 58.14 54.29 49.47 49.64 48.13 46.91 46.50 50.49 47.56 50.74 51.66 52.37 53.82 53.77 53.05 54.73 53.79 54.84 53.55 55.03 55.83 57.04 57.16 57.75
54.56 54.45 54.27 54.16 54.25 54.37 54.07 53.81 53.53 53.07 53.24 53.56 54.58 55.44 56.49 52.94 51.12 59.62 62.66 61.21 58.88 55.90 53.57 51.65 48.07 47.58 45.57 46.63 47.80 47.02 48.53 49.69 51.01 51.86 52.46 52.95 51.80 52.02 52.96 54.78 53.95 55.00 56.06 55.89 56.88
53.15 53.01 53.09 53.37 53.77 53.62 53.97 53.05 52.90 53.04 52.73 53.39 54.60 55.14 53.81 47.00 57.14 58.94 60.25 58.75 56.07 54.81 53.06 52.83 49.94 50.22 47.77 47.04 46.48 48.02 47.71 48.59 49.52 49.68 50.40 48.95 49.52 50.48 51.52 52.95 51.72 54.27 53.82 54.88 55.70
52.49 52.63 52.65 52.97 53.32 53.53 53.37 53.33 52.77 52.89 53.21 54.13 54.94 56.38 51.03 48.52 57.58 58.80 59.54 57.26 56.59 55.12 51.41 52.80 52.62 49.63 48.74 46.51 48.86 47.96 45.04 47.05 47.79 48.33 47.96 49.56 46.55 47.37 51.48 51.91 51.82 56.03 54.06 54.75 55.63
52.95 52.49 52.76 52.93 53.28 53.36 53.41 53.05 52.99 53.49 54.18 54.37 55.41 56.22 49.20 53.01 57.24 57.31 57.60 55.62 56.53 56.66 54.79 53.84 53.29 50.44 48.65 49.52 47.26 44.79 45.35 41.87 46.76 46.99 47.89 47.75 43.34 48.52 50.00 50.74 50.63 51.27 54.85 56.18 54.74
52.62 52.07 52.07 52.35 53.07 53.01 52.78 53.40 54.33 54.72 54.96 55.26 56.28 54.38 49.02 58.22 54.11 54.12 55.75 50.99 51.89 52.96 53.54 52.09 51.88 48.81 48.10 45.07 43.66 44.88 40.15 41.38 43.19 46.91 46.39 46.09 44.08 48.79 49.46 49.65 48.58 48.64 51.38 53.02 52.78
51.78 52.08 52.20 52.08 52.64 52.55 52.73 53.09 56.46 56.53 56.78 57.56 56.56 51.34 52.98 50.17 53.57 54.18 54.76 52.31 49.85 49.63 49.12 49.60 48.72 45.93 46.09 44.12 38.57 40.52 40.39 41.07 41.39 45.22 45.76 45.02 45.03 48.14 49.41 48.75 48.76 48.72 49.63 51.17 52.04
51.85 51.83 51.81 51.99 52.33 52.56 54.55 56.18 52.88 51.72 53.91 49.71 49.10 49.49 50.38 53.68 55.19 52.52 52.34 50.80 50.21 48.68 44.13 46.94 43.69 41.82 43.63 44.25 43.81 42.41 41.22 40.69 43.17 45.31 44.21 44.21 44.86 46.56 48.80 48.88 48.58 48.32 48.45 49.85 51.19
51.60 51.62 51.76 52.08 52.10 52.42 54.85 52.81 51.52 52.66 47.76 51.49 50.95 50.89 52.48 53.05 48.12 50.47 53.38 47.75 47.13 43.84 44.94 43.62 41.06 44.63 44.31 43.56 42.39 42.20 41.08 41.23 43.59 44.98 44.24 43.94 43.59 46.46 47.88 48.44 49.10 49.37 49.26 49.40 51.07
51.04 51.48 51.56 52.12 52.25 54.26 55.05 52.75 56.41 54.23 48.53 47.93 50.23 49.11 49.92 51.84 47.85 47.82 50.49 48.86 45.72 43.79 43.45 41.50 42.62 44.53 43.07 42.35 41.09 42.15 40.71 41.11 40.57 43.74 44.63 43.48 41.73 44.67 46.05 47.67 48.32 49.63 50.52 50.16 49.93
50.77 51.56 51.58 51.43 51.90 56.82 53.96 56.27 56.70 55.02 45.39 44.47 46.75 49.17 50.45 50.62 46.31 51.13 51.43 48.82 45.91 43.00 43.31 43.08 44.76 42.66 42.54 41.53 42.74 39.35 43.60 42.11 40.98 40.22 36.93 43.60 34.99 42.39 44.84 45.52 46.59 48.98 49.84 50.13 50.03
51.16 51.84 51.67 50.32 56.68 54.87 54.66 57.34 56.64 54.26 35.36 44.98 45.95 52.07 49.36 47.16 47.29 47.80 51.39 49.11 44.24 44.33 43.62 41.94 42.44 42.00 41.27 42.23 43.80 41.18 43.56 42.37 41.85 40.32 39.71 39.60 37.14 41.44 43.39 42.85 45.03 47.32 48.10 49.66 51.53
51.22 52.01 51.59 54.36 57.60 55.59 57.10 56.58 55.53 43.74 33.73 42.27 45.91 44.76 45.24 46.67 46.48 48.00 47.81 49.42 48.61 45.30 45.75 44.17 47.26 44.58 43.90 44.08 44.61 44.74 42.64 42.68 42.78 40.39 33.73 38.48 38.00 38.98 41.68 42.80 45.39 47.16 47.33 48.88 52.04
50.67 51.39 52.70 55.58 54.35 57.82 57.13 54.47 43.90 38.00 43.99 41.04 42.08 44.00 44.01 43.68 44.83 45.43 45.13 44.75 42.45 39.39 39.90 43.24 43.37 45.50 45.71 42.62 44.71 43.48 40.95 34.59 33.23 33.76 32.61 39.20 36.42 39.53 43.27 44.05 44.67 45.46 47.01 49.92 52.11
50.00 50.03 53.39 57.53 58.44 57.15 55.59 48.41 37.51 41.64 41.08 43.70 42.81 43.73 41.92 43.94 44.25 43.88 43.25 41.78 45.31 43.62 40.54 38.14 36.67 42.85 46.05 43.60 41.72 42.12 40.97 34.74 27.67 30.46 33.80 38.68 33.59 39.92 44.79 46.01 46.80 48.14 49.60 50.54 51.36
48.92 57.83 58.18 58.85 56.92 56.41 50.70 41.52 40.86 41.36 42.20 41.17 43.22 40.55 41.40 42.41 41.68 42.07 42.27 41.90 44.13 45.27 39.23 38.43 38.26 44.17 44.40 45.44 44.33 40.94 37.61 42.47 35.97 37.07 33.27 36.18 39.67 42.71 45.36 45.14 46.69 47.43 48.66 49.73 51.15
55.07 56.45 56.70 56.61 56.91 54.62 46.93 40.16 42.88 44.78 44.23 43.48 38.52 40.92 37.94 40.05 39.51 40.56 40.76 42.92 41.95 45.22 46.65 42.24 35.98 42.97 43.53 44.87 45.05 42.57 43.87 35.47 36.49 27.57 27.39 34.20 36.62 38.20 41.62 42.96 45.49 46.01 47.35 49.48 51.32
54.99 51.61 55.45 56.77 56.29 50.83 43.66 43.72 44.08 46.92 46.34 42.25 40.90 40.02 40.36 39.49 40.82 40.36 40.09 42.90 44.04 43.81 45.83 43.75 40.48 39.13 42.32 40.06 38.96 39.51 38.56 38.78 38.85 37.07 30.32 29.74 35.62 44.49 43.35 44.64 45.07 46.51 48.53 50.06 51.24
52.41 47.64 56.18 56.66 47.55 49.14 44.50 43.71 42.01 44.20 46.42 44.20 43.97 42.07 40.65 41.26 40.06 40.21 39.87 42.74 44.95 44.95 41.00 44.06 40.04 35.71 37.49 43.04 44.58 43.03 40.14 38.87 34.67 31.86 35.83 34.61 35.07 46.21 46.15 46.60 46.82 47.72 49.11 50.93 51.70
46.37 49.88 56.67 54.16 43.67 43.81 43.79 42.18 42.79 42.08 42.50 42.89 42.04 43.28 43.45 40.64 37.92 41.28 41.68 45.15 45.55 44.38 41.92 43.35 39.03 32.77 35.10 39.04 41.60 39.23 41.09 40.99 40.26 39.22 34.02 31.26 35.89 46.29 46.94 47.14 48.41 48.25 49.42 50.55 51.63
46.18 43.25 47.70 50.96 47.29 41.22 38.88 39.19 39.37 44.19 43.15 43.23 42.48 43.15 41.38 40.15 42.97 40.13 40.81 43.23 44.65 44.58 43.71 44.71 40.07 34.77 30.96 35.13 36.67 35.49 37.74 40.29 39.00 33.54 34.43 35.85 37.88 42.75 45.10 46.13 47.43 48.61 50.00 50.44 51.05
45.24 42.79 42.80 41.63 43.38 41.32 41.28 39.94 38.10 37.66 42.29 43.44 40.60 40.07 39.22 36.74 38.61 38.48 40.80 41.73 43.28 44.30 43.57 42.91 36.07 37.87 38.39 38.75 38.21 37.56 37.10 37.70 36.34 37.99 33.38 37.22 38.41 42.20 45.13 46.18 47.49 49.18 49.79 49.34 49.61
43.07 41.52 43.93 41.64 41.61 40.42 39.37 39.75 38.12 38.94 39.22 37.47 37.57 39.10 40.28 37.02 38.57 36.93 39.06 39.06 37.92 41.66 40.86 42.70 35.44 37.59 34.72 37.66 38.07 35.63 37.78 38.78 39.40 39.23 39.23 40.05 39.74 45.98 47.50 48.34 48.11 48.50 48.93 48.99 49.70
45.97 46.69 42.60 41.51 39.34 39.17 40.54 38.81 38.09 39.57 39.36 40.07 39.86 38.57 37.43 39.92 42.29 42.25 42.27 42.08 41.38 39.53 39.17 38.03 36.26 33.01 31.10 37.12 36.52 32.76 37.23 38.88 39.86 41.27 40.78 37.57 42.48 46.64 46.51 46.80 47.61 48.66 49.12 49.18 49.81

GFSSW_sfc_wetblb_075.txt.gz
Wetbulb
55.77 55.68 55.70 55.67 55.70 55.77 55.13 54.92 54.80 54.72 55.14 54.95 56.00 56.33 56.35 56.49 56.43 58.72 56.84 55.44 57.41 60.89 58.95 53.38 54.64 55.04 56.02 54.98 57.05 57.56 51.00 48.55 50.29 51.16 52.94 56.84 55.65 57.44 58.32 57.20 59.52 59.61 59.36 61.70 62.80
55.14 55.47 55.57 55.63 55.50 55.37 55.36 54.79 54.51 54.71 54.71 55.20 55.26 55.94 56.12 56.22 57.26 57.36 58.17 59.90 59.41 59.42 57.07 52.77 50.42 52.80 52.67 53.50 54.67 53.57 50.32 50.02 53.49 54.21 53.82 55.41 56.14 56.26 55.98 55.88 56.19 57.66 60.66 61.92 61.68
54.94 55.07 55.46 55.29 55.38 55.14 55.12 54.66 54.67 54.57 54.64 54.80 55.04 55.42 56.11 56.92 56.66 53.92 60.74 58.59 58.97 59.25 57.39 53.68 52.94 52.02 50.22 52.94 53.17 53.26 49.93 53.16 53.64 54.69 55.05 54.32 55.28 57.50 55.47 53.63 55.86 55.48 58.58 60.12 60.22
54.12 54.45 54.77 54.44 54.77 54.63 54.40 54.54 54.19 54.43 54.26 54.34 54.70 55.39 56.17 58.21 49.09 57.54 61.47 60.49 60.58 61.65 56.55 51.34 50.93 49.33 48.57 48.45 52.34 49.87 52.49 53.22 53.75 54.44 54.13 53.11 55.53 55.13 56.18 56.64 57.91 57.90 59.90 59.77 59.46
53.34 53.64 53.73 53.73 53.99 54.24 54.38 53.84 53.78 53.72 53.70 53.61 54.19 55.37 57.18 55.72 54.37 61.18 62.11 61.09 60.67 57.44 54.80 52.98 50.38 49.38 47.38 49.22 50.14 49.41 50.48 52.21 53.11 53.04 53.01 54.04 53.53 54.02 54.89 57.60 59.10 58.02 57.33 59.04 59.69
53.10 53.15 53.23 53.29 53.61 54.01 54.22 53.75 53.42 53.32 53.70 53.81 54.61 55.43 56.81 49.58 58.25 61.06 59.60 58.59 57.43 55.55 53.95 54.13 51.81 52.08 49.70 49.36 48.30 50.21 49.73 49.85 51.15 51.70 51.95 51.06 51.83 52.50 53.74 56.68 56.80 56.23 55.61 57.48 59.78
53.41 52.96 52.89 53.20 53.37 53.76 53.99 53.68 53.27 53.85 53.65 54.29 55.27 57.08 53.77 50.69 57.50 59.10 58.16 57.06 56.38 55.25 53.03 54.08 53.97 51.15 51.10 48.71 51.55 49.87 47.07 48.92 49.55 50.12 49.94 51.48 48.20 48.91 52.96 54.30 54.36 54.52 55.51 57.38 59.27
53.10 53.16 53.07 53.07 53.24 53.54 53.74 53.63 53.65 53.97 54.55 55.05 55.64 58.01 52.29 54.59 57.93 56.11 57.50 55.89 56.04 56.18 54.91 55.16 54.33 51.98 50.62 51.59 49.03 46.76 47.01 43.34 48.08 49.11 49.85 49.32 44.37 50.12 52.91 52.86 52.64 53.27 54.29 57.15 58.30
52.81 52.37 52.90 52.82 53.11 53.36 53.40 53.46 55.23 55.72 55.62 55.58 56.32 56.96 52.06 56.69 53.15 56.32 56.90 53.13 53.78 54.09 54.46 53.89 52.42 50.29 50.45 46.54 44.79 46.44 42.29 44.11 45.85 48.61 48.02 48.01 45.46 49.86 52.63 52.41 51.85 52.82 53.79 54.43 57.73
52.45 52.49 52.15 52.47 53.01 53.11 53.32 53.95 55.74 55.63 56.94 57.98 58.46 52.56 54.92 50.80 54.03 54.68 55.89 54.16 51.48 51.53 50.45 50.40 49.80 47.26 47.52 45.10 40.18 42.87 43.75 44.92 43.65 47.52 47.83 46.35 46.36 49.38 51.58 51.38 51.31 52.07 53.05 53.37 56.41
52.05 52.14 52.53 52.67 52.90 53.11 54.25 57.98 55.55 55.03 56.51 53.60 52.31 51.97 52.28 54.48 56.07 53.69 55.08 52.41 51.56 49.91 46.05 49.43 45.58 43.66 45.81 47.53 46.88 45.42 43.78 43.24 45.68 47.82 46.06 45.53 46.30 48.14 50.75 51.14 50.82 51.37 52.07 52.82 54.82
52.11 52.24 52.22 52.63 52.80 53.09 55.04 54.71 53.55 54.84 49.56 53.88 52.08 51.77 53.63 54.03 49.61 51.79 54.49 48.89 48.83 45.62 48.61 45.88 43.09 46.53 47.67 46.45 44.73 44.03 42.52 42.67 45.51 47.42 46.70 45.64 45.37 48.36 49.66 50.19 51.03 51.36 51.80 52.45 53.64
51.54 52.08 52.32 52.66 53.01 54.00 57.04 54.67 58.29 57.12 50.40 50.47 51.10 50.30 51.42 52.77 49.68 50.03 52.18 50.24 47.70 46.17 46.32 44.38 46.01 46.74 45.98 44.51 43.07 43.59 42.57 42.99 42.95 45.78 46.87 45.27 43.47 45.83 48.72 50.10 51.04 51.66 52.54 53.05 53.26
51.70 52.34 52.66 52.69 50.48 58.78 55.83 57.36 58.35 58.07 46.67 47.15 47.99 50.66 51.36 51.63 48.41 53.09 52.71 50.51 48.19 45.34 46.46 45.86 47.94 44.22 43.86 42.90 44.26 41.32 45.88 44.61 43.25 42.24 38.53 45.93 37.52 44.79 47.51 47.66 48.92 49.92 50.71 52.00 52.58
51.74 52.21 52.81 50.94 59.16 56.10 56.91 58.28 57.72 57.20 38.14 47.98 48.54 54.36 52.08 49.23 49.42 49.81 53.42 50.67 45.97 46.13 46.88 43.92 45.32 43.81 42.78 43.89 46.00 43.12 46.37 44.51 44.06 42.34 41.85 41.66 39.46 42.80 46.78 45.74 47.17 49.25 50.77 52.31 53.06
51.40 52.02 52.60 56.48 59.24 57.15 58.01 57.96 57.43 46.17 37.03 44.77 47.98 46.70 47.16 48.56 48.56 49.98 49.56 51.63 50.61 47.07 47.48 46.53 49.29 47.47 46.03 46.78 46.31 46.67 44.56 44.25 44.10 42.18 36.08 41.14 40.44 40.59 43.45 45.43 47.15 49.07 49.73 50.97 51.79
50.58 51.37 52.64 58.09 56.37 58.90 58.73 55.96 46.11 40.28 47.57 44.07 44.37 46.79 46.40 46.12 47.05 48.08 47.04 46.82 44.52 41.68 42.00 45.45 45.56 47.84 48.06 44.15 46.45 45.39 42.39 35.63 34.73 35.17 35.06 43.17 39.59 41.70 45.62 46.42 47.54 48.75 49.42 50.49 51.91
49.97 49.40 55.32 58.63 59.83 59.02 56.79 49.91 40.01 45.17 45.22 47.31 45.37 46.02 43.64 46.43 46.70 46.51 45.58 44.03 47.16 45.75 42.92 40.14 38.70 45.19 47.82 45.07 43.32 43.24 42.70 36.15 28.91 31.05 34.52 40.60 36.70 41.31 47.12 48.93 48.40 48.62 49.92 50.72 52.85
48.48 57.89 58.55 61.08 59.91 58.65 52.05 43.55 44.17 46.14 45.46 44.06 45.49 42.94 43.71 45.72 44.07 44.60 44.16 43.53 45.95 47.15 42.04 40.74 40.32 46.97 46.71 47.77 46.89 43.06 39.19 43.43 37.93 39.33 34.26 38.25 41.88 45.64 47.19 47.02 47.34 48.64 50.19 50.87 52.11
54.89 57.18 57.76 60.39 60.15 56.41 49.63 42.99 46.28 47.80 47.40 46.32 40.96 43.75 41.08 43.37 43.08 43.39 43.40 46.00 43.68 46.65 48.12 44.23 38.26 44.72 45.89 47.35 46.99 44.33 45.63 36.45 37.29 29.20 28.72 35.30 36.57 38.07 43.21 44.83 46.99 47.90 49.06 50.55 51.75
55.72 53.02 57.87 60.58 58.85 52.31 45.49 47.13 47.47 49.06 48.33 44.91 43.47 42.43 43.28 42.24 42.87 42.20 42.22 45.56 46.88 45.73 47.47 45.60 42.01 41.35 44.28 42.35 41.05 41.24 39.47 41.24 40.34 37.08 30.47 30.28 35.35 44.67 43.71 44.61 46.89 48.31 49.53 50.47 52.07
53.76 48.89 58.12 59.52 48.96 51.08 46.27 46.91 43.59 45.73 47.77 46.49 46.14 43.97 42.38 42.72 41.53 41.76 41.30 44.75 48.08 47.11 42.74 45.57 41.16 37.70 40.02 44.95 46.41 44.97 41.94 41.10 35.20 33.75 36.25 35.84 35.96 46.94 47.43 47.16 49.02 48.83 49.96 51.33 52.70
48.58 49.16 57.62 53.90 45.98 46.41 47.69 46.08 46.30 44.71 45.19 44.28 44.15 45.82 46.15 42.81 39.52 42.33 43.60 47.54 47.46 46.05 43.76 44.82 40.44 34.35 36.60 40.99 42.39 40.10 40.03 41.93 42.14 40.49 35.47 32.07 35.79 46.94 48.03 48.56 48.98 49.25 50.22 51.11 52.19
48.54 45.39 50.43 51.26 49.84 44.48 44.68 44.63 43.46 46.36 44.85 45.61 44.54 45.23 43.27 41.76 43.79 41.44 42.60 45.95 46.72 46.49 45.79 45.73 41.23 36.49 31.74 35.97 39.79 36.12 37.43 39.03 36.34 35.84 36.03 35.98 38.57 41.44 42.15 42.31 47.96 48.98 50.75 51.23 51.80
51.34 48.06 46.80 44.07 46.27 46.02 46.03 45.16 43.20 43.07 45.40 46.04 43.31 43.18 42.10 39.01 40.79 40.52 42.76 43.91 45.46 47.87 44.96 44.03 36.81 38.26 38.74 40.12 40.11 39.46 39.01 39.92 38.24 39.66 34.90 37.68 37.99 42.40 45.33 46.57 48.16 49.96 50.39 50.59 50.45
45.69 44.97 48.19 44.78 46.74 45.21 44.53 44.13 43.09 43.61 44.06 42.68 41.59 41.76 42.08 39.46 40.32 38.51 41.11 42.31 41.21 43.97 42.49 43.80 36.28 38.59 36.29 38.95 39.25 37.35 39.00 39.78 39.95 39.80 39.63 40.75 40.12 45.45 47.31 47.47 47.32 48.90 49.41 50.06 49.85
49.64 49.56 45.45 44.08 45.59 43.70 44.23 43.78 42.56 43.91 43.96 43.23 41.72 40.71 39.73 41.44 43.45 43.82 44.31 44.07 43.07 41.12 40.55 39.70 38.07 36.22 32.57 38.47 37.79 34.25 39.02 40.04 40.94 42.38 40.70 36.25 40.92 45.54 45.18 46.53 48.19 49.45 49.52 50.94 50.86

GFSSW_sfc_wetblb_078.txt.gz
Wetbulb
55.91 55.95 55.50 55.51 55.99 55.49 55.09 54.92 55.17 55.34 55.50 55.46 55.88 55.88 56.50 56.79 56.62 57.23 55.30 58.27 58.25 62.77 56.54 51.39 52.22 55.46 55.66 54.05 55.60 55.58 48.85 46.82 47.97 49.35 51.38 55.46 54.68 57.87 58.62 56.20 58.54 59.97 59.65 61.25 62.90
55.14 55.46 55.58 55.66 55.18 55.07 55.07 54.93 54.83 55.12 55.30 55.29 55.46 55.93 55.90 56.63 55.28 56.31 59.56 62.37 60.75 60.13 54.74 52.16 50.47 51.65 50.81 52.14 52.97 51.16 48.14 47.93 51.85 52.68 51.88 54.06 54.50 55.73 55.65 55.38 55.96 58.45 61.20 62.13 62.24
54.30 54.31 54.50 54.34 54.76 55.10 54.81 54.43 54.86 54.93 55.15 55.33 55.26 55.42 55.93 56.28 55.46 55.13 62.06 61.51 61.24 58.16 57.15 55.04 52.70 51.53 48.79 51.19 51.69 51.25 48.34 51.36 52.47 53.86 54.16 52.98 53.18 55.57 54.70 53.88 56.33 56.74 59.23 61.03 60.91
53.45 53.71 54.12 54.00 54.11 54.22 54.48 54.60 54.71 54.91 54.94 54.92 54.99 55.09 56.04 55.21 49.52 55.00 62.89 61.40 60.16 58.29 59.26 53.18 50.60 48.16 47.67 47.58 50.86 47.99 51.14 51.77 52.70 53.79 53.35 52.39 54.36 53.05 53.84 55.53 58.84 59.23 60.48 60.14 60.72
53.43 53.60 53.52 53.76 53.51 53.74 54.28 54.34 54.24 54.48 54.18 54.47 54.79 55.09 55.37 54.68 55.09 58.05 63.54 61.04 58.60 58.89 56.43 54.00 51.19 49.33 46.30 47.97 49.12 47.93 49.62 51.16 52.50 52.68 52.61 53.11 51.67 52.08 52.81 56.02 58.07 59.17 59.02 59.18 59.24
53.43 53.03 53.19 53.39 53.68 53.80 53.76 53.80 54.24 53.88 54.03 54.27 54.93 55.35 54.00 49.38 59.79 58.75 57.48 57.66 57.89 55.60 54.77 53.93 52.61 52.59 49.40 48.97 48.16 49.47 49.37 49.53 50.64 50.55 51.29 50.35 50.67 51.17 52.91 55.90 56.32 57.19 57.61 58.07 58.47
53.44 53.10 53.14 53.20 53.42 53.66 53.70 54.26 54.42 54.22 54.45 54.98 55.12 55.53 53.20 51.88 57.43 59.69 58.63 56.71 57.16 55.01 52.90 54.43 53.86 51.36 51.00 48.40 51.02 50.01 46.70 48.14 48.83 49.40 49.05 50.47 47.57 48.20 52.45 54.09 53.45 54.61 55.89 57.60 57.56
52.95 53.15 52.90 52.93 53.34 53.65 54.29 54.49 54.30 54.59 55.09 55.43 55.76 55.57 51.15 58.03 57.49 56.77 57.21 56.10 56.90 55.87 54.70 55.05 54.74 51.44 50.03 51.00 48.93 46.58 47.00 42.76 47.77 48.91 49.24 48.89 43.53 49.27 52.22 52.25 51.89 52.68 54.02 55.29 56.75
52.70 52.92 52.81 52.94 53.13 53.69 54.16 54.09 54.77 56.88 56.31 55.90 54.57 54.55 51.99 57.51 52.11 55.30 56.20 54.08 54.55 54.63 54.71 54.40 52.62 48.87 49.35 45.74 44.11 45.28 40.66 42.64 44.83 49.54 48.52 47.70 44.60 49.07 51.70 51.88 52.13 52.93 53.67 53.99 55.76
52.28 52.77 53.13 52.94 53.19 53.52 53.85 53.62 56.65 55.06 55.86 56.55 56.88 53.28 55.02 53.03 52.45 54.18 56.07 54.90 52.20 51.77 50.79 50.24 49.12 46.20 46.38 44.26 38.00 41.24 42.38 44.20 44.22 47.72 47.87 45.90 45.67 48.59 50.59 50.40 51.29 52.51 52.80 53.54 54.59
52.21 52.42 52.84 53.33 53.21 53.42 53.56 57.10 54.55 53.85 57.03 52.92 53.89 52.75 53.10 55.04 56.34 53.89 55.04 53.53 52.08 49.71 45.08 48.72 44.93 43.02 45.34 46.88 46.53 45.69 44.26 43.06 45.74 48.56 46.58 45.76 46.26 47.47 49.82 50.19 50.46 51.48 52.51 53.53 54.67
52.00 52.30 52.59 53.29 53.27 53.37 53.18 54.93 54.27 54.75 48.93 54.82 55.32 53.16 54.37 54.57 50.05 52.23 54.97 49.53 48.23 44.74 47.78 46.24 43.10 46.89 47.78 46.65 45.52 44.89 42.70 42.00 44.69 46.71 45.95 45.20 44.76 47.60 48.97 49.64 50.89 51.69 52.69 53.31 54.51
51.87 52.06 52.84 53.23 53.62 52.82 56.21 55.54 58.24 57.78 49.46 51.91 53.76 50.50 51.35 52.90 49.62 50.08 52.56 50.25 46.91 45.38 46.20 44.18 46.17 48.72 46.62 45.04 43.96 43.60 41.81 42.01 42.09 45.28 46.41 45.19 43.32 45.45 48.41 49.90 51.36 52.02 53.16 54.09 54.51
51.91 52.27 53.01 53.06 50.34 58.34 56.08 58.32 58.04 58.58 44.60 48.98 48.53 50.03 51.50 51.90 48.30 53.40 53.82 50.40 47.60 44.70 46.18 45.67 48.25 46.59 45.26 43.38 44.17 40.50 45.30 44.70 43.80 42.18 37.70 45.15 36.64 43.72 46.77 48.01 49.69 50.83 51.79 52.72 53.32
51.45 52.02 52.95 52.23 54.65 56.48 57.13 58.02 57.47 56.42 37.45 48.40 49.41 55.00 52.34 48.93 50.14 50.19 53.86 50.72 45.45 45.72 46.35 43.95 45.56 44.72 43.93 43.78 45.73 42.83 46.31 44.51 43.68 41.58 41.06 41.04 38.07 42.05 46.47 45.43 47.89 50.47 51.28 52.38 52.83
51.28 51.62 51.77 56.11 56.13 58.97 58.29 58.18 56.99 45.55 37.41 46.34 48.87 47.43 47.18 48.81 48.75 50.39 49.87 51.67 50.40 46.25 46.43 45.68 49.13 47.37 46.40 47.18 46.79 47.30 44.30 43.63 43.36 41.08 34.94 39.14 38.86 39.66 43.30 46.04 47.95 49.82 50.35 51.48 52.18
50.76 50.27 50.27 56.82 55.13 59.65 58.31 54.88 44.85 40.08 49.41 46.00 45.45 47.38 46.78 45.99 47.13 48.24 47.22 46.31 44.05 41.02 41.11 45.41 45.91 48.11 48.53 44.86 46.94 45.27 41.44 34.29 33.21 33.99 33.58 41.77 39.24 39.85 46.19 47.27 47.74 48.53 49.63 50.85 52.47
49.40 49.18 53.39 55.90 58.68 59.61 55.98 48.64 38.68 45.78 46.81 49.32 47.04 46.69 43.87 46.01 45.94 46.64 46.02 44.19 47.04 45.70 42.15 39.51 37.90 45.37 47.96 45.30 43.36 43.40 41.86 35.02 27.59 30.38 33.82 41.30 35.75 40.23 48.41 49.19 49.24 50.34 50.62 50.94 51.05
48.13 56.73 55.60 58.48 61.37 58.49 51.20 41.51 42.60 46.57 48.59 46.26 46.12 42.58 43.23 45.83 45.74 45.18 44.61 43.74 45.40 46.06 40.27 39.40 39.46 46.93 47.99 48.08 46.78 43.07 39.70 44.13 36.69 37.67 32.93 37.14 40.86 45.63 47.85 47.46 48.13 48.14 49.33 49.86 51.29
49.56 55.97 56.46 61.55 60.49 55.80 47.83 42.08 46.32 50.03 48.75 47.37 41.66 44.09 40.76 42.74 42.97 43.63 43.55 46.22 45.06 47.62 47.76 43.26 37.36 44.31 45.81 47.30 47.13 44.34 46.08 37.22 37.45 27.32 26.28 33.27 35.23 37.25 43.18 44.90 46.94 47.24 48.36 50.23 52.26
52.07 53.46 58.38 60.67 58.62 50.24 43.11 46.19 48.84 50.58 48.80 44.47 43.23 42.74 42.93 41.56 42.15 41.64 41.95 44.91 46.53 45.95 47.88 45.52 41.98 40.68 44.79 42.34 41.15 41.33 39.19 38.63 38.77 37.60 30.24 28.70 33.46 44.32 43.81 45.44 46.60 47.96 49.06 50.46 51.58
52.15 48.36 58.68 58.66 47.34 49.93 47.03 48.79 47.39 47.31 48.95 46.67 46.41 44.71 43.22 43.18 41.50 41.72 41.18 44.07 47.77 47.21 43.03 46.16 42.23 36.79 39.43 45.31 45.83 43.85 40.56 39.32 33.07 31.86 34.84 32.99 33.54 45.68 46.20 47.10 45.97 46.20 49.04 50.71 51.73
47.20 49.59 58.54 54.54 42.54 46.15 48.17 47.38 48.00 46.90 46.41 45.44 44.69 46.08 46.57 43.02 39.91 42.49 43.27 46.87 47.42 46.11 44.27 45.12 39.85 33.72 35.34 40.18 43.36 37.56 39.63 40.17 38.98 36.90 32.03 30.37 33.87 46.26 46.95 46.55 47.23 46.82 47.74 49.47 52.14
48.52 44.71 51.61 51.77 51.03 46.32 44.72 44.69 44.71 49.04 47.41 46.56 44.99 46.20 44.33 42.47 44.21 41.22 42.37 45.87 47.21 46.36 47.90 45.78 40.18 36.38 31.32 34.59 39.31 36.53 38.98 38.89 35.80 30.96 31.47 33.65 35.97 41.97 44.74 44.83 45.50 45.98 49.24 48.58 48.71
49.80 47.03 49.06 42.99 45.04 45.77 46.01 45.14 43.74 43.56 47.53 47.47 44.84 44.30 43.14 39.91 40.16 39.67 42.27 43.09 45.17 47.36 46.10 43.59 36.50 38.54 38.76 39.07 39.03 38.03 38.10 38.73 37.19 37.97 34.25 37.05 37.25 41.70 44.55 45.68 47.42 47.58 47.84 47.83 48.11
46.86 44.64 47.01 44.13 46.32 45.84 44.59 43.73 43.38 44.79 44.22 42.39 42.19 43.13 42.72 39.85 40.02 37.80 40.14 40.50 39.90 43.70 42.77 44.36 36.03 37.99 35.14 38.75 39.11 37.07 39.30 39.59 39.38 39.42 39.05 39.79 39.24 44.99 46.39 47.46 47.55 47.25 48.28 47.80 50.59
50.57 50.38 46.07 42.99 44.46 43.86 44.08 43.68 43.82 45.25 45.05 45.88 44.26 42.91 41.17 42.13 43.43 43.92 43.71 42.97 42.01 39.85 39.50 39.49 37.38 35.55 31.39 37.55 37.17 33.19 37.95 39.09 40.11 41.76 40.87 37.17 42.16 45.73 45.34 46.35 47.47 48.63 49.71 48.65 50.43

GFSSW_sfc_wetblb_081.txt.gz
Wetbulb
54.96 54.87 54.81 54.87 55.03 54.88 54.93 54.81 55.01 55.35 55.52 55.71 55.76 55.87 56.18 56.36 56.38 53.30 50.45 57.24 57.23 61.81 59.01 48.92 48.31 48.98 52.07 49.40 50.82 50.30 43.52 41.69 43.54 45.64 47.53 51.68 49.79 53.26 55.63 53.94 56.06 58.39 58.27 60.18 60.64
54.47 54.03 54.21 54.35 54.46 54.36 54.55 54.44 54.94 55.19 55.52 55.61 55.76 55.71 55.83 56.13 52.20 51.07 58.99 61.70 61.67 62.45 50.88 47.19 45.31 46.53 45.01 46.61 47.39 45.81 41.21 42.49 47.63 49.00 48.19 50.23 50.74 50.73 53.63 53.11 53.03 55.66 59.65 61.74 60.07
53.61 53.74 53.81 54.16 54.23 53.97 54.10 54.68 54.92 55.18 55.41 55.43 55.36 55.20 55.38 55.21 49.77 53.15 64.34 62.33 61.72 58.86 53.11 53.81 52.83 47.16 42.15 44.27 45.36 45.80 42.85 46.40 48.33 49.88 50.71 50.14 50.43 52.19 50.80 49.67 53.03 53.40 56.54 59.25 59.12
53.87 54.13 53.78 53.83 53.86 53.76 53.75 54.37 54.80 55.14 55.10 55.07 54.86 55.12 55.30 52.57 44.18 51.15 63.74 62.46 60.62 55.41 54.25 55.09 50.18 41.29 39.91 40.26 44.48 41.75 46.99 48.43 49.13 50.72 49.96 49.15 50.70 50.26 50.33 50.24 56.09 56.74 57.68 58.10 58.06
53.38 53.44 53.71 53.45 53.63 54.13 53.68 53.83 54.04 54.66 54.64 54.71 54.57 55.22 52.74 48.91 51.22 59.27 64.83 62.22 56.75 55.62 54.39 53.08 48.21 43.47 39.56 42.03 43.55 42.52 44.67 47.67 48.69 48.43 47.81 49.80 49.10 48.69 49.34 52.19 53.64 57.46 57.95 57.43 56.74
52.95 53.16 53.31 53.48 53.40 53.51 53.84 53.55 53.63 54.57 54.47 54.63 55.01 55.34 50.90 43.46 55.72 58.54 57.92 56.28 55.43 54.63 54.44 50.77 47.48 48.38 43.97 43.58 41.89 44.94 45.27 45.10 45.61 45.23 46.28 45.80 46.10 47.73 49.81 51.67 51.52 52.21 55.68 56.44 56.57
53.11 52.88 53.07 53.38 53.57 53.35 53.45 53.65 54.15 54.74 55.00 55.26 55.42 54.11 49.04 47.06 56.56 56.61 55.40 53.40 55.05 55.09 50.68 51.45 51.19 47.57 46.44 43.28 46.31 45.96 41.99 44.21 45.04 45.20 44.11 46.54 43.99 45.07 48.86 50.91 49.81 50.65 52.93 54.99 55.86
52.43 52.51 52.59 53.17 53.58 53.61 53.83 54.73 54.44 54.79 55.44 55.65 55.50 52.03 46.20 55.76 55.06 53.30 54.97 54.58 54.91 54.45 52.44 52.44 51.50 47.22 44.21 45.88 45.02 41.52 40.34 35.56 42.55 45.99 46.70 44.46 39.89 46.42 48.70 48.61 48.49 49.90 50.18 51.34 54.31
52.28 52.79 52.40 52.81 53.42 53.72 54.09 54.13 54.65 56.59 57.20 56.17 51.26 48.57 46.59 57.57 52.32 53.86 53.64 52.00 53.52 53.63 52.22 53.81 48.54 44.51 44.85 39.60 36.68 38.66 34.00 36.88 41.00 46.10 45.58 44.25 41.52 46.54 48.65 48.08 47.04 47.92 49.02 50.37 49.98
52.42 52.23 52.44 52.48 53.29 53.82 53.81 53.75 54.86 55.33 54.86 55.05 53.64 47.48 52.83 52.64 53.15 52.92 52.87 53.80 52.18 50.69 49.05 47.41 43.82 40.26 38.85 35.79 30.15 35.05 36.21 39.31 39.25 43.56 44.98 42.32 42.35 45.03 47.37 47.30 46.65 46.99 48.27 49.44 50.51
52.32 52.21 52.26 52.65 53.60 53.50 52.16 51.89 49.22 48.73 51.62 48.33 50.21 50.53 53.20 55.36 55.05 51.03 53.97 52.06 51.17 47.47 40.74 44.24 38.12 35.72 39.67 41.93 42.55 42.11 40.66 39.41 42.10 45.13 42.28 41.10 41.35 44.03 46.04 45.84 44.54 45.60 47.39 48.46 49.73
52.15 52.09 52.63 53.71 53.71 53.73 50.07 48.93 51.99 50.41 45.21 53.58 54.00 54.64 56.03 54.89 49.66 51.74 53.80 47.46 46.74 40.83 43.64 40.68 36.90 43.55 45.78 45.29 43.43 41.61 39.07 37.85 41.75 44.06 42.70 40.71 40.67 43.26 44.79 44.93 45.40 45.94 46.29 47.68 48.38
52.10 52.01 52.15 53.50 53.47 49.97 49.44 53.70 57.30 52.80 43.93 48.72 51.98 52.29 53.01 50.95 48.11 49.15 51.17 48.34 44.85 41.32 41.34 38.89 42.96 47.28 45.58 43.48 41.99 39.94 38.46 38.54 38.80 42.57 43.18 40.87 39.08 40.90 45.22 46.27 47.03 47.65 48.67 48.38 48.70
51.80 51.84 51.95 52.33 51.18 52.53 52.86 57.29 54.41 54.55 38.12 45.58 49.21 49.99 49.71 49.54 46.98 52.49 52.65 49.05 44.98 41.50 42.47 41.15 45.44 45.07 43.15 42.02 41.87 36.49 42.72 42.34 41.21 37.97 31.31 40.62 30.88 38.72 42.08 43.91 45.95 47.15 48.11 48.58 48.23
51.85 51.57 51.55 51.14 49.24 50.03 53.99 53.88 53.11 51.88 30.71 48.48 48.00 51.91 49.70 46.50 48.75 49.18 52.52 49.08 43.10 42.87 42.48 40.49 42.26 41.94 41.19 42.43 44.46 39.72 43.97 41.80 41.24 36.16 34.00 35.95 31.23 37.29 41.29 41.16 43.76 46.22 47.38 48.45 49.15
51.64 51.08 50.89 52.51 51.04 53.25 56.35 54.52 51.87 40.13 33.16 45.08 47.79 46.35 45.37 46.90 47.35 49.00 48.67 49.61 48.31 43.46 43.34 42.13 46.50 44.35 43.43 45.67 45.41 45.70 41.77 40.02 37.59 33.76 29.04 34.98 33.80 34.86 38.26 40.60 43.82 45.79 48.18 48.53 48.94
51.45 50.66 48.42 51.66 50.07 55.32 55.85 50.29 38.43 34.77 49.26 46.02 44.91 46.11 44.60 44.18 45.33 46.01 44.80 42.57 38.83 35.12 36.40 42.04 42.87 46.10 47.47 42.62 44.48 42.81 37.68 28.88 25.49 25.52 27.46 37.33 34.91 36.64 41.78 45.77 46.31 45.69 46.44 47.41 48.20
49.78 49.20 49.87 51.42 52.82 54.67 52.49 43.60 33.50 43.29 44.79 49.75 47.48 46.01 42.12 43.97 43.63 44.57 42.96 40.06 44.15 43.51 39.47 35.16 34.14 43.58 46.84 43.70 41.00 39.93 36.10 31.07 24.38 22.56 28.61 37.58 30.84 35.60 44.56 47.75 47.59 48.68 46.96 48.03 46.85
48.62 52.38 51.44 53.62 55.12 55.02 46.88 35.95 37.53 44.31 47.34 45.76 45.19 41.86 40.91 43.95 43.29 43.17 42.44 41.32 42.97 43.72 36.42 34.41 35.74 45.11 45.77 45.78 43.97 38.52 35.47 38.88 34.13 35.57 29.77 31.20 36.12 41.72 43.86 44.74 45.54 46.65 47.65 44.55 45.21
45.17 49.14 53.85 58.42 56.82 51.84 43.59 39.45 42.58 48.33 49.09 45.52 38.85 41.78 37.63 40.70 40.28 40.13 39.98 45.26 44.33 45.81 45.41 40.17 34.03 43.31 44.76 45.33 44.08 41.00 41.94 32.25 32.57 26.48 23.87 28.79 32.19 32.29 38.38 42.05 44.07 45.35 44.95 46.56 46.61
46.62 48.60 55.74 58.39 55.96 46.40 37.02 40.86 45.99 51.04 48.09 44.01 41.16 39.54 39.67 38.94 39.86 38.74 40.03 43.73 45.91 44.79 45.11 42.61 37.37 38.50 42.05 39.03 36.83 37.37 32.82 36.06 35.32 31.14 27.47 24.66 26.90 39.71 39.37 41.38 41.81 44.00 45.73 45.86 46.47
44.55 42.18 56.39 56.83 44.56 44.24 41.69 45.98 48.55 47.27 48.46 45.94 44.54 42.83 40.36 41.15 39.52 39.40 39.31 42.52 47.18 45.83 40.69 42.91 38.05 32.04 36.35 42.47 43.93 39.36 37.08 35.13 30.99 28.62 33.17 30.92 28.72 43.12 41.57 42.03 43.76 43.26 45.52 46.39 47.54
40.95 44.53 53.99 53.71 38.10 39.42 44.54 45.53 46.79 45.41 45.38 44.92 43.48 43.82 43.01 39.44 35.62 40.38 41.43 45.84 46.25 44.57 42.33 40.80 33.80 27.76 30.38 34.57 39.00 35.87 37.60 38.31 37.09 35.51 29.08 27.32 27.29 42.55 43.03 43.55 44.52 43.37 44.96 47.13 48.46
42.78 41.58 48.34 48.28 47.34 43.73 41.03 41.91 42.67 47.31 45.90 46.93 44.44 44.20 41.62 39.54 41.59 39.49 40.42 44.57 45.79 44.40 49.99 45.02 35.89 31.41 27.12 31.47 34.76 33.39 36.00 36.73 33.97 28.80 28.85 30.17 31.66 37.31 40.40 42.30 42.85 43.43 44.68 45.51 47.84
44.36 42.95 45.13 39.36 40.79 40.63 42.31 42.86 41.82 41.76 46.67 45.83 41.38 41.85 40.09 34.98 36.70 36.68 39.44 40.38 42.79 45.27 41.72 39.65 31.80 34.81 36.27 38.08 37.62 35.53 35.41 36.20 33.99 33.97 30.86 33.19 33.91 37.72 41.05 42.72 43.05 44.90 45.26 45.54 47.66
42.74 41.26 43.02 40.67 42.92 41.64 41.85 41.81 42.15 42.14 42.47 40.70 39.33 41.95 40.83 36.08 37.21 34.92 36.61 36.07 35.93 39.12 36.35 36.30 30.65 34.71 32.92 36.94 36.81 34.86 36.93 37.19 37.20 37.02 37.08 37.25 35.65 42.69 44.90 45.60 44.51 43.08 45.89 45.46 46.69
46.46 46.33 42.08 40.47 39.85 38.60 40.20 41.42 41.10 42.16 43.64 43.83 42.08 40.26 38.91 39.62 40.01 38.90 38.11 37.84 37.58 34.94 33.06 32.11 30.07 27.73 25.33 34.15 34.09 28.98 34.74 37.15 37.64 39.56 37.90 33.96 37.09 41.83 40.81 42.31 42.78 43.41 44.64 46.79 47.61

GFSSW_sfc_wetblb_084.txt.gz
Wetbulb
54.28 54.15 54.30 54.39 54.69 54.17 54.24 54.39 54.52 55.19 55.67 55.79 55.83 55.92 55.85 56.01 55.74 51.57 47.75 54.28 56.08 61.54 59.55 48.90 46.53 46.33 48.39 46.23 48.40 48.69 38.93 36.77 39.80 43.35 45.42 50.33 47.11 50.93 53.57 53.28 55.27 58.57 56.99 58.47 58.30
54.27 54.20 54.27 53.91 54.32 54.20 53.98 54.17 54.45 54.85 55.14 55.36 55.63 55.58 55.59 55.61 51.05 49.03 56.29 62.77 64.26 61.88 49.53 45.14 43.17 43.79 41.10 44.35 45.76 43.54 37.80 40.16 45.46 46.06 45.47 48.52 48.68 49.28 51.18 51.84 52.08 53.77 57.83 59.15 57.74
53.79 53.94 53.87 54.08 54.03 53.77 53.85 53.88 53.95 54.36 54.62 55.15 55.08 55.02 55.28 54.66 48.15 52.24 63.54 63.32 62.59 59.73 50.95 51.21 51.25 47.63 39.08 40.09 42.95 42.13 39.59 43.41 45.90 47.54 48.17 48.21 48.20 50.27 50.64 49.19 51.89 52.41 54.89 56.88 55.89
53.41 53.51 53.37 53.81 53.64 53.45 53.55 53.62 53.86 53.96 54.54 54.36 54.69 54.79 55.32 51.62 41.86 50.02 65.42 64.20 62.71 53.54 52.56 52.71 50.20 39.27 37.81 37.63 41.17 38.27 44.09 45.63 46.79 48.19 48.09 47.17 49.64 48.44 49.19 51.04 54.77 55.34 55.87 56.22 54.81
53.22 53.08 53.05 53.24 53.59 53.58 53.39 53.53 53.72 53.51 54.20 54.39 54.50 54.95 51.48 46.02 48.77 55.99 65.09 62.95 55.97 54.14 52.73 51.38 47.58 42.40 36.58 38.74 40.74 37.87 41.72 44.38 46.82 47.19 46.98 48.75 47.78 47.61 48.12 50.70 52.96 54.66 55.61 55.43 55.28
52.69 52.85 53.02 52.89 53.08 53.35 53.27 53.46 53.12 53.74 54.17 54.13 54.75 55.19 49.26 39.11 50.87 58.98 58.04 55.89 53.73 50.79 52.46 50.36 47.70 46.22 42.20 40.77 39.25 42.46 42.72 43.36 43.75 42.91 42.88 43.72 44.77 44.75 47.62 49.80 49.97 50.44 51.71 54.52 55.11
52.98 52.68 52.81 52.87 52.99 53.11 53.67 54.16 54.30 54.57 54.40 54.39 55.05 53.54 47.41 43.47 53.97 57.04 55.12 51.94 53.21 53.82 51.39 49.53 48.66 46.32 43.85 41.79 42.73 43.29 39.56 41.55 42.02 42.91 42.22 43.80 42.30 43.39 46.79 48.26 47.82 48.42 49.89 52.26 54.78
53.15 53.32 52.54 52.82 52.74 53.11 53.65 54.32 54.38 54.71 55.55 55.59 55.22 50.84 43.50 53.59 52.62 51.66 52.73 52.40 53.62 53.54 51.66 50.78 49.19 45.02 41.85 42.13 42.55 39.28 36.72 33.38 40.11 43.53 44.75 43.15 39.08 44.75 46.88 46.06 46.71 48.04 48.47 52.36 53.78
53.17 53.09 52.55 52.68 52.76 53.07 54.01 54.10 54.47 55.37 57.11 56.14 49.27 46.92 43.94 57.46 53.71 53.97 52.97 51.95 52.78 53.02 51.30 52.81 46.86 42.96 42.53 36.92 33.90 34.78 31.33 34.68 38.59 43.09 43.20 42.01 40.14 45.00 46.88 46.06 45.97 46.22 47.13 47.98 50.15
53.17 52.72 52.66 52.70 52.93 53.34 53.86 54.00 53.85 54.11 54.98 54.76 52.80 44.67 49.48 51.92 51.98 51.95 51.17 52.93 50.18 49.57 47.66 46.13 41.26 38.22 36.17 33.78 28.37 32.77 32.97 36.22 36.45 41.00 41.46 39.20 39.35 42.93 45.12 45.01 45.53 44.87 45.90 46.99 47.77
52.80 52.76 52.70 52.80 53.05 53.66 50.62 48.53 47.65 47.17 49.19 46.26 47.37 47.45 51.54 56.04 53.14 49.33 51.24 50.05 49.89 46.34 39.12 42.11 36.40 33.85 37.56 38.42 40.26 39.28 37.54 36.53 39.48 43.08 39.92 38.54 39.08 40.99 43.53 43.44 43.49 43.71 44.48 45.95 47.06
52.92 52.43 52.39 52.28 52.78 53.64 48.31 45.82 50.51 47.65 42.37 50.86 51.70 50.24 53.42 55.54 51.09 50.20 52.07 46.36 44.93 39.61 41.37 38.09 34.67 41.19 42.77 42.58 41.29 39.97 37.34 35.92 39.30 42.43 40.21 39.08 38.76 41.38 42.90 43.35 43.84 43.56 44.28 44.87 45.66
52.95 52.54 52.41 52.45 52.11 49.39 47.33 50.88 55.36 51.57 41.88 47.08 51.48 51.07 51.62 53.33 50.17 48.23 50.13 47.02 43.29 39.85 39.30 35.99 39.99 44.87 43.41 41.59 40.26 39.12 36.51 36.26 37.01 40.67 40.24 38.36 36.04 38.97 42.71 43.96 45.03 45.45 45.51 45.78 45.62
52.68 52.33 52.06 51.00 50.24 49.32 48.84 54.55 52.15 50.65 36.94 43.18 47.21 49.57 51.05 50.95 45.64 51.10 51.43 47.49 42.99 40.16 40.31 38.55 42.96 42.82 41.04 40.16 40.29 34.71 41.24 40.87 39.67 35.86 30.42 38.15 29.37 35.41 39.73 41.18 43.43 44.57 44.03 44.63 45.82
52.43 52.41 51.93 50.39 45.13 46.74 51.79 53.81 52.56 49.59 28.24 48.73 47.06 51.59 48.44 45.33 47.00 48.23 51.37 47.14 42.26 41.71 40.60 38.83 40.14 39.82 39.42 40.73 42.56 39.19 43.22 40.31 39.59 35.03 31.57 33.40 29.74 32.27 38.16 38.95 41.48 43.74 45.38 46.20 46.16
52.39 52.14 51.31 49.69 48.37 50.34 53.56 53.09 50.45 39.51 31.66 45.13 46.63 44.41 42.87 44.96 45.84 47.43 47.62 48.10 47.07 41.66 41.03 40.85 44.60 42.41 41.63 43.99 43.64 44.21 40.28 37.91 35.32 31.57 27.13 31.49 31.22 33.62 35.13 38.35 40.32 43.93 45.71 47.05 46.51
52.24 51.53 49.28 49.49 46.08 50.92 51.04 48.34 37.10 32.06 47.32 44.31 44.34 44.97 42.96 42.28 43.85 44.57 43.14 40.48 37.76 33.20 33.80 39.79 40.97 44.21 45.29 40.31 42.30 40.10 33.29 25.94 26.51 24.79 26.86 34.11 31.48 34.80 38.73 42.48 44.34 44.29 44.79 45.09 45.43
50.51 49.74 49.33 49.29 47.68 50.10 50.15 42.63 31.73 41.07 43.16 47.81 45.46 44.23 40.91 42.79 42.58 43.19 40.59 36.94 40.13 39.21 35.73 34.27 32.65 41.67 45.61 42.31 37.29 38.13 35.50 29.99 24.37 22.21 27.91 35.64 28.81 33.76 42.33 44.40 45.93 46.21 45.78 46.19 46.57
49.14 46.54 49.21 50.42 49.42 51.02 45.32 35.62 36.29 42.59 46.23 44.67 42.77 39.17 39.06 42.33 42.15 40.52 37.84 38.34 40.95 40.57 34.32 32.86 34.48 44.08 45.42 45.46 43.06 37.26 34.54 40.47 33.60 35.06 30.21 31.08 34.52 39.81 42.90 44.34 45.16 44.17 44.34 44.01 45.30
45.80 45.27 49.54 55.03 53.06 49.67 42.10 38.06 40.98 46.41 46.78 45.04 37.23 40.05 35.59 38.35 37.95 38.04 37.83 42.59 42.13 44.29 41.05 36.96 31.19 41.63 43.51 45.13 44.61 40.49 41.28 31.89 32.09 26.21 24.86 29.29 30.20 30.69 36.69 39.59 43.01 44.27 43.44 43.68 44.13
43.11 42.81 52.82 55.58 52.95 45.30 36.15 38.97 43.84 48.87 48.62 43.43 39.89 38.38 38.64 37.21 37.33 37.31 38.70 42.61 45.21 43.10 41.79 38.08 34.59 36.06 40.92 38.66 36.95 36.15 33.74 34.19 31.72 29.69 25.96 21.80 26.68 37.48 38.41 40.92 40.70 42.56 44.51 42.84 44.51
41.18 38.58 50.84 53.59 42.36 41.85 39.31 43.50 46.48 45.92 47.23 45.10 44.08 40.78 38.35 38.65 37.11 37.41 37.90 40.59 45.51 43.84 37.80 38.84 34.54 30.33 35.22 41.22 43.09 38.75 35.71 34.06 26.74 28.04 31.17 29.79 27.29 41.02 41.87 41.56 41.82 44.03 44.95 44.57 45.28
40.47 41.02 50.13 50.93 37.87 37.57 42.41 43.05 45.52 44.74 44.20 44.19 43.21 42.44 41.42 38.00 33.86 39.45 40.89 45.65 44.86 42.14 39.47 38.82 31.31 26.49 29.81 33.80 36.72 34.11 36.71 36.74 34.83 31.92 25.83 24.90 26.36 40.14 40.71 41.37 41.58 42.62 44.89 44.95 45.65
39.18 37.65 44.56 45.13 44.63 39.67 38.11 40.13 40.79 46.79 45.17 44.82 42.55 42.51 39.26 37.42 39.81 36.59 37.85 43.25 43.88 42.92 47.83 42.18 33.46 30.90 26.45 30.10 32.29 32.00 35.13 34.88 32.06 22.93 27.18 29.03 31.58 36.62 39.09 39.91 41.00 41.82 43.65 43.94 43.25
43.09 39.06 41.28 35.95 38.27 39.49 39.92 40.68 39.94 39.84 43.71 44.16 40.80 40.78 37.84 33.26 35.48 36.17 38.20 39.19 41.84 43.35 38.74 36.52 30.56 33.05 34.34 36.12 36.10 34.70 34.34 34.50 30.89 31.87 28.19 31.98 33.08 36.02 38.82 40.74 41.30 42.12 44.69 44.86 45.50
42.21 40.13 40.85 39.14 40.99 39.43 38.96 38.50 39.00 40.12 39.57 39.06 38.48 40.27 40.00 35.18 35.94 33.95 35.10 35.18 34.61 37.91 34.67 33.19 27.79 30.47 29.84 35.46 35.33 32.53 34.59 34.91 34.83 34.90 34.41 36.26 34.82 41.35 42.94 43.07 43.16 44.17 45.10 45.00 45.46
44.89 45.62 42.05 39.09 38.77 37.21 37.51 39.47 39.50 41.15 40.99 41.95 41.10 39.23 37.76 39.36 39.47 38.97 37.81 37.36 36.89 34.38 32.56 30.65 27.64 25.91 23.75 32.25 32.55 27.12 32.34 35.28 36.59 39.14 38.44 34.16 38.12 42.45 41.53 42.67 42.50 42.18 45.02 45.23 45.80

GFSSW_sfc_wetblb_087.txt.gz
Wetbulb
54.01 53.84 53.73 54.14 53.90 54.23 54.16 54.19 54.21 54.05 54.39 54.65 54.89 55.31 55.66 55.65 55.02 50.39 45.48 51.46 54.62 60.17 60.82 49.78 45.66 45.38 47.60 44.69 45.61 46.12 38.35 36.20 39.95 42.59 45.56 47.70 46.23 49.03 51.64 50.30 52.90 55.79 55.52 56.73 56.69
53.49 53.62 53.83 53.35 54.02 53.67 53.61 53.68 53.67 53.82 54.10 54.24 54.42 54.84 55.10 55.25 49.78 47.63 54.05 60.02 61.64 63.27 49.76 45.08 41.83 42.58 40.43 43.09 43.92 41.68 35.79 38.42 43.47 45.57 44.38 46.53 45.77 48.38 47.94 48.88 48.49 53.02 57.16 57.13 56.35
53.28 53.40 53.08 53.25 53.58 53.42 53.25 53.35 53.60 53.74 53.57 54.10 54.05 54.53 54.87 54.28 47.13 51.64 62.50 61.55 63.96 62.63 48.88 49.14 49.83 47.70 37.99 39.56 41.95 39.41 37.98 41.64 44.61 46.53 46.69 46.01 45.82 48.13 47.99 46.62 49.44 50.18 53.18 55.35 54.57
53.18 53.23 53.25 53.35 53.29 53.25 53.35 53.16 53.33 53.69 53.06 53.79 54.22 54.46 55.11 49.94 39.89 49.46 65.04 63.04 63.98 54.16 49.33 51.22 48.35 39.63 36.40 37.49 40.01 36.87 42.20 43.14 44.37 46.37 45.46 45.43 47.83 46.91 46.67 48.26 51.06 53.37 54.12 55.07 54.09
52.72 52.81 52.99 52.93 53.13 52.92 53.09 53.11 52.96 52.96 53.09 53.53 53.73 54.56 49.32 42.18 45.30 54.09 65.04 63.64 56.76 52.03 51.05 50.01 45.25 42.23 37.84 38.09 39.30 37.11 39.85 42.16 43.95 43.34 43.94 46.22 45.67 46.21 47.01 49.36 51.31 52.05 52.56 52.56 54.89
53.10 52.79 52.68 52.75 52.80 52.91 52.81 53.00 53.12 52.98 53.72 53.75 54.15 54.83 47.25 35.41 45.28 55.85 56.75 55.75 51.94 49.56 50.95 49.59 46.95 45.21 40.23 38.96 38.08 40.94 40.89 41.53 42.22 42.61 41.07 41.81 43.32 42.83 45.32 48.81 49.35 50.05 50.11 49.91 51.02
53.16 52.93 52.75 52.71 52.85 52.79 52.75 52.93 53.98 54.24 54.03 53.94 54.41 53.27 46.11 39.65 51.60 56.56 53.76 49.41 50.26 52.32 50.32 51.12 48.80 44.59 42.27 40.12 41.11 41.38 37.77 40.21 40.18 41.40 41.15 42.04 40.60 41.61 45.54 46.57 47.13 47.70 48.22 49.10 50.34
53.69 52.93 52.70 53.01 52.72 52.89 53.20 53.73 54.20 54.41 54.59 54.89 55.09 49.70 41.43 50.16 51.46 50.54 52.10 51.18 52.25 52.31 51.67 51.28 48.06 43.89 40.63 41.00 40.74 37.54 35.10 31.69 38.31 41.31 42.88 42.23 36.54 43.36 45.99 44.53 44.97 45.99 46.34 48.14 49.46
54.24 53.55 52.62 52.99 53.24 53.12 53.28 53.94 54.49 55.15 56.07 56.22 48.28 44.77 42.14 55.35 52.71 53.50 52.06 50.02 51.79 52.08 50.72 53.02 45.50 41.59 41.36 35.26 32.64 33.19 29.23 32.17 37.02 41.16 41.33 40.56 37.20 42.92 44.84 43.85 43.66 44.49 45.23 46.84 47.89
54.35 53.65 53.12 52.72 52.87 53.05 53.66 53.63 53.80 53.96 55.28 54.28 52.19 43.28 47.47 49.65 53.36 53.20 51.34 51.91 49.97 48.57 46.32 44.84 40.02 36.81 34.31 32.75 27.61 30.60 31.36 34.13 34.46 39.44 39.67 38.32 37.66 41.08 43.44 42.90 43.20 43.07 43.77 44.39 45.82
54.31 53.67 53.26 53.05 52.70 52.92 49.92 48.14 46.09 44.97 48.12 45.73 45.82 45.58 49.20 54.51 54.23 48.77 50.28 49.73 48.56 44.64 38.40 40.35 35.49 32.77 36.05 36.92 38.29 37.14 35.00 34.48 38.13 41.68 38.50 37.60 37.77 39.65 41.92 41.60 41.80 42.69 42.83 43.28 44.46
53.75 53.40 53.36 53.04 52.43 52.15 47.09 44.41 48.67 47.03 42.84 49.20 49.96 48.58 51.63 53.15 49.58 52.33 49.82 44.60 43.23 38.40 39.74 36.71 33.26 39.39 40.60 40.09 38.33 36.96 34.79 34.93 38.71 40.74 37.98 37.78 37.39 39.59 40.89 41.51 42.10 42.99 43.15 42.92 43.54
53.39 53.31 53.38 52.87 52.15 48.93 46.42 48.61 52.29 49.12 41.49 45.17 49.25 48.79 49.23 50.92 47.95 49.48 48.40 45.39 41.87 38.47 38.03 35.02 38.96 42.92 41.14 39.28 38.10 37.09 34.78 35.19 35.92 39.05 38.74 37.02 34.81 37.80 41.18 42.00 43.59 43.85 44.42 44.36 44.21
52.90 53.00 53.26 52.10 48.40 48.63 47.23 52.78 51.75 48.80 35.56 41.57 45.31 48.89 50.23 50.62 45.56 53.20 50.84 46.69 41.38 38.90 38.69 36.93 41.85 40.63 39.41 38.18 38.91 33.56 39.68 39.46 38.25 34.61 30.46 36.75 29.91 34.10 37.88 39.27 41.36 42.75 42.65 43.21 44.06
52.65 53.14 53.01 51.64 43.84 45.87 51.41 51.63 50.29 49.40 29.46 46.62 45.54 51.51 49.83 46.48 46.21 46.80 49.72 45.81 40.77 40.21 39.11 37.41 38.68 38.41 37.34 39.07 40.66 37.31 41.59 38.89 38.27 33.52 29.39 31.67 28.19 31.29 36.93 37.09 39.70 41.08 42.45 42.91 43.76
52.79 52.78 51.56 49.01 46.99 49.31 52.51 51.02 49.62 38.86 30.10 44.73 45.76 44.50 43.17 44.18 44.42 46.12 46.49 46.97 45.74 40.41 39.42 39.85 42.18 41.06 39.93 42.43 41.60 42.53 38.05 35.93 32.45 29.80 24.23 31.20 30.39 30.50 33.29 37.42 38.75 41.33 43.40 45.64 45.44
52.38 52.58 50.06 48.89 43.64 48.94 50.25 48.65 38.00 33.35 44.88 42.45 43.06 44.66 42.59 41.67 42.15 43.26 41.79 39.43 37.18 32.24 32.59 38.21 38.93 41.76 43.04 38.29 40.37 38.36 32.01 24.67 23.81 23.68 25.08 33.32 30.87 31.37 37.29 41.44 41.60 41.68 44.11 45.14 44.33
51.34 50.21 49.21 49.00 47.01 48.71 49.52 42.77 32.31 39.97 41.57 46.57 43.56 43.15 40.42 42.32 41.86 42.59 40.31 36.47 40.31 37.41 33.32 31.63 31.94 41.03 44.74 41.33 36.01 34.87 33.66 27.70 22.13 22.54 27.68 34.19 28.10 33.45 40.62 43.21 44.00 44.10 43.28 43.79 43.42
49.53 46.11 44.93 48.93 49.07 47.95 44.99 35.20 34.75 42.23 44.97 43.32 43.43 38.36 37.79 40.98 40.19 39.50 38.15 38.41 39.95 39.21 32.92 31.74 33.31 42.36 43.90 44.45 42.21 36.07 32.67 35.96 29.91 30.46 23.48 28.85 33.73 38.70 40.59 41.55 42.69 42.96 44.29 43.09 43.23
45.12 42.55 44.65 50.82 48.78 48.95 40.83 35.96 40.89 45.76 45.72 45.31 37.04 39.88 34.87 36.93 36.96 37.07 36.97 42.00 41.56 42.80 39.99 36.29 29.88 39.64 42.42 43.84 43.52 39.88 40.75 30.58 29.94 24.89 23.93 27.39 29.13 30.13 35.38 37.68 40.70 41.29 41.21 43.16 44.31
41.08 39.63 47.14 51.95 51.90 44.95 36.57 38.74 42.89 47.57 46.51 42.99 39.94 38.02 38.04 37.37 37.20 36.69 38.06 41.35 43.76 42.84 41.89 37.38 33.44 34.10 39.05 37.81 36.37 36.18 34.80 34.37 33.71 31.77 26.69 24.71 25.26 35.63 35.87 37.36 37.47 39.69 42.10 42.74 44.46
40.32 37.63 47.16 49.92 41.84 40.57 38.36 42.58 44.61 45.25 46.80 44.83 44.07 40.93 38.25 38.66 36.41 37.21 37.63 40.78 43.46 41.93 36.73 38.17 33.67 29.43 34.01 39.48 40.78 37.90 35.79 33.60 25.17 24.56 31.79 27.89 26.71 39.17 38.30 38.21 39.30 38.98 41.63 44.53 45.81
38.09 37.67 46.28 48.56 36.27 35.51 39.91 41.52 44.14 43.87 43.56 43.01 41.66 42.25 41.67 38.05 33.58 38.36 40.44 44.44 42.35 40.36 38.47 37.75 31.14 25.72 28.92 32.48 36.13 33.71 35.69 34.54 32.86 31.90 26.62 20.04 25.93 38.29 38.45 38.66 40.37 39.25 41.87 43.47 44.89
38.26 34.61 40.45 41.87 40.66 36.79 36.76 38.51 39.07 46.21 44.01 43.48 41.89 42.55 39.26 37.00 39.64 36.17 37.42 42.23 43.19 41.85 45.20 41.29 33.11 30.23 27.27 30.61 32.70 32.62 35.12 34.65 30.83 21.10 25.83 27.36 30.08 34.72 36.89 38.73 40.54 41.04 43.08 44.25 45.31
42.25 39.64 39.98 33.01 37.91 37.44 39.87 38.42 37.74 38.33 43.46 42.82 40.04 39.88 37.97 33.07 35.28 35.80 38.42 39.12 41.52 43.58 38.50 35.40 30.37 32.28 33.55 34.72 35.09 34.36 33.69 33.75 29.67 30.22 25.43 30.33 30.07 34.00 38.54 40.24 40.61 42.28 43.58 45.07 45.72
41.30 40.50 41.54 39.01 39.96 36.68 37.82 37.70 37.83 39.88 39.39 37.24 37.54 39.15 39.09 36.10 36.84 34.25 36.10 34.75 34.53 38.62 33.71 31.46 26.16 29.01 28.46 32.15 32.76 31.42 33.42 32.94 32.52 33.08 32.31 32.73 33.19 41.89 42.79 42.26 41.48 42.38 43.50 43.71 45.13
44.15 44.87 41.50 38.91 38.66 37.43 37.01 38.61 39.70 40.34 41.09 41.38 39.82 38.32 37.29 39.19 41.56 40.10 37.95 38.03 37.78 35.76 32.82 29.55 26.78 25.09 23.83 30.84 31.26 26.50 30.72 32.91 34.82 37.29 36.34 32.15 35.48 38.71 39.54 41.55 41.38 40.90 41.87 43.54 44.09

GFSSW_sfc_wetblb_090.txt.gz
Wetbulb
53.29 53.21 53.34 53.68 53.26 53.77 53.86 53.54 53.51 53.34 53.70 54.01 54.20 54.13 54.75 55.01 54.69 49.15 43.91 49.55 53.47 59.45 60.06 49.62 45.51 45.02 46.40 43.81 45.12 44.91 36.43 34.69 37.29 40.60 43.64 46.90 44.54 47.22 49.69 48.30 50.35 52.29 53.90 55.99 56.94
53.19 53.63 53.31 53.14 53.16 53.33 53.02 53.11 53.41 53.36 53.35 53.78 54.14 54.14 54.54 54.75 49.23 45.90 52.97 57.73 62.06 62.02 49.89 44.29 41.10 42.68 40.24 42.09 43.17 41.38 34.58 37.12 42.03 43.00 43.65 44.38 44.45 46.35 46.30 47.17 47.38 50.31 55.50 55.75 55.61
53.20 53.29 53.58 53.28 53.06 53.05 53.17 52.87 52.89 53.08 53.44 52.99 54.14 54.30 54.47 53.89 43.95 50.09 62.31 60.00 62.25 62.49 46.99 45.62 48.65 44.44 37.54 39.44 40.94 39.55 37.49 40.66 43.16 44.89 45.58 44.21 44.83 46.54 44.99 44.92 47.30 47.69 50.46 54.31 54.24
53.05 53.17 53.19 53.33 53.10 52.93 52.80 52.87 52.86 52.93 52.87 52.55 53.02 54.10 54.86 49.41 38.67 48.91 64.88 61.87 63.22 54.21 47.59 49.11 46.31 37.66 35.53 36.53 39.38 37.01 41.67 42.84 42.85 45.08 44.01 43.65 45.99 44.52 45.47 46.70 49.40 50.45 52.11 53.21 53.28
53.11 52.99 52.93 52.95 52.95 52.86 52.65 52.63 52.90 52.84 52.69 52.98 53.05 54.02 48.18 38.01 40.84 51.81 64.29 63.23 54.72 49.63 48.67 48.60 44.49 39.44 35.71 36.12 37.82 35.94 38.62 41.02 42.53 41.60 41.80 43.80 43.00 43.27 43.32 47.43 49.21 49.85 49.83 52.60 53.22
53.47 53.04 52.69 52.75 52.69 52.62 52.54 52.45 52.58 52.76 53.14 53.40 53.23 54.14 45.44 32.15 41.50 53.37 57.60 52.48 50.68 48.96 49.95 48.63 45.15 44.37 39.51 37.36 36.83 39.39 39.40 40.76 41.54 41.44 40.98 40.61 42.03 42.12 43.98 46.77 47.46 47.77 48.01 49.00 51.54
54.33 53.32 52.68 52.47 52.93 52.70 52.41 52.22 52.72 53.42 53.41 53.79 53.84 52.87 44.25 38.03 50.12 53.13 52.94 49.14 50.22 49.97 48.67 49.77 48.40 43.20 41.38 38.36 39.78 39.39 36.04 38.95 39.62 41.27 40.61 40.81 39.94 40.37 44.50 45.38 45.59 46.05 46.88 47.50 48.07
54.57 54.36 53.38 53.18 52.87 53.39 53.22 53.44 53.63 53.69 53.89 54.41 54.51 48.63 38.68 47.30 49.98 48.56 51.00 49.27 50.46 50.35 49.63 50.13 46.84 41.96 39.47 39.61 39.25 35.32 33.68 30.48 37.27 39.52 41.91 41.02 35.64 42.41 44.08 42.88 43.30 44.40 45.09 46.35 47.54
54.79 54.32 53.85 53.28 53.15 53.46 53.48 53.47 54.06 54.78 55.03 55.44 47.12 42.83 40.76 54.00 51.37 53.73 51.52 48.26 49.91 50.54 49.82 52.84 44.40 39.73 39.70 34.53 31.79 32.14 27.61 29.46 35.54 39.52 39.38 38.74 35.12 41.92 43.68 43.11 42.41 42.83 43.51 44.37 44.99
54.65 54.16 54.08 53.59 53.36 52.95 52.80 53.75 54.68 54.90 55.34 53.74 51.81 41.54 45.42 47.54 52.79 52.56 50.27 50.49 48.65 47.99 44.98 43.15 38.79 35.75 33.04 32.26 26.55 28.91 29.77 32.59 33.28 38.17 37.53 36.43 36.15 40.00 42.32 41.01 41.78 42.02 42.84 43.15 43.68
54.73 54.24 53.96 53.96 53.38 52.77 49.04 47.19 44.20 42.64 47.55 44.25 44.70 43.17 47.59 52.27 54.58 48.47 50.67 48.83 47.70 43.67 36.91 38.75 34.72 32.01 34.76 35.55 36.54 35.06 33.22 32.52 36.23 40.48 36.84 36.40 36.50 38.65 40.95 40.37 40.74 41.85 42.54 43.22 43.80
54.43 54.24 54.22 53.88 53.52 52.32 46.33 43.52 46.82 46.93 41.53 48.17 48.70 47.31 49.98 51.29 46.98 49.94 49.54 44.12 41.84 37.29 38.22 35.77 32.54 37.88 39.00 38.21 36.74 35.39 32.73 32.43 36.57 39.46 36.46 35.97 35.51 38.29 39.34 40.48 41.57 42.29 42.54 43.28 43.65
53.57 53.61 53.93 53.63 52.85 48.46 45.64 48.24 50.63 47.85 40.23 44.18 47.84 47.28 47.50 49.23 45.66 47.37 46.44 43.62 40.28 36.76 36.43 33.90 37.96 41.30 39.33 37.51 36.31 34.86 32.88 33.50 34.72 37.96 36.96 35.27 33.37 36.56 40.16 40.32 42.19 42.59 43.08 43.22 43.54
52.95 53.12 53.40 52.16 47.89 48.23 46.06 51.83 50.96 48.57 35.86 39.79 44.01 47.45 48.93 48.55 44.94 51.74 49.08 45.03 39.97 37.97 37.32 36.13 40.18 39.64 36.93 36.31 36.93 32.08 38.11 38.34 36.67 33.22 28.42 34.87 28.94 33.00 36.88 38.64 40.34 41.72 41.19 41.96 42.91
52.79 53.10 53.02 51.40 43.25 43.35 49.36 50.39 50.16 48.60 28.90 44.41 44.54 51.35 48.93 46.15 45.51 46.09 49.34 45.23 40.12 39.17 38.18 36.50 36.70 36.00 35.80 37.54 39.08 35.93 39.72 37.55 36.75 32.23 28.07 30.84 25.69 30.92 35.10 35.63 38.41 40.52 41.50 41.97 42.97
52.70 53.05 52.58 47.89 44.74 46.19 49.19 49.12 49.56 38.78 29.58 44.01 45.16 43.73 44.32 45.29 44.61 44.74 45.17 46.59 44.97 39.32 38.22 38.72 40.59 39.86 39.02 40.85 40.31 41.07 36.75 34.51 30.71 28.51 23.07 30.33 28.55 29.42 32.48 35.96 38.70 41.87 42.73 43.67 44.36
52.23 52.04 50.59 48.36 43.32 45.82 46.25 46.36 35.47 32.61 43.98 41.16 41.27 43.91 42.09 41.44 42.27 42.08 40.53 38.90 36.72 31.27 31.53 36.93 38.92 40.64 41.89 37.58 38.55 36.52 31.21 24.20 23.06 22.96 25.53 32.29 29.36 30.42 36.21 40.15 40.97 40.97 42.94 44.43 44.52
50.79 50.12 48.73 48.28 45.86 45.80 46.59 40.66 30.23 39.03 41.63 45.74 44.19 43.14 40.60 42.31 41.69 41.85 39.29 36.32 38.39 35.96 32.65 31.00 31.12 39.62 43.25 39.00 36.36 34.88 33.28 26.51 21.20 22.23 27.03 31.87 26.36 31.99 39.60 41.87 42.65 43.61 43.07 43.95 43.84
49.25 44.92 43.53 47.38 47.99 45.65 42.95 32.70 33.03 40.59 43.39 42.38 43.07 38.36 38.67 41.17 40.48 40.12 38.74 38.41 39.50 37.99 32.45 30.32 32.19 41.46 43.26 43.87 41.29 35.04 30.49 34.68 28.65 28.25 20.74 27.68 32.07 37.83 40.22 40.65 41.37 40.77 41.51 41.36 42.21
44.68 41.03 44.03 48.15 47.58 46.42 37.38 34.02 39.93 44.47 45.00 43.73 37.41 39.88 35.58 37.68 38.12 38.12 37.62 42.07 41.64 41.97 39.69 35.86 29.61 38.66 41.32 42.41 41.61 38.28 39.33 30.85 29.42 24.16 22.77 25.65 28.10 29.82 35.36 37.02 38.54 38.54 39.22 41.25 42.34
41.16 40.11 45.86 47.56 48.31 42.83 35.20 37.05 41.39 46.19 45.99 41.85 39.29 38.29 38.40 37.11 37.69 36.74 37.84 41.23 42.94 41.60 40.38 37.14 33.30 33.75 38.53 36.42 35.31 34.50 32.81 34.37 33.50 32.49 24.16 21.04 25.40 35.22 35.96 36.57 35.82 36.80 39.35 39.39 41.24
40.42 37.30 47.32 48.20 41.03 37.60 35.05 39.60 43.00 44.40 46.95 43.97 43.31 41.22 38.38 38.70 37.08 37.17 37.46 40.94 43.28 41.86 36.24 37.86 34.48 28.55 32.99 38.22 39.25 36.51 34.37 33.82 28.61 25.10 28.18 27.28 26.89 38.91 37.04 36.63 36.27 37.52 39.94 42.28 43.56
37.39 37.35 45.07 46.12 35.70 34.25 37.97 40.47 41.97 42.08 43.12 42.78 41.06 41.67 41.30 37.55 34.47 38.33 39.92 43.76 42.83 41.06 38.72 37.85 29.92 25.84 28.00 32.66 35.10 33.09 35.26 34.15 31.39 28.84 25.84 25.30 26.40 36.64 36.56 36.61 39.68 39.58 41.24 42.88 44.43
38.27 34.68 38.56 39.05 38.37 37.70 36.60 36.86 37.59 43.62 43.06 43.22 41.51 42.08 39.53 37.65 39.40 35.91 37.25 41.54 43.22 41.93 46.97 41.91 33.13 29.62 26.52 29.84 32.69 31.89 34.22 34.27 31.31 26.03 27.78 27.67 30.42 35.07 35.04 37.29 39.56 40.42 41.45 42.28 43.47
39.69 37.71 38.56 32.31 36.13 36.96 38.53 38.42 36.29 37.17 42.58 42.49 39.22 39.86 38.13 35.59 35.53 35.33 38.15 39.15 41.71 43.27 40.75 36.10 28.63 31.26 32.59 34.85 34.00 32.76 33.48 34.01 29.91 31.76 26.86 30.51 28.54 33.39 36.79 38.68 39.90 41.22 41.61 41.65 42.69
37.59 36.16 37.66 36.87 39.18 37.79 38.01 37.49 36.28 38.17 40.21 38.13 37.01 38.96 39.55 36.51 37.18 35.75 37.87 37.27 34.55 37.99 35.34 31.92 26.66 28.32 28.20 33.11 31.74 28.90 31.64 32.90 32.93 32.63 31.01 31.01 30.48 37.71 40.44 40.73 40.49 40.21 40.20 39.80 40.75
43.90 42.49 39.31 36.50 37.85 36.81 37.04 37.74 38.02 40.16 40.23 40.97 40.18 36.98 36.15 38.73 41.23 40.04 39.15 38.41 37.42 33.80 31.50 29.16 27.37 24.81 23.10 29.74 29.58 25.83 30.04 30.78 31.72 34.82 33.64 30.32 33.46 37.63 38.27 39.29 38.57 38.85 39.53 39.36 41.20

GFSSW_sfc_wetblb_093.txt.gz
Wetbulb
54.29 53.92 53.90 53.34 53.33 53.28 53.82 53.35 53.41 53.37 53.35 53.69 54.52 54.66 54.68 54.95 54.18 50.90 45.90 52.38 55.82 60.25 59.59 52.50 49.17 49.83 51.07 49.13 51.48 50.52 46.32 42.87 44.31 45.29 46.90 50.58 50.35 53.21 53.73 52.37 53.14 54.22 54.65 56.87 60.28
53.69 53.91 53.86 53.85 53.58 53.17 53.15 53.13 53.29 53.55 53.35 53.76 53.20 54.55 54.50 54.23 50.78 47.21 54.23 56.26 60.37 60.20 53.55 49.33 46.88 47.44 47.62 47.87 49.27 48.36 44.42 44.36 47.95 49.51 48.73 49.79 49.31 50.11 49.94 50.50 51.11 52.75 55.60 57.24 60.97
53.68 53.63 53.77 53.83 53.79 53.32 53.13 53.08 53.12 52.93 53.01 53.01 52.74 53.00 54.19 53.80 47.69 53.31 61.75 59.25 61.47 61.60 51.79 48.69 48.65 46.63 45.43 47.80 47.20 46.42 44.47 46.39 47.45 49.35 50.05 48.79 48.87 50.68 49.43 48.34 51.14 50.89 53.00 54.89 56.26
54.18 53.86 53.53 53.62 53.53 53.34 52.91 52.81 52.96 52.99 52.97 52.63 52.64 52.72 54.32 51.01 44.87 52.96 64.17 61.39 62.27 57.46 51.52 52.76 51.17 46.07 44.46 44.06 46.80 44.29 46.71 47.53 47.91 48.97 48.48 47.05 48.53 47.43 49.31 50.40 52.60 52.89 54.00 54.42 55.07
54.31 54.02 53.25 52.93 52.93 52.97 52.82 52.80 52.49 52.72 52.72 52.55 53.04 53.33 51.60 44.82 44.96 58.72 63.68 63.39 59.38 51.73 51.81 52.68 49.08 45.73 43.65 43.75 44.06 43.24 44.41 45.45 46.73 46.54 46.66 46.95 46.64 47.31 47.69 51.06 52.56 52.87 53.09 53.47 54.96
54.57 54.30 53.46 53.14 52.74 52.84 52.46 52.25 52.18 52.21 53.00 53.24 53.04 53.36 49.86 38.54 47.40 60.25 60.83 55.86 52.70 52.67 53.26 53.64 50.71 50.29 46.62 45.34 45.11 45.89 44.87 46.14 46.78 47.01 46.56 45.67 47.08 46.60 48.43 51.13 51.18 52.05 52.72 53.30 54.76
55.25 54.72 53.77 53.91 53.19 52.96 53.13 52.48 52.31 52.75 53.38 53.72 53.35 53.28 47.37 41.99 53.72 59.04 57.26 52.66 53.19 53.57 52.80 54.10 53.12 48.59 48.18 45.53 46.61 45.47 43.46 45.17 46.30 47.67 46.60 46.39 44.58 44.65 49.65 49.26 49.65 50.78 51.49 51.99 53.19
55.23 54.86 53.98 53.86 53.84 53.41 53.02 53.74 53.01 53.08 53.71 53.88 54.32 52.64 43.44 49.51 53.72 53.51 55.91 52.52 52.88 53.71 53.26 53.59 52.08 48.83 47.22 46.95 44.48 43.04 42.48 40.64 44.37 44.98 45.90 46.07 42.26 47.15 49.09 48.22 48.57 49.24 50.13 50.91 52.67
55.17 54.90 54.69 53.94 53.96 53.82 53.24 53.08 53.28 53.55 54.42 54.72 51.75 48.35 45.22 55.83 52.45 55.18 55.47 51.69 51.97 52.57 53.24 53.67 50.52 46.39 45.87 43.30 41.27 40.63 37.89 38.00 41.78 45.47 44.50 44.13 42.30 47.78 50.26 48.84 48.79 50.06 50.39 50.84 51.92
54.92 54.63 54.41 54.49 54.00 53.73 52.48 54.00 54.60 55.44 54.87 54.34 52.79 46.62 49.30 49.48 54.08 54.25 54.20 53.22 51.67 51.33 48.62 47.87 46.83 44.72 43.07 41.83 35.86 37.15 37.91 39.23 39.56 44.06 44.81 43.71 43.90 47.03 49.03 48.73 48.79 49.48 50.43 51.57 52.18
54.47 54.27 54.31 54.39 54.47 53.41 51.21 52.34 49.42 47.74 51.56 49.48 48.87 45.29 48.68 53.23 55.86 52.61 52.66 51.44 50.65 48.57 44.14 44.58 43.08 40.47 42.45 43.03 42.35 40.68 39.15 38.75 41.98 45.01 42.40 43.84 43.63 45.86 48.34 47.83 48.61 49.78 50.98 51.85 52.98
53.65 54.23 54.29 54.10 53.65 53.12 50.14 48.84 51.04 51.61 45.37 50.21 50.77 49.41 51.46 52.33 48.19 50.75 52.85 48.35 47.07 43.22 43.93 42.65 40.15 44.51 44.05 42.85 41.07 40.60 39.43 39.74 42.65 44.53 43.34 43.75 42.96 46.13 47.27 47.68 48.91 49.46 50.59 51.75 52.83
52.66 53.22 53.78 53.59 52.39 50.59 48.73 50.30 53.67 53.21 45.79 46.61 49.16 48.98 49.89 51.55 47.83 48.67 50.90 48.10 45.14 42.63 42.36 40.93 42.49 43.72 42.38 41.64 40.19 40.95 39.61 40.15 40.42 43.32 43.89 42.14 41.69 43.99 46.98 47.22 48.80 49.89 51.01 51.57 51.84
52.31 52.71 53.02 52.82 49.46 49.51 49.12 53.58 54.25 52.77 40.67 43.20 45.78 49.03 50.16 50.48 46.31 52.65 50.55 48.49 44.62 42.49 42.11 42.08 45.09 42.40 41.84 40.85 42.06 38.61 43.60 42.10 40.92 39.95 36.76 41.88 34.90 42.68 45.11 46.02 47.09 49.08 50.56 50.93 50.64
51.75 52.52 52.44 51.94 49.94 47.52 51.14 52.84 52.80 51.85 31.61 45.63 46.40 53.42 51.26 47.89 48.23 48.97 51.85 48.37 43.50 42.81 42.81 41.44 41.76 41.08 40.73 42.10 43.01 41.05 43.66 42.43 42.03 40.23 38.48 40.06 36.46 40.78 43.19 43.48 46.26 48.83 49.09 50.42 51.98
51.33 51.81 51.56 49.47 48.82 50.42 51.89 51.75 52.88 41.46 31.97 43.83 46.86 45.51 45.42 47.42 46.99 47.79 49.13 50.43 48.64 44.29 43.59 43.49 45.42 44.02 44.02 44.31 44.20 44.62 42.74 42.18 39.63 39.13 33.36 39.03 38.03 39.21 41.84 44.01 44.99 47.32 49.56 50.06 50.81
51.08 51.19 50.01 50.49 47.82 49.80 50.01 51.51 40.05 34.37 45.49 42.06 43.34 45.21 44.21 43.86 45.08 45.26 43.56 43.98 42.24 38.40 38.76 42.68 43.06 45.71 45.06 42.35 45.11 43.24 40.23 34.00 32.53 33.05 32.46 39.61 36.26 39.54 44.77 46.43 46.98 47.23 47.92 49.08 50.35
50.15 49.63 49.59 50.58 50.90 50.71 50.58 45.68 32.68 39.25 41.82 46.85 45.58 44.54 41.29 42.76 43.13 43.25 41.63 40.49 43.43 42.22 39.38 36.51 35.11 41.91 44.99 43.23 42.06 41.51 40.92 35.21 28.28 30.39 33.76 39.83 34.15 39.86 46.65 48.03 47.86 47.21 47.34 48.51 49.40
49.02 48.50 48.72 50.53 51.33 50.01 48.13 37.41 36.67 41.09 43.79 42.46 44.11 40.56 41.19 43.70 43.13 42.11 40.77 40.39 42.49 42.40 37.92 36.30 36.10 43.56 44.63 45.56 44.96 40.71 37.91 42.63 36.96 37.71 32.61 36.26 40.08 43.72 46.39 46.57 46.29 46.33 47.01 47.59 48.89
46.00 45.31 48.80 50.86 51.85 50.62 44.52 37.14 41.14 45.18 45.57 44.65 38.28 41.27 36.84 39.27 39.86 40.24 39.38 43.47 42.52 44.22 44.79 40.96 35.38 41.61 43.45 44.83 44.15 42.26 44.35 36.68 37.95 28.41 27.33 34.20 35.60 36.44 41.68 42.94 44.80 44.91 45.69 47.13 49.08
46.03 46.09 50.61 51.45 51.97 48.90 41.42 40.54 42.85 46.79 46.96 43.33 40.27 39.12 39.02 37.81 38.71 37.63 38.39 42.21 43.78 43.74 43.86 42.13 39.20 38.79 41.40 40.00 39.58 40.31 38.79 39.31 38.75 36.52 29.93 28.43 33.71 43.01 42.94 43.97 43.28 44.62 45.90 47.56 49.22
44.33 43.29 51.34 51.16 46.73 42.80 40.66 40.87 42.62 44.45 47.41 44.76 44.57 42.30 39.58 38.99 37.26 37.36 36.97 40.95 45.55 43.87 38.86 42.90 39.22 34.42 37.26 43.33 42.60 41.14 39.82 39.72 35.39 32.25 34.90 33.23 32.58 45.37 45.99 44.43 43.97 44.96 46.93 48.72 49.37
42.56 42.70 50.43 50.16 39.78 39.29 41.55 41.94 43.11 42.91 43.97 43.62 42.34 43.79 42.98 39.23 35.74 39.05 39.81 44.41 45.12 42.69 39.55 41.41 36.36 31.48 33.47 38.28 39.63 38.67 40.36 40.25 38.83 37.85 33.44 30.44 33.80 44.01 43.55 44.53 45.44 45.37 47.28 47.97 48.28
44.16 40.24 44.10 45.09 42.88 39.54 37.97 39.23 39.30 43.69 43.42 44.17 42.47 43.03 40.81 38.53 39.89 37.33 38.40 41.91 43.64 43.20 45.34 43.96 38.01 34.96 31.27 34.83 37.99 35.26 37.75 39.09 38.25 33.38 34.37 34.60 36.55 40.66 42.62 42.44 43.91 45.85 47.27 47.10 46.84
44.63 39.67 41.20 36.18 38.27 38.98 39.15 39.07 36.95 37.08 42.54 43.76 40.29 41.10 39.70 36.37 37.19 37.43 39.34 40.17 42.28 43.87 42.35 40.19 34.42 36.38 36.82 37.47 37.35 36.22 35.79 36.73 35.78 36.92 33.45 36.13 36.32 39.68 41.67 42.37 44.52 46.35 46.11 45.37 45.76
43.02 40.63 41.71 38.66 39.48 38.29 38.31 37.72 36.57 37.92 39.47 38.40 37.41 39.61 39.51 36.88 37.36 36.20 37.94 37.89 37.25 39.50 38.15 39.78 33.81 35.56 32.55 35.65 35.44 32.78 34.60 35.39 36.23 36.95 36.79 36.63 35.40 42.32 44.19 45.26 45.19 45.26 45.08 44.38 44.85
46.25 45.88 42.50 37.93 37.84 36.65 37.33 37.24 37.00 37.91 39.15 41.94 40.17 38.43 36.76 38.75 41.01 41.75 42.13 41.31 39.43 36.98 35.71 35.42 33.98 32.40 28.00 33.64 32.86 29.50 34.46 35.29 35.48 36.83 36.28 32.73 38.89 43.41 43.53 44.09 44.66 44.93 44.96 44.24 44.58

GFSSW_sfc_wetblb_096.txt.gz
Wetbulb
54.55 54.47 54.62 54.54 54.35 53.99 54.13 53.87 53.62 53.59 53.71 53.92 54.48 54.24 54.95 54.97 54.81 54.73 50.14 54.60 57.71 59.19 59.66 56.13 53.02 53.12 53.89 53.30 54.78 55.12 47.84 46.54 47.11 47.73 49.31 53.39 52.33 55.22 56.19 54.35 55.25 56.55 57.19 58.93 60.51
55.02 54.33 54.27 54.39 54.35 54.28 53.92 53.76 53.53 53.56 53.58 53.62 53.54 53.37 54.30 54.37 53.97 51.62 59.08 56.74 59.16 60.99 56.53 53.36 50.65 52.15 51.15 51.93 53.12 51.25 47.80 47.77 49.99 51.23 50.31 51.99 52.31 52.21 51.71 52.55 53.15 54.47 57.39 59.08 59.32
55.34 55.08 54.26 53.94 54.03 53.97 54.05 53.51 53.29 53.45 53.17 53.44 53.23 53.48 53.44 55.33 52.77 55.85 61.32 59.14 61.85 62.16 55.67 53.82 53.16 51.49 49.45 51.41 51.30 50.93 47.90 50.37 50.56 51.45 51.37 50.18 50.95 52.65 51.13 50.55 53.06 53.32 55.50 57.46 58.00
54.83 54.96 54.64 53.61 53.57 53.54 53.56 53.38 53.13 53.30 53.34 53.15 53.10 53.51 54.09 54.91 47.36 57.15 63.68 61.42 63.43 59.50 54.38 52.92 50.61 49.10 48.64 47.96 51.06 47.41 50.17 50.57 50.61 51.16 51.05 50.45 52.03 50.41 50.47 52.31 54.32 54.92 55.92 56.28 57.14
55.54 55.08 54.49 54.03 53.37 53.24 52.92 53.02 53.18 53.17 53.13 53.13 53.21 53.49 54.47 49.86 47.76 63.13 62.94 62.21 62.78 57.17 51.58 52.71 49.87 49.63 47.51 48.73 49.28 48.18 48.94 49.64 50.55 50.07 49.88 50.37 49.13 49.69 50.50 52.97 54.58 54.60 55.21 55.58 56.76
55.75 55.50 54.82 54.28 53.71 53.23 52.95 52.68 52.63 52.58 52.96 53.72 53.42 53.15 52.90 43.99 51.42 62.67 60.24 61.05 57.57 53.25 54.74 54.85 52.07 51.32 48.75 48.08 47.61 49.25 48.70 48.86 49.71 50.01 50.37 48.60 49.27 49.97 51.06 53.17 53.18 54.00 54.34 55.32 56.00
55.47 55.65 55.29 54.30 54.28 53.79 53.48 53.23 52.72 52.62 53.51 53.69 53.43 54.82 50.22 47.72 54.82 62.01 59.97 56.47 55.19 56.42 54.70 55.79 54.38 51.68 51.03 48.11 50.34 49.08 46.75 48.70 49.57 50.05 49.26 50.60 47.40 47.83 51.62 52.79 52.02 52.85 53.66 54.46 55.61
55.09 55.10 55.04 55.09 54.73 53.99 54.01 53.90 53.31 53.08 53.65 54.28 54.24 54.67 49.36 51.87 54.77 58.21 59.81 54.91 56.19 56.87 56.22 56.25 55.16 52.33 51.18 51.19 48.48 46.66 47.03 44.28 48.36 47.74 48.61 48.39 44.25 49.91 51.69 51.48 51.09 51.87 52.69 53.36 54.78
54.68 54.71 54.90 54.66 54.69 54.15 54.00 53.28 53.49 53.53 54.29 54.96 54.98 52.64 50.30 55.87 52.21 55.17 59.59 54.30 54.24 54.23 55.69 55.30 54.41 50.98 49.83 46.87 45.10 46.03 41.77 43.26 44.35 48.10 47.65 47.16 45.23 49.47 52.08 52.23 51.52 52.51 53.09 53.36 54.51
54.05 54.12 54.39 54.79 54.72 54.61 53.49 54.84 54.65 55.22 56.31 56.02 55.09 50.56 54.62 50.42 53.47 55.08 57.77 56.13 53.14 53.60 52.50 52.21 50.99 47.96 47.38 45.53 40.13 42.40 42.08 42.60 43.38 47.15 47.67 46.76 46.57 49.41 51.45 51.42 52.00 52.72 53.30 53.78 54.49
53.35 53.45 53.79 54.12 54.39 53.71 53.13 55.93 54.44 53.20 54.97 52.12 52.32 51.33 51.44 55.13 57.94 54.39 56.37 54.60 54.23 52.58 47.29 49.82 46.02 44.11 46.53 46.90 46.19 44.29 43.36 43.09 45.75 48.12 46.48 46.66 47.25 48.75 51.14 51.39 51.30 52.11 52.86 53.69 54.61
52.34 52.83 53.61 53.77 53.51 52.67 54.37 52.62 53.90 53.94 49.24 54.26 53.72 53.31 54.55 54.72 51.41 53.62 56.29 51.23 50.30 46.74 48.90 46.66 43.43 47.73 48.31 46.94 44.90 44.30 43.16 43.68 46.39 47.69 46.67 46.71 46.48 49.32 50.60 51.09 51.89 51.93 52.63 53.49 54.58
52.18 52.22 53.11 53.30 52.73 52.89 54.44 54.42 57.67 56.38 48.99 49.89 51.30 51.18 52.15 53.94 50.53 51.94 53.14 52.16 48.93 46.88 46.88 44.81 45.98 46.93 46.49 45.44 43.72 43.99 43.24 44.06 43.78 46.70 47.75 46.57 45.11 47.47 50.18 51.57 52.11 52.85 53.76 54.29 54.39
51.47 51.62 52.18 51.91 50.34 55.33 53.10 57.26 58.39 57.23 45.66 46.66 48.70 51.18 51.73 52.28 48.64 54.63 54.53 51.52 48.59 45.49 46.67 45.91 48.23 46.04 44.93 43.94 45.24 42.15 46.72 45.65 44.50 43.61 40.57 46.75 38.74 45.93 48.59 49.42 50.90 52.03 52.98 53.79 54.33
51.20 51.47 51.37 50.81 52.42 52.27 55.09 57.67 58.52 56.21 37.29 48.59 49.02 55.50 52.07 49.18 50.54 50.21 54.57 50.47 46.35 45.71 46.27 44.19 45.14 44.62 43.99 44.89 46.78 43.86 47.07 45.47 45.17 44.11 43.85 43.88 41.66 45.30 48.77 46.93 49.33 51.80 52.88 53.52 55.09
51.07 51.20 51.12 53.28 53.56 55.66 56.66 55.94 56.20 44.67 35.78 46.09 49.69 49.03 48.05 49.88 48.05 50.14 50.66 52.14 50.84 47.09 47.12 46.53 49.58 47.32 47.01 47.56 47.17 47.89 45.69 46.12 46.25 44.39 38.15 42.92 42.47 43.04 46.31 47.98 49.30 50.89 52.05 52.97 52.80
50.84 51.16 51.66 55.09 53.85 55.45 55.71 53.64 44.07 38.25 47.27 44.38 45.73 48.03 47.24 46.37 47.44 47.57 46.96 46.26 43.74 41.41 42.06 45.47 46.26 48.77 49.13 45.76 48.14 47.05 44.26 38.35 37.59 38.31 37.58 45.51 41.80 44.22 48.72 49.34 50.56 51.00 51.51 51.91 52.81
49.85 49.83 51.66 55.74 57.19 55.89 55.02 48.88 37.57 41.54 43.88 48.38 47.49 47.02 45.04 46.31 45.83 46.12 44.65 44.17 47.21 45.44 42.49 40.32 38.93 46.05 48.31 46.68 44.99 45.99 45.59 39.29 33.02 35.31 38.22 44.26 39.11 44.38 49.19 50.80 51.80 51.28 50.85 51.84 52.61
48.94 58.04 57.17 56.15 57.34 56.62 51.74 41.88 41.04 43.44 45.62 44.78 46.54 44.28 44.56 46.45 45.88 45.70 44.92 44.49 45.24 44.95 39.29 39.66 40.15 46.30 46.71 48.25 47.55 44.89 41.45 46.62 41.14 42.41 38.21 41.17 44.41 48.28 49.78 49.58 50.33 50.62 50.23 50.87 51.86
52.62 55.46 54.33 57.32 58.64 55.82 48.56 40.08 43.66 47.16 47.37 46.98 41.69 44.01 41.22 43.10 42.74 43.76 43.58 46.55 44.87 46.13 47.19 43.00 37.97 44.99 46.02 46.81 47.45 45.26 47.29 40.32 41.12 32.84 31.31 38.67 39.52 41.09 44.97 47.61 49.19 49.21 49.32 50.58 51.80
54.24 53.33 55.39 57.93 57.40 52.84 45.34 45.19 45.14 48.36 48.83 45.52 43.76 43.03 43.28 42.66 43.42 41.76 41.31 45.44 47.30 46.32 46.90 43.66 40.06 41.85 45.89 42.73 41.43 43.15 42.02 43.23 43.14 40.85 34.25 31.72 37.32 47.03 46.05 48.08 47.98 48.92 49.70 50.42 51.09
53.22 49.38 55.99 58.20 51.18 52.28 48.40 45.20 44.29 46.15 48.69 46.94 47.19 45.71 44.33 43.78 42.56 41.40 41.52 44.96 47.41 45.69 40.62 43.37 39.91 38.02 41.83 47.35 47.29 45.12 42.88 43.41 38.88 36.66 39.13 37.40 37.74 48.78 49.18 49.82 49.16 49.13 49.78 50.47 51.50
49.65 51.13 56.95 56.40 46.79 48.18 47.58 45.79 46.29 45.51 46.27 46.05 44.77 45.93 46.59 43.86 39.27 42.18 43.21 46.48 47.10 45.50 41.14 41.91 38.23 34.04 37.59 43.02 45.27 41.99 43.60 43.96 43.56 41.58 36.92 34.77 38.23 48.47 48.17 47.81 49.10 49.00 48.90 50.20 52.17
49.90 47.02 51.10 51.71 50.11 45.68 43.41 44.13 42.83 46.31 45.57 46.34 45.09 45.88 43.52 40.47 42.44 40.81 41.03 44.73 45.78 44.54 45.40 43.12 39.63 37.92 34.08 38.64 41.49 38.58 40.49 42.48 41.13 36.49 37.47 37.31 40.97 45.09 47.61 47.48 47.89 48.15 48.84 50.95 51.87
49.22 44.73 45.53 44.46 44.67 44.16 44.13 42.82 40.56 39.49 44.68 45.26 43.10 42.71 41.12 37.71 39.33 39.03 40.88 42.19 45.11 45.66 43.86 40.34 35.01 39.31 40.21 41.02 40.84 39.89 39.55 39.65 38.16 39.61 35.72 39.45 40.61 44.11 46.27 46.19 46.76 48.57 50.06 50.42 50.28
47.13 46.17 48.06 45.07 42.83 42.62 41.01 41.42 38.19 39.16 38.89 39.41 39.02 41.06 41.45 37.37 38.12 36.82 39.22 39.77 38.30 43.42 42.20 42.12 35.56 38.46 36.42 40.06 39.74 37.46 38.88 38.72 39.52 39.73 39.54 40.05 39.85 46.31 46.89 47.82 48.30 49.18 49.71 49.70 49.99
51.04 50.88 47.30 42.01 41.48 42.09 42.43 40.23 39.39 41.17 42.39 42.91 41.14 38.70 39.10 40.79 42.50 43.19 45.14 44.36 41.70 39.42 38.43 38.60 37.08 35.41 32.19 37.77 36.71 32.82 37.24 38.82 39.38 41.36 40.27 37.09 41.98 45.99 46.37 46.69 46.57 49.31 49.44 48.78 49.22

GFSSW_sfc_wetblb_099.txt.gz
Wetbulb
56.33 55.73 55.12 55.03 54.92 55.05 54.74 54.26 54.46 54.09 54.27 54.44 54.53 54.76 54.44 55.37 55.27 55.96 51.83 56.86 59.30 61.51 60.04 57.27 55.24 54.51 54.30 53.99 55.67 55.64 49.71 47.60 48.07 49.20 50.97 54.79 53.36 56.40 58.66 56.64 57.86 58.77 58.85 61.17 61.86
56.02 55.98 55.68 55.04 54.79 54.76 54.28 54.32 54.22 54.03 54.16 53.98 54.33 54.04 54.20 54.39 54.71 52.50 60.90 61.34 61.40 61.60 56.20 55.03 52.15 53.22 51.57 52.58 53.62 52.13 48.71 48.70 51.83 52.03 51.95 53.63 53.86 54.66 54.39 54.74 54.70 56.41 58.81 59.93 60.94
56.29 55.88 55.55 54.85 54.43 54.35 54.00 53.96 53.81 53.83 53.91 54.04 53.94 54.24 54.39 55.28 54.37 55.69 63.34 62.25 61.83 61.34 57.91 56.40 54.93 53.03 50.74 52.38 52.65 52.45 48.50 51.79 52.06 52.69 53.42 52.34 52.76 54.59 52.69 51.56 54.01 54.27 56.61 59.15 59.76
55.91 56.23 56.03 55.02 54.28 53.72 53.77 53.87 54.07 53.90 54.09 53.98 53.69 53.90 54.43 56.14 49.46 61.54 61.98 61.20 62.67 60.11 56.54 54.00 52.82 50.61 49.98 49.67 52.45 49.42 51.98 52.21 52.74 52.94 52.33 51.37 52.55 51.97 52.83 53.41 55.43 56.18 57.00 57.42 57.68
55.61 55.71 55.91 55.53 55.01 54.30 53.58 53.46 53.71 53.87 53.59 53.74 54.07 54.19 55.17 52.74 51.62 64.59 62.25 62.95 58.04 59.16 54.78 52.90 50.99 51.10 49.01 50.68 51.35 50.07 50.94 51.95 52.50 52.34 52.43 52.50 50.70 50.93 51.45 53.93 54.87 55.51 56.01 56.20 56.98
55.68 55.64 55.48 55.65 55.02 54.54 54.18 53.60 53.19 53.29 53.19 54.00 54.48 53.64 54.87 48.09 54.44 62.84 59.04 60.55 60.93 58.86 53.45 54.37 53.07 53.11 51.05 50.58 50.16 51.75 50.94 51.15 51.39 51.31 51.72 50.16 50.54 51.31 52.26 54.16 54.26 54.68 54.84 55.09 56.18
54.84 55.32 55.28 55.33 55.10 55.15 54.41 54.49 53.45 53.10 53.50 54.63 55.14 55.51 53.47 50.99 54.13 62.96 60.73 59.60 58.64 55.01 54.60 56.99 56.22 52.95 52.72 49.95 52.04 51.11 48.55 50.14 50.48 50.92 50.39 51.80 48.72 49.51 53.02 54.03 53.37 54.01 54.86 55.65 56.30
54.45 54.55 54.81 54.94 55.11 55.30 54.76 54.34 54.05 53.61 53.82 55.07 55.32 56.94 53.45 55.15 55.66 59.97 61.10 57.44 56.62 58.36 57.90 57.48 56.50 54.04 52.62 53.70 50.79 48.81 49.12 45.63 50.21 51.19 51.29 50.35 45.81 51.31 54.11 53.03 52.86 53.31 54.05 54.79 55.91
54.07 53.85 54.16 54.21 54.49 54.93 54.69 54.28 54.18 54.16 54.71 55.56 55.76 56.16 53.06 54.93 51.03 55.47 61.18 55.60 56.28 56.83 57.07 56.38 55.59 52.62 52.35 48.57 47.22 48.14 43.89 45.79 47.10 50.94 49.35 48.66 46.95 50.89 53.44 53.16 52.83 53.73 54.20 54.55 55.59
53.49 53.28 53.42 53.99 54.14 54.26 54.18 54.66 54.85 54.50 55.66 58.26 57.77 53.01 56.03 52.45 54.17 52.51 59.41 57.71 54.30 53.81 53.53 53.26 52.17 49.72 49.29 47.47 41.50 44.32 45.07 45.84 45.72 48.91 49.25 47.88 47.61 50.34 52.62 52.72 52.61 53.92 54.54 54.85 55.32
53.11 52.93 52.90 53.27 53.66 53.38 53.71 56.82 55.63 53.01 55.75 54.68 54.85 54.03 53.32 56.65 56.32 53.33 57.01 56.42 54.68 52.72 48.55 51.83 47.96 45.84 47.88 49.08 48.26 47.40 45.96 45.76 47.71 49.67 48.19 48.17 48.67 50.23 52.46 52.82 52.66 53.32 54.12 54.83 55.64
52.56 52.41 52.57 52.74 53.07 53.25 55.65 53.81 55.88 56.17 49.61 55.26 55.24 54.64 56.03 56.07 52.55 52.78 57.08 51.98 51.21 48.19 50.64 49.28 45.87 49.53 50.21 49.75 48.01 47.00 45.20 45.27 47.73 49.57 49.12 48.30 47.95 50.55 51.90 52.58 53.24 53.49 54.04 54.74 55.74
52.88 52.42 52.15 52.48 52.11 52.99 56.18 56.48 59.08 59.11 51.71 52.60 53.30 52.65 53.21 54.31 50.54 51.99 54.52 52.78 50.11 48.47 49.09 47.08 48.95 49.34 48.07 47.72 46.51 46.62 45.05 45.52 45.34 48.50 49.59 48.22 46.49 48.48 51.39 52.62 53.38 54.23 54.95 55.36 55.36
52.72 52.03 51.76 51.75 50.74 59.16 55.83 59.00 59.32 59.82 47.87 49.16 49.91 53.18 53.83 53.60 49.61 55.85 54.31 52.03 50.42 47.72 49.15 48.59 50.72 48.46 47.03 45.43 47.20 44.01 47.98 46.65 45.76 44.97 41.82 48.69 41.24 48.11 50.54 51.25 52.48 53.91 54.56 54.77 55.42
52.51 52.01 51.65 51.04 53.79 55.29 57.60 59.81 59.86 58.54 38.69 50.73 51.13 57.02 54.47 50.53 51.14 52.32 56.42 51.90 47.01 46.80 46.79 45.31 47.27 46.55 45.75 46.55 47.98 45.26 48.50 47.31 46.88 45.32 45.18 45.37 43.29 46.71 50.68 49.60 51.32 53.20 54.24 55.23 56.89
52.14 51.42 51.47 54.31 54.25 58.08 59.99 58.98 57.71 45.88 38.06 47.97 51.53 50.58 49.62 50.98 50.36 52.49 52.32 54.07 52.29 48.33 48.71 46.01 49.55 48.35 47.82 49.18 48.70 49.22 47.31 47.37 47.44 45.84 40.05 44.94 44.76 45.19 48.18 50.41 52.25 53.92 53.75 54.75 55.46
51.67 51.23 51.40 57.90 56.39 59.23 59.18 54.74 45.91 41.26 48.75 46.19 48.02 50.13 49.79 48.54 48.60 49.85 48.75 48.10 45.57 42.70 43.06 45.71 46.53 49.26 49.90 46.60 49.08 48.22 45.55 39.56 39.10 39.65 39.43 47.31 45.11 47.16 50.82 52.11 52.29 52.13 53.25 55.20 55.49
49.96 49.17 54.72 58.37 60.39 59.27 56.78 50.05 41.26 44.82 45.98 50.66 49.41 49.02 46.64 48.33 48.41 48.41 47.40 46.09 49.52 47.93 44.81 42.35 40.66 47.51 49.68 48.16 46.01 46.66 45.37 39.28 33.49 36.04 40.61 46.80 42.50 46.84 52.31 52.97 53.69 53.46 54.26 54.39 54.54
48.87 59.43 59.16 60.05 60.25 59.18 53.51 45.08 44.93 46.55 48.05 46.85 48.09 46.21 45.96 47.65 48.13 47.44 47.52 46.75 48.81 48.89 43.44 41.89 42.32 49.48 50.25 49.80 48.74 45.88 42.36 47.68 42.40 43.96 40.12 43.21 46.72 50.63 52.58 51.89 52.28 53.05 53.42 53.38 53.95
53.91 57.88 56.77 60.32 61.24 57.84 51.84 43.51 46.44 48.65 48.66 48.22 43.76 46.34 43.97 45.75 45.10 45.84 45.40 48.63 47.79 49.61 49.74 46.11 40.26 47.58 48.85 49.61 49.10 46.23 48.61 40.41 42.54 34.54 33.49 39.41 42.37 44.13 48.10 49.42 51.39 51.54 52.71 53.57 53.59
54.98 55.21 58.12 61.99 60.18 54.45 47.21 48.61 47.68 49.90 49.89 46.70 46.21 45.23 45.18 44.85 46.04 44.32 43.64 47.16 48.59 47.70 49.89 47.51 42.22 43.51 47.35 45.33 44.66 44.52 43.29 43.91 43.79 42.03 35.63 34.80 39.77 49.83 48.78 50.05 50.76 51.46 52.88 53.05 53.18
56.32 51.71 59.29 61.50 52.30 54.79 50.86 49.37 45.06 48.94 50.85 49.08 48.85 48.00 45.71 45.09 43.10 42.81 43.22 45.05 49.09 49.34 44.98 46.37 43.11 39.24 43.21 49.13 49.43 47.24 44.41 44.19 39.22 38.37 41.47 40.02 40.00 51.47 51.28 52.04 52.42 51.70 52.77 53.18 53.18
52.48 53.92 59.47 58.89 48.21 49.89 50.73 48.61 48.84 47.87 48.70 47.77 45.96 46.62 48.27 44.77 40.92 44.47 44.30 48.29 48.72 47.20 44.45 45.83 39.82 36.31 39.01 45.48 46.83 43.90 45.35 44.65 44.12 43.07 38.82 36.14 39.90 49.60 50.24 50.74 52.16 51.49 50.99 52.47 52.08
52.60 48.91 52.86 55.15 54.21 49.61 47.65 47.19 46.03 48.96 47.61 48.20 47.08 47.48 45.61 43.10 45.68 43.14 42.55 45.77 47.38 46.82 46.76 45.73 42.45 38.60 35.45 40.23 41.53 39.60 42.32 43.36 41.66 37.57 39.17 40.06 41.90 46.32 48.51 49.30 50.28 49.97 51.34 51.13 51.52
53.32 49.61 49.35 48.47 47.99 47.96 47.73 46.72 44.44 43.25 47.12 47.77 45.70 44.55 42.83 40.03 40.44 41.23 43.84 45.90 46.64 47.65 45.81 42.42 35.30 39.23 41.79 42.02 42.58 41.91 41.39 42.10 39.96 41.43 37.81 40.66 41.27 45.25 47.69 49.03 49.82 50.19 50.67 51.04 51.50
49.48 48.81 50.50 49.82 46.64 45.85 42.53 45.43 42.95 43.12 43.53 43.17 43.02 44.17 44.10 40.35 41.85 40.44 42.51 43.56 42.64 45.82 42.73 42.45 35.53 40.28 38.51 41.23 41.30 39.86 42.16 43.00 42.49 42.27 42.19 41.51 40.90 47.96 48.49 48.80 48.45 49.38 50.70 49.78 50.91
54.69 54.54 50.05 45.11 46.24 44.73 46.03 44.32 42.47 44.26 45.79 45.84 43.88 42.58 42.17 43.43 45.44 45.69 45.76 45.24 44.24 41.81 42.43 39.52 38.71 35.76 34.46 40.71 40.35 35.82 41.16 42.00 42.57 43.80 42.76 38.84 43.28 47.21 46.66 47.59 48.90 50.39 50.77 50.30 50.79

GFSSW_sfc_wetblb_102.txt.gz
Wetbulb
57.03 56.74 56.17 55.71 55.00 54.88 54.97 54.68 54.47 54.51 54.60 54.65 54.80 55.26 55.10 55.15 54.94 54.66 49.81 56.73 58.90 62.07 59.19 55.58 55.86 54.89 54.14 51.73 53.23 54.11 47.27 45.33 46.61 47.63 50.06 54.44 53.09 57.12 59.43 57.82 58.88 58.88 58.99 60.75 62.12
56.62 56.91 56.70 55.61 54.87 54.77 54.93 54.65 54.34 54.53 54.40 54.59 54.79 55.00 54.90 55.18 52.82 50.97 58.53 63.78 63.72 61.97 52.30 53.36 52.36 52.83 50.44 50.13 51.14 50.14 46.71 47.25 51.22 51.75 51.09 52.94 53.39 54.04 53.63 54.13 56.00 57.24 59.22 60.17 60.95
56.10 56.34 56.37 55.94 55.43 54.54 54.40 54.23 54.24 54.31 54.57 54.74 54.76 54.49 54.75 54.68 52.52 53.23 66.71 64.06 63.78 61.62 52.27 55.47 55.00 52.15 48.98 50.67 50.39 50.12 47.34 50.44 50.83 52.44 52.97 52.19 52.18 54.39 53.33 52.16 54.75 54.30 55.71 58.35 59.19
55.55 56.03 55.82 55.99 55.61 55.17 54.48 54.01 53.95 54.46 54.77 54.64 54.66 54.69 55.03 53.83 49.15 60.19 64.36 64.04 64.17 56.43 52.47 55.07 53.54 50.62 48.53 47.61 51.05 47.83 50.70 51.41 51.74 52.80 51.95 51.08 52.75 51.40 52.53 52.99 55.20 55.71 56.46 56.76 57.48
54.73 55.37 55.66 55.63 55.69 55.44 54.61 54.65 53.92 54.22 54.10 54.29 54.73 55.11 54.03 52.33 51.51 61.86 63.71 62.52 56.66 55.65 53.56 53.11 51.01 50.60 47.97 49.49 50.26 48.77 50.10 51.49 52.18 52.05 52.08 52.49 50.81 51.04 51.74 54.28 55.17 55.27 55.40 55.68 56.78
54.99 54.62 54.78 55.34 55.51 55.91 55.27 54.45 54.05 53.62 53.65 54.03 54.94 55.32 52.04 47.36 59.39 60.34 58.52 56.93 55.14 56.35 55.41 53.89 51.98 52.30 50.22 49.94 49.36 50.85 50.58 50.58 51.60 51.18 51.39 50.01 50.07 50.55 51.42 53.91 53.76 54.04 54.09 54.69 55.82
54.46 54.58 54.54 54.36 55.03 55.18 55.84 54.75 54.86 54.04 54.04 54.35 55.45 55.42 52.72 51.93 54.75 60.82 58.77 58.53 59.31 58.50 54.09 53.82 54.90 53.44 51.72 49.08 52.63 50.99 48.33 49.52 50.04 50.44 49.71 51.18 47.88 48.51 52.34 53.37 52.83 53.46 54.34 54.93 56.13
54.17 54.06 54.06 54.15 54.44 54.64 54.77 55.15 54.67 54.51 54.56 54.82 56.08 55.31 52.53 59.20 58.10 55.47 59.93 58.87 59.47 56.44 55.74 57.71 57.18 54.32 52.65 53.26 51.47 48.52 48.39 44.30 49.24 50.36 50.58 49.84 44.34 50.07 53.28 52.99 52.09 52.65 53.72 54.46 56.10
53.74 53.61 53.69 53.23 53.69 54.36 54.36 54.46 54.90 54.82 54.90 55.32 54.80 54.19 51.91 58.33 53.83 54.01 60.02 56.50 55.47 56.30 57.56 57.41 55.61 52.02 51.59 48.03 46.56 48.02 43.04 44.68 46.44 50.67 50.18 49.16 46.09 50.23 52.79 52.83 52.24 53.42 53.90 54.18 55.48
54.05 53.55 53.26 53.19 53.08 53.77 53.67 55.04 56.39 54.40 54.82 57.90 57.28 53.06 55.94 54.20 55.65 53.16 57.79 58.20 54.17 54.02 52.88 52.45 51.09 48.34 48.26 46.45 40.02 42.88 44.07 45.24 45.25 48.95 49.30 47.18 46.63 49.24 51.47 52.27 52.38 53.22 54.21 54.89 55.57
54.49 53.93 53.19 52.99 52.93 52.90 52.70 54.86 54.16 53.50 55.14 52.48 54.18 52.81 54.67 57.28 56.33 52.13 54.33 56.60 54.88 52.22 47.15 50.78 47.13 44.47 46.87 48.28 47.74 46.66 45.54 45.02 47.76 49.90 48.20 47.63 47.94 49.22 51.67 51.86 51.79 52.81 54.19 55.65 56.31
54.47 54.12 53.58 52.80 52.70 52.70 52.22 52.88 55.29 56.52 49.63 56.03 55.45 55.17 56.85 56.44 52.36 51.99 54.35 51.95 51.13 47.21 49.49 47.95 45.35 49.07 49.98 49.50 48.14 47.35 45.23 44.84 47.43 49.38 48.34 47.68 47.18 49.87 51.31 52.06 52.84 52.86 54.41 55.25 56.54
54.32 53.83 53.46 52.61 52.01 51.56 53.08 55.24 59.25 57.93 50.45 52.48 55.05 54.21 54.09 54.79 50.57 51.43 53.24 52.22 49.51 47.11 47.88 46.00 48.24 51.16 49.27 47.72 46.50 46.67 45.25 45.25 44.87 47.68 48.91 47.79 45.66 47.88 50.77 52.44 53.38 54.21 55.59 55.93 56.49
53.96 53.67 52.97 51.85 50.45 57.81 56.09 59.47 60.47 58.74 45.85 48.99 50.60 52.36 54.08 53.57 49.39 54.63 54.31 51.84 48.92 46.49 48.30 47.76 50.77 49.23 47.98 46.31 46.84 43.19 48.19 47.23 45.83 44.17 40.25 47.59 39.62 47.29 49.65 51.18 52.89 53.93 54.52 54.76 56.09
53.84 53.63 52.51 51.07 51.63 54.90 58.32 60.42 59.79 57.95 37.37 50.46 50.94 57.17 54.82 50.56 51.52 50.65 55.30 51.77 46.82 46.97 47.67 44.89 46.57 46.53 46.12 46.51 48.44 45.20 47.94 46.75 46.56 44.76 44.07 44.15 41.47 44.80 49.43 48.28 51.17 53.97 55.04 56.03 56.89
53.76 53.28 51.60 54.42 52.98 56.22 60.19 59.85 57.23 45.42 38.12 48.13 51.70 49.65 49.41 50.42 50.68 52.37 52.40 53.57 51.49 47.84 48.36 46.64 49.98 47.62 46.76 48.18 48.47 48.87 46.65 46.53 46.31 44.09 38.55 42.73 42.55 42.83 46.61 49.68 52.40 54.54 54.75 55.42 56.31
53.57 52.78 50.03 55.28 55.95 60.34 60.00 55.73 44.34 40.22 51.37 47.17 48.23 49.67 48.88 48.10 49.00 49.60 48.29 47.07 44.54 41.31 41.51 45.93 46.31 48.82 49.18 45.71 48.13 47.02 44.20 36.59 35.72 37.19 36.82 45.15 42.82 45.96 51.66 52.67 52.84 53.28 54.00 55.37 56.16
52.13 49.96 53.65 56.72 60.24 59.77 57.04 48.55 39.98 47.78 47.42 51.51 50.13 49.71 47.24 49.33 48.91 48.65 47.79 45.76 48.65 46.95 43.64 41.71 40.24 47.25 49.16 46.53 44.57 45.17 44.61 38.84 31.92 34.95 38.35 45.55 41.19 45.66 52.91 54.09 54.41 54.59 55.00 55.45 55.44
49.84 57.37 58.23 59.99 60.57 59.29 52.21 44.07 44.31 46.84 49.14 47.78 48.51 46.23 46.92 48.58 48.20 48.12 47.10 46.62 49.24 49.23 43.23 42.33 42.41 49.98 50.87 51.41 49.80 45.70 42.55 47.14 40.63 41.89 38.62 41.47 45.38 49.93 52.44 52.72 53.76 53.43 54.09 54.34 54.37
49.92 56.13 58.03 60.82 60.66 56.61 50.05 45.22 47.78 49.88 49.63 48.81 44.20 46.95 43.47 46.34 46.23 46.22 45.88 49.20 48.10 50.23 51.28 46.80 40.27 47.42 49.24 50.80 50.27 47.53 47.99 39.55 41.03 32.88 32.34 39.24 41.45 42.84 48.23 49.83 51.26 52.26 53.20 54.24 55.48
51.79 54.53 58.51 61.14 59.86 53.87 46.74 47.89 48.64 51.11 50.48 47.78 46.70 46.03 46.32 44.87 45.80 44.52 44.76 48.15 49.61 48.81 50.28 48.07 44.48 43.28 47.23 45.27 44.46 45.52 43.54 44.04 43.26 40.43 33.79 33.41 38.84 51.43 48.68 50.73 50.83 52.06 53.36 54.22 54.60
54.89 50.24 59.85 60.86 51.29 53.25 48.68 50.23 45.74 49.18 51.18 49.50 49.43 47.91 46.43 46.28 44.56 44.46 43.86 46.39 49.81 49.72 45.13 47.68 44.38 39.17 41.60 47.46 49.11 48.11 45.59 44.64 38.61 37.28 40.66 39.30 38.63 51.36 52.10 51.58 52.84 52.13 53.56 54.23 55.01
50.85 52.68 59.63 58.89 46.15 48.55 51.30 49.78 49.71 48.38 48.74 48.42 47.23 48.27 49.19 45.73 41.80 44.92 45.02 49.00 49.16 48.01 45.68 47.03 41.80 36.21 38.78 44.31 46.90 44.08 45.69 46.04 44.35 42.69 37.80 35.12 38.27 49.97 50.72 49.19 50.69 51.03 52.25 53.15 54.07
50.81 47.90 53.28 53.92 53.53 49.72 48.18 46.98 47.27 50.53 47.38 48.55 47.70 48.50 46.71 44.99 46.54 43.43 44.27 46.93 48.55 47.81 48.50 47.05 42.67 38.20 33.77 38.65 42.49 39.70 42.81 44.20 41.99 37.70 38.11 39.05 41.14 45.31 47.79 48.40 50.01 51.79 52.20 53.04 52.78
51.81 49.22 50.42 46.67 48.59 48.68 47.98 47.04 45.42 44.41 48.18 48.20 46.25 45.86 44.56 40.84 43.19 42.79 44.73 45.92 47.03 47.93 47.19 45.70 36.87 39.42 40.38 41.31 41.24 41.22 40.99 41.63 40.68 41.72 37.75 40.96 40.99 44.80 47.31 47.91 49.41 51.07 52.29 51.20 50.90
47.77 47.52 49.92 47.27 48.77 46.99 44.16 45.19 44.63 45.28 44.52 44.21 43.61 45.14 45.18 40.84 41.99 39.08 41.96 42.96 41.65 46.03 43.66 45.51 36.85 38.92 37.61 40.37 40.64 38.41 41.00 41.63 42.18 42.63 42.54 42.92 42.69 48.37 49.20 49.39 49.14 49.84 50.19 49.93 50.90
51.80 53.27 48.72 46.13 47.29 45.21 46.32 45.93 44.60 45.14 46.16 46.53 45.22 43.54 42.67 43.96 45.89 46.54 47.34 46.59 45.33 42.62 41.55 40.58 37.98 37.00 32.80 39.34 38.65 35.32 41.25 42.14 43.02 44.38 43.76 39.84 44.04 47.16 46.21 47.10 48.69 49.33 49.99 49.78 50.07

GFSSW_sfc_wetblb_105.txt.gz
Wetbulb
56.48 56.36 56.67 56.28 55.33 54.68 54.49 54.52 54.45 54.49 54.63 54.57 54.61 55.30 55.43 55.40 55.27 51.90 46.43 51.22 53.52 59.93 60.78 51.11 51.59 52.08 50.01 47.89 48.60 47.49 38.75 37.35 41.06 43.43 45.53 50.42 48.72 51.80 57.22 55.82 56.60 56.95 57.16 58.88 60.35
56.28 56.55 56.08 55.86 55.47 54.84 54.16 54.27 54.22 54.20 54.23 54.20 54.89 55.25 55.03 55.29 50.66 48.15 55.31 61.36 63.41 64.33 51.44 48.98 48.20 50.65 46.50 46.14 46.34 43.35 39.61 41.34 46.95 48.16 46.72 49.38 48.31 49.23 51.17 52.68 53.48 55.21 57.97 58.75 58.53
55.49 55.94 56.15 56.02 55.93 55.04 54.63 54.46 54.05 54.07 54.11 55.15 55.19 55.06 55.00 53.95 47.94 49.76 64.37 61.76 64.62 61.25 51.05 49.25 49.60 48.79 44.40 45.49 44.82 43.46 41.84 46.78 48.53 49.77 49.20 47.74 48.31 49.85 49.04 47.78 51.70 53.91 55.09 55.35 56.04
54.75 55.00 55.22 55.66 55.87 55.78 54.92 54.47 54.60 54.45 54.30 54.43 54.72 55.02 55.43 51.21 44.46 55.81 66.38 63.79 65.03 54.01 49.77 46.92 46.68 43.40 42.28 41.91 45.85 42.44 46.79 48.09 48.99 50.62 48.66 47.46 50.28 49.34 48.62 48.98 52.52 52.71 53.73 53.71 52.81
53.98 54.29 54.43 54.59 55.35 55.54 55.84 54.55 54.37 54.49 54.31 54.17 54.00 54.54 51.90 47.22 47.66 60.39 65.29 64.40 56.76 51.90 48.51 46.57 47.51 45.85 42.12 44.08 45.03 43.87 46.25 48.82 49.87 49.03 47.28 49.88 48.67 48.42 47.79 51.72 53.12 52.81 53.12 51.91 51.74
54.44 53.82 53.81 53.94 54.39 55.13 55.56 55.71 54.16 54.60 53.79 53.82 54.26 55.10 49.38 42.23 57.43 60.66 56.94 54.41 52.72 50.69 49.42 48.65 48.31 48.32 45.44 44.88 43.13 46.29 47.18 47.74 48.38 47.79 47.35 46.66 47.38 48.42 49.68 51.79 51.49 51.99 50.87 50.57 51.17
54.55 54.43 54.19 54.02 54.00 54.52 54.94 55.00 54.12 54.15 54.69 54.63 54.82 54.36 48.57 47.06 57.11 56.75 55.38 51.94 52.74 53.36 53.42 53.90 52.30 47.90 48.14 44.05 47.02 46.92 43.50 45.80 46.97 46.84 46.33 48.00 44.57 45.35 49.03 50.72 49.93 50.83 51.79 51.87 51.97
54.57 54.45 54.28 54.11 53.73 54.34 54.11 54.30 54.85 54.80 55.07 55.18 55.20 52.42 46.29 58.21 56.39 54.73 55.59 55.35 56.27 54.30 55.90 54.30 51.94 49.97 47.11 48.06 47.44 44.23 41.99 36.83 43.82 47.12 47.90 45.85 40.28 47.71 50.29 49.18 48.99 50.36 50.97 52.24 52.41
54.93 54.60 54.48 53.61 53.29 53.57 53.71 53.38 55.30 55.07 55.36 55.18 52.13 49.15 48.07 58.13 53.21 53.35 55.10 55.09 56.28 55.71 53.00 56.75 52.11 48.02 48.26 42.36 39.42 40.87 36.37 39.38 42.72 47.69 47.33 46.01 41.68 47.51 49.55 49.20 49.56 49.51 50.04 50.56 50.41
55.20 54.77 54.60 54.20 53.38 53.36 52.96 53.87 55.90 54.71 54.39 55.41 54.92 48.15 52.61 52.98 55.33 54.39 51.39 56.72 53.65 51.42 51.44 49.88 45.97 42.30 41.17 37.90 32.75 37.33 38.38 41.00 41.72 45.35 45.73 43.83 43.20 46.47 47.89 49.46 49.05 49.36 50.11 50.72 51.24
55.48 54.95 54.64 54.40 54.03 52.80 50.73 49.96 51.51 49.73 52.73 49.51 50.84 50.20 53.59 57.51 55.45 51.18 51.73 54.42 54.06 49.45 42.61 46.03 40.02 37.22 40.79 43.03 43.83 43.50 42.04 40.60 43.31 46.45 44.42 41.57 42.92 45.16 47.51 46.42 47.06 47.97 49.02 49.82 50.88
55.15 55.17 54.81 54.32 53.65 52.68 49.63 46.34 51.97 51.96 47.40 54.24 54.28 53.65 55.95 57.18 51.76 51.69 51.40 49.57 49.24 43.33 45.60 42.51 38.97 45.15 47.70 46.94 45.29 43.89 41.40 40.80 43.98 46.66 43.90 42.68 42.57 45.58 47.01 46.63 47.46 48.01 48.48 49.48 50.95
54.69 54.53 54.42 53.96 53.09 49.76 47.29 49.62 54.81 54.78 45.51 49.70 53.95 53.26 52.90 54.12 50.23 50.36 48.84 48.43 47.35 44.11 43.73 40.37 44.02 48.75 47.55 45.47 44.30 42.92 41.18 41.67 41.77 45.19 44.87 42.60 40.49 42.91 47.05 47.78 48.83 49.37 49.50 50.37 50.63
54.37 54.14 54.10 53.32 48.92 51.17 50.61 54.75 53.68 54.58 40.26 46.84 50.27 52.65 53.85 52.96 48.72 54.22 53.64 49.54 47.05 43.88 44.78 43.53 47.53 47.07 46.05 44.97 44.59 39.16 45.22 44.68 44.37 41.01 34.25 42.09 33.66 40.30 44.68 46.28 48.24 49.28 48.89 49.49 51.04
54.06 54.32 53.77 52.72 46.67 48.14 55.02 56.92 55.92 51.96 31.51 49.38 49.24 54.74 52.90 49.19 49.97 50.00 54.44 50.41 44.67 45.00 44.63 42.83 44.66 43.57 42.86 43.99 45.78 42.59 46.61 43.78 43.40 39.05 36.00 38.79 33.28 37.59 44.05 43.79 46.06 48.03 50.05 49.77 50.30
53.96 53.90 53.32 51.30 48.43 50.34 54.50 54.94 53.13 40.35 33.96 46.56 50.06 48.23 47.02 48.90 49.51 50.01 50.56 52.00 50.96 45.86 45.63 44.57 48.75 45.75 44.84 47.02 46.85 47.70 44.21 42.80 40.66 37.02 31.42 36.50 35.95 35.65 40.96 43.99 46.57 50.04 51.47 52.37 52.24
53.86 53.61 51.65 51.14 50.03 56.32 56.73 51.53 37.90 35.47 50.50 46.30 45.85 47.55 46.52 46.03 46.97 47.42 46.52 44.38 41.02 37.76 38.88 44.14 45.07 47.33 48.41 43.32 45.44 43.20 37.42 29.97 28.60 29.86 30.39 40.46 38.19 39.31 44.56 50.46 50.74 49.61 50.93 52.07 51.25
52.77 51.41 50.86 51.55 53.83 54.53 52.47 44.07 34.14 46.13 46.34 51.07 49.01 47.60 44.30 47.11 46.23 46.96 45.36 42.08 45.40 43.29 39.62 37.83 36.93 45.72 48.99 45.14 41.74 41.69 39.85 32.60 26.05 26.31 31.66 40.85 34.37 40.37 49.66 51.46 52.17 52.84 50.97 51.98 50.75
50.90 51.39 53.20 55.41 55.52 54.55 47.58 37.49 42.36 46.18 48.03 46.80 47.40 44.03 44.24 47.93 47.83 46.50 44.44 43.75 47.22 47.51 40.50 38.81 40.03 48.89 49.88 50.20 47.66 42.84 39.74 43.39 35.42 36.04 30.75 35.14 40.90 46.33 49.77 50.33 51.05 51.73 51.91 50.20 49.01
47.13 48.04 53.88 59.04 57.82 53.03 44.54 41.76 47.03 49.44 48.96 48.10 42.05 45.85 42.34 45.11 45.04 44.04 44.26 48.46 47.00 49.55 47.79 44.04 37.26 45.78 47.54 48.55 47.98 44.12 45.82 37.83 36.78 27.29 25.06 33.55 35.82 37.70 44.11 46.69 49.26 49.89 49.80 49.59 48.92
46.94 48.97 55.47 58.31 56.70 49.15 41.24 45.04 48.21 50.29 49.75 46.57 44.70 44.02 44.66 44.25 44.14 42.74 44.24 47.03 48.24 46.78 46.94 43.13 39.74 41.30 44.60 42.17 40.10 41.17 40.78 40.20 38.28 36.66 28.24 24.82 32.05 44.05 46.12 47.36 46.76 47.72 49.94 50.12 50.47
46.98 46.46 56.50 57.89 46.34 47.88 45.03 48.04 48.36 48.74 50.68 48.81 48.72 46.57 44.17 44.21 42.43 42.16 43.12 45.00 49.19 48.14 42.03 42.79 39.72 35.48 39.25 44.79 46.57 42.97 40.16 41.80 36.07 34.01 34.75 30.54 33.96 47.10 47.42 46.44 46.64 46.61 49.11 50.17 50.07
43.28 48.49 57.31 55.71 41.73 44.24 49.02 47.57 49.32 48.07 47.69 47.39 46.29 47.09 46.43 42.20 37.57 43.22 43.66 47.87 47.76 46.64 43.75 42.93 36.72 30.19 33.69 38.71 43.73 40.85 42.19 41.07 41.98 40.21 36.23 33.95 34.28 46.54 47.21 47.61 46.21 45.68 48.33 50.85 51.56
44.66 44.53 50.39 51.19 49.62 46.00 46.17 44.82 45.26 49.60 46.95 47.77 46.07 46.60 43.01 40.63 42.49 39.96 42.50 46.75 47.66 47.15 49.96 46.40 37.97 34.82 29.07 34.83 38.83 36.93 40.24 41.45 39.65 35.24 36.60 36.26 37.48 42.01 43.48 44.43 45.85 46.47 47.50 49.28 49.50
46.65 46.45 47.98 42.34 45.20 46.00 45.56 44.90 43.76 43.89 47.17 46.63 44.17 44.85 41.59 35.60 38.40 38.32 42.47 42.75 46.73 48.60 45.08 40.91 33.68 36.35 37.32 39.14 39.01 37.66 37.71 38.17 36.41 37.29 34.02 37.17 37.95 41.31 43.07 43.33 44.57 45.77 47.20 48.32 49.24
45.25 44.36 46.11 43.70 46.63 45.01 43.40 42.40 43.52 44.46 44.08 43.29 41.33 43.70 41.87 36.38 37.60 35.61 38.12 38.51 38.03 42.74 41.62 43.80 34.54 35.78 34.47 37.92 38.35 36.36 38.35 38.93 39.12 38.99 38.38 38.82 38.07 44.06 46.09 47.23 45.70 44.84 46.62 46.67 47.05
49.58 49.92 45.38 43.83 43.55 42.88 42.61 44.52 43.75 44.07 45.42 45.46 43.20 40.86 39.86 41.16 42.99 42.19 41.69 41.61 40.63 37.73 37.62 39.01 37.66 35.36 30.71 36.31 35.53 29.65 35.99 38.07 39.72 41.49 40.42 36.36 39.71 45.61 43.76 45.12 43.55 43.42 45.11 46.12 46.58

GFSSW_sfc_wetblb_108.txt.gz
Wetbulb
56.28 56.47 56.52 56.06 55.40 54.98 54.25 54.02 54.10 54.17 54.15 54.38 53.92 54.25 54.54 54.91 54.88 50.94 45.76 49.23 51.45 58.42 60.27 50.59 50.97 52.18 48.72 46.94 48.00 45.46 37.52 35.28 39.77 43.18 44.70 48.40 47.09 51.17 51.94 54.52 55.16 56.92 57.22 58.65 60.98
55.25 55.73 55.87 56.12 56.04 55.27 54.57 54.24 54.05 53.74 53.63 53.63 54.19 54.44 54.31 54.79 49.97 47.21 53.01 58.23 60.72 62.90 51.19 47.32 45.91 48.96 44.16 44.91 45.60 41.19 36.01 39.10 45.16 46.50 45.12 47.91 45.69 48.11 49.30 49.39 51.81 54.30 57.23 58.33 57.93
54.58 54.84 55.15 55.20 55.64 56.00 55.07 54.44 54.08 54.31 54.13 54.03 54.00 53.94 54.10 53.64 45.66 47.52 59.84 60.31 61.45 62.37 51.48 49.35 47.24 46.32 43.10 42.55 42.57 41.39 38.89 43.46 46.84 48.19 47.09 46.50 46.86 48.27 47.21 45.91 49.03 49.79 52.19 52.83 54.31
54.42 54.40 54.71 54.51 54.78 55.03 55.59 55.63 54.25 54.39 54.63 54.26 53.72 53.73 54.84 50.33 40.97 54.86 65.94 63.01 64.16 58.18 49.52 46.96 44.08 40.30 39.84 40.45 43.55 38.12 43.79 44.98 46.88 48.38 47.34 46.84 48.42 47.31 46.95 47.91 51.38 51.49 52.48 52.05 50.68
54.40 54.49 54.43 54.11 54.01 54.63 54.75 55.08 55.03 54.08 54.37 54.11 53.55 53.20 50.44 45.13 44.59 54.27 66.33 63.28 60.69 50.41 47.01 44.76 41.87 43.49 40.49 41.56 41.86 39.86 43.39 45.31 47.39 47.74 46.70 47.68 47.07 47.91 47.76 50.65 51.33 51.16 52.46 50.70 50.54
54.90 54.52 54.57 54.31 53.99 54.39 54.72 54.67 55.00 53.70 54.32 54.02 53.89 54.14 48.05 37.61 50.79 60.15 58.87 57.61 52.15 48.39 47.13 44.94 46.09 47.69 44.85 43.70 41.61 43.94 44.33 45.06 45.81 46.29 45.29 45.57 46.66 47.16 48.90 51.13 50.61 49.60 49.36 49.71 50.18
55.52 55.36 54.90 54.74 54.46 54.40 54.62 54.31 54.05 54.51 53.72 54.48 54.25 53.92 47.92 43.82 54.18 57.50 53.25 49.20 50.36 50.49 48.33 48.32 47.99 46.99 45.79 44.82 45.31 44.29 41.18 43.57 44.68 45.44 44.75 46.51 43.61 44.80 48.84 49.83 49.03 49.13 48.80 49.64 50.10
55.78 55.54 55.48 55.44 55.22 54.35 54.25 54.00 53.63 55.07 54.47 54.51 54.82 51.70 44.42 55.18 53.71 51.81 51.97 51.22 52.12 51.66 52.48 53.78 51.99 47.25 46.22 46.74 45.88 41.80 40.28 36.08 42.22 45.49 46.38 45.21 40.39 45.83 48.43 47.96 47.47 48.37 49.22 51.02 50.90
55.82 55.46 55.48 55.30 55.42 54.75 53.97 53.21 53.94 56.22 55.04 54.86 50.35 47.13 45.34 57.96 54.60 54.50 53.79 53.13 52.85 51.71 51.33 54.89 51.12 46.75 46.65 40.88 36.97 38.10 34.40 37.78 41.97 45.29 44.69 43.24 41.02 46.18 47.98 47.32 47.16 48.10 48.08 49.07 49.70
55.26 55.26 54.97 55.05 54.93 54.55 53.53 52.53 54.00 54.90 54.25 54.56 53.33 45.51 49.28 51.60 54.03 52.58 54.16 54.75 53.02 52.46 49.61 48.61 43.77 40.96 39.34 36.95 32.05 35.62 36.06 38.54 39.04 43.09 42.95 41.84 42.31 46.04 47.08 46.24 46.43 47.26 47.40 48.54 48.92
55.59 55.05 53.87 54.34 54.52 53.79 50.69 46.47 49.71 48.62 50.10 46.65 48.39 47.94 51.99 56.71 56.66 52.42 50.74 50.25 52.35 47.02 41.21 43.96 38.82 35.98 38.64 40.15 41.55 40.70 38.83 38.41 41.71 44.72 42.03 40.63 40.97 43.26 45.35 43.93 45.27 46.02 46.46 47.47 48.82
55.24 54.38 53.87 53.91 54.06 53.77 50.32 43.67 48.77 48.61 45.21 52.35 52.18 51.26 52.64 55.77 51.27 49.30 50.21 45.20 47.75 40.99 42.63 39.99 36.24 41.71 44.11 43.61 42.33 41.14 38.81 38.39 41.33 44.53 42.68 40.69 40.79 43.25 44.16 44.75 45.69 46.43 46.87 47.35 47.68
54.40 53.77 53.52 53.36 53.61 49.68 46.31 46.70 50.98 52.12 43.12 49.03 53.06 52.03 52.17 53.64 50.44 48.73 47.39 46.45 46.00 42.73 40.78 37.78 41.58 45.83 44.47 43.21 42.27 40.93 38.91 39.18 39.76 43.55 42.60 40.72 38.28 40.32 44.22 45.64 47.09 46.82 47.27 48.09 48.25
52.98 53.30 53.24 53.00 48.37 46.59 46.61 52.15 51.22 50.69 38.33 44.46 47.67 51.96 52.89 52.46 47.99 53.78 48.64 45.73 44.26 42.39 42.49 40.43 45.03 44.42 43.05 42.44 43.33 38.89 43.47 42.92 41.87 38.66 33.27 40.67 31.82 37.06 41.60 43.38 45.53 46.28 45.97 46.48 48.22
53.00 53.22 52.88 53.13 47.41 44.70 51.70 51.92 50.35 48.73 29.39 49.04 48.38 54.78 52.23 48.33 48.70 49.14 52.99 48.60 43.10 43.54 42.33 39.94 41.86 41.73 40.74 42.03 44.41 40.48 44.89 42.51 41.74 36.96 33.54 36.47 31.61 35.61 40.03 40.98 43.07 45.00 46.87 48.27 48.56
52.77 53.01 52.70 49.39 47.95 48.03 51.23 51.28 50.22 39.30 32.00 44.96 48.18 46.77 46.77 48.63 48.60 48.94 49.11 50.15 49.77 44.78 43.13 42.63 46.86 44.55 43.46 45.47 45.12 45.71 41.96 39.45 37.15 34.13 28.01 33.92 33.46 32.54 37.97 40.77 43.32 46.74 48.91 50.29 49.07
52.81 53.37 51.38 50.90 45.05 50.86 50.25 48.53 36.77 33.00 48.95 44.10 43.92 45.53 44.74 44.50 45.95 46.18 44.60 42.25 39.23 35.57 35.93 41.80 42.98 45.10 46.45 41.98 43.48 41.86 35.81 28.29 26.61 26.59 26.89 37.42 34.63 35.02 42.21 46.54 47.56 48.51 48.36 48.10 49.07
52.39 51.48 49.20 50.30 49.64 49.67 49.04 41.96 31.17 43.63 45.21 50.90 48.32 45.21 41.83 44.52 44.29 44.69 42.80 39.41 42.97 40.76 36.31 35.37 35.28 44.70 47.84 43.92 40.70 38.36 35.90 28.52 23.47 24.17 28.18 38.10 31.92 38.02 46.60 49.79 50.45 49.68 48.29 48.25 47.23
50.78 46.36 47.92 50.27 51.11 50.58 45.34 35.23 37.76 45.06 47.57 45.85 46.61 42.03 41.98 45.20 44.96 43.60 41.59 41.16 43.28 43.11 36.01 37.62 38.30 47.56 49.49 49.52 46.40 41.45 36.02 39.06 33.01 32.64 27.80 32.55 37.74 44.32 48.74 48.01 49.33 49.02 48.95 48.34 47.31
46.80 44.32 47.16 55.26 53.51 49.88 42.62 39.63 43.79 50.08 48.38 47.70 41.41 45.29 41.68 44.06 44.43 43.36 42.07 46.86 45.40 46.98 45.88 41.65 36.18 44.84 46.56 47.13 46.19 42.96 44.95 35.45 33.62 25.96 23.53 31.06 33.83 36.74 42.88 43.72 46.57 46.44 47.12 48.64 49.00
43.25 45.69 53.66 56.18 54.16 46.29 39.28 43.47 47.96 51.49 49.51 46.24 43.67 42.44 42.51 43.16 43.62 43.02 44.05 44.68 47.76 45.17 45.44 40.65 37.96 39.54 43.07 40.56 38.49 39.21 37.71 38.70 37.30 35.64 27.34 23.52 30.43 42.15 43.66 44.49 44.16 46.66 47.39 46.57 48.32
42.36 42.82 54.23 55.32 43.45 44.09 41.81 47.97 48.81 49.04 50.35 48.39 47.20 45.25 42.65 42.13 40.92 40.46 41.88 43.22 47.50 46.31 40.60 40.98 37.89 34.48 38.01 43.33 44.35 40.42 37.18 38.64 33.07 30.21 33.47 27.25 29.80 45.29 43.21 43.09 44.43 44.72 48.42 49.71 51.25
39.94 42.61 53.60 53.05 39.70 40.66 47.39 46.58 49.00 48.59 46.91 46.03 45.00 45.60 44.56 40.69 36.94 41.56 42.33 46.72 46.38 45.43 41.90 40.38 34.02 28.04 30.79 38.00 41.64 39.37 40.22 41.69 40.54 39.79 35.99 34.07 35.14 45.20 45.54 44.73 45.46 44.01 45.94 47.69 49.53
40.68 40.13 46.41 47.88 47.45 43.57 44.21 44.30 44.40 49.89 47.28 46.48 44.54 45.02 41.63 39.16 39.97 38.35 40.85 44.95 46.76 46.29 49.66 44.34 35.37 31.23 26.12 31.95 36.42 35.04 37.52 37.60 38.11 34.59 35.13 36.01 35.88 40.59 43.11 43.52 43.70 44.35 45.38 45.36 46.47
42.50 42.82 44.98 40.43 43.12 42.29 43.31 44.41 42.78 43.61 45.26 44.74 42.03 42.17 39.91 34.95 36.50 36.57 39.49 40.51 45.19 48.06 42.36 38.09 31.42 34.18 35.54 37.54 37.54 36.29 36.12 36.73 34.29 34.45 31.74 34.40 35.28 38.11 40.77 42.25 44.99 45.62 44.91 45.29 45.71
43.06 41.25 43.27 42.94 45.35 43.39 41.54 40.96 42.97 42.83 43.08 40.79 39.20 41.62 39.47 35.87 36.64 34.33 36.37 36.51 36.05 41.46 38.28 38.59 31.59 34.64 32.84 37.48 36.69 34.58 36.79 37.32 37.30 37.00 36.51 37.07 36.32 41.91 42.11 41.60 42.30 42.67 43.96 43.33 43.86
47.53 46.45 42.13 41.05 42.31 42.04 40.04 42.68 42.38 42.71 42.94 42.72 40.61 38.39 38.36 39.31 39.84 38.36 38.90 39.60 38.86 36.91 35.97 35.16 33.88 30.79 27.25 34.23 33.68 28.30 33.06 35.28 36.64 38.35 37.54 33.79 36.95 42.08 40.87 41.95 40.19 40.92 42.66 43.29 43.80

GFSSW_sfc_wetblb_111.txt.gz
Wetbulb
55.16 55.40 55.49 55.55 55.93 55.47 54.97 54.87 53.95 53.92 54.08 54.00 54.18 53.68 54.04 54.12 53.97 49.78 45.65 47.72 49.87 58.73 60.08 53.04 52.02 50.54 47.34 45.97 47.67 46.16 37.67 35.83 39.83 42.37 42.96 46.10 45.48 48.48 50.05 50.43 53.44 55.72 58.15 60.25 65.67
54.71 54.86 55.00 55.04 54.89 55.55 55.52 54.59 54.55 54.22 53.77 53.63 53.73 53.96 53.99 54.07 48.73 45.98 51.77 57.10 58.67 61.50 49.74 46.12 46.23 48.32 44.00 44.95 45.13 41.20 35.46 39.73 44.57 46.16 44.47 44.67 44.61 46.20 47.99 49.05 50.52 53.76 55.63 57.12 67.79
54.56 54.48 54.58 54.88 54.45 54.58 54.91 55.44 54.54 54.62 54.32 54.26 53.77 53.76 53.32 53.09 44.71 43.16 57.67 58.89 60.74 62.24 50.98 48.03 46.72 47.34 41.35 43.68 42.99 40.09 38.39 43.45 45.63 47.54 45.60 44.97 46.36 47.63 47.17 46.08 48.58 49.32 50.68 51.87 53.35
54.89 54.75 55.14 54.97 54.58 54.29 54.35 54.64 54.87 54.62 54.56 54.57 54.02 53.39 53.75 49.35 34.25 50.82 64.91 60.37 61.10 57.59 51.24 46.00 43.47 40.70 40.16 40.36 43.09 39.97 43.22 44.52 45.54 47.25 43.91 44.55 46.55 46.18 45.52 47.12 50.23 50.15 51.46 50.96 49.81
55.43 55.49 55.58 55.37 55.14 54.55 54.30 54.34 54.59 54.47 53.69 54.17 53.41 53.04 50.62 43.02 41.38 48.38 66.36 63.90 57.92 54.55 47.94 44.48 41.21 41.17 40.20 41.69 41.21 38.74 42.90 44.68 45.77 45.54 44.10 45.92 45.28 45.57 45.68 49.37 49.79 49.69 50.48 49.48 48.97
55.58 55.81 55.69 55.59 55.51 55.33 54.96 54.67 54.36 53.91 53.62 53.77 53.50 53.25 46.60 35.36 45.13 56.46 58.07 57.45 56.33 47.97 46.17 44.18 42.92 44.86 43.33 42.53 40.63 42.55 43.07 44.25 44.17 43.73 43.61 44.29 45.60 45.06 47.18 50.32 50.00 48.58 48.01 48.26 48.60
55.76 55.84 55.80 55.66 55.37 55.06 55.26 54.52 53.97 53.62 53.97 53.75 54.16 52.29 47.82 43.23 51.91 55.49 56.06 53.26 51.77 49.70 46.52 46.19 46.40 46.69 45.07 41.96 43.87 43.05 40.04 42.05 43.21 44.13 43.62 45.02 42.70 43.80 48.16 49.32 48.27 47.72 47.59 47.88 48.69
55.66 55.04 55.60 55.66 55.26 54.84 54.90 54.52 53.95 54.02 54.18 53.95 54.41 51.59 43.90 52.78 52.51 51.76 49.81 48.47 49.61 49.27 49.40 47.93 47.64 44.73 44.12 44.91 44.04 40.58 39.14 35.27 42.08 43.99 45.30 45.13 39.82 45.49 48.03 46.57 46.35 46.90 47.27 48.00 48.71
55.20 54.77 54.47 54.48 54.40 54.81 54.68 54.13 53.60 54.90 54.99 54.38 50.68 46.83 42.37 55.94 53.57 54.13 51.76 49.90 49.56 49.28 48.98 52.91 49.05 45.68 44.95 40.93 37.66 37.75 34.19 36.53 40.84 44.43 43.95 42.03 39.08 45.03 46.72 46.05 45.47 46.13 46.69 47.31 47.31
54.76 54.10 54.42 53.87 54.01 53.72 53.85 52.92 52.51 55.01 54.32 53.91 52.53 45.21 46.64 49.21 53.69 54.15 52.24 52.63 50.57 48.34 48.00 46.94 43.12 40.44 37.77 37.24 31.54 35.11 35.13 37.39 38.66 42.53 41.99 40.19 40.37 43.78 46.38 44.95 45.44 45.74 46.23 46.80 47.52
54.95 53.97 53.77 53.80 53.74 53.65 52.15 45.53 47.97 46.00 49.48 45.55 46.99 46.39 49.64 55.58 55.61 50.82 52.98 51.10 50.62 46.79 40.69 42.24 37.93 35.30 39.25 39.92 40.71 39.54 37.53 37.23 40.06 43.21 40.92 39.78 39.76 42.43 44.37 41.90 42.79 43.94 44.99 46.02 46.73
54.05 53.83 53.31 53.15 53.19 53.42 51.89 43.57 46.23 47.43 43.54 50.06 49.95 49.73 52.14 53.82 49.95 50.89 51.50 45.86 44.67 39.71 40.71 38.37 35.36 40.81 42.29 41.75 40.47 39.37 36.56 36.23 40.09 42.49 40.46 39.55 39.71 42.25 42.94 42.17 42.99 44.30 45.02 45.71 45.52
53.29 53.04 53.09 53.08 52.55 49.75 46.99 45.51 50.51 49.34 41.39 47.51 51.38 50.65 50.77 51.88 48.53 49.58 46.95 44.97 43.63 40.10 38.75 36.20 39.73 43.77 42.07 40.23 39.75 38.20 36.37 36.99 38.13 41.79 41.08 38.89 36.97 39.54 43.12 44.13 45.05 44.73 44.88 45.70 46.01
52.86 52.76 52.88 53.12 47.70 45.71 44.92 50.18 50.40 48.79 37.40 42.82 47.90 50.97 52.52 52.39 47.88 53.01 47.61 45.10 42.73 41.05 39.82 38.27 42.35 42.24 40.58 39.92 40.58 35.65 41.97 42.00 40.19 37.03 31.69 38.51 29.40 35.92 40.03 41.33 43.04 44.70 44.02 44.84 45.98
52.36 52.32 52.76 52.81 47.63 44.98 49.23 49.40 47.88 45.93 29.06 46.36 47.09 54.39 51.99 48.09 48.36 49.04 49.38 45.72 40.94 41.73 41.23 38.79 40.15 39.96 39.10 40.36 42.51 39.25 43.10 40.92 40.53 35.64 32.23 33.61 30.23 34.43 37.84 39.30 41.58 43.38 45.22 45.78 46.03
52.31 52.28 52.63 50.18 48.22 48.36 50.05 49.11 48.47 38.01 30.33 43.76 47.20 46.21 45.40 47.05 47.18 48.10 48.24 49.35 47.47 42.61 41.21 40.98 44.36 42.86 42.12 43.95 43.63 44.21 40.00 37.49 34.53 32.14 27.18 32.46 32.47 30.97 36.15 39.37 41.27 44.29 48.11 48.33 47.86
52.15 52.21 51.09 50.96 43.76 47.99 47.30 46.21 37.01 32.10 46.58 42.36 42.74 44.65 44.17 43.64 45.10 44.97 43.25 41.20 38.75 36.02 36.45 41.25 41.12 43.55 44.98 39.77 41.43 39.19 33.25 26.30 25.47 25.32 25.91 34.22 31.75 33.52 39.69 43.91 46.00 46.55 46.28 45.70 45.93
51.23 50.64 49.59 50.20 49.53 49.92 46.87 41.61 31.23 40.93 44.25 49.97 45.99 44.04 40.53 43.08 42.74 43.76 41.29 38.18 41.01 39.95 35.53 35.50 35.00 42.54 45.65 42.92 39.24 36.21 34.71 27.67 23.34 23.67 27.36 35.60 30.30 35.38 44.92 47.09 47.90 47.50 45.71 46.25 45.95
50.38 44.96 44.66 47.90 50.41 47.71 43.67 34.52 35.80 43.49 48.02 46.64 45.83 41.17 39.63 43.34 42.58 41.70 39.74 38.83 41.74 41.21 35.34 34.34 35.94 46.20 47.59 47.88 46.43 39.85 33.85 36.57 30.89 30.75 27.30 31.02 35.77 41.72 45.10 45.37 46.62 46.36 46.77 46.06 45.64
47.41 43.26 44.40 51.04 50.79 48.08 41.65 38.07 42.29 47.84 49.58 47.70 41.32 43.57 38.48 41.19 41.58 39.17 38.92 44.30 43.59 44.36 43.78 40.35 34.76 43.42 45.51 45.99 45.48 43.39 44.39 34.60 31.90 25.71 23.32 29.04 31.76 33.82 41.16 42.29 45.07 44.72 44.89 45.62 46.17
42.20 41.67 50.69 52.04 51.47 45.11 38.24 41.27 46.85 51.25 49.63 46.10 43.66 42.37 42.39 42.32 42.55 40.95 41.11 43.57 45.53 44.14 44.30 39.61 36.94 37.65 40.81 38.75 37.43 38.36 36.08 36.76 35.21 31.70 25.21 22.81 29.36 40.34 42.62 42.06 42.36 43.76 44.41 45.66 45.93
43.07 37.54 52.58 53.90 42.63 42.41 41.54 46.04 47.02 47.95 49.94 47.57 46.86 45.05 42.28 41.90 39.92 40.71 42.02 43.84 47.06 46.66 40.11 39.83 36.54 33.01 35.92 40.31 42.82 38.65 36.62 36.54 31.84 30.53 29.77 26.83 28.27 42.07 41.66 42.18 42.99 43.42 46.22 45.93 49.66
40.02 40.00 51.08 52.81 40.06 41.41 44.93 46.88 48.59 46.46 46.19 45.74 44.09 44.72 44.10 40.66 36.86 40.88 41.53 46.04 46.95 46.04 41.87 41.21 34.06 27.04 28.01 35.57 38.71 37.02 37.65 38.95 36.90 36.34 34.58 33.05 31.77 43.36 43.84 43.28 43.26 43.27 44.40 45.65 46.92
41.31 39.17 46.75 48.76 46.76 42.68 43.45 44.03 44.18 48.71 46.93 46.33 43.65 43.98 41.09 38.74 39.59 39.09 40.28 43.87 46.32 45.56 48.08 43.20 34.14 30.00 24.74 29.94 34.28 33.00 35.76 36.58 34.87 29.73 33.50 33.92 34.67 39.75 42.08 43.48 43.77 42.95 42.73 42.89 43.52
41.12 42.66 44.42 40.46 43.12 42.79 42.46 43.54 43.36 43.02 46.22 44.60 41.43 42.04 39.87 35.36 36.11 35.45 38.39 40.25 44.79 46.51 41.78 37.10 30.24 32.48 34.22 35.94 36.18 34.92 34.49 34.55 32.91 35.31 30.78 31.79 34.08 36.97 39.62 41.23 43.35 40.98 42.82 42.78 43.40
42.15 42.31 44.63 42.29 45.01 42.87 41.20 40.06 41.85 41.84 42.01 40.26 39.09 40.37 39.42 35.49 35.71 33.91 35.80 35.42 36.42 40.34 36.80 36.26 30.60 31.62 31.18 35.87 34.67 33.07 34.72 34.94 34.74 35.16 34.51 34.95 34.07 39.43 39.57 39.03 40.52 41.08 41.68 41.51 41.96
46.57 47.56 42.42 41.25 41.73 41.42 41.11 40.35 41.77 41.08 42.16 42.63 41.10 39.20 37.88 38.44 39.07 38.63 37.39 38.16 37.67 37.11 34.84 33.77 31.94 28.19 25.34 32.59 31.73 26.78 31.18 33.16 34.46 35.95 34.97 30.71 34.65 39.88 38.94 40.07 39.09 38.87 40.65 41.52 42.33

GFSSW_sfc_wetblb_114.txt.gz
Wetbulb
55.04 55.08 55.03 55.27 55.26 55.12 55.61 55.34 54.66 54.64 54.26 53.75 54.09 54.42 54.08 54.00 53.65 50.23 45.39 47.98 50.41 56.82 60.42 53.92 51.41 49.99 47.87 46.27 46.86 43.78 36.96 35.55 38.73 40.32 43.34 45.99 45.20 47.95 48.71 48.03 52.38 54.57 57.14 60.12 69.30
55.06 54.83 54.96 55.20 55.25 54.76 54.86 55.10 55.21 54.59 54.49 54.02 53.59 53.59 54.23 53.83 48.98 45.54 50.73 56.11 57.44 59.71 48.16 48.17 47.40 47.76 44.20 44.13 45.04 42.72 36.32 38.57 43.40 43.73 42.71 44.42 46.21 46.35 46.82 48.22 49.32 52.74 54.14 67.54 68.80
55.30 55.57 55.60 55.81 55.77 55.00 54.67 54.87 55.10 54.93 54.41 54.63 54.20 53.71 53.52 52.23 43.39 42.02 56.29 57.34 58.47 59.94 46.98 46.96 48.96 47.03 43.33 43.52 43.18 41.06 38.39 43.45 45.14 44.94 44.23 43.66 44.73 46.57 46.24 44.48 47.13 48.30 50.09 57.64 64.71
55.75 55.80 55.60 55.47 55.47 55.73 55.36 54.94 54.88 54.75 54.72 54.11 54.42 53.30 52.55 49.57 32.33 47.43 62.52 60.40 60.02 57.30 47.28 45.26 44.31 43.43 42.41 40.46 42.61 39.62 42.85 44.51 45.03 46.76 46.06 43.66 45.15 45.36 46.86 47.55 49.08 49.68 50.63 50.31 57.63
56.00 55.95 55.67 55.44 55.30 55.07 54.83 55.47 55.15 54.47 53.84 53.45 53.61 53.07 49.64 42.05 40.84 46.59 64.45 60.43 56.22 52.84 45.81 43.06 41.02 41.37 40.30 42.56 42.35 40.23 43.16 44.56 45.72 45.30 43.47 45.37 43.53 45.02 45.83 48.96 49.28 48.47 49.59 49.14 48.92
55.72 55.11 55.53 55.48 55.22 55.29 55.36 54.86 54.97 54.34 53.82 53.53 53.53 52.69 45.38 35.37 45.60 54.76 60.40 55.77 54.13 47.86 45.20 43.42 42.03 44.49 43.02 42.21 41.58 42.38 43.69 44.44 43.55 43.51 41.71 42.77 43.95 43.95 45.87 49.37 48.71 47.78 47.63 48.29 48.45
55.73 55.69 54.76 54.70 54.87 54.94 55.18 54.69 54.63 54.30 54.04 53.79 54.19 51.24 46.57 42.10 50.67 54.89 54.90 51.49 53.13 47.59 45.41 44.82 45.09 45.41 44.86 41.23 42.85 42.07 40.29 42.00 42.16 43.00 43.03 42.70 40.82 41.69 47.35 48.53 47.89 47.24 46.80 47.13 47.61
55.52 55.16 54.65 54.36 54.37 54.63 54.75 54.79 54.34 54.31 54.06 54.11 54.91 50.26 42.56 51.70 51.60 50.73 51.39 48.01 50.40 47.79 47.59 46.86 45.99 43.63 42.53 44.03 43.33 40.40 38.70 36.20 41.41 42.90 44.10 43.95 37.32 44.84 47.57 46.60 46.03 46.18 46.34 46.96 47.13
54.98 54.49 54.83 54.29 54.00 54.15 54.34 53.87 54.10 55.80 54.79 54.75 50.58 46.84 40.62 53.75 52.06 53.33 50.29 47.38 47.93 47.59 47.44 49.87 46.09 43.18 43.57 39.96 36.58 37.31 33.61 36.04 40.37 44.09 43.36 41.45 37.90 44.47 45.06 44.38 44.29 44.98 45.74 46.45 46.79
54.86 54.46 53.71 53.77 53.77 53.77 53.77 53.87 52.82 54.93 53.57 52.88 51.85 44.69 45.97 47.19 53.08 52.04 50.70 49.39 46.93 45.88 44.13 44.35 42.35 39.42 37.35 36.27 30.54 34.93 35.39 37.07 38.18 41.89 41.09 38.30 39.22 43.03 44.92 44.51 44.62 44.77 45.36 45.91 46.29
54.27 53.63 53.31 53.34 53.11 53.59 52.24 46.53 47.80 46.53 48.86 44.46 44.82 45.84 47.74 52.88 53.94 50.68 51.37 49.72 48.94 44.52 38.60 41.53 37.15 33.89 37.55 39.58 40.60 39.60 37.56 36.96 39.20 41.91 39.60 37.76 38.22 41.70 43.48 42.14 41.85 42.74 43.60 44.81 45.74
53.93 53.44 53.30 53.71 53.01 53.09 51.43 45.12 44.58 45.20 41.86 48.31 48.68 48.36 50.96 52.27 47.96 49.61 51.75 45.81 44.01 39.05 39.72 36.70 34.16 40.27 42.23 41.07 39.90 38.33 36.26 35.86 39.73 42.07 39.82 39.52 38.99 41.11 42.70 42.81 43.27 43.21 43.75 44.82 45.92
52.92 53.42 53.30 53.42 52.80 49.62 47.57 45.90 48.75 47.86 39.00 45.78 49.23 48.11 49.37 50.81 46.88 47.99 48.91 44.57 41.35 38.04 37.00 34.87 38.49 42.85 41.59 39.48 38.75 36.63 35.05 35.93 37.08 40.35 39.37 38.41 36.31 38.65 42.56 43.04 44.12 44.60 44.42 45.33 46.07
52.37 52.18 53.18 52.95 47.19 46.43 44.80 49.01 49.14 48.03 34.95 41.22 46.46 49.82 51.01 50.45 46.48 52.22 47.97 45.54 41.15 38.50 37.75 36.81 40.43 40.91 38.84 38.25 39.14 33.44 40.50 40.82 39.30 36.15 31.54 37.81 29.10 35.26 39.25 40.75 42.52 43.79 43.36 44.57 45.70
51.93 51.88 52.71 52.53 48.15 45.35 47.46 48.02 46.97 44.30 27.34 44.53 46.73 53.42 52.14 48.02 48.10 47.44 46.42 43.09 40.36 40.48 39.54 36.86 38.83 37.62 36.69 39.19 41.13 38.12 41.95 39.55 39.14 34.56 31.79 32.50 29.94 33.65 37.25 38.60 40.91 42.40 44.37 46.67 47.20
51.09 51.53 52.01 49.78 48.60 48.15 48.77 48.18 46.78 35.82 28.31 41.75 46.55 45.34 45.21 47.39 47.90 47.75 45.58 46.44 45.25 41.10 39.85 40.03 42.50 41.55 41.34 42.30 42.11 42.48 38.48 35.75 33.01 31.05 27.00 31.41 31.40 30.12 34.68 38.06 40.33 44.43 46.51 48.38 47.49
50.93 50.95 50.11 50.09 44.00 46.85 47.65 44.65 35.80 31.21 44.27 41.27 41.32 44.38 43.87 43.57 44.12 45.21 42.45 41.25 38.22 33.67 33.44 37.71 38.68 41.48 43.52 38.19 39.89 37.46 32.24 25.58 24.78 24.43 25.30 32.11 30.53 32.72 38.39 41.79 44.05 45.16 46.11 46.05 45.90
49.93 49.55 49.52 48.85 49.55 48.01 45.81 40.21 31.69 38.69 41.38 48.80 44.83 44.43 40.60 42.34 41.96 42.49 40.17 37.03 40.10 40.25 37.00 34.38 31.65 39.83 43.41 40.69 37.32 35.11 33.91 26.89 22.71 23.34 26.08 33.67 28.82 34.48 42.51 45.71 45.83 45.82 44.87 45.24 44.27
49.74 47.09 43.55 45.14 49.03 48.11 43.13 35.66 34.30 40.01 46.97 44.69 44.64 39.98 38.77 41.92 41.47 40.77 39.19 38.40 40.51 41.06 35.98 34.69 36.25 45.77 46.41 45.49 43.22 35.73 31.50 35.04 28.83 29.11 26.00 29.03 34.40 39.92 43.52 43.93 45.15 45.35 45.84 44.84 44.93
46.50 43.92 42.67 48.55 50.07 45.67 42.19 38.13 40.31 47.11 48.29 46.48 39.99 42.15 36.80 40.30 39.42 37.63 38.22 42.62 42.76 43.17 42.89 40.48 35.84 43.22 45.52 45.49 44.32 40.28 40.72 32.56 30.16 24.90 22.99 27.50 30.10 32.38 39.57 41.14 43.97 44.31 44.32 44.98 45.76
46.04 38.83 47.24 50.28 49.32 44.02 38.54 38.98 44.02 50.06 49.29 45.53 42.30 41.56 41.48 40.85 40.62 39.03 38.88 42.32 44.57 42.51 42.74 39.36 36.69 37.57 40.53 37.66 36.07 38.16 35.52 34.57 33.38 29.70 24.50 23.18 28.53 38.83 40.94 41.55 41.13 42.07 44.36 44.60 46.38
43.90 34.60 50.20 49.70 42.10 41.05 38.80 43.92 45.76 48.13 49.31 47.32 46.36 44.30 43.00 41.13 39.61 40.34 40.03 41.63 46.13 44.73 39.01 38.76 35.71 32.62 34.98 38.75 41.53 37.49 35.77 35.22 30.33 28.95 27.69 26.57 28.07 40.51 41.81 42.12 42.32 42.15 44.18 44.63 45.18
39.68 39.73 48.35 52.22 38.26 38.38 43.53 45.38 47.27 46.35 46.46 44.88 43.53 45.45 44.30 41.10 37.99 40.88 40.84 44.35 46.16 45.12 40.57 40.49 33.97 27.86 28.35 34.74 38.00 35.65 35.99 36.95 35.03 32.62 30.48 30.61 30.29 42.44 42.52 42.71 42.94 42.46 43.62 44.03 44.72
41.54 36.08 45.50 48.43 46.64 42.92 41.93 42.30 43.53 48.50 46.99 46.71 43.18 44.12 41.24 39.29 40.56 39.54 39.96 44.62 46.25 45.26 48.01 44.97 35.24 30.24 26.79 28.32 33.71 32.38 34.53 34.88 32.41 28.47 29.47 31.46 32.93 38.60 40.79 41.52 41.32 41.05 41.55 42.14 42.17
42.08 40.63 44.02 39.67 42.88 43.11 42.76 41.54 42.07 41.90 45.84 45.99 42.00 41.94 39.59 35.80 36.59 36.58 39.01 41.78 43.57 45.58 41.35 38.24 31.39 31.74 32.54 35.24 35.08 33.96 33.96 33.57 31.66 31.85 28.69 30.41 33.65 36.66 38.99 39.61 40.36 40.87 41.75 41.89 42.60
41.31 42.04 44.04 42.00 43.42 43.06 41.43 40.11 41.88 41.89 41.14 39.89 39.19 40.44 39.57 35.92 36.09 34.60 36.09 37.00 37.72 40.26 37.77 36.17 31.04 31.07 29.51 34.37 33.69 32.35 33.70 33.81 33.38 33.59 32.96 33.43 33.23 39.30 39.75 38.85 39.57 40.39 41.11 41.06 41.70
44.70 47.84 43.57 41.08 40.96 40.98 40.37 40.06 39.29 42.64 42.56 43.16 41.36 39.33 37.12 37.40 38.51 38.15 37.80 37.72 39.27 38.14 35.22 33.62 31.98 29.29 26.41 31.55 30.66 26.38 31.05 32.48 32.64 34.13 33.83 29.63 33.84 38.03 38.31 39.73 38.80 39.42 40.96 41.55 42.02

GFSSW_sfc_wetblb_117.txt.gz
Wetbulb
55.43 55.51 55.36 55.51 55.88 55.80 55.33 55.24 54.92 54.93 54.87 54.45 53.61 53.73 54.57 54.47 54.23 51.21 46.96 50.76 52.64 56.71 58.00 55.14 52.17 51.27 50.76 48.19 49.48 48.85 47.67 44.35 44.08 44.42 47.12 50.06 49.76 51.44 53.03 51.88 56.22 59.45 60.59 64.96 72.53
55.69 55.73 55.77 55.90 55.64 55.65 55.72 55.38 55.15 54.96 54.86 54.87 54.33 53.72 53.45 54.07 50.12 46.45 52.76 55.56 56.98 58.18 53.76 50.72 48.51 49.12 48.52 47.07 47.00 48.92 46.81 47.71 48.19 48.22 47.55 49.26 49.47 50.40 51.29 51.73 55.51 57.32 67.81 70.73 71.59
56.14 55.62 55.63 55.85 55.82 55.58 55.57 55.23 55.38 54.86 55.13 54.83 54.68 54.11 53.61 52.48 44.70 45.36 55.58 56.98 57.45 58.78 52.55 52.47 51.31 52.60 48.92 47.48 46.23 45.52 44.70 48.52 47.30 48.38 49.64 49.31 49.23 50.79 50.57 50.63 53.16 56.00 65.44 69.99 70.67
56.58 56.08 56.41 56.33 56.13 55.66 55.26 55.28 55.57 55.28 54.71 54.48 54.27 54.03 52.62 49.17 36.94 50.57 61.55 58.21 58.51 57.86 50.65 49.37 49.91 50.95 51.50 47.31 46.29 43.38 46.31 45.85 47.34 48.69 49.64 48.49 49.55 48.93 49.74 51.64 52.89 53.43 58.08 69.00 69.78
56.21 55.72 55.60 55.84 55.97 55.70 55.74 55.09 55.17 55.32 54.53 54.11 54.12 53.59 49.64 43.10 43.65 50.87 57.70 61.89 56.20 55.57 48.79 48.40 48.18 51.30 49.66 49.61 46.95 44.23 45.06 45.84 48.64 48.51 48.47 48.78 47.54 48.24 49.49 52.36 53.80 53.80 53.71 58.90 68.50
55.66 55.89 55.46 55.00 55.05 55.10 55.48 55.30 54.76 54.31 54.35 54.52 54.09 53.44 47.11 39.26 49.84 57.01 60.73 57.50 55.03 51.68 48.32 48.27 49.08 50.20 50.30 47.47 47.42 46.56 47.04 46.65 46.86 47.45 47.87 46.19 47.25 47.90 50.08 52.62 52.70 53.02 53.76 54.54 56.69
55.78 55.59 54.90 55.05 54.68 54.76 55.11 55.01 54.52 53.90 54.57 54.79 54.57 51.24 46.18 45.49 52.69 54.46 58.13 55.35 55.75 50.19 46.64 49.11 49.69 49.57 48.65 44.28 48.32 45.85 42.76 44.78 45.32 45.77 45.78 47.00 44.88 45.61 49.80 52.29 51.69 52.56 53.79 54.01 54.81
55.84 55.30 55.09 54.86 54.52 54.39 54.75 54.69 53.66 54.68 55.26 54.87 55.02 50.17 43.72 53.61 55.29 53.61 56.28 54.08 55.33 50.42 49.43 49.69 50.28 49.34 48.68 48.92 45.95 43.23 43.57 40.01 46.21 45.81 46.98 46.60 41.76 48.18 50.96 49.88 51.17 52.36 52.79 53.16 54.90
55.42 54.93 54.81 54.38 53.91 54.10 54.01 53.80 54.29 55.89 54.26 55.06 51.97 47.65 43.07 55.23 51.74 54.66 54.64 51.34 50.48 50.18 51.17 50.38 49.22 47.03 48.25 45.28 43.10 43.68 39.24 40.64 42.92 46.32 46.50 46.03 43.79 48.14 49.91 50.33 51.17 52.20 52.90 53.34 54.41
55.06 54.56 54.27 54.03 54.07 53.95 53.73 53.48 53.29 54.41 53.57 53.20 51.54 44.65 48.08 47.81 53.26 53.93 53.96 51.30 47.53 48.66 47.76 47.13 46.26 43.35 44.72 43.38 36.97 39.69 40.26 41.80 41.59 44.89 44.94 44.68 44.64 48.01 49.78 49.73 51.12 52.35 53.07 53.02 53.46
53.79 54.03 53.66 53.83 53.87 53.40 52.07 49.27 47.31 46.60 48.53 45.54 45.76 45.88 48.05 52.23 55.47 52.28 51.74 50.20 48.90 46.68 41.91 45.06 40.79 38.65 41.86 44.83 44.55 43.80 42.32 41.35 43.66 45.57 44.80 44.77 45.80 47.88 49.96 49.31 50.41 51.70 52.10 52.53 53.34
53.50 53.31 52.94 53.37 53.56 53.15 51.31 45.01 47.13 48.20 43.97 48.71 48.49 48.25 50.49 52.69 49.36 49.88 52.93 48.43 45.19 40.64 44.54 42.03 38.72 43.95 45.98 45.40 44.19 43.58 41.96 41.20 44.00 45.49 45.14 45.06 45.07 48.83 49.33 49.61 50.79 50.63 51.35 51.52 52.90
52.44 52.63 52.47 52.95 53.11 51.23 47.57 47.28 51.75 50.76 43.80 46.36 49.05 47.61 48.70 51.11 48.18 48.01 50.75 49.17 44.34 41.68 43.05 40.30 42.56 46.63 44.87 43.41 42.56 42.80 41.87 41.20 41.46 43.77 45.25 44.17 43.08 45.55 48.83 48.58 50.05 51.23 51.49 51.91 52.71
51.70 51.71 52.43 52.61 49.52 48.66 46.26 50.80 52.33 51.06 39.86 42.88 45.93 49.15 50.68 51.87 47.99 53.31 52.69 49.79 45.80 43.46 43.59 43.74 44.98 44.57 43.81 43.18 44.27 40.24 44.40 43.90 42.62 41.28 38.25 43.38 37.12 42.80 46.27 47.82 48.84 50.65 50.80 53.26 54.95
51.58 51.43 51.77 51.95 47.72 45.11 49.47 51.61 50.43 49.09 30.54 45.60 47.01 54.76 52.48 48.98 49.16 47.37 52.33 48.97 44.18 43.55 44.23 41.98 42.48 42.78 42.13 43.12 44.64 41.97 45.15 44.25 43.66 41.45 40.42 40.04 38.98 42.20 43.61 45.27 48.02 49.89 51.71 54.35 55.86
50.90 50.92 51.30 48.66 49.47 50.12 52.01 51.39 49.97 38.32 30.47 42.31 47.90 46.46 46.38 48.47 48.38 46.33 47.01 49.16 49.96 45.31 45.86 44.65 46.88 45.81 44.94 46.02 45.90 46.42 43.49 42.09 41.39 40.85 36.36 40.33 39.97 40.43 42.93 45.89 47.11 50.60 53.07 54.44 54.57
49.61 51.04 49.45 49.03 44.56 51.32 50.51 46.58 37.71 33.34 44.74 42.58 43.56 46.25 45.64 45.15 45.92 45.52 43.22 42.80 41.80 39.42 39.87 42.99 44.20 46.63 47.22 43.99 45.44 44.83 42.66 36.07 34.51 34.89 34.29 38.77 38.22 41.80 44.85 46.64 49.71 51.70 53.18 52.95 53.39
50.32 50.06 48.99 48.56 50.89 50.77 47.72 41.59 33.36 40.20 41.15 47.99 45.68 45.57 42.32 45.77 45.33 45.51 42.10 40.24 43.84 43.87 41.23 38.13 36.00 44.35 46.75 45.41 43.10 43.55 43.23 37.19 29.87 31.76 35.51 38.62 36.64 42.18 47.62 50.05 50.48 51.26 51.72 53.05 53.29
49.40 47.99 46.57 48.60 50.34 49.87 44.11 36.16 37.92 41.23 45.57 45.29 45.65 41.64 41.49 44.49 44.68 44.35 42.46 40.68 42.80 45.10 39.41 38.48 38.65 46.35 47.16 47.59 46.82 41.53 40.09 44.63 38.13 36.80 36.49 39.01 40.80 45.36 48.64 48.98 50.61 50.87 51.92 52.28 53.30
46.31 44.27 44.78 49.92 50.08 45.87 40.20 38.84 41.99 45.93 48.16 47.14 40.52 43.62 38.98 41.94 41.59 41.87 41.50 44.36 42.76 45.77 48.22 42.43 37.05 44.85 46.93 48.42 47.06 45.18 45.64 38.84 40.28 31.91 30.32 35.93 37.49 40.12 45.66 47.09 49.22 50.25 50.94 52.07 53.03
45.11 40.16 47.79 50.83 50.31 44.08 38.33 41.38 44.02 48.45 49.26 45.25 43.05 42.21 42.60 41.81 42.88 41.58 41.33 44.29 46.60 44.74 48.23 46.23 43.17 41.46 44.70 42.49 43.15 42.84 42.08 42.17 42.64 40.25 34.46 33.06 37.61 46.57 47.11 47.95 47.95 48.89 49.95 50.65 51.60
43.00 35.51 50.04 50.52 41.60 43.02 40.93 44.05 45.23 46.69 49.52 46.66 45.73 43.60 43.01 44.45 42.13 42.25 41.65 44.25 48.18 47.12 43.50 44.14 43.66 38.99 40.58 43.56 45.32 44.12 42.99 43.67 39.87 37.04 38.65 38.29 38.92 47.07 48.54 48.99 49.45 49.10 49.55 50.99 52.00
39.17 39.33 48.64 49.22 39.66 40.95 44.59 44.55 46.42 45.77 46.36 43.98 43.44 43.44 45.06 41.97 40.63 42.99 43.39 46.40 48.06 47.19 44.83 45.27 40.41 34.60 35.45 40.82 43.37 41.81 42.78 43.25 43.09 42.34 38.79 36.79 39.64 47.77 48.37 48.87 48.83 48.15 49.05 50.17 50.90
40.83 35.57 44.71 47.38 47.19 43.35 42.40 42.69 42.93 48.26 46.49 46.26 43.09 45.59 41.51 41.09 43.54 40.97 42.29 45.41 47.46 47.74 48.88 47.98 40.21 38.84 36.12 37.31 40.71 38.12 40.19 42.45 42.01 38.32 39.03 39.01 41.78 45.10 47.40 48.19 48.53 47.17 48.54 48.93 49.45
42.05 39.58 43.39 37.45 40.65 38.07 43.74 42.43 41.66 41.94 46.70 45.57 42.33 42.23 40.02 36.89 39.25 38.40 42.63 43.57 44.60 45.53 43.61 46.01 39.46 38.66 38.23 39.42 39.52 39.07 39.20 39.13 38.25 39.46 36.71 38.69 39.49 44.00 45.85 46.16 47.07 47.65 47.51 47.55 47.78
40.09 39.69 42.96 41.29 42.14 39.23 41.00 38.86 40.45 40.81 42.73 40.95 39.11 42.20 41.43 39.10 40.77 37.97 40.14 42.39 42.60 44.18 42.48 42.46 37.28 38.84 35.58 37.70 37.67 35.94 38.35 38.86 38.83 39.05 38.58 39.07 38.72 45.53 46.91 47.07 46.06 46.64 46.80 46.42 46.88
44.90 46.56 43.16 40.44 39.87 36.58 38.24 37.78 39.83 43.02 42.59 43.46 42.28 40.18 39.52 39.27 41.60 41.98 43.56 44.44 45.04 43.62 40.77 40.93 39.05 36.94 32.37 35.27 35.01 31.96 36.49 37.71 38.49 40.00 40.02 36.30 41.12 44.60 44.85 45.22 46.00 46.15 46.60 46.38 46.96

GFSSW_sfc_wetblb_120.txt.gz
Wetbulb
56.53 56.17 56.07 56.05 56.22 56.13 56.28 55.66 55.40 55.12 55.75 55.48 55.26 54.58 54.23 54.87 54.93 53.96 50.28 54.34 55.94 57.50 57.72 57.47 56.77 56.50 56.63 54.03 53.99 55.59 50.38 49.66 50.20 50.91 52.20 55.03 54.94 56.18 56.53 56.02 59.99 64.88 65.30 69.80 75.64
57.11 56.78 56.48 56.59 56.60 56.49 56.24 56.13 55.97 55.41 55.14 55.85 55.44 55.05 54.54 54.16 52.91 50.92 57.30 57.45 57.67 57.51 54.79 54.49 53.79 54.80 52.70 55.55 52.06 53.28 51.43 52.21 54.25 52.64 50.18 52.49 52.29 54.38 54.93 54.99 59.41 62.22 68.90 71.59 74.59
56.74 56.66 56.37 56.75 56.65 56.55 56.22 56.00 55.90 55.91 55.37 55.17 55.13 54.99 54.12 53.85 49.35 49.23 61.83 59.85 57.92 58.81 56.64 54.72 55.67 53.85 53.36 56.15 51.90 51.55 51.41 55.00 54.79 52.52 54.69 53.64 53.02 53.38 53.83 54.87 57.35 59.90 65.78 71.31 73.10
56.01 55.83 55.81 56.02 56.15 56.26 55.86 55.93 55.64 55.94 55.74 55.11 54.63 54.53 53.28 52.65 41.49 53.57 58.02 60.37 59.17 58.03 55.20 53.21 52.17 50.72 51.92 52.94 54.29 51.39 53.79 53.50 50.65 53.73 54.07 52.19 54.17 52.35 52.58 58.30 57.29 56.81 60.23 71.84 71.89
55.87 55.70 55.51 55.23 55.52 55.57 55.44 55.51 55.67 55.26 55.28 55.09 54.82 54.23 52.18 47.95 48.48 52.94 59.87 61.39 58.88 56.20 52.81 51.32 50.51 50.54 51.05 53.76 53.12 51.48 50.89 48.70 51.21 52.25 54.10 55.19 53.46 52.91 52.49 55.32 57.11 57.04 56.75 66.37 71.94
55.83 56.17 55.80 55.36 55.02 55.21 55.61 55.48 55.20 55.02 54.46 55.01 55.18 54.45 50.09 43.56 53.91 55.90 60.34 60.68 56.33 54.84 53.03 51.92 51.30 52.31 51.63 53.22 52.89 52.12 51.73 51.68 51.14 52.35 51.80 52.61 50.85 54.03 54.19 55.77 55.85 56.22 56.44 57.80 66.98
55.85 55.97 55.47 55.27 55.13 54.97 54.88 55.01 54.85 54.40 54.19 55.07 55.50 53.57 48.78 48.86 54.87 55.93 58.80 59.66 56.92 54.98 51.95 52.36 53.38 51.38 53.86 53.46 56.77 54.37 52.12 53.77 51.26 50.80 51.93 53.68 50.56 49.76 54.10 54.75 54.79 55.62 57.05 56.70 57.85
55.54 55.60 54.94 54.88 54.84 54.53 54.45 54.51 54.53 54.53 55.47 56.78 55.96 51.76 46.20 56.11 57.96 56.72 56.56 57.47 58.23 55.78 52.15 53.08 53.59 52.78 52.14 55.87 51.45 51.44 50.44 48.02 51.49 51.78 52.12 50.61 46.14 53.75 55.30 53.54 52.79 54.92 55.99 56.30 57.95
55.22 54.43 54.37 54.12 54.25 54.33 54.55 53.75 54.10 54.70 55.05 55.89 52.87 49.58 47.38 56.46 52.93 56.00 58.53 55.41 56.03 53.24 52.20 52.59 51.77 50.51 50.67 47.34 45.26 47.44 44.96 44.85 45.35 48.97 48.53 47.95 47.15 52.72 55.31 53.29 53.19 54.45 55.81 56.07 57.09
54.39 54.06 53.83 53.58 53.64 53.83 53.87 53.50 54.23 53.80 54.04 54.20 52.22 46.08 50.25 49.10 53.53 55.80 58.35 56.30 51.55 48.96 48.46 48.11 48.13 46.31 46.81 45.84 39.84 42.05 42.65 44.69 41.56 46.68 46.04 45.21 45.45 49.27 53.59 52.55 52.75 53.15 55.88 56.98 56.58
53.39 53.05 53.40 53.48 53.31 53.30 52.53 50.12 49.66 47.14 49.39 48.26 49.57 50.10 50.14 53.33 57.12 54.51 55.64 52.29 50.44 48.27 43.61 46.31 43.05 41.29 44.46 46.44 46.66 45.25 43.54 43.32 45.30 47.27 46.73 45.30 44.70 47.38 51.12 52.56 52.75 53.56 54.88 55.92 56.74
52.99 52.53 52.43 52.69 53.09 53.26 52.09 46.33 49.76 51.15 46.48 51.16 51.23 51.60 53.95 54.56 51.10 52.38 53.68 47.43 46.79 43.65 46.12 43.83 40.91 45.60 46.55 46.64 46.24 45.41 44.02 43.70 46.51 47.60 47.34 46.93 46.36 48.25 50.67 52.28 53.17 53.70 54.58 55.61 56.81
52.38 52.05 51.94 52.26 52.62 51.34 49.32 49.39 55.68 54.15 46.53 49.59 52.32 50.96 51.79 53.25 50.92 49.99 50.93 50.07 45.63 44.01 44.45 42.67 44.29 46.75 45.49 45.17 44.93 45.67 44.37 44.48 43.93 47.42 47.90 46.81 45.59 47.42 50.40 51.72 52.76 53.88 55.36 55.95 56.55
51.99 51.76 51.63 51.62 49.39 50.39 48.20 53.96 55.80 55.02 43.01 46.06 47.91 51.01 53.09 52.91 48.37 53.17 52.61 50.86 46.59 43.61 44.86 44.74 46.79 45.15 44.83 44.82 46.18 42.96 47.16 46.39 45.33 44.67 41.40 47.48 39.36 45.61 49.05 50.04 51.95 53.53 54.40 55.18 57.21
51.57 51.04 50.56 50.57 47.74 45.32 51.29 56.30 53.99 49.52 32.93 47.68 49.16 56.84 54.63 50.04 50.79 50.42 53.26 51.86 45.53 44.82 45.76 44.17 44.65 44.27 44.84 45.62 47.59 45.35 48.57 46.87 46.03 44.94 44.54 44.41 42.01 45.48 48.99 47.25 50.17 52.47 54.14 56.71 58.35
51.81 51.79 50.49 49.25 48.56 49.84 54.11 53.65 49.80 38.81 31.85 45.00 50.32 48.38 48.50 50.40 50.67 51.38 49.91 53.32 52.21 46.42 46.94 46.97 49.65 48.06 47.42 48.55 48.63 48.99 46.87 46.56 46.62 45.41 39.80 43.72 42.76 43.26 46.23 48.01 50.05 52.56 54.53 56.74 58.01
51.34 51.27 49.79 49.72 44.81 52.46 53.96 47.18 36.91 33.50 46.13 44.53 46.35 49.24 48.46 47.56 47.72 47.38 45.60 45.63 44.38 41.83 41.76 45.36 45.64 48.22 49.22 45.99 48.21 47.71 45.41 39.55 37.79 38.33 37.95 45.02 43.06 45.34 49.55 50.15 51.49 52.90 54.61 56.43 57.88
50.69 49.99 50.28 51.00 52.87 52.24 49.87 39.52 33.30 41.27 42.99 49.68 48.57 48.62 45.39 46.78 45.41 44.77 43.48 42.07 46.69 45.99 43.70 40.81 39.02 45.81 48.39 46.63 44.94 45.69 45.64 40.35 34.19 36.54 39.51 44.31 39.76 45.03 50.77 53.15 54.34 55.10 55.98 56.87 57.34
49.00 51.12 49.83 51.70 51.96 49.36 43.35 33.63 38.12 42.73 46.14 45.62 46.66 43.61 44.15 44.85 46.12 43.25 43.15 42.10 44.60 46.93 42.94 41.76 41.34 48.06 48.67 49.08 48.69 45.47 43.59 47.73 42.32 43.39 40.80 42.69 45.20 49.23 52.61 52.38 53.23 54.35 55.53 55.93 57.18
47.59 46.97 48.02 50.66 51.97 46.48 39.55 36.56 41.83 47.26 48.03 48.40 42.49 45.37 41.74 43.51 42.42 42.88 41.34 46.55 44.66 47.09 49.97 46.24 41.24 46.42 47.97 49.64 49.58 48.03 48.88 41.99 43.33 36.02 34.72 40.14 41.34 44.68 48.54 50.59 53.01 53.52 54.31 55.09 56.17
46.80 41.65 51.01 50.75 49.35 41.35 36.93 39.54 43.90 48.75 49.78 45.56 44.28 43.52 44.63 43.53 45.23 42.67 43.03 45.77 46.68 45.80 48.50 47.51 45.69 44.48 48.00 45.55 44.87 45.60 45.30 45.63 45.95 43.76 37.77 36.92 42.03 50.19 50.53 52.42 52.56 53.10 53.73 54.26 55.07
44.96 36.65 51.77 50.32 40.78 41.20 39.32 41.98 44.54 46.80 49.50 47.07 46.66 43.73 44.58 46.07 43.90 44.90 44.57 46.00 48.76 48.14 44.28 47.55 44.78 40.87 43.71 48.06 49.71 48.95 46.16 46.81 41.69 40.37 43.07 42.47 43.04 52.71 53.15 53.61 53.80 52.91 53.43 54.34 55.23
41.34 42.32 49.67 48.25 36.78 39.87 44.88 44.20 46.23 46.20 46.31 44.89 44.19 43.09 46.19 45.89 42.23 45.55 46.12 49.11 50.44 48.81 46.24 48.93 45.41 37.94 38.31 43.88 47.59 46.72 48.01 48.73 47.86 47.89 42.91 40.22 43.15 52.60 53.16 53.26 53.22 52.13 52.72 53.11 54.00
42.10 37.65 44.45 44.90 42.01 34.76 37.01 43.08 42.69 48.64 47.39 45.02 43.71 44.68 42.47 43.11 46.54 44.96 45.51 48.00 49.95 49.02 52.49 50.97 45.95 43.44 38.82 42.16 46.28 43.53 45.93 47.81 47.44 42.76 42.88 43.46 44.58 49.22 51.14 51.90 53.24 52.78 52.65 52.87 53.23
43.60 39.86 41.80 36.44 38.83 38.93 38.05 41.60 43.65 42.43 46.37 44.99 40.92 42.12 37.28 39.00 42.72 44.83 46.92 47.12 49.16 47.55 50.09 49.59 42.99 44.35 44.05 44.86 45.46 45.27 44.81 45.21 44.48 45.70 41.65 43.49 43.90 47.72 50.79 51.59 51.99 51.73 51.41 51.53 51.97
39.66 38.60 41.22 40.16 41.96 37.94 37.43 36.44 42.24 43.05 43.13 38.75 39.07 41.87 39.66 36.65 41.88 42.81 47.02 47.04 45.90 48.45 48.06 49.64 42.70 45.08 41.17 42.41 42.26 41.01 43.37 44.26 43.85 43.48 43.35 43.60 43.28 48.72 50.34 50.51 49.61 50.54 50.31 50.47 51.10
46.15 44.90 40.75 40.14 40.42 37.70 36.40 37.82 40.08 43.88 43.65 43.94 42.80 41.20 39.59 40.66 44.26 45.79 48.85 48.64 47.83 48.14 47.10 46.09 44.58 43.07 38.34 40.80 38.88 37.04 41.49 42.04 43.14 44.18 43.98 40.74 44.93 47.99 47.20 49.03 50.68 50.78 51.06 50.78 51.29

GFSSW_sfc_wetblb_123.txt.gz
Wetbulb
57.66 57.57 57.21 56.98 57.04 57.11 56.99 56.73 56.64 56.67 56.12 55.87 56.10 55.74 55.46 54.99 54.82 54.83 51.42 55.80 58.11 61.04 57.85 56.75 57.56 58.22 58.35 56.39 57.26 57.06 50.93 50.76 53.20 53.61 56.22 60.71 58.75 61.41 60.77 58.73 60.55 63.24 67.27 72.93 75.76
57.22 57.13 57.01 56.89 56.93 57.13 56.86 56.68 56.63 56.56 56.57 56.14 56.01 55.84 55.60 55.08 54.36 52.66 58.39 61.90 61.11 57.65 54.62 53.60 53.96 56.13 55.26 55.03 55.99 53.80 50.24 52.76 56.28 55.82 54.96 58.01 57.46 59.65 57.88 57.56 59.07 61.98 67.70 74.14 75.08
56.51 56.69 56.92 56.34 56.44 56.86 56.66 56.45 56.54 56.59 56.62 56.49 55.79 55.43 55.37 54.96 51.70 52.05 63.14 61.71 61.83 59.67 55.07 55.03 54.74 54.90 53.39 55.22 54.63 53.77 51.24 55.72 56.78 56.74 55.65 55.12 55.80 57.84 56.15 56.83 59.59 60.87 64.98 71.23 73.07
55.91 56.09 56.17 56.12 55.90 55.96 56.01 55.64 56.16 56.38 56.37 56.21 55.79 55.15 55.19 55.11 44.37 55.58 61.27 63.39 61.10 57.81 55.09 53.94 53.30 51.77 51.15 51.28 54.50 52.56 54.88 54.62 56.45 58.40 57.02 54.23 56.11 56.01 56.59 57.75 60.39 60.67 63.33 69.43 71.26
56.22 56.16 56.42 56.01 55.80 55.96 55.78 55.71 55.84 55.67 55.59 55.60 55.66 55.48 53.88 50.44 50.80 57.15 60.72 62.67 59.45 56.54 53.44 52.31 51.40 51.35 49.41 51.59 53.06 53.76 54.39 54.95 57.12 57.69 56.28 55.69 54.84 55.15 54.66 57.22 58.76 59.87 59.81 66.72 70.21
56.09 55.84 56.09 55.64 55.47 55.65 55.75 55.59 55.33 55.33 55.07 55.01 55.66 55.67 51.96 47.02 58.42 57.85 56.33 58.21 59.69 56.26 52.94 52.44 52.26 52.85 51.03 51.14 51.47 55.66 55.38 55.25 56.59 55.24 54.00 52.93 54.45 57.12 56.47 58.17 57.95 58.26 58.91 61.26 69.61
55.62 55.85 55.67 55.65 55.19 55.23 55.33 55.15 54.97 54.80 54.88 54.77 55.69 54.84 51.14 51.49 58.66 56.23 57.75 59.18 58.82 56.19 52.13 52.91 54.29 52.28 51.85 50.12 54.62 55.48 51.03 52.61 53.27 54.23 54.32 56.78 52.18 54.17 58.19 57.26 57.02 57.88 58.61 60.42 62.14
55.30 55.07 55.10 54.69 54.30 54.42 54.76 54.92 54.59 54.46 54.89 55.84 56.91 53.67 47.89 59.32 60.68 58.50 56.98 56.79 60.55 57.25 54.43 54.24 54.89 53.22 51.79 53.08 52.86 50.50 51.00 45.66 50.54 54.25 56.08 54.32 48.73 54.89 59.17 58.31 56.76 56.04 56.68 59.15 60.46
54.79 54.48 53.95 53.57 53.85 54.03 54.20 54.17 54.13 54.78 55.26 56.39 54.63 51.90 49.15 60.00 55.60 57.84 57.26 53.92 58.45 56.46 55.03 55.20 53.98 51.07 51.18 47.73 46.79 49.59 42.85 46.79 48.76 56.07 54.98 53.77 50.81 55.52 57.07 57.21 57.67 56.29 56.41 57.47 59.31
54.31 54.20 53.66 53.05 52.89 53.48 53.70 53.64 54.75 54.05 54.64 55.49 54.01 47.39 51.53 52.60 56.16 55.97 57.76 56.29 56.21 54.52 51.67 50.00 49.44 47.12 47.60 46.32 40.73 44.10 45.66 48.31 47.82 53.60 53.68 50.99 51.35 53.83 55.18 55.97 57.16 57.26 56.34 57.89 58.97
54.12 53.81 53.52 53.17 52.67 52.40 52.25 51.24 50.23 48.22 49.86 48.52 49.49 49.47 53.37 56.91 56.80 54.47 56.12 55.93 55.95 51.86 45.22 47.34 44.44 42.63 45.42 48.44 48.41 49.00 47.02 47.10 49.22 51.70 50.41 48.54 49.58 50.67 53.03 53.53 55.09 55.75 56.01 56.95 58.60
54.42 53.21 52.70 52.63 52.42 52.32 52.22 46.39 49.92 51.80 46.23 51.02 52.69 52.55 54.71 56.43 51.59 53.22 56.40 52.09 50.31 44.83 47.01 44.96 42.26 46.64 47.89 48.55 47.52 47.18 45.43 44.55 47.06 49.27 48.80 47.69 45.97 48.25 50.67 52.26 54.26 54.31 54.74 56.40 57.79
53.30 52.82 51.67 51.69 51.65 50.85 50.60 50.46 55.17 53.80 44.63 49.31 52.63 51.87 52.53 55.25 51.17 51.27 53.62 52.11 48.08 45.59 45.28 43.20 44.90 47.44 46.49 46.02 45.20 45.98 45.38 44.48 44.48 47.80 48.81 47.59 45.13 45.88 49.09 51.58 52.67 54.27 54.95 56.13 56.67
52.59 52.63 52.20 51.48 48.72 50.92 51.08 55.78 55.84 54.31 38.37 45.24 49.92 52.27 53.85 54.12 49.66 55.56 54.16 51.15 48.49 45.64 46.31 45.57 47.67 45.43 45.43 44.72 46.08 43.60 48.03 47.12 45.81 45.34 42.19 48.21 41.02 45.54 48.12 50.00 51.20 52.79 54.43 55.36 56.46
51.48 51.69 51.92 51.72 47.54 46.56 50.85 53.56 55.28 49.11 30.88 48.09 49.75 57.11 54.30 50.59 51.61 52.51 53.30 50.36 46.59 46.35 47.16 44.25 45.72 44.95 44.40 45.13 47.39 45.42 49.12 47.45 47.24 46.02 46.21 45.62 41.98 44.18 48.88 47.80 49.67 52.06 53.89 55.50 57.50
51.29 51.52 51.21 49.29 49.61 49.92 53.73 52.41 49.34 36.79 30.86 44.52 50.38 49.17 48.81 50.20 51.46 52.07 49.56 50.91 51.51 47.41 47.86 47.14 50.02 48.02 46.89 47.90 48.29 49.54 48.17 47.67 47.46 46.10 40.57 44.97 44.25 43.82 46.04 48.74 50.64 52.59 53.55 55.06 57.64
50.96 51.06 50.11 50.30 46.43 53.15 52.28 47.67 35.26 31.30 45.46 42.97 47.27 49.40 48.54 47.06 48.91 48.90 46.41 44.70 44.57 41.45 42.16 45.44 46.75 48.53 48.89 46.96 49.33 48.24 46.67 40.50 38.74 38.91 38.67 46.32 44.19 45.34 50.54 51.13 52.45 52.82 53.99 56.98 58.06
50.15 49.26 49.87 52.40 54.94 54.13 48.27 39.96 28.95 38.95 41.72 47.58 48.35 48.85 45.44 46.79 47.45 47.17 44.54 42.63 47.23 45.57 42.94 40.88 40.52 46.60 49.07 48.02 46.27 47.01 46.50 41.51 34.92 36.30 40.11 45.96 42.18 45.55 52.45 53.47 54.83 55.94 56.78 57.33 57.19
48.62 51.60 51.51 53.71 54.56 53.22 42.77 31.96 32.80 40.69 45.97 44.97 47.53 44.50 44.16 46.26 47.73 45.94 44.92 43.87 46.03 47.72 42.56 41.98 42.83 48.65 49.07 49.90 49.75 46.59 44.04 48.74 44.05 45.38 41.84 43.93 47.41 51.10 52.56 52.98 53.88 54.98 56.58 57.04 58.25
47.62 48.87 51.18 53.96 51.40 47.32 37.97 34.00 39.89 44.73 44.73 47.30 39.27 46.51 43.02 42.58 45.03 45.04 44.43 45.63 45.01 47.93 50.55 46.84 42.22 47.11 48.12 49.59 49.69 48.76 49.53 43.54 44.81 37.87 36.85 41.53 43.62 44.74 49.17 50.59 52.73 54.38 55.78 56.54 57.87
46.97 44.73 52.35 55.64 49.59 41.57 33.76 36.87 41.03 44.45 44.68 45.62 44.41 42.11 45.15 44.42 45.87 44.51 44.19 45.05 46.62 47.01 49.42 48.19 46.27 44.87 48.11 45.82 45.53 46.37 45.83 46.70 47.27 45.32 40.03 38.69 41.83 51.34 51.60 52.79 53.29 54.98 56.22 56.44 56.87
45.24 38.46 51.91 51.53 39.19 38.70 38.34 42.00 43.06 44.24 46.40 46.30 46.92 41.96 43.35 45.92 45.06 43.85 42.58 45.81 48.17 47.78 45.48 49.02 46.88 42.29 44.51 48.87 50.33 49.30 47.81 47.73 43.11 42.02 44.35 44.08 41.67 53.50 54.51 54.92 55.89 55.21 55.53 56.79 57.17
41.95 44.08 51.14 48.40 36.04 35.48 39.26 42.43 45.20 44.10 44.02 43.93 44.59 45.14 45.65 41.98 40.92 45.81 46.82 49.18 49.03 47.79 46.58 49.55 45.48 39.39 43.15 46.31 49.31 47.29 48.16 49.14 48.80 48.48 44.00 41.53 42.91 54.00 54.82 54.84 55.39 54.53 55.41 56.16 56.94
43.48 38.17 45.73 43.10 42.21 35.99 37.43 41.03 43.32 48.47 44.64 46.18 45.22 45.84 42.67 40.42 43.18 45.25 44.66 49.12 50.19 48.47 52.79 51.39 46.09 44.42 39.98 43.34 46.91 45.13 47.23 48.09 47.30 43.61 44.21 44.37 46.02 49.97 51.42 52.23 54.05 54.88 55.52 55.89 56.12
45.33 39.38 41.91 38.21 38.90 40.66 40.28 40.16 39.15 42.57 47.06 45.36 44.33 43.94 41.41 38.82 42.59 43.50 47.16 49.08 48.83 51.33 49.90 49.46 42.34 43.14 44.70 46.27 46.91 44.86 45.75 46.82 46.14 47.32 43.68 44.92 44.92 49.08 52.52 52.65 54.25 54.16 54.38 54.08 54.45
43.14 39.40 40.41 38.89 42.32 40.48 39.07 37.68 36.34 42.98 41.76 39.94 40.51 41.30 39.49 36.13 42.44 42.43 47.41 48.41 47.00 49.81 48.33 50.90 43.75 45.01 41.76 47.59 47.16 44.60 46.75 47.38 47.51 47.66 47.60 46.57 45.21 51.03 52.18 53.44 52.85 52.41 52.58 52.42 53.11
47.74 47.38 40.51 39.49 40.66 36.47 35.11 35.56 39.83 43.90 43.87 44.71 43.99 40.86 36.54 36.79 45.73 48.86 52.22 51.95 51.46 48.39 47.82 47.37 45.89 43.15 38.52 45.03 44.46 41.05 45.54 46.43 47.38 48.36 47.02 43.20 46.81 49.68 48.86 49.36 51.14 52.11 52.46 52.43 53.38